<?xml version="1.0" encoding="UTF-8" standalone="no" ?>
<gpx xmlns="http://www.topografix.com/GPX/1/1" xmlns:xsi="http://www.w3.org/2001/XMLSchema-instance" xsi:schemaLocation="http://www.topografix.com/GPX/1/1 http://www.topografix.com/GPX/1/1/gpx.xsd" version="1.1" creator="VisuGPX - https://www.visugpx.com">
  <metadata>
    <name>Boucle Les Arcs - Vidauban via la forêt</name>
    <desc><![CDATA[Boucle entre Les Arcs et Vidauban, mi-piste mi-route.]]></desc>
  </metadata>
  <trk>
    <name><![CDATA[Les Arcs - Vidauban]]></name>
    <trkseg>
      <trkpt lat="43.4603" lon="6.48132">
        <ele>77</ele>
        <time>2017-05-13T08:09:15Z</time>
      </trkpt>
      <trkpt lat="43.46029" lon="6.4813">
        <ele>77</ele>
        <time>2017-05-13T08:09:17Z</time>
      </trkpt>
      <trkpt lat="43.46028" lon="6.48128">
        <ele>78</ele>
        <time>2017-05-13T08:09:19Z</time>
      </trkpt>
      <trkpt lat="43.46024" lon="6.48126">
        <ele>78</ele>
        <time>2017-05-13T08:09:21Z</time>
      </trkpt>
      <trkpt lat="43.46018" lon="6.48128">
        <ele>78</ele>
        <time>2017-05-13T08:09:23Z</time>
      </trkpt>
      <trkpt lat="43.4601" lon="6.48132">
        <ele>78</ele>
        <time>2017-05-13T08:09:25Z</time>
      </trkpt>
      <trkpt lat="43.46003" lon="6.48138">
        <ele>77</ele>
        <time>2017-05-13T08:09:27Z</time>
      </trkpt>
      <trkpt lat="43.45997" lon="6.48145">
        <ele>77</ele>
        <time>2017-05-13T08:09:29Z</time>
      </trkpt>
      <trkpt lat="43.45989" lon="6.48158">
        <ele>77</ele>
        <time>2017-05-13T08:09:31Z</time>
      </trkpt>
      <trkpt lat="43.45984" lon="6.48163">
        <ele>77</ele>
        <time>2017-05-13T08:09:33Z</time>
      </trkpt>
      <trkpt lat="43.45976" lon="6.48171">
        <ele>75</ele>
        <time>2017-05-13T08:09:35Z</time>
      </trkpt>
      <trkpt lat="43.45968" lon="6.4818">
        <ele>75</ele>
        <time>2017-05-13T08:09:37Z</time>
      </trkpt>
      <trkpt lat="43.45962" lon="6.48187">
        <ele>75</ele>
        <time>2017-05-13T08:09:39Z</time>
      </trkpt>
      <trkpt lat="43.45955" lon="6.48196">
        <ele>75</ele>
        <time>2017-05-13T08:09:41Z</time>
      </trkpt>
      <trkpt lat="43.45949" lon="6.48206">
        <ele>75</ele>
        <time>2017-05-13T08:09:43Z</time>
      </trkpt>
      <trkpt lat="43.4594" lon="6.48222">
        <ele>75</ele>
        <time>2017-05-13T08:09:46Z</time>
      </trkpt>
      <trkpt lat="43.45933" lon="6.48231">
        <ele>75</ele>
        <time>2017-05-13T08:09:48Z</time>
      </trkpt>
      <trkpt lat="43.4593" lon="6.48236">
        <ele>75</ele>
        <time>2017-05-13T08:09:49Z</time>
      </trkpt>
      <trkpt lat="43.45923" lon="6.48246">
        <ele>75</ele>
        <time>2017-05-13T08:09:51Z</time>
      </trkpt>
      <trkpt lat="43.45916" lon="6.48256">
        <ele>74</ele>
        <time>2017-05-13T08:09:53Z</time>
      </trkpt>
      <trkpt lat="43.45911" lon="6.48266">
        <ele>74</ele>
        <time>2017-05-13T08:09:55Z</time>
      </trkpt>
      <trkpt lat="43.45905" lon="6.48276">
        <ele>73</ele>
        <time>2017-05-13T08:09:57Z</time>
      </trkpt>
      <trkpt lat="43.459" lon="6.48287">
        <ele>73</ele>
        <time>2017-05-13T08:09:59Z</time>
      </trkpt>
      <trkpt lat="43.45896" lon="6.4829">
        <ele>73</ele>
        <time>2017-05-13T08:10:00Z</time>
      </trkpt>
      <trkpt lat="43.45886" lon="6.48296">
        <ele>73</ele>
        <time>2017-05-13T08:10:02Z</time>
      </trkpt>
      <trkpt lat="43.45872" lon="6.483">
        <ele>73</ele>
        <time>2017-05-13T08:10:04Z</time>
      </trkpt>
      <trkpt lat="43.45859" lon="6.48297">
        <ele>73</ele>
        <time>2017-05-13T08:10:07Z</time>
      </trkpt>
      <trkpt lat="43.45856" lon="6.48296">
        <ele>73</ele>
        <time>2017-05-13T08:10:08Z</time>
      </trkpt>
      <trkpt lat="43.45847" lon="6.48292">
        <ele>73</ele>
        <time>2017-05-13T08:10:10Z</time>
      </trkpt>
      <trkpt lat="43.45838" lon="6.48289">
        <ele>73</ele>
        <time>2017-05-13T08:10:12Z</time>
      </trkpt>
      <trkpt lat="43.45834" lon="6.48284">
        <ele>73</ele>
        <time>2017-05-13T08:10:14Z</time>
      </trkpt>
      <trkpt lat="43.45824" lon="6.48283">
        <ele>73</ele>
        <time>2017-05-13T08:10:16Z</time>
      </trkpt>
      <trkpt lat="43.45814" lon="6.48283">
        <ele>73</ele>
        <time>2017-05-13T08:10:18Z</time>
      </trkpt>
      <trkpt lat="43.45804" lon="6.48284">
        <ele>72</ele>
        <time>2017-05-13T08:10:20Z</time>
      </trkpt>
      <trkpt lat="43.45795" lon="6.48285">
        <ele>72</ele>
        <time>2017-05-13T08:10:22Z</time>
      </trkpt>
      <trkpt lat="43.4579" lon="6.48288">
        <ele>72</ele>
        <time>2017-05-13T08:10:24Z</time>
      </trkpt>
      <trkpt lat="43.45788" lon="6.4829">
        <ele>72</ele>
        <time>2017-05-13T08:10:26Z</time>
      </trkpt>
      <trkpt lat="43.45789" lon="6.48289">
        <ele>72</ele>
        <time>2017-05-13T08:10:29Z</time>
      </trkpt>
      <trkpt lat="43.45789" lon="6.48289">
        <ele>72</ele>
        <time>2017-05-13T08:10:30Z</time>
      </trkpt>
      <trkpt lat="43.45788" lon="6.4829">
        <ele>72</ele>
        <time>2017-05-13T08:10:32Z</time>
      </trkpt>
      <trkpt lat="43.45788" lon="6.4829">
        <ele>72</ele>
        <time>2017-05-13T08:10:35Z</time>
      </trkpt>
      <trkpt lat="43.45785" lon="6.4829">
        <ele>72</ele>
        <time>2017-05-13T08:10:37Z</time>
      </trkpt>
      <trkpt lat="43.4578" lon="6.48292">
        <ele>72</ele>
        <time>2017-05-13T08:10:38Z</time>
      </trkpt>
      <trkpt lat="43.45769" lon="6.48294">
        <ele>72</ele>
        <time>2017-05-13T08:10:40Z</time>
      </trkpt>
      <trkpt lat="43.45755" lon="6.483">
        <ele>71</ele>
        <time>2017-05-13T08:10:42Z</time>
      </trkpt>
      <trkpt lat="43.45744" lon="6.48304">
        <ele>69</ele>
        <time>2017-05-13T08:10:44Z</time>
      </trkpt>
      <trkpt lat="43.45736" lon="6.48309">
        <ele>69</ele>
        <time>2017-05-13T08:10:46Z</time>
      </trkpt>
      <trkpt lat="43.45732" lon="6.48302">
        <ele>69</ele>
        <time>2017-05-13T08:10:48Z</time>
      </trkpt>
      <trkpt lat="43.4573" lon="6.4829">
        <ele>69</ele>
        <time>2017-05-13T08:10:50Z</time>
      </trkpt>
      <trkpt lat="43.45728" lon="6.48277">
        <ele>69</ele>
        <time>2017-05-13T08:10:52Z</time>
      </trkpt>
      <trkpt lat="43.45727" lon="6.48263">
        <ele>69</ele>
        <time>2017-05-13T08:10:54Z</time>
      </trkpt>
      <trkpt lat="43.45728" lon="6.4825">
        <ele>70</ele>
        <time>2017-05-13T08:10:56Z</time>
      </trkpt>
      <trkpt lat="43.45728" lon="6.48237">
        <ele>70</ele>
        <time>2017-05-13T08:10:58Z</time>
      </trkpt>
      <trkpt lat="43.45728" lon="6.48224">
        <ele>70</ele>
        <time>2017-05-13T08:11:00Z</time>
      </trkpt>
      <trkpt lat="43.45729" lon="6.48211">
        <ele>70</ele>
        <time>2017-05-13T08:11:02Z</time>
      </trkpt>
      <trkpt lat="43.45728" lon="6.48197">
        <ele>70</ele>
        <time>2017-05-13T08:11:04Z</time>
      </trkpt>
      <trkpt lat="43.45727" lon="6.48185">
        <ele>71</ele>
        <time>2017-05-13T08:11:06Z</time>
      </trkpt>
      <trkpt lat="43.45727" lon="6.48172">
        <ele>71</ele>
        <time>2017-05-13T08:11:08Z</time>
      </trkpt>
      <trkpt lat="43.45728" lon="6.48158">
        <ele>72</ele>
        <time>2017-05-13T08:11:10Z</time>
      </trkpt>
      <trkpt lat="43.4573" lon="6.48146">
        <ele>72</ele>
        <time>2017-05-13T08:11:12Z</time>
      </trkpt>
      <trkpt lat="43.45728" lon="6.48133">
        <ele>72</ele>
        <time>2017-05-13T08:11:14Z</time>
      </trkpt>
      <trkpt lat="43.45727" lon="6.48121">
        <ele>72</ele>
        <time>2017-05-13T08:11:16Z</time>
      </trkpt>
      <trkpt lat="43.4573" lon="6.48101">
        <ele>73</ele>
        <time>2017-05-13T08:11:19Z</time>
      </trkpt>
      <trkpt lat="43.45729" lon="6.48094">
        <ele>73</ele>
        <time>2017-05-13T08:11:20Z</time>
      </trkpt>
      <trkpt lat="43.4573" lon="6.4808">
        <ele>73</ele>
        <time>2017-05-13T08:11:22Z</time>
      </trkpt>
      <trkpt lat="43.45731" lon="6.48072">
        <ele>73</ele>
        <time>2017-05-13T08:11:24Z</time>
      </trkpt>
      <trkpt lat="43.45731" lon="6.48067">
        <ele>73</ele>
        <time>2017-05-13T08:11:26Z</time>
      </trkpt>
      <trkpt lat="43.4573" lon="6.48067">
        <ele>73</ele>
        <time>2017-05-13T08:11:28Z</time>
      </trkpt>
      <trkpt lat="43.45731" lon="6.48063">
        <ele>73</ele>
        <time>2017-05-13T08:11:30Z</time>
      </trkpt>
      <trkpt lat="43.45726" lon="6.48058">
        <ele>73</ele>
        <time>2017-05-13T08:11:32Z</time>
      </trkpt>
      <trkpt lat="43.45714" lon="6.48053">
        <ele>73</ele>
        <time>2017-05-13T08:11:34Z</time>
      </trkpt>
      <trkpt lat="43.45703" lon="6.48048">
        <ele>73</ele>
        <time>2017-05-13T08:11:36Z</time>
      </trkpt>
      <trkpt lat="43.45692" lon="6.48044">
        <ele>73</ele>
        <time>2017-05-13T08:11:38Z</time>
      </trkpt>
      <trkpt lat="43.45674" lon="6.48037">
        <ele>72</ele>
        <time>2017-05-13T08:11:41Z</time>
      </trkpt>
      <trkpt lat="43.45667" lon="6.48034">
        <ele>72</ele>
        <time>2017-05-13T08:11:42Z</time>
      </trkpt>
      <trkpt lat="43.45646" lon="6.48026">
        <ele>71</ele>
        <time>2017-05-13T08:11:45Z</time>
      </trkpt>
      <trkpt lat="43.4564" lon="6.48024">
        <ele>71</ele>
        <time>2017-05-13T08:11:46Z</time>
      </trkpt>
      <trkpt lat="43.45624" lon="6.48018">
        <ele>71</ele>
        <time>2017-05-13T08:11:48Z</time>
      </trkpt>
      <trkpt lat="43.45612" lon="6.48012">
        <ele>71</ele>
        <time>2017-05-13T08:11:50Z</time>
      </trkpt>
      <trkpt lat="43.45596" lon="6.48006">
        <ele>70</ele>
        <time>2017-05-13T08:11:52Z</time>
      </trkpt>
      <trkpt lat="43.45586" lon="6.48">
        <ele>70</ele>
        <time>2017-05-13T08:11:54Z</time>
      </trkpt>
      <trkpt lat="43.45573" lon="6.47993">
        <ele>69</ele>
        <time>2017-05-13T08:11:56Z</time>
      </trkpt>
      <trkpt lat="43.45559" lon="6.47988">
        <ele>69</ele>
        <time>2017-05-13T08:11:58Z</time>
      </trkpt>
      <trkpt lat="43.45544" lon="6.47983">
        <ele>69</ele>
        <time>2017-05-13T08:12:00Z</time>
      </trkpt>
      <trkpt lat="43.4553" lon="6.47978">
        <ele>68</ele>
        <time>2017-05-13T08:12:02Z</time>
      </trkpt>
      <trkpt lat="43.45517" lon="6.47972">
        <ele>68</ele>
        <time>2017-05-13T08:12:04Z</time>
      </trkpt>
      <trkpt lat="43.45503" lon="6.47966">
        <ele>68</ele>
        <time>2017-05-13T08:12:06Z</time>
      </trkpt>
      <trkpt lat="43.45483" lon="6.47959">
        <ele>67</ele>
        <time>2017-05-13T08:12:09Z</time>
      </trkpt>
      <trkpt lat="43.45475" lon="6.47957">
        <ele>66</ele>
        <time>2017-05-13T08:12:10Z</time>
      </trkpt>
      <trkpt lat="43.4546" lon="6.4795">
        <ele>66</ele>
        <time>2017-05-13T08:12:12Z</time>
      </trkpt>
      <trkpt lat="43.45444" lon="6.47944">
        <ele>66</ele>
        <time>2017-05-13T08:12:14Z</time>
      </trkpt>
      <trkpt lat="43.45418" lon="6.47933">
        <ele>66</ele>
        <time>2017-05-13T08:12:17Z</time>
      </trkpt>
      <trkpt lat="43.4541" lon="6.47928">
        <ele>64</ele>
        <time>2017-05-13T08:12:18Z</time>
      </trkpt>
      <trkpt lat="43.45384" lon="6.47912">
        <ele>63</ele>
        <time>2017-05-13T08:12:21Z</time>
      </trkpt>
      <trkpt lat="43.45376" lon="6.47907">
        <ele>63</ele>
        <time>2017-05-13T08:12:22Z</time>
      </trkpt>
      <trkpt lat="43.45357" lon="6.47894">
        <ele>63</ele>
        <time>2017-05-13T08:12:24Z</time>
      </trkpt>
      <trkpt lat="43.4534" lon="6.47882">
        <ele>63</ele>
        <time>2017-05-13T08:12:26Z</time>
      </trkpt>
      <trkpt lat="43.45316" lon="6.47864">
        <ele>60</ele>
        <time>2017-05-13T08:12:29Z</time>
      </trkpt>
      <trkpt lat="43.45307" lon="6.47859">
        <ele>60</ele>
        <time>2017-05-13T08:12:30Z</time>
      </trkpt>
      <trkpt lat="43.4529" lon="6.47846">
        <ele>59</ele>
        <time>2017-05-13T08:12:32Z</time>
      </trkpt>
      <trkpt lat="43.45266" lon="6.47831">
        <ele>60</ele>
        <time>2017-05-13T08:12:35Z</time>
      </trkpt>
      <trkpt lat="43.45258" lon="6.47825">
        <ele>59</ele>
        <time>2017-05-13T08:12:36Z</time>
      </trkpt>
      <trkpt lat="43.45243" lon="6.47813">
        <ele>58</ele>
        <time>2017-05-13T08:12:38Z</time>
      </trkpt>
      <trkpt lat="43.45228" lon="6.47801">
        <ele>58</ele>
        <time>2017-05-13T08:12:40Z</time>
      </trkpt>
      <trkpt lat="43.45213" lon="6.47788">
        <ele>58</ele>
        <time>2017-05-13T08:12:42Z</time>
      </trkpt>
      <trkpt lat="43.45197" lon="6.47778">
        <ele>58</ele>
        <time>2017-05-13T08:12:44Z</time>
      </trkpt>
      <trkpt lat="43.45181" lon="6.47768">
        <ele>57</ele>
        <time>2017-05-13T08:12:46Z</time>
      </trkpt>
      <trkpt lat="43.45168" lon="6.47753">
        <ele>57</ele>
        <time>2017-05-13T08:12:48Z</time>
      </trkpt>
      <trkpt lat="43.45153" lon="6.4774">
        <ele>56</ele>
        <time>2017-05-13T08:12:50Z</time>
      </trkpt>
      <trkpt lat="43.45138" lon="6.47727">
        <ele>55</ele>
        <time>2017-05-13T08:12:52Z</time>
      </trkpt>
      <trkpt lat="43.45123" lon="6.47716">
        <ele>55</ele>
        <time>2017-05-13T08:12:54Z</time>
      </trkpt>
      <trkpt lat="43.45108" lon="6.47708">
        <ele>55</ele>
        <time>2017-05-13T08:12:56Z</time>
      </trkpt>
      <trkpt lat="43.45093" lon="6.47699">
        <ele>54</ele>
        <time>2017-05-13T08:12:58Z</time>
      </trkpt>
      <trkpt lat="43.45077" lon="6.47687">
        <ele>52</ele>
        <time>2017-05-13T08:13:00Z</time>
      </trkpt>
      <trkpt lat="43.45061" lon="6.47675">
        <ele>52</ele>
        <time>2017-05-13T08:13:02Z</time>
      </trkpt>
      <trkpt lat="43.45045" lon="6.47663">
        <ele>52</ele>
        <time>2017-05-13T08:13:04Z</time>
      </trkpt>
      <trkpt lat="43.45028" lon="6.47651">
        <ele>51</ele>
        <time>2017-05-13T08:13:06Z</time>
      </trkpt>
      <trkpt lat="43.45013" lon="6.4764">
        <ele>51</ele>
        <time>2017-05-13T08:13:08Z</time>
      </trkpt>
      <trkpt lat="43.44999" lon="6.47628">
        <ele>50</ele>
        <time>2017-05-13T08:13:10Z</time>
      </trkpt>
      <trkpt lat="43.44983" lon="6.47619">
        <ele>50</ele>
        <time>2017-05-13T08:13:12Z</time>
      </trkpt>
      <trkpt lat="43.44967" lon="6.47609">
        <ele>50</ele>
        <time>2017-05-13T08:13:14Z</time>
      </trkpt>
      <trkpt lat="43.44951" lon="6.47598">
        <ele>49</ele>
        <time>2017-05-13T08:13:16Z</time>
      </trkpt>
      <trkpt lat="43.44937" lon="6.47588">
        <ele>49</ele>
        <time>2017-05-13T08:13:18Z</time>
      </trkpt>
      <trkpt lat="43.44923" lon="6.47577">
        <ele>48</ele>
        <time>2017-05-13T08:13:20Z</time>
      </trkpt>
      <trkpt lat="43.44908" lon="6.47567">
        <ele>48</ele>
        <time>2017-05-13T08:13:22Z</time>
      </trkpt>
      <trkpt lat="43.44897" lon="6.47558">
        <ele>47</ele>
        <time>2017-05-13T08:13:24Z</time>
      </trkpt>
      <trkpt lat="43.44888" lon="6.47548">
        <ele>47</ele>
        <time>2017-05-13T08:13:26Z</time>
      </trkpt>
      <trkpt lat="43.44881" lon="6.47531">
        <ele>47</ele>
        <time>2017-05-13T08:13:28Z</time>
      </trkpt>
      <trkpt lat="43.44869" lon="6.47524">
        <ele>47</ele>
        <time>2017-05-13T08:13:30Z</time>
      </trkpt>
      <trkpt lat="43.44858" lon="6.47528">
        <ele>47</ele>
        <time>2017-05-13T08:13:32Z</time>
      </trkpt>
      <trkpt lat="43.44848" lon="6.47535">
        <ele>47</ele>
        <time>2017-05-13T08:13:34Z</time>
      </trkpt>
      <trkpt lat="43.44837" lon="6.47529">
        <ele>47</ele>
        <time>2017-05-13T08:13:36Z</time>
      </trkpt>
      <trkpt lat="43.44825" lon="6.47518">
        <ele>47</ele>
        <time>2017-05-13T08:13:38Z</time>
      </trkpt>
      <trkpt lat="43.44815" lon="6.47507">
        <ele>47</ele>
        <time>2017-05-13T08:13:40Z</time>
      </trkpt>
      <trkpt lat="43.44805" lon="6.47494">
        <ele>46</ele>
        <time>2017-05-13T08:13:42Z</time>
      </trkpt>
      <trkpt lat="43.44792" lon="6.47485">
        <ele>46</ele>
        <time>2017-05-13T08:13:44Z</time>
      </trkpt>
      <trkpt lat="43.44783" lon="6.47478">
        <ele>46</ele>
        <time>2017-05-13T08:13:46Z</time>
      </trkpt>
      <trkpt lat="43.44773" lon="6.47469">
        <ele>46</ele>
        <time>2017-05-13T08:13:48Z</time>
      </trkpt>
      <trkpt lat="43.44763" lon="6.47458">
        <ele>46</ele>
        <time>2017-05-13T08:13:50Z</time>
      </trkpt>
      <trkpt lat="43.4475" lon="6.47456">
        <ele>46</ele>
        <time>2017-05-13T08:13:52Z</time>
      </trkpt>
      <trkpt lat="43.44737" lon="6.47464">
        <ele>46</ele>
        <time>2017-05-13T08:13:54Z</time>
      </trkpt>
      <trkpt lat="43.44724" lon="6.47474">
        <ele>46</ele>
        <time>2017-05-13T08:13:56Z</time>
      </trkpt>
      <trkpt lat="43.4471" lon="6.47472">
        <ele>46</ele>
        <time>2017-05-13T08:13:58Z</time>
      </trkpt>
      <trkpt lat="43.44697" lon="6.47453">
        <ele>46</ele>
        <time>2017-05-13T08:14:01Z</time>
      </trkpt>
      <trkpt lat="43.44695" lon="6.47445">
        <ele>46</ele>
        <time>2017-05-13T08:14:02Z</time>
      </trkpt>
      <trkpt lat="43.44687" lon="6.4743">
        <ele>47</ele>
        <time>2017-05-13T08:14:04Z</time>
      </trkpt>
      <trkpt lat="43.4468" lon="6.47415">
        <ele>47</ele>
        <time>2017-05-13T08:14:06Z</time>
      </trkpt>
      <trkpt lat="43.44675" lon="6.47399">
        <ele>47</ele>
        <time>2017-05-13T08:14:08Z</time>
      </trkpt>
      <trkpt lat="43.44673" lon="6.47383">
        <ele>47</ele>
        <time>2017-05-13T08:14:10Z</time>
      </trkpt>
      <trkpt lat="43.44673" lon="6.47367">
        <ele>46</ele>
        <time>2017-05-13T08:14:12Z</time>
      </trkpt>
      <trkpt lat="43.44675" lon="6.47352">
        <ele>46</ele>
        <time>2017-05-13T08:14:14Z</time>
      </trkpt>
      <trkpt lat="43.44676" lon="6.47339">
        <ele>46</ele>
        <time>2017-05-13T08:14:16Z</time>
      </trkpt>
      <trkpt lat="43.44682" lon="6.47329">
        <ele>45</ele>
        <time>2017-05-13T08:14:18Z</time>
      </trkpt>
      <trkpt lat="43.44688" lon="6.47332">
        <ele>45</ele>
        <time>2017-05-13T08:14:20Z</time>
      </trkpt>
      <trkpt lat="43.44693" lon="6.47335">
        <ele>46</ele>
        <time>2017-05-13T08:14:22Z</time>
      </trkpt>
      <trkpt lat="43.44697" lon="6.47329">
        <ele>45</ele>
        <time>2017-05-13T08:14:25Z</time>
      </trkpt>
      <trkpt lat="43.44697" lon="6.47325">
        <ele>45</ele>
        <time>2017-05-13T08:14:26Z</time>
      </trkpt>
      <trkpt lat="43.44697" lon="6.47315">
        <ele>44</ele>
        <time>2017-05-13T08:14:28Z</time>
      </trkpt>
      <trkpt lat="43.44693" lon="6.47299">
        <ele>44</ele>
        <time>2017-05-13T08:14:31Z</time>
      </trkpt>
      <trkpt lat="43.44691" lon="6.47294">
        <ele>44</ele>
        <time>2017-05-13T08:14:32Z</time>
      </trkpt>
      <trkpt lat="43.44684" lon="6.47284">
        <ele>44</ele>
        <time>2017-05-13T08:14:34Z</time>
      </trkpt>
      <trkpt lat="43.44679" lon="6.47274">
        <ele>44</ele>
        <time>2017-05-13T08:14:36Z</time>
      </trkpt>
      <trkpt lat="43.44676" lon="6.47261">
        <ele>43</ele>
        <time>2017-05-13T08:14:38Z</time>
      </trkpt>
      <trkpt lat="43.44671" lon="6.4725">
        <ele>43</ele>
        <time>2017-05-13T08:14:40Z</time>
      </trkpt>
      <trkpt lat="43.44664" lon="6.47239">
        <ele>43</ele>
        <time>2017-05-13T08:14:42Z</time>
      </trkpt>
      <trkpt lat="43.4466" lon="6.4723">
        <ele>43</ele>
        <time>2017-05-13T08:14:44Z</time>
      </trkpt>
      <trkpt lat="43.44657" lon="6.47217">
        <ele>43</ele>
        <time>2017-05-13T08:14:46Z</time>
      </trkpt>
      <trkpt lat="43.44652" lon="6.47201">
        <ele>43</ele>
        <time>2017-05-13T08:14:49Z</time>
      </trkpt>
      <trkpt lat="43.44649" lon="6.47195">
        <ele>43</ele>
        <time>2017-05-13T08:14:50Z</time>
      </trkpt>
      <trkpt lat="43.44643" lon="6.47184">
        <ele>43</ele>
        <time>2017-05-13T08:14:52Z</time>
      </trkpt>
      <trkpt lat="43.44639" lon="6.47173">
        <ele>43</ele>
        <time>2017-05-13T08:14:54Z</time>
      </trkpt>
      <trkpt lat="43.44633" lon="6.47163">
        <ele>44</ele>
        <time>2017-05-13T08:14:56Z</time>
      </trkpt>
      <trkpt lat="43.44626" lon="6.47153">
        <ele>44</ele>
        <time>2017-05-13T08:14:58Z</time>
      </trkpt>
      <trkpt lat="43.44619" lon="6.47141">
        <ele>44</ele>
        <time>2017-05-13T08:15:00Z</time>
      </trkpt>
      <trkpt lat="43.4461" lon="6.47127">
        <ele>44</ele>
        <time>2017-05-13T08:15:02Z</time>
      </trkpt>
      <trkpt lat="43.44601" lon="6.47115">
        <ele>45</ele>
        <time>2017-05-13T08:15:04Z</time>
      </trkpt>
      <trkpt lat="43.44591" lon="6.47103">
        <ele>45</ele>
        <time>2017-05-13T08:15:06Z</time>
      </trkpt>
      <trkpt lat="43.44575" lon="6.47085">
        <ele>45</ele>
        <time>2017-05-13T08:15:09Z</time>
      </trkpt>
      <trkpt lat="43.44571" lon="6.47079">
        <ele>46</ele>
        <time>2017-05-13T08:15:10Z</time>
      </trkpt>
      <trkpt lat="43.4456" lon="6.47068">
        <ele>45</ele>
        <time>2017-05-13T08:15:12Z</time>
      </trkpt>
      <trkpt lat="43.4455" lon="6.47056">
        <ele>45</ele>
        <time>2017-05-13T08:15:14Z</time>
      </trkpt>
      <trkpt lat="43.44539" lon="6.47045">
        <ele>45</ele>
        <time>2017-05-13T08:15:16Z</time>
      </trkpt>
      <trkpt lat="43.44529" lon="6.47037">
        <ele>45</ele>
        <time>2017-05-13T08:15:18Z</time>
      </trkpt>
      <trkpt lat="43.44518" lon="6.47027">
        <ele>45</ele>
        <time>2017-05-13T08:15:20Z</time>
      </trkpt>
      <trkpt lat="43.44508" lon="6.47017">
        <ele>45</ele>
        <time>2017-05-13T08:15:22Z</time>
      </trkpt>
      <trkpt lat="43.44498" lon="6.47008">
        <ele>45</ele>
        <time>2017-05-13T08:15:24Z</time>
      </trkpt>
      <trkpt lat="43.44489" lon="6.46998">
        <ele>45</ele>
        <time>2017-05-13T08:15:26Z</time>
      </trkpt>
      <trkpt lat="43.4448" lon="6.4699">
        <ele>45</ele>
        <time>2017-05-13T08:15:28Z</time>
      </trkpt>
      <trkpt lat="43.44473" lon="6.46996">
        <ele>45</ele>
        <time>2017-05-13T08:15:30Z</time>
      </trkpt>
      <trkpt lat="43.44469" lon="6.4701">
        <ele>44</ele>
        <time>2017-05-13T08:15:32Z</time>
      </trkpt>
      <trkpt lat="43.44468" lon="6.47023">
        <ele>44</ele>
        <time>2017-05-13T08:15:34Z</time>
      </trkpt>
      <trkpt lat="43.44468" lon="6.47035">
        <ele>44</ele>
        <time>2017-05-13T08:15:36Z</time>
      </trkpt>
      <trkpt lat="43.44466" lon="6.47051">
        <ele>44</ele>
        <time>2017-05-13T08:15:38Z</time>
      </trkpt>
      <trkpt lat="43.44463" lon="6.47066">
        <ele>44</ele>
        <time>2017-05-13T08:15:40Z</time>
      </trkpt>
      <trkpt lat="43.44461" lon="6.47082">
        <ele>44</ele>
        <time>2017-05-13T08:15:42Z</time>
      </trkpt>
      <trkpt lat="43.4446" lon="6.47098">
        <ele>43</ele>
        <time>2017-05-13T08:15:44Z</time>
      </trkpt>
      <trkpt lat="43.44459" lon="6.47113">
        <ele>43</ele>
        <time>2017-05-13T08:15:46Z</time>
      </trkpt>
      <trkpt lat="43.44457" lon="6.47128">
        <ele>43</ele>
        <time>2017-05-13T08:15:48Z</time>
      </trkpt>
      <trkpt lat="43.44454" lon="6.47144">
        <ele>43</ele>
        <time>2017-05-13T08:15:50Z</time>
      </trkpt>
      <trkpt lat="43.44452" lon="6.47159">
        <ele>43</ele>
        <time>2017-05-13T08:15:52Z</time>
      </trkpt>
      <trkpt lat="43.44451" lon="6.47173">
        <ele>42</ele>
        <time>2017-05-13T08:15:54Z</time>
      </trkpt>
      <trkpt lat="43.44449" lon="6.47188">
        <ele>42</ele>
        <time>2017-05-13T08:15:56Z</time>
      </trkpt>
      <trkpt lat="43.44446" lon="6.47204">
        <ele>42</ele>
        <time>2017-05-13T08:15:58Z</time>
      </trkpt>
      <trkpt lat="43.44444" lon="6.47227">
        <ele>42</ele>
        <time>2017-05-13T08:16:01Z</time>
      </trkpt>
      <trkpt lat="43.44443" lon="6.47235">
        <ele>42</ele>
        <time>2017-05-13T08:16:02Z</time>
      </trkpt>
      <trkpt lat="43.44441" lon="6.47251">
        <ele>41</ele>
        <time>2017-05-13T08:16:04Z</time>
      </trkpt>
      <trkpt lat="43.44438" lon="6.47273">
        <ele>41</ele>
        <time>2017-05-13T08:16:07Z</time>
      </trkpt>
      <trkpt lat="43.44437" lon="6.47279">
        <ele>41</ele>
        <time>2017-05-13T08:16:08Z</time>
      </trkpt>
      <trkpt lat="43.44436" lon="6.47294">
        <ele>41</ele>
        <time>2017-05-13T08:16:10Z</time>
      </trkpt>
      <trkpt lat="43.44434" lon="6.4731">
        <ele>41</ele>
        <time>2017-05-13T08:16:12Z</time>
      </trkpt>
      <trkpt lat="43.44431" lon="6.47327">
        <ele>41</ele>
        <time>2017-05-13T08:16:14Z</time>
      </trkpt>
      <trkpt lat="43.44429" lon="6.47344">
        <ele>42</ele>
        <time>2017-05-13T08:16:16Z</time>
      </trkpt>
      <trkpt lat="43.44427" lon="6.47361">
        <ele>42</ele>
        <time>2017-05-13T08:16:18Z</time>
      </trkpt>
      <trkpt lat="43.44426" lon="6.47378">
        <ele>42</ele>
        <time>2017-05-13T08:16:20Z</time>
      </trkpt>
      <trkpt lat="43.44424" lon="6.47395">
        <ele>42</ele>
        <time>2017-05-13T08:16:22Z</time>
      </trkpt>
      <trkpt lat="43.4442" lon="6.47406">
        <ele>43</ele>
        <time>2017-05-13T08:16:24Z</time>
      </trkpt>
      <trkpt lat="43.44418" lon="6.4742">
        <ele>43</ele>
        <time>2017-05-13T08:16:26Z</time>
      </trkpt>
      <trkpt lat="43.44418" lon="6.47434">
        <ele>43</ele>
        <time>2017-05-13T08:16:28Z</time>
      </trkpt>
      <trkpt lat="43.44417" lon="6.47448">
        <ele>43</ele>
        <time>2017-05-13T08:16:30Z</time>
      </trkpt>
      <trkpt lat="43.44415" lon="6.47462">
        <ele>43</ele>
        <time>2017-05-13T08:16:32Z</time>
      </trkpt>
      <trkpt lat="43.44413" lon="6.47476">
        <ele>43</ele>
        <time>2017-05-13T08:16:34Z</time>
      </trkpt>
      <trkpt lat="43.44407" lon="6.4749">
        <ele>43</ele>
        <time>2017-05-13T08:16:36Z</time>
      </trkpt>
      <trkpt lat="43.44401" lon="6.47502">
        <ele>43</ele>
        <time>2017-05-13T08:16:38Z</time>
      </trkpt>
      <trkpt lat="43.44394" lon="6.47514">
        <ele>42</ele>
        <time>2017-05-13T08:16:40Z</time>
      </trkpt>
      <trkpt lat="43.44389" lon="6.47528">
        <ele>42</ele>
        <time>2017-05-13T08:16:42Z</time>
      </trkpt>
      <trkpt lat="43.44382" lon="6.4754">
        <ele>42</ele>
        <time>2017-05-13T08:16:44Z</time>
      </trkpt>
      <trkpt lat="43.44375" lon="6.47552">
        <ele>42</ele>
        <time>2017-05-13T08:16:46Z</time>
      </trkpt>
      <trkpt lat="43.44368" lon="6.47564">
        <ele>42</ele>
        <time>2017-05-13T08:16:48Z</time>
      </trkpt>
      <trkpt lat="43.44361" lon="6.47576">
        <ele>42</ele>
        <time>2017-05-13T08:16:50Z</time>
      </trkpt>
      <trkpt lat="43.44353" lon="6.47587">
        <ele>42</ele>
        <time>2017-05-13T08:16:52Z</time>
      </trkpt>
      <trkpt lat="43.44347" lon="6.47597">
        <ele>42</ele>
        <time>2017-05-13T08:16:54Z</time>
      </trkpt>
      <trkpt lat="43.4434" lon="6.47608">
        <ele>42</ele>
        <time>2017-05-13T08:16:56Z</time>
      </trkpt>
      <trkpt lat="43.44332" lon="6.47618">
        <ele>42</ele>
        <time>2017-05-13T08:16:58Z</time>
      </trkpt>
      <trkpt lat="43.44323" lon="6.47627">
        <ele>42</ele>
        <time>2017-05-13T08:17:00Z</time>
      </trkpt>
      <trkpt lat="43.44313" lon="6.47636">
        <ele>42</ele>
        <time>2017-05-13T08:17:02Z</time>
      </trkpt>
      <trkpt lat="43.44304" lon="6.47644">
        <ele>42</ele>
        <time>2017-05-13T08:17:04Z</time>
      </trkpt>
      <trkpt lat="43.44294" lon="6.47653">
        <ele>42</ele>
        <time>2017-05-13T08:17:06Z</time>
      </trkpt>
      <trkpt lat="43.44285" lon="6.47664">
        <ele>42</ele>
        <time>2017-05-13T08:17:08Z</time>
      </trkpt>
      <trkpt lat="43.44277" lon="6.47674">
        <ele>42</ele>
        <time>2017-05-13T08:17:10Z</time>
      </trkpt>
      <trkpt lat="43.44269" lon="6.47684">
        <ele>42</ele>
        <time>2017-05-13T08:17:12Z</time>
      </trkpt>
      <trkpt lat="43.44262" lon="6.47695">
        <ele>42</ele>
        <time>2017-05-13T08:17:14Z</time>
      </trkpt>
      <trkpt lat="43.44253" lon="6.47705">
        <ele>42</ele>
        <time>2017-05-13T08:17:16Z</time>
      </trkpt>
      <trkpt lat="43.44246" lon="6.47717">
        <ele>42</ele>
        <time>2017-05-13T08:17:18Z</time>
      </trkpt>
      <trkpt lat="43.44237" lon="6.47728">
        <ele>42</ele>
        <time>2017-05-13T08:17:20Z</time>
      </trkpt>
      <trkpt lat="43.44229" lon="6.47741">
        <ele>43</ele>
        <time>2017-05-13T08:17:22Z</time>
      </trkpt>
      <trkpt lat="43.44222" lon="6.47752">
        <ele>42</ele>
        <time>2017-05-13T08:17:24Z</time>
      </trkpt>
      <trkpt lat="43.4421" lon="6.47767">
        <ele>42</ele>
        <time>2017-05-13T08:17:27Z</time>
      </trkpt>
      <trkpt lat="43.44206" lon="6.47773">
        <ele>42</ele>
        <time>2017-05-13T08:17:28Z</time>
      </trkpt>
      <trkpt lat="43.44197" lon="6.47784">
        <ele>42</ele>
        <time>2017-05-13T08:17:30Z</time>
      </trkpt>
      <trkpt lat="43.44189" lon="6.47795">
        <ele>42</ele>
        <time>2017-05-13T08:17:32Z</time>
      </trkpt>
      <trkpt lat="43.44181" lon="6.47806">
        <ele>42</ele>
        <time>2017-05-13T08:17:34Z</time>
      </trkpt>
      <trkpt lat="43.44168" lon="6.47825">
        <ele>41</ele>
        <time>2017-05-13T08:17:37Z</time>
      </trkpt>
      <trkpt lat="43.44157" lon="6.47839">
        <ele>41</ele>
        <time>2017-05-13T08:17:39Z</time>
      </trkpt>
      <trkpt lat="43.44152" lon="6.47846">
        <ele>41</ele>
        <time>2017-05-13T08:17:40Z</time>
      </trkpt>
      <trkpt lat="43.44141" lon="6.47859">
        <ele>42</ele>
        <time>2017-05-13T08:17:42Z</time>
      </trkpt>
      <trkpt lat="43.44131" lon="6.47873">
        <ele>42</ele>
        <time>2017-05-13T08:17:44Z</time>
      </trkpt>
      <trkpt lat="43.44123" lon="6.47888">
        <ele>42</ele>
        <time>2017-05-13T08:17:46Z</time>
      </trkpt>
      <trkpt lat="43.44106" lon="6.479">
        <ele>42</ele>
        <time>2017-05-13T08:17:49Z</time>
      </trkpt>
      <trkpt lat="43.44095" lon="6.47914">
        <ele>42</ele>
        <time>2017-05-13T08:17:51Z</time>
      </trkpt>
      <trkpt lat="43.44089" lon="6.47921">
        <ele>42</ele>
        <time>2017-05-13T08:17:52Z</time>
      </trkpt>
      <trkpt lat="43.44077" lon="6.47932">
        <ele>42</ele>
        <time>2017-05-13T08:17:54Z</time>
      </trkpt>
      <trkpt lat="43.44068" lon="6.47944">
        <ele>42</ele>
        <time>2017-05-13T08:17:56Z</time>
      </trkpt>
      <trkpt lat="43.44058" lon="6.4796">
        <ele>42</ele>
        <time>2017-05-13T08:17:58Z</time>
      </trkpt>
      <trkpt lat="43.44048" lon="6.47971">
        <ele>42</ele>
        <time>2017-05-13T08:18:00Z</time>
      </trkpt>
      <trkpt lat="43.44039" lon="6.47983">
        <ele>42</ele>
        <time>2017-05-13T08:18:02Z</time>
      </trkpt>
      <trkpt lat="43.44029" lon="6.47993">
        <ele>42</ele>
        <time>2017-05-13T08:18:04Z</time>
      </trkpt>
      <trkpt lat="43.44019" lon="6.48003">
        <ele>42</ele>
        <time>2017-05-13T08:18:06Z</time>
      </trkpt>
      <trkpt lat="43.44008" lon="6.4801">
        <ele>42</ele>
        <time>2017-05-13T08:18:08Z</time>
      </trkpt>
      <trkpt lat="43.43999" lon="6.48016">
        <ele>42</ele>
        <time>2017-05-13T08:18:10Z</time>
      </trkpt>
      <trkpt lat="43.43995" lon="6.48026">
        <ele>42</ele>
        <time>2017-05-13T08:18:12Z</time>
      </trkpt>
      <trkpt lat="43.43994" lon="6.48039">
        <ele>42</ele>
        <time>2017-05-13T08:18:14Z</time>
      </trkpt>
      <trkpt lat="43.43994" lon="6.48051">
        <ele>42</ele>
        <time>2017-05-13T08:18:16Z</time>
      </trkpt>
      <trkpt lat="43.43993" lon="6.48065">
        <ele>42</ele>
        <time>2017-05-13T08:18:18Z</time>
      </trkpt>
      <trkpt lat="43.43991" lon="6.48078">
        <ele>42</ele>
        <time>2017-05-13T08:18:20Z</time>
      </trkpt>
      <trkpt lat="43.43988" lon="6.48089">
        <ele>42</ele>
        <time>2017-05-13T08:18:22Z</time>
      </trkpt>
      <trkpt lat="43.43985" lon="6.48103">
        <ele>42</ele>
        <time>2017-05-13T08:18:24Z</time>
      </trkpt>
      <trkpt lat="43.4398" lon="6.48109">
        <ele>41</ele>
        <time>2017-05-13T08:18:26Z</time>
      </trkpt>
      <trkpt lat="43.43971" lon="6.48119">
        <ele>41</ele>
        <time>2017-05-13T08:18:28Z</time>
      </trkpt>
      <trkpt lat="43.43966" lon="6.48129">
        <ele>41</ele>
        <time>2017-05-13T08:18:30Z</time>
      </trkpt>
      <trkpt lat="43.4396" lon="6.4814">
        <ele>41</ele>
        <time>2017-05-13T08:18:32Z</time>
      </trkpt>
      <trkpt lat="43.43957" lon="6.48152">
        <ele>41</ele>
        <time>2017-05-13T08:18:34Z</time>
      </trkpt>
      <trkpt lat="43.43956" lon="6.48161">
        <ele>41</ele>
        <time>2017-05-13T08:18:36Z</time>
      </trkpt>
      <trkpt lat="43.43954" lon="6.48182">
        <ele>40</ele>
        <time>2017-05-13T08:18:39Z</time>
      </trkpt>
      <trkpt lat="43.43954" lon="6.48188">
        <ele>40</ele>
        <time>2017-05-13T08:18:40Z</time>
      </trkpt>
      <trkpt lat="43.43954" lon="6.48201">
        <ele>40</ele>
        <time>2017-05-13T08:18:42Z</time>
      </trkpt>
      <trkpt lat="43.43951" lon="6.48213">
        <ele>40</ele>
        <time>2017-05-13T08:18:44Z</time>
      </trkpt>
      <trkpt lat="43.43949" lon="6.48226">
        <ele>40</ele>
        <time>2017-05-13T08:18:46Z</time>
      </trkpt>
      <trkpt lat="43.43944" lon="6.48238">
        <ele>40</ele>
        <time>2017-05-13T08:18:48Z</time>
      </trkpt>
      <trkpt lat="43.43935" lon="6.48241">
        <ele>40</ele>
        <time>2017-05-13T08:18:50Z</time>
      </trkpt>
      <trkpt lat="43.43925" lon="6.48242">
        <ele>40</ele>
        <time>2017-05-13T08:18:52Z</time>
      </trkpt>
      <trkpt lat="43.43916" lon="6.48242">
        <ele>40</ele>
        <time>2017-05-13T08:18:54Z</time>
      </trkpt>
      <trkpt lat="43.43907" lon="6.48242">
        <ele>41</ele>
        <time>2017-05-13T08:18:56Z</time>
      </trkpt>
      <trkpt lat="43.43899" lon="6.48245">
        <ele>41</ele>
        <time>2017-05-13T08:18:58Z</time>
      </trkpt>
      <trkpt lat="43.43896" lon="6.48256">
        <ele>41</ele>
        <time>2017-05-13T08:19:00Z</time>
      </trkpt>
      <trkpt lat="43.43896" lon="6.4827">
        <ele>41</ele>
        <time>2017-05-13T08:19:02Z</time>
      </trkpt>
      <trkpt lat="43.43894" lon="6.48284">
        <ele>41</ele>
        <time>2017-05-13T08:19:04Z</time>
      </trkpt>
      <trkpt lat="43.43893" lon="6.48296">
        <ele>41</ele>
        <time>2017-05-13T08:19:06Z</time>
      </trkpt>
      <trkpt lat="43.43893" lon="6.48309">
        <ele>41</ele>
        <time>2017-05-13T08:19:08Z</time>
      </trkpt>
      <trkpt lat="43.43894" lon="6.48324">
        <ele>41</ele>
        <time>2017-05-13T08:19:10Z</time>
      </trkpt>
      <trkpt lat="43.43892" lon="6.48339">
        <ele>41</ele>
        <time>2017-05-13T08:19:12Z</time>
      </trkpt>
      <trkpt lat="43.43891" lon="6.48354">
        <ele>41</ele>
        <time>2017-05-13T08:19:14Z</time>
      </trkpt>
      <trkpt lat="43.43889" lon="6.48369">
        <ele>41</ele>
        <time>2017-05-13T08:19:16Z</time>
      </trkpt>
      <trkpt lat="43.43887" lon="6.48385">
        <ele>41</ele>
        <time>2017-05-13T08:19:18Z</time>
      </trkpt>
      <trkpt lat="43.43887" lon="6.484">
        <ele>41</ele>
        <time>2017-05-13T08:19:20Z</time>
      </trkpt>
      <trkpt lat="43.43885" lon="6.48415">
        <ele>41</ele>
        <time>2017-05-13T08:19:22Z</time>
      </trkpt>
      <trkpt lat="43.43883" lon="6.4843">
        <ele>41</ele>
        <time>2017-05-13T08:19:24Z</time>
      </trkpt>
      <trkpt lat="43.43882" lon="6.48446">
        <ele>41</ele>
        <time>2017-05-13T08:19:26Z</time>
      </trkpt>
      <trkpt lat="43.4388" lon="6.48461">
        <ele>40</ele>
        <time>2017-05-13T08:19:28Z</time>
      </trkpt>
      <trkpt lat="43.43879" lon="6.48476">
        <ele>40</ele>
        <time>2017-05-13T08:19:30Z</time>
      </trkpt>
      <trkpt lat="43.43877" lon="6.48489">
        <ele>40</ele>
        <time>2017-05-13T08:19:32Z</time>
      </trkpt>
      <trkpt lat="43.43877" lon="6.48504">
        <ele>40</ele>
        <time>2017-05-13T08:19:34Z</time>
      </trkpt>
      <trkpt lat="43.43875" lon="6.48518">
        <ele>40</ele>
        <time>2017-05-13T08:19:36Z</time>
      </trkpt>
      <trkpt lat="43.43877" lon="6.48535">
        <ele>40</ele>
        <time>2017-05-13T08:19:38Z</time>
      </trkpt>
      <trkpt lat="43.43879" lon="6.48551">
        <ele>40</ele>
        <time>2017-05-13T08:19:40Z</time>
      </trkpt>
      <trkpt lat="43.4388" lon="6.48567">
        <ele>40</ele>
        <time>2017-05-13T08:19:42Z</time>
      </trkpt>
      <trkpt lat="43.43884" lon="6.48585">
        <ele>41</ele>
        <time>2017-05-13T08:19:44Z</time>
      </trkpt>
      <trkpt lat="43.43886" lon="6.4861">
        <ele>41</ele>
        <time>2017-05-13T08:19:47Z</time>
      </trkpt>
      <trkpt lat="43.43885" lon="6.48618">
        <ele>41</ele>
        <time>2017-05-13T08:19:48Z</time>
      </trkpt>
      <trkpt lat="43.4388" lon="6.4863">
        <ele>41</ele>
        <time>2017-05-13T08:19:50Z</time>
      </trkpt>
      <trkpt lat="43.43873" lon="6.4864">
        <ele>41</ele>
        <time>2017-05-13T08:19:52Z</time>
      </trkpt>
      <trkpt lat="43.43865" lon="6.48649">
        <ele>41</ele>
        <time>2017-05-13T08:19:54Z</time>
      </trkpt>
      <trkpt lat="43.43856" lon="6.48657">
        <ele>41</ele>
        <time>2017-05-13T08:19:56Z</time>
      </trkpt>
      <trkpt lat="43.43848" lon="6.48664">
        <ele>42</ele>
        <time>2017-05-13T08:19:58Z</time>
      </trkpt>
      <trkpt lat="43.4384" lon="6.48668">
        <ele>42</ele>
        <time>2017-05-13T08:20:00Z</time>
      </trkpt>
      <trkpt lat="43.43832" lon="6.48677">
        <ele>43</ele>
        <time>2017-05-13T08:20:02Z</time>
      </trkpt>
      <trkpt lat="43.43827" lon="6.48686">
        <ele>44</ele>
        <time>2017-05-13T08:20:04Z</time>
      </trkpt>
      <trkpt lat="43.4382" lon="6.4869">
        <ele>45</ele>
        <time>2017-05-13T08:20:06Z</time>
      </trkpt>
      <trkpt lat="43.43813" lon="6.48698">
        <ele>45</ele>
        <time>2017-05-13T08:20:08Z</time>
      </trkpt>
      <trkpt lat="43.43807" lon="6.48704">
        <ele>46</ele>
        <time>2017-05-13T08:20:10Z</time>
      </trkpt>
      <trkpt lat="43.43801" lon="6.48712">
        <ele>46</ele>
        <time>2017-05-13T08:20:12Z</time>
      </trkpt>
      <trkpt lat="43.43795" lon="6.4872">
        <ele>46</ele>
        <time>2017-05-13T08:20:14Z</time>
      </trkpt>
      <trkpt lat="43.43791" lon="6.48726">
        <ele>46</ele>
        <time>2017-05-13T08:20:16Z</time>
      </trkpt>
      <trkpt lat="43.43786" lon="6.48733">
        <ele>47</ele>
        <time>2017-05-13T08:20:18Z</time>
      </trkpt>
      <trkpt lat="43.43781" lon="6.48739">
        <ele>47</ele>
        <time>2017-05-13T08:20:20Z</time>
      </trkpt>
      <trkpt lat="43.43775" lon="6.48744">
        <ele>47</ele>
        <time>2017-05-13T08:20:22Z</time>
      </trkpt>
      <trkpt lat="43.43774" lon="6.48747">
        <ele>48</ele>
        <time>2017-05-13T08:20:24Z</time>
      </trkpt>
      <trkpt lat="43.43768" lon="6.48752">
        <ele>49</ele>
        <time>2017-05-13T08:20:26Z</time>
      </trkpt>
      <trkpt lat="43.43768" lon="6.48761">
        <ele>49</ele>
        <time>2017-05-13T08:20:28Z</time>
      </trkpt>
      <trkpt lat="43.43767" lon="6.48766">
        <ele>49</ele>
        <time>2017-05-13T08:20:30Z</time>
      </trkpt>
      <trkpt lat="43.43766" lon="6.48769">
        <ele>49</ele>
        <time>2017-05-13T08:20:32Z</time>
      </trkpt>
      <trkpt lat="43.43764" lon="6.48769">
        <ele>49</ele>
        <time>2017-05-13T08:20:34Z</time>
      </trkpt>
      <trkpt lat="43.43763" lon="6.48768">
        <ele>49</ele>
        <time>2017-05-13T08:20:36Z</time>
      </trkpt>
      <trkpt lat="43.43763" lon="6.48766">
        <ele>49</ele>
        <time>2017-05-13T08:20:38Z</time>
      </trkpt>
      <trkpt lat="43.43763" lon="6.48766">
        <ele>49</ele>
        <time>2017-05-13T08:20:41Z</time>
      </trkpt>
      <trkpt lat="43.43763" lon="6.48766">
        <ele>49</ele>
        <time>2017-05-13T08:20:42Z</time>
      </trkpt>
      <trkpt lat="43.43764" lon="6.48766">
        <ele>49</ele>
        <time>2017-05-13T08:20:44Z</time>
      </trkpt>
      <trkpt lat="43.43764" lon="6.48765">
        <ele>49</ele>
        <time>2017-05-13T08:20:47Z</time>
      </trkpt>
      <trkpt lat="43.43769" lon="6.48771">
        <ele>49</ele>
        <time>2017-05-13T08:22:26Z</time>
      </trkpt>
      <trkpt lat="43.43769" lon="6.48771">
        <ele>49</ele>
        <time>2017-05-13T08:22:27Z</time>
      </trkpt>
      <trkpt lat="43.43769" lon="6.48771">
        <ele>49</ele>
        <time>2017-05-13T08:22:29Z</time>
      </trkpt>
      <trkpt lat="43.43771" lon="6.48772">
        <ele>49</ele>
        <time>2017-05-13T08:22:32Z</time>
      </trkpt>
      <trkpt lat="43.43772" lon="6.48773">
        <ele>49</ele>
        <time>2017-05-13T08:22:33Z</time>
      </trkpt>
      <trkpt lat="43.43773" lon="6.48779">
        <ele>49</ele>
        <time>2017-05-13T08:22:35Z</time>
      </trkpt>
      <trkpt lat="43.43777" lon="6.48787">
        <ele>49</ele>
        <time>2017-05-13T08:22:37Z</time>
      </trkpt>
      <trkpt lat="43.4378" lon="6.48796">
        <ele>49</ele>
        <time>2017-05-13T08:22:39Z</time>
      </trkpt>
      <trkpt lat="43.43779" lon="6.48812">
        <ele>50</ele>
        <time>2017-05-13T08:22:41Z</time>
      </trkpt>
      <trkpt lat="43.4378" lon="6.48826">
        <ele>50</ele>
        <time>2017-05-13T08:22:43Z</time>
      </trkpt>
      <trkpt lat="43.43781" lon="6.48841">
        <ele>52</ele>
        <time>2017-05-13T08:22:45Z</time>
      </trkpt>
      <trkpt lat="43.43782" lon="6.48856">
        <ele>52</ele>
        <time>2017-05-13T08:22:47Z</time>
      </trkpt>
      <trkpt lat="43.43779" lon="6.48871">
        <ele>52</ele>
        <time>2017-05-13T08:22:49Z</time>
      </trkpt>
      <trkpt lat="43.43773" lon="6.48886">
        <ele>54</ele>
        <time>2017-05-13T08:22:51Z</time>
      </trkpt>
      <trkpt lat="43.43769" lon="6.48899">
        <ele>55</ele>
        <time>2017-05-13T08:22:53Z</time>
      </trkpt>
      <trkpt lat="43.43768" lon="6.48914">
        <ele>57</ele>
        <time>2017-05-13T08:22:55Z</time>
      </trkpt>
      <trkpt lat="43.43762" lon="6.48934">
        <ele>56</ele>
        <time>2017-05-13T08:22:58Z</time>
      </trkpt>
      <trkpt lat="43.4376" lon="6.48942">
        <ele>55</ele>
        <time>2017-05-13T08:22:59Z</time>
      </trkpt>
      <trkpt lat="43.43758" lon="6.48956">
        <ele>54</ele>
        <time>2017-05-13T08:23:01Z</time>
      </trkpt>
      <trkpt lat="43.43753" lon="6.48968">
        <ele>54</ele>
        <time>2017-05-13T08:23:03Z</time>
      </trkpt>
      <trkpt lat="43.43751" lon="6.48984">
        <ele>55</ele>
        <time>2017-05-13T08:23:05Z</time>
      </trkpt>
      <trkpt lat="43.43749" lon="6.48999">
        <ele>59</ele>
        <time>2017-05-13T08:23:07Z</time>
      </trkpt>
      <trkpt lat="43.43748" lon="6.49014">
        <ele>61</ele>
        <time>2017-05-13T08:23:09Z</time>
      </trkpt>
      <trkpt lat="43.43744" lon="6.49028">
        <ele>62</ele>
        <time>2017-05-13T08:23:11Z</time>
      </trkpt>
      <trkpt lat="43.43742" lon="6.49041">
        <ele>62</ele>
        <time>2017-05-13T08:23:13Z</time>
      </trkpt>
      <trkpt lat="43.43736" lon="6.49056">
        <ele>61</ele>
        <time>2017-05-13T08:23:15Z</time>
      </trkpt>
      <trkpt lat="43.43736" lon="6.49072">
        <ele>59</ele>
        <time>2017-05-13T08:23:18Z</time>
      </trkpt>
      <trkpt lat="43.43733" lon="6.49081">
        <ele>59</ele>
        <time>2017-05-13T08:23:20Z</time>
      </trkpt>
      <trkpt lat="43.43732" lon="6.49087">
        <ele>57</ele>
        <time>2017-05-13T08:23:21Z</time>
      </trkpt>
      <trkpt lat="43.4373" lon="6.49102">
        <ele>58</ele>
        <time>2017-05-13T08:23:23Z</time>
      </trkpt>
      <trkpt lat="43.43724" lon="6.49126">
        <ele>59</ele>
        <time>2017-05-13T08:23:26Z</time>
      </trkpt>
      <trkpt lat="43.43723" lon="6.49135">
        <ele>59</ele>
        <time>2017-05-13T08:23:27Z</time>
      </trkpt>
      <trkpt lat="43.43716" lon="6.49156">
        <ele>59</ele>
        <time>2017-05-13T08:23:30Z</time>
      </trkpt>
      <trkpt lat="43.43717" lon="6.49172">
        <ele>55</ele>
        <time>2017-05-13T08:23:32Z</time>
      </trkpt>
      <trkpt lat="43.43716" lon="6.49179">
        <ele>55</ele>
        <time>2017-05-13T08:23:33Z</time>
      </trkpt>
      <trkpt lat="43.43714" lon="6.49202">
        <ele>55</ele>
        <time>2017-05-13T08:23:36Z</time>
      </trkpt>
      <trkpt lat="43.43712" lon="6.49208">
        <ele>55</ele>
        <time>2017-05-13T08:23:37Z</time>
      </trkpt>
      <trkpt lat="43.43711" lon="6.49218">
        <ele>55</ele>
        <time>2017-05-13T08:23:39Z</time>
      </trkpt>
      <trkpt lat="43.43711" lon="6.4923">
        <ele>55</ele>
        <time>2017-05-13T08:23:41Z</time>
      </trkpt>
      <trkpt lat="43.437" lon="6.49245">
        <ele>56</ele>
        <time>2017-05-13T08:23:44Z</time>
      </trkpt>
      <trkpt lat="43.43697" lon="6.49251">
        <ele>54</ele>
        <time>2017-05-13T08:23:45Z</time>
      </trkpt>
      <trkpt lat="43.43691" lon="6.49262">
        <ele>55</ele>
        <time>2017-05-13T08:23:47Z</time>
      </trkpt>
      <trkpt lat="43.43681" lon="6.49275">
        <ele>55</ele>
        <time>2017-05-13T08:23:50Z</time>
      </trkpt>
      <trkpt lat="43.43679" lon="6.49279">
        <ele>55</ele>
        <time>2017-05-13T08:23:51Z</time>
      </trkpt>
      <trkpt lat="43.43676" lon="6.49289">
        <ele>54</ele>
        <time>2017-05-13T08:23:53Z</time>
      </trkpt>
      <trkpt lat="43.43674" lon="6.493">
        <ele>53</ele>
        <time>2017-05-13T08:23:55Z</time>
      </trkpt>
      <trkpt lat="43.43669" lon="6.49316">
        <ele>53</ele>
        <time>2017-05-13T08:23:58Z</time>
      </trkpt>
      <trkpt lat="43.43666" lon="6.49322">
        <ele>59</ele>
        <time>2017-05-13T08:23:59Z</time>
      </trkpt>
      <trkpt lat="43.43663" lon="6.49336">
        <ele>56</ele>
        <time>2017-05-13T08:24:01Z</time>
      </trkpt>
      <trkpt lat="43.4366" lon="6.49347">
        <ele>58</ele>
        <time>2017-05-13T08:24:03Z</time>
      </trkpt>
      <trkpt lat="43.43656" lon="6.49357">
        <ele>59</ele>
        <time>2017-05-13T08:24:05Z</time>
      </trkpt>
      <trkpt lat="43.43654" lon="6.49365">
        <ele>59</ele>
        <time>2017-05-13T08:24:07Z</time>
      </trkpt>
      <trkpt lat="43.43655" lon="6.49386">
        <ele>58</ele>
        <time>2017-05-13T08:24:10Z</time>
      </trkpt>
      <trkpt lat="43.43654" lon="6.49393">
        <ele>58</ele>
        <time>2017-05-13T08:24:11Z</time>
      </trkpt>
      <trkpt lat="43.43655" lon="6.49409">
        <ele>55</ele>
        <time>2017-05-13T08:24:13Z</time>
      </trkpt>
      <trkpt lat="43.43655" lon="6.49425">
        <ele>54</ele>
        <time>2017-05-13T08:24:15Z</time>
      </trkpt>
      <trkpt lat="43.43652" lon="6.49439">
        <ele>56</ele>
        <time>2017-05-13T08:24:17Z</time>
      </trkpt>
      <trkpt lat="43.43648" lon="6.4945">
        <ele>56</ele>
        <time>2017-05-13T08:24:19Z</time>
      </trkpt>
      <trkpt lat="43.43645" lon="6.49465">
        <ele>56</ele>
        <time>2017-05-13T08:24:22Z</time>
      </trkpt>
      <trkpt lat="43.43644" lon="6.49472">
        <ele>56</ele>
        <time>2017-05-13T08:24:23Z</time>
      </trkpt>
      <trkpt lat="43.43642" lon="6.49484">
        <ele>56</ele>
        <time>2017-05-13T08:24:25Z</time>
      </trkpt>
      <trkpt lat="43.43641" lon="6.495">
        <ele>54</ele>
        <time>2017-05-13T08:24:28Z</time>
      </trkpt>
      <trkpt lat="43.4364" lon="6.49505">
        <ele>55</ele>
        <time>2017-05-13T08:24:29Z</time>
      </trkpt>
      <trkpt lat="43.43638" lon="6.49515">
        <ele>55</ele>
        <time>2017-05-13T08:24:31Z</time>
      </trkpt>
      <trkpt lat="43.43636" lon="6.49528">
        <ele>56</ele>
        <time>2017-05-13T08:24:33Z</time>
      </trkpt>
      <trkpt lat="43.4363" lon="6.49538">
        <ele>57</ele>
        <time>2017-05-13T08:24:35Z</time>
      </trkpt>
      <trkpt lat="43.43626" lon="6.49548">
        <ele>57</ele>
        <time>2017-05-13T08:24:37Z</time>
      </trkpt>
      <trkpt lat="43.43619" lon="6.49564">
        <ele>58</ele>
        <time>2017-05-13T08:24:40Z</time>
      </trkpt>
      <trkpt lat="43.43617" lon="6.49569">
        <ele>58</ele>
        <time>2017-05-13T08:24:41Z</time>
      </trkpt>
      <trkpt lat="43.43617" lon="6.4958">
        <ele>58</ele>
        <time>2017-05-13T08:24:43Z</time>
      </trkpt>
      <trkpt lat="43.43618" lon="6.49592">
        <ele>58</ele>
        <time>2017-05-13T08:24:46Z</time>
      </trkpt>
      <trkpt lat="43.43618" lon="6.49595">
        <ele>58</ele>
        <time>2017-05-13T08:24:47Z</time>
      </trkpt>
      <trkpt lat="43.43618" lon="6.49601">
        <ele>57</ele>
        <time>2017-05-13T08:24:50Z</time>
      </trkpt>
      <trkpt lat="43.43619" lon="6.49605">
        <ele>57</ele>
        <time>2017-05-13T08:24:52Z</time>
      </trkpt>
      <trkpt lat="43.4362" lon="6.49608">
        <ele>57</ele>
        <time>2017-05-13T08:24:53Z</time>
      </trkpt>
      <trkpt lat="43.43623" lon="6.49618">
        <ele>57</ele>
        <time>2017-05-13T08:24:56Z</time>
      </trkpt>
      <trkpt lat="43.43623" lon="6.49621">
        <ele>57</ele>
        <time>2017-05-13T08:24:57Z</time>
      </trkpt>
      <trkpt lat="43.43619" lon="6.4963">
        <ele>57</ele>
        <time>2017-05-13T08:25:00Z</time>
      </trkpt>
      <trkpt lat="43.43615" lon="6.49635">
        <ele>58</ele>
        <time>2017-05-13T08:25:02Z</time>
      </trkpt>
      <trkpt lat="43.43614" lon="6.49638">
        <ele>58</ele>
        <time>2017-05-13T08:25:03Z</time>
      </trkpt>
      <trkpt lat="43.43613" lon="6.49643">
        <ele>58</ele>
        <time>2017-05-13T08:25:05Z</time>
      </trkpt>
      <trkpt lat="43.4361" lon="6.49649">
        <ele>59</ele>
        <time>2017-05-13T08:25:07Z</time>
      </trkpt>
      <trkpt lat="43.43608" lon="6.4966">
        <ele>60</ele>
        <time>2017-05-13T08:25:09Z</time>
      </trkpt>
      <trkpt lat="43.43604" lon="6.49689">
        <ele>58</ele>
        <time>2017-05-13T08:25:12Z</time>
      </trkpt>
      <trkpt lat="43.43602" lon="6.49698">
        <ele>58</ele>
        <time>2017-05-13T08:25:13Z</time>
      </trkpt>
      <trkpt lat="43.436" lon="6.49714">
        <ele>58</ele>
        <time>2017-05-13T08:25:15Z</time>
      </trkpt>
      <trkpt lat="43.43607" lon="6.49734">
        <ele>57</ele>
        <time>2017-05-13T08:25:18Z</time>
      </trkpt>
      <trkpt lat="43.43608" lon="6.49742">
        <ele>58</ele>
        <time>2017-05-13T08:25:19Z</time>
      </trkpt>
      <trkpt lat="43.43609" lon="6.49762">
        <ele>56</ele>
        <time>2017-05-13T08:25:22Z</time>
      </trkpt>
      <trkpt lat="43.43609" lon="6.49767">
        <ele>56</ele>
        <time>2017-05-13T08:25:23Z</time>
      </trkpt>
      <trkpt lat="43.43607" lon="6.4978">
        <ele>55</ele>
        <time>2017-05-13T08:25:25Z</time>
      </trkpt>
      <trkpt lat="43.43608" lon="6.49795">
        <ele>55</ele>
        <time>2017-05-13T08:25:27Z</time>
      </trkpt>
      <trkpt lat="43.4361" lon="6.49806">
        <ele>54</ele>
        <time>2017-05-13T08:25:29Z</time>
      </trkpt>
      <trkpt lat="43.43614" lon="6.49815">
        <ele>54</ele>
        <time>2017-05-13T08:25:31Z</time>
      </trkpt>
      <trkpt lat="43.43615" lon="6.49824">
        <ele>54</ele>
        <time>2017-05-13T08:25:33Z</time>
      </trkpt>
      <trkpt lat="43.43613" lon="6.49836">
        <ele>55</ele>
        <time>2017-05-13T08:25:35Z</time>
      </trkpt>
      <trkpt lat="43.43613" lon="6.49847">
        <ele>55</ele>
        <time>2017-05-13T08:25:37Z</time>
      </trkpt>
      <trkpt lat="43.4361" lon="6.49855">
        <ele>55</ele>
        <time>2017-05-13T08:25:39Z</time>
      </trkpt>
      <trkpt lat="43.43606" lon="6.4986">
        <ele>55</ele>
        <time>2017-05-13T08:25:41Z</time>
      </trkpt>
      <trkpt lat="43.43601" lon="6.49862">
        <ele>56</ele>
        <time>2017-05-13T08:25:43Z</time>
      </trkpt>
      <trkpt lat="43.43596" lon="6.49864">
        <ele>56</ele>
        <time>2017-05-13T08:25:45Z</time>
      </trkpt>
      <trkpt lat="43.43594" lon="6.49871">
        <ele>56</ele>
        <time>2017-05-13T08:25:47Z</time>
      </trkpt>
      <trkpt lat="43.436" lon="6.4988">
        <ele>56</ele>
        <time>2017-05-13T08:25:50Z</time>
      </trkpt>
      <trkpt lat="43.43605" lon="6.49888">
        <ele>56</ele>
        <time>2017-05-13T08:25:52Z</time>
      </trkpt>
      <trkpt lat="43.4361" lon="6.49896">
        <ele>56</ele>
        <time>2017-05-13T08:25:54Z</time>
      </trkpt>
      <trkpt lat="43.43615" lon="6.49903">
        <ele>55</ele>
        <time>2017-05-13T08:25:56Z</time>
      </trkpt>
      <trkpt lat="43.4362" lon="6.49909">
        <ele>54</ele>
        <time>2017-05-13T08:25:58Z</time>
      </trkpt>
      <trkpt lat="43.43622" lon="6.49912">
        <ele>54</ele>
        <time>2017-05-13T08:25:59Z</time>
      </trkpt>
      <trkpt lat="43.43627" lon="6.49919">
        <ele>58</ele>
        <time>2017-05-13T08:26:01Z</time>
      </trkpt>
      <trkpt lat="43.4363" lon="6.49926">
        <ele>57</ele>
        <time>2017-05-13T08:26:03Z</time>
      </trkpt>
      <trkpt lat="43.43632" lon="6.49933">
        <ele>57</ele>
        <time>2017-05-13T08:26:05Z</time>
      </trkpt>
      <trkpt lat="43.43631" lon="6.49938">
        <ele>58</ele>
        <time>2017-05-13T08:26:07Z</time>
      </trkpt>
      <trkpt lat="43.43628" lon="6.49944">
        <ele>59</ele>
        <time>2017-05-13T08:26:09Z</time>
      </trkpt>
      <trkpt lat="43.43627" lon="6.49951">
        <ele>59</ele>
        <time>2017-05-13T08:26:11Z</time>
      </trkpt>
      <trkpt lat="43.43628" lon="6.49964">
        <ele>60</ele>
        <time>2017-05-13T08:26:14Z</time>
      </trkpt>
      <trkpt lat="43.43629" lon="6.49968">
        <ele>60</ele>
        <time>2017-05-13T08:26:15Z</time>
      </trkpt>
      <trkpt lat="43.43628" lon="6.49977">
        <ele>61</ele>
        <time>2017-05-13T08:26:17Z</time>
      </trkpt>
      <trkpt lat="43.43626" lon="6.49982">
        <ele>61</ele>
        <time>2017-05-13T08:26:19Z</time>
      </trkpt>
      <trkpt lat="43.43625" lon="6.49988">
        <ele>62</ele>
        <time>2017-05-13T08:26:21Z</time>
      </trkpt>
      <trkpt lat="43.43624" lon="6.49993">
        <ele>62</ele>
        <time>2017-05-13T08:26:23Z</time>
      </trkpt>
      <trkpt lat="43.43622" lon="6.50001">
        <ele>68</ele>
        <time>2017-05-13T08:26:26Z</time>
      </trkpt>
      <trkpt lat="43.43622" lon="6.50005">
        <ele>68</ele>
        <time>2017-05-13T08:26:27Z</time>
      </trkpt>
      <trkpt lat="43.43621" lon="6.50019">
        <ele>69</ele>
        <time>2017-05-13T08:26:30Z</time>
      </trkpt>
      <trkpt lat="43.43618" lon="6.50028">
        <ele>69</ele>
        <time>2017-05-13T08:26:31Z</time>
      </trkpt>
      <trkpt lat="43.4362" lon="6.50041">
        <ele>69</ele>
        <time>2017-05-13T08:26:33Z</time>
      </trkpt>
      <trkpt lat="43.43627" lon="6.50048">
        <ele>68</ele>
        <time>2017-05-13T08:26:35Z</time>
      </trkpt>
      <trkpt lat="43.43631" lon="6.50052">
        <ele>67</ele>
        <time>2017-05-13T08:26:37Z</time>
      </trkpt>
      <trkpt lat="43.43634" lon="6.50056">
        <ele>67</ele>
        <time>2017-05-13T08:26:39Z</time>
      </trkpt>
      <trkpt lat="43.43639" lon="6.5006">
        <ele>66</ele>
        <time>2017-05-13T08:26:41Z</time>
      </trkpt>
      <trkpt lat="43.43645" lon="6.50072">
        <ele>64</ele>
        <time>2017-05-13T08:26:44Z</time>
      </trkpt>
      <trkpt lat="43.43646" lon="6.50077">
        <ele>63</ele>
        <time>2017-05-13T08:26:45Z</time>
      </trkpt>
      <trkpt lat="43.43649" lon="6.50086">
        <ele>64</ele>
        <time>2017-05-13T08:26:47Z</time>
      </trkpt>
      <trkpt lat="43.43652" lon="6.50098">
        <ele>65</ele>
        <time>2017-05-13T08:26:49Z</time>
      </trkpt>
      <trkpt lat="43.43658" lon="6.5012">
        <ele>68</ele>
        <time>2017-05-13T08:26:52Z</time>
      </trkpt>
      <trkpt lat="43.43659" lon="6.50125">
        <ele>68</ele>
        <time>2017-05-13T08:26:53Z</time>
      </trkpt>
      <trkpt lat="43.43665" lon="6.50135">
        <ele>67</ele>
        <time>2017-05-13T08:26:55Z</time>
      </trkpt>
      <trkpt lat="43.43671" lon="6.50144">
        <ele>53</ele>
        <time>2017-05-13T08:26:57Z</time>
      </trkpt>
      <trkpt lat="43.43671" lon="6.50155">
        <ele>55</ele>
        <time>2017-05-13T08:26:59Z</time>
      </trkpt>
      <trkpt lat="43.4367" lon="6.50164">
        <ele>57</ele>
        <time>2017-05-13T08:27:01Z</time>
      </trkpt>
      <trkpt lat="43.43671" lon="6.5017">
        <ele>57</ele>
        <time>2017-05-13T08:27:03Z</time>
      </trkpt>
      <trkpt lat="43.43671" lon="6.50177">
        <ele>56</ele>
        <time>2017-05-13T08:27:05Z</time>
      </trkpt>
      <trkpt lat="43.43669" lon="6.50184">
        <ele>55</ele>
        <time>2017-05-13T08:27:07Z</time>
      </trkpt>
      <trkpt lat="43.43669" lon="6.50193">
        <ele>54</ele>
        <time>2017-05-13T08:27:09Z</time>
      </trkpt>
      <trkpt lat="43.43672" lon="6.50203">
        <ele>54</ele>
        <time>2017-05-13T08:27:11Z</time>
      </trkpt>
      <trkpt lat="43.4368" lon="6.50217">
        <ele>54</ele>
        <time>2017-05-13T08:27:14Z</time>
      </trkpt>
      <trkpt lat="43.43685" lon="6.50228">
        <ele>54</ele>
        <time>2017-05-13T08:27:16Z</time>
      </trkpt>
      <trkpt lat="43.43686" lon="6.50235">
        <ele>54</ele>
        <time>2017-05-13T08:27:17Z</time>
      </trkpt>
      <trkpt lat="43.43684" lon="6.50254">
        <ele>57</ele>
        <time>2017-05-13T08:27:19Z</time>
      </trkpt>
      <trkpt lat="43.43689" lon="6.50267">
        <ele>55</ele>
        <time>2017-05-13T08:27:21Z</time>
      </trkpt>
      <trkpt lat="43.43689" lon="6.50279">
        <ele>55</ele>
        <time>2017-05-13T08:27:23Z</time>
      </trkpt>
      <trkpt lat="43.43694" lon="6.50296">
        <ele>54</ele>
        <time>2017-05-13T08:27:26Z</time>
      </trkpt>
      <trkpt lat="43.43696" lon="6.50305">
        <ele>54</ele>
        <time>2017-05-13T08:27:28Z</time>
      </trkpt>
      <trkpt lat="43.43696" lon="6.50311">
        <ele>55</ele>
        <time>2017-05-13T08:27:29Z</time>
      </trkpt>
      <trkpt lat="43.43697" lon="6.50322">
        <ele>55</ele>
        <time>2017-05-13T08:27:31Z</time>
      </trkpt>
      <trkpt lat="43.43699" lon="6.50332">
        <ele>55</ele>
        <time>2017-05-13T08:27:33Z</time>
      </trkpt>
      <trkpt lat="43.43705" lon="6.50346">
        <ele>56</ele>
        <time>2017-05-13T08:27:36Z</time>
      </trkpt>
      <trkpt lat="43.43706" lon="6.50351">
        <ele>56</ele>
        <time>2017-05-13T08:27:37Z</time>
      </trkpt>
      <trkpt lat="43.4371" lon="6.50365">
        <ele>55</ele>
        <time>2017-05-13T08:27:40Z</time>
      </trkpt>
      <trkpt lat="43.4371" lon="6.5037">
        <ele>55</ele>
        <time>2017-05-13T08:27:41Z</time>
      </trkpt>
      <trkpt lat="43.4371" lon="6.50381">
        <ele>56</ele>
        <time>2017-05-13T08:27:43Z</time>
      </trkpt>
      <trkpt lat="43.43711" lon="6.50392">
        <ele>56</ele>
        <time>2017-05-13T08:27:45Z</time>
      </trkpt>
      <trkpt lat="43.43721" lon="6.50406">
        <ele>53</ele>
        <time>2017-05-13T08:27:47Z</time>
      </trkpt>
      <trkpt lat="43.43725" lon="6.50416">
        <ele>52</ele>
        <time>2017-05-13T08:27:49Z</time>
      </trkpt>
      <trkpt lat="43.43728" lon="6.50427">
        <ele>55</ele>
        <time>2017-05-13T08:27:51Z</time>
      </trkpt>
      <trkpt lat="43.43728" lon="6.5044">
        <ele>56</ele>
        <time>2017-05-13T08:27:53Z</time>
      </trkpt>
      <trkpt lat="43.43728" lon="6.50453">
        <ele>57</ele>
        <time>2017-05-13T08:27:55Z</time>
      </trkpt>
      <trkpt lat="43.43729" lon="6.50465">
        <ele>57</ele>
        <time>2017-05-13T08:27:57Z</time>
      </trkpt>
      <trkpt lat="43.43726" lon="6.50477">
        <ele>57</ele>
        <time>2017-05-13T08:27:59Z</time>
      </trkpt>
      <trkpt lat="43.43725" lon="6.50492">
        <ele>57</ele>
        <time>2017-05-13T08:28:02Z</time>
      </trkpt>
      <trkpt lat="43.43724" lon="6.50497">
        <ele>57</ele>
        <time>2017-05-13T08:28:03Z</time>
      </trkpt>
      <trkpt lat="43.43724" lon="6.50507">
        <ele>58</ele>
        <time>2017-05-13T08:28:05Z</time>
      </trkpt>
      <trkpt lat="43.43723" lon="6.50517">
        <ele>59</ele>
        <time>2017-05-13T08:28:07Z</time>
      </trkpt>
      <trkpt lat="43.43722" lon="6.50526">
        <ele>60</ele>
        <time>2017-05-13T08:28:09Z</time>
      </trkpt>
      <trkpt lat="43.43722" lon="6.50535">
        <ele>60</ele>
        <time>2017-05-13T08:28:11Z</time>
      </trkpt>
      <trkpt lat="43.43722" lon="6.50545">
        <ele>60</ele>
        <time>2017-05-13T08:28:13Z</time>
      </trkpt>
      <trkpt lat="43.43721" lon="6.50555">
        <ele>60</ele>
        <time>2017-05-13T08:28:15Z</time>
      </trkpt>
      <trkpt lat="43.43721" lon="6.50564">
        <ele>59</ele>
        <time>2017-05-13T08:28:17Z</time>
      </trkpt>
      <trkpt lat="43.43721" lon="6.50579">
        <ele>58</ele>
        <time>2017-05-13T08:28:19Z</time>
      </trkpt>
      <trkpt lat="43.43719" lon="6.50595">
        <ele>57</ele>
        <time>2017-05-13T08:28:22Z</time>
      </trkpt>
      <trkpt lat="43.43718" lon="6.506">
        <ele>57</ele>
        <time>2017-05-13T08:28:23Z</time>
      </trkpt>
      <trkpt lat="43.43717" lon="6.50609">
        <ele>57</ele>
        <time>2017-05-13T08:28:25Z</time>
      </trkpt>
      <trkpt lat="43.43715" lon="6.50617">
        <ele>58</ele>
        <time>2017-05-13T08:28:27Z</time>
      </trkpt>
      <trkpt lat="43.43713" lon="6.50626">
        <ele>58</ele>
        <time>2017-05-13T08:28:29Z</time>
      </trkpt>
      <trkpt lat="43.43713" lon="6.50636">
        <ele>58</ele>
        <time>2017-05-13T08:28:31Z</time>
      </trkpt>
      <trkpt lat="43.43711" lon="6.50645">
        <ele>58</ele>
        <time>2017-05-13T08:28:33Z</time>
      </trkpt>
      <trkpt lat="43.4371" lon="6.50653">
        <ele>57</ele>
        <time>2017-05-13T08:28:35Z</time>
      </trkpt>
      <trkpt lat="43.43709" lon="6.50661">
        <ele>57</ele>
        <time>2017-05-13T08:28:37Z</time>
      </trkpt>
      <trkpt lat="43.43707" lon="6.50672">
        <ele>54</ele>
        <time>2017-05-13T08:28:40Z</time>
      </trkpt>
      <trkpt lat="43.43706" lon="6.50675">
        <ele>55</ele>
        <time>2017-05-13T08:28:41Z</time>
      </trkpt>
      <trkpt lat="43.43703" lon="6.50682">
        <ele>55</ele>
        <time>2017-05-13T08:28:43Z</time>
      </trkpt>
      <trkpt lat="43.437" lon="6.50689">
        <ele>56</ele>
        <time>2017-05-13T08:28:45Z</time>
      </trkpt>
      <trkpt lat="43.43699" lon="6.50697">
        <ele>55</ele>
        <time>2017-05-13T08:28:47Z</time>
      </trkpt>
      <trkpt lat="43.43698" lon="6.50705">
        <ele>55</ele>
        <time>2017-05-13T08:28:49Z</time>
      </trkpt>
      <trkpt lat="43.43696" lon="6.50714">
        <ele>55</ele>
        <time>2017-05-13T08:28:51Z</time>
      </trkpt>
      <trkpt lat="43.43694" lon="6.50724">
        <ele>55</ele>
        <time>2017-05-13T08:28:53Z</time>
      </trkpt>
      <trkpt lat="43.43691" lon="6.50733">
        <ele>55</ele>
        <time>2017-05-13T08:28:55Z</time>
      </trkpt>
      <trkpt lat="43.43688" lon="6.50746">
        <ele>56</ele>
        <time>2017-05-13T08:28:58Z</time>
      </trkpt>
      <trkpt lat="43.43689" lon="6.5075">
        <ele>54</ele>
        <time>2017-05-13T08:28:59Z</time>
      </trkpt>
      <trkpt lat="43.4369" lon="6.50758">
        <ele>53</ele>
        <time>2017-05-13T08:29:01Z</time>
      </trkpt>
      <trkpt lat="43.43689" lon="6.50766">
        <ele>52</ele>
        <time>2017-05-13T08:29:03Z</time>
      </trkpt>
      <trkpt lat="43.43685" lon="6.50774">
        <ele>52</ele>
        <time>2017-05-13T08:29:06Z</time>
      </trkpt>
      <trkpt lat="43.43683" lon="6.50776">
        <ele>52</ele>
        <time>2017-05-13T08:29:07Z</time>
      </trkpt>
      <trkpt lat="43.43677" lon="6.50781">
        <ele>52</ele>
        <time>2017-05-13T08:29:10Z</time>
      </trkpt>
      <trkpt lat="43.43676" lon="6.50784">
        <ele>52</ele>
        <time>2017-05-13T08:29:11Z</time>
      </trkpt>
      <trkpt lat="43.43675" lon="6.50793">
        <ele>52</ele>
        <time>2017-05-13T08:29:13Z</time>
      </trkpt>
      <trkpt lat="43.43671" lon="6.50802">
        <ele>52</ele>
        <time>2017-05-13T08:29:16Z</time>
      </trkpt>
      <trkpt lat="43.43668" lon="6.50808">
        <ele>52</ele>
        <time>2017-05-13T08:29:18Z</time>
      </trkpt>
      <trkpt lat="43.43665" lon="6.50811">
        <ele>64</ele>
        <time>2017-05-13T08:29:19Z</time>
      </trkpt>
      <trkpt lat="43.43657" lon="6.50817">
        <ele>63</ele>
        <time>2017-05-13T08:29:22Z</time>
      </trkpt>
      <trkpt lat="43.43655" lon="6.50819">
        <ele>63</ele>
        <time>2017-05-13T08:29:23Z</time>
      </trkpt>
      <trkpt lat="43.43652" lon="6.50829">
        <ele>62</ele>
        <time>2017-05-13T08:29:26Z</time>
      </trkpt>
      <trkpt lat="43.43653" lon="6.50834">
        <ele>59</ele>
        <time>2017-05-13T08:29:27Z</time>
      </trkpt>
      <trkpt lat="43.43655" lon="6.50843">
        <ele>59</ele>
        <time>2017-05-13T08:29:29Z</time>
      </trkpt>
      <trkpt lat="43.43658" lon="6.50851">
        <ele>60</ele>
        <time>2017-05-13T08:29:31Z</time>
      </trkpt>
      <trkpt lat="43.43658" lon="6.50858">
        <ele>60</ele>
        <time>2017-05-13T08:29:33Z</time>
      </trkpt>
      <trkpt lat="43.43657" lon="6.50869">
        <ele>61</ele>
        <time>2017-05-13T08:29:36Z</time>
      </trkpt>
      <trkpt lat="43.43656" lon="6.50871">
        <ele>61</ele>
        <time>2017-05-13T08:29:37Z</time>
      </trkpt>
      <trkpt lat="43.43655" lon="6.50875">
        <ele>61</ele>
        <time>2017-05-13T08:29:39Z</time>
      </trkpt>
      <trkpt lat="43.43655" lon="6.50881">
        <ele>61</ele>
        <time>2017-05-13T08:29:41Z</time>
      </trkpt>
      <trkpt lat="43.43651" lon="6.50888">
        <ele>61</ele>
        <time>2017-05-13T08:29:44Z</time>
      </trkpt>
      <trkpt lat="43.43649" lon="6.50891">
        <ele>61</ele>
        <time>2017-05-13T08:29:45Z</time>
      </trkpt>
      <trkpt lat="43.43645" lon="6.50895">
        <ele>61</ele>
        <time>2017-05-13T08:29:47Z</time>
      </trkpt>
      <trkpt lat="43.43642" lon="6.509">
        <ele>61</ele>
        <time>2017-05-13T08:29:49Z</time>
      </trkpt>
      <trkpt lat="43.4364" lon="6.50906">
        <ele>61</ele>
        <time>2017-05-13T08:29:51Z</time>
      </trkpt>
      <trkpt lat="43.43639" lon="6.50911">
        <ele>61</ele>
        <time>2017-05-13T08:29:53Z</time>
      </trkpt>
      <trkpt lat="43.43638" lon="6.50917">
        <ele>57</ele>
        <time>2017-05-13T08:29:55Z</time>
      </trkpt>
      <trkpt lat="43.43637" lon="6.50921">
        <ele>57</ele>
        <time>2017-05-13T08:29:57Z</time>
      </trkpt>
      <trkpt lat="43.43639" lon="6.50922">
        <ele>56</ele>
        <time>2017-05-13T08:29:59Z</time>
      </trkpt>
      <trkpt lat="43.43639" lon="6.50923">
        <ele>56</ele>
        <time>2017-05-13T08:30:01Z</time>
      </trkpt>
      <trkpt lat="43.43639" lon="6.50923">
        <ele>56</ele>
        <time>2017-05-13T08:30:03Z</time>
      </trkpt>
      <trkpt lat="43.43639" lon="6.50923">
        <ele>56</ele>
        <time>2017-05-13T08:30:05Z</time>
      </trkpt>
      <trkpt lat="43.43638" lon="6.50925">
        <ele>56</ele>
        <time>2017-05-13T08:30:07Z</time>
      </trkpt>
      <trkpt lat="43.43637" lon="6.50925">
        <ele>57</ele>
        <time>2017-05-13T08:30:09Z</time>
      </trkpt>
      <trkpt lat="43.43636" lon="6.50923">
        <ele>57</ele>
        <time>2017-05-13T08:30:11Z</time>
      </trkpt>
      <trkpt lat="43.43636" lon="6.50921">
        <ele>57</ele>
        <time>2017-05-13T08:30:13Z</time>
      </trkpt>
      <trkpt lat="43.43635" lon="6.5092">
        <ele>57</ele>
        <time>2017-05-13T08:30:15Z</time>
      </trkpt>
      <trkpt lat="43.43632" lon="6.50918">
        <ele>57</ele>
        <time>2017-05-13T08:32:44Z</time>
      </trkpt>
      <trkpt lat="43.43631" lon="6.50917">
        <ele>57</ele>
        <time>2017-05-13T08:32:46Z</time>
      </trkpt>
      <trkpt lat="43.43632" lon="6.50917">
        <ele>57</ele>
        <time>2017-05-13T08:32:48Z</time>
      </trkpt>
      <trkpt lat="43.43633" lon="6.50918">
        <ele>57</ele>
        <time>2017-05-13T08:32:51Z</time>
      </trkpt>
      <trkpt lat="43.43634" lon="6.50919">
        <ele>57</ele>
        <time>2017-05-13T08:32:52Z</time>
      </trkpt>
      <trkpt lat="43.43636" lon="6.50924">
        <ele>57</ele>
        <time>2017-05-13T08:32:54Z</time>
      </trkpt>
      <trkpt lat="43.43638" lon="6.5093">
        <ele>56</ele>
        <time>2017-05-13T08:32:56Z</time>
      </trkpt>
      <trkpt lat="43.43642" lon="6.50939">
        <ele>56</ele>
        <time>2017-05-13T08:32:58Z</time>
      </trkpt>
      <trkpt lat="43.43644" lon="6.50949">
        <ele>55</ele>
        <time>2017-05-13T08:33:00Z</time>
      </trkpt>
      <trkpt lat="43.43647" lon="6.50961">
        <ele>55</ele>
        <time>2017-05-13T08:33:02Z</time>
      </trkpt>
      <trkpt lat="43.4365" lon="6.50975">
        <ele>54</ele>
        <time>2017-05-13T08:33:04Z</time>
      </trkpt>
      <trkpt lat="43.43655" lon="6.5099">
        <ele>52</ele>
        <time>2017-05-13T08:33:06Z</time>
      </trkpt>
      <trkpt lat="43.43661" lon="6.51003">
        <ele>48</ele>
        <time>2017-05-13T08:33:08Z</time>
      </trkpt>
      <trkpt lat="43.43669" lon="6.51015">
        <ele>45</ele>
        <time>2017-05-13T08:33:10Z</time>
      </trkpt>
      <trkpt lat="43.43667" lon="6.51028">
        <ele>43</ele>
        <time>2017-05-13T08:33:12Z</time>
      </trkpt>
      <trkpt lat="43.4366" lon="6.51038">
        <ele>45</ele>
        <time>2017-05-13T08:33:14Z</time>
      </trkpt>
      <trkpt lat="43.43648" lon="6.51038">
        <ele>45</ele>
        <time>2017-05-13T08:33:16Z</time>
      </trkpt>
      <trkpt lat="43.43634" lon="6.51035">
        <ele>45</ele>
        <time>2017-05-13T08:33:18Z</time>
      </trkpt>
      <trkpt lat="43.43623" lon="6.51026">
        <ele>46</ele>
        <time>2017-05-13T08:33:20Z</time>
      </trkpt>
      <trkpt lat="43.43611" lon="6.51017">
        <ele>47</ele>
        <time>2017-05-13T08:33:22Z</time>
      </trkpt>
      <trkpt lat="43.43593" lon="6.51013">
        <ele>49</ele>
        <time>2017-05-13T08:33:25Z</time>
      </trkpt>
      <trkpt lat="43.43588" lon="6.51013">
        <ele>50</ele>
        <time>2017-05-13T08:33:26Z</time>
      </trkpt>
      <trkpt lat="43.43573" lon="6.51019">
        <ele>49</ele>
        <time>2017-05-13T08:33:28Z</time>
      </trkpt>
      <trkpt lat="43.43558" lon="6.51027">
        <ele>47</ele>
        <time>2017-05-13T08:33:30Z</time>
      </trkpt>
      <trkpt lat="43.43539" lon="6.51041">
        <ele>46</ele>
        <time>2017-05-13T08:33:33Z</time>
      </trkpt>
      <trkpt lat="43.43533" lon="6.51047">
        <ele>45</ele>
        <time>2017-05-13T08:33:34Z</time>
      </trkpt>
      <trkpt lat="43.43524" lon="6.51057">
        <ele>44</ele>
        <time>2017-05-13T08:33:36Z</time>
      </trkpt>
      <trkpt lat="43.43517" lon="6.51066">
        <ele>42</ele>
        <time>2017-05-13T08:33:38Z</time>
      </trkpt>
      <trkpt lat="43.43509" lon="6.51073">
        <ele>41</ele>
        <time>2017-05-13T08:33:40Z</time>
      </trkpt>
      <trkpt lat="43.43501" lon="6.51073">
        <ele>40</ele>
        <time>2017-05-13T08:33:42Z</time>
      </trkpt>
      <trkpt lat="43.43492" lon="6.51075">
        <ele>40</ele>
        <time>2017-05-13T08:33:44Z</time>
      </trkpt>
      <trkpt lat="43.43483" lon="6.51074">
        <ele>41</ele>
        <time>2017-05-13T08:33:46Z</time>
      </trkpt>
      <trkpt lat="43.43474" lon="6.51067">
        <ele>43</ele>
        <time>2017-05-13T08:33:48Z</time>
      </trkpt>
      <trkpt lat="43.43464" lon="6.51062">
        <ele>43</ele>
        <time>2017-05-13T08:33:50Z</time>
      </trkpt>
      <trkpt lat="43.43453" lon="6.51057">
        <ele>43</ele>
        <time>2017-05-13T08:33:52Z</time>
      </trkpt>
      <trkpt lat="43.43442" lon="6.51053">
        <ele>44</ele>
        <time>2017-05-13T08:33:54Z</time>
      </trkpt>
      <trkpt lat="43.4343" lon="6.51049">
        <ele>44</ele>
        <time>2017-05-13T08:33:56Z</time>
      </trkpt>
      <trkpt lat="43.43418" lon="6.51043">
        <ele>44</ele>
        <time>2017-05-13T08:33:58Z</time>
      </trkpt>
      <trkpt lat="43.43406" lon="6.51035">
        <ele>43</ele>
        <time>2017-05-13T08:34:00Z</time>
      </trkpt>
      <trkpt lat="43.43397" lon="6.51029">
        <ele>43</ele>
        <time>2017-05-13T08:34:02Z</time>
      </trkpt>
      <trkpt lat="43.43386" lon="6.51029">
        <ele>43</ele>
        <time>2017-05-13T08:34:04Z</time>
      </trkpt>
      <trkpt lat="43.43372" lon="6.51026">
        <ele>42</ele>
        <time>2017-05-13T08:34:06Z</time>
      </trkpt>
      <trkpt lat="43.43358" lon="6.51021">
        <ele>42</ele>
        <time>2017-05-13T08:34:08Z</time>
      </trkpt>
      <trkpt lat="43.43345" lon="6.51017">
        <ele>42</ele>
        <time>2017-05-13T08:34:10Z</time>
      </trkpt>
      <trkpt lat="43.43327" lon="6.51024">
        <ele>38</ele>
        <time>2017-05-13T08:34:13Z</time>
      </trkpt>
      <trkpt lat="43.4332" lon="6.51025">
        <ele>38</ele>
        <time>2017-05-13T08:34:14Z</time>
      </trkpt>
      <trkpt lat="43.43307" lon="6.51031">
        <ele>36</ele>
        <time>2017-05-13T08:34:16Z</time>
      </trkpt>
      <trkpt lat="43.43295" lon="6.51038">
        <ele>35</ele>
        <time>2017-05-13T08:34:18Z</time>
      </trkpt>
      <trkpt lat="43.43282" lon="6.51043">
        <ele>35</ele>
        <time>2017-05-13T08:34:20Z</time>
      </trkpt>
      <trkpt lat="43.43269" lon="6.5105">
        <ele>34</ele>
        <time>2017-05-13T08:34:22Z</time>
      </trkpt>
      <trkpt lat="43.43256" lon="6.51051">
        <ele>34</ele>
        <time>2017-05-13T08:34:24Z</time>
      </trkpt>
      <trkpt lat="43.43243" lon="6.51049">
        <ele>35</ele>
        <time>2017-05-13T08:34:26Z</time>
      </trkpt>
      <trkpt lat="43.43231" lon="6.51046">
        <ele>36</ele>
        <time>2017-05-13T08:34:28Z</time>
      </trkpt>
      <trkpt lat="43.43219" lon="6.51046">
        <ele>37</ele>
        <time>2017-05-13T08:34:30Z</time>
      </trkpt>
      <trkpt lat="43.43206" lon="6.51044">
        <ele>37</ele>
        <time>2017-05-13T08:34:32Z</time>
      </trkpt>
      <trkpt lat="43.43195" lon="6.51041">
        <ele>38</ele>
        <time>2017-05-13T08:34:34Z</time>
      </trkpt>
      <trkpt lat="43.43184" lon="6.51038">
        <ele>39</ele>
        <time>2017-05-13T08:34:36Z</time>
      </trkpt>
      <trkpt lat="43.43176" lon="6.51039">
        <ele>39</ele>
        <time>2017-05-13T08:34:38Z</time>
      </trkpt>
      <trkpt lat="43.43168" lon="6.51044">
        <ele>39</ele>
        <time>2017-05-13T08:34:40Z</time>
      </trkpt>
      <trkpt lat="43.43169" lon="6.5106">
        <ele>38</ele>
        <time>2017-05-13T08:34:42Z</time>
      </trkpt>
      <trkpt lat="43.43165" lon="6.5107">
        <ele>45</ele>
        <time>2017-05-13T08:34:44Z</time>
      </trkpt>
      <trkpt lat="43.43156" lon="6.51085">
        <ele>41</ele>
        <time>2017-05-13T08:34:47Z</time>
      </trkpt>
      <trkpt lat="43.43153" lon="6.51089">
        <ele>41</ele>
        <time>2017-05-13T08:34:48Z</time>
      </trkpt>
      <trkpt lat="43.43148" lon="6.51096">
        <ele>42</ele>
        <time>2017-05-13T08:34:50Z</time>
      </trkpt>
      <trkpt lat="43.43141" lon="6.51102">
        <ele>42</ele>
        <time>2017-05-13T08:34:52Z</time>
      </trkpt>
      <trkpt lat="43.43135" lon="6.51109">
        <ele>43</ele>
        <time>2017-05-13T08:34:54Z</time>
      </trkpt>
      <trkpt lat="43.43128" lon="6.51115">
        <ele>43</ele>
        <time>2017-05-13T08:34:56Z</time>
      </trkpt>
      <trkpt lat="43.4312" lon="6.5112">
        <ele>44</ele>
        <time>2017-05-13T08:34:58Z</time>
      </trkpt>
      <trkpt lat="43.4311" lon="6.51126">
        <ele>44</ele>
        <time>2017-05-13T08:35:01Z</time>
      </trkpt>
      <trkpt lat="43.43101" lon="6.51128">
        <ele>44</ele>
        <time>2017-05-13T08:35:03Z</time>
      </trkpt>
      <trkpt lat="43.43096" lon="6.5113">
        <ele>44</ele>
        <time>2017-05-13T08:35:04Z</time>
      </trkpt>
      <trkpt lat="43.4309" lon="6.51132">
        <ele>44</ele>
        <time>2017-05-13T08:35:06Z</time>
      </trkpt>
      <trkpt lat="43.43079" lon="6.51133">
        <ele>51</ele>
        <time>2017-05-13T08:35:09Z</time>
      </trkpt>
      <trkpt lat="43.43075" lon="6.51132">
        <ele>52</ele>
        <time>2017-05-13T08:35:10Z</time>
      </trkpt>
      <trkpt lat="43.43061" lon="6.51128">
        <ele>53</ele>
        <time>2017-05-13T08:35:13Z</time>
      </trkpt>
      <trkpt lat="43.43058" lon="6.51126">
        <ele>53</ele>
        <time>2017-05-13T08:35:14Z</time>
      </trkpt>
      <trkpt lat="43.4305" lon="6.51122">
        <ele>54</ele>
        <time>2017-05-13T08:35:16Z</time>
      </trkpt>
      <trkpt lat="43.43042" lon="6.51118">
        <ele>54</ele>
        <time>2017-05-13T08:35:18Z</time>
      </trkpt>
      <trkpt lat="43.43036" lon="6.51112">
        <ele>55</ele>
        <time>2017-05-13T08:35:20Z</time>
      </trkpt>
      <trkpt lat="43.43031" lon="6.51104">
        <ele>56</ele>
        <time>2017-05-13T08:35:22Z</time>
      </trkpt>
      <trkpt lat="43.43024" lon="6.51097">
        <ele>57</ele>
        <time>2017-05-13T08:35:24Z</time>
      </trkpt>
      <trkpt lat="43.43016" lon="6.51097">
        <ele>57</ele>
        <time>2017-05-13T08:35:26Z</time>
      </trkpt>
      <trkpt lat="43.43009" lon="6.51103">
        <ele>57</ele>
        <time>2017-05-13T08:35:28Z</time>
      </trkpt>
      <trkpt lat="43.43006" lon="6.5113">
        <ele>54</ele>
        <time>2017-05-13T08:35:31Z</time>
      </trkpt>
      <trkpt lat="43.43001" lon="6.51141">
        <ele>53</ele>
        <time>2017-05-13T08:35:33Z</time>
      </trkpt>
      <trkpt lat="43.42999" lon="6.51146">
        <ele>63</ele>
        <time>2017-05-13T08:35:34Z</time>
      </trkpt>
      <trkpt lat="43.42997" lon="6.51156">
        <ele>59</ele>
        <time>2017-05-13T08:35:36Z</time>
      </trkpt>
      <trkpt lat="43.42994" lon="6.51164">
        <ele>56</ele>
        <time>2017-05-13T08:35:38Z</time>
      </trkpt>
      <trkpt lat="43.42992" lon="6.51175">
        <ele>56</ele>
        <time>2017-05-13T08:35:40Z</time>
      </trkpt>
      <trkpt lat="43.42989" lon="6.51184">
        <ele>58</ele>
        <time>2017-05-13T08:35:42Z</time>
      </trkpt>
      <trkpt lat="43.42985" lon="6.51191">
        <ele>59</ele>
        <time>2017-05-13T08:35:44Z</time>
      </trkpt>
      <trkpt lat="43.4298" lon="6.51197">
        <ele>60</ele>
        <time>2017-05-13T08:35:46Z</time>
      </trkpt>
      <trkpt lat="43.42975" lon="6.51203">
        <ele>61</ele>
        <time>2017-05-13T08:35:48Z</time>
      </trkpt>
      <trkpt lat="43.4297" lon="6.51209">
        <ele>62</ele>
        <time>2017-05-13T08:35:50Z</time>
      </trkpt>
      <trkpt lat="43.42965" lon="6.51215">
        <ele>62</ele>
        <time>2017-05-13T08:35:52Z</time>
      </trkpt>
      <trkpt lat="43.42961" lon="6.51221">
        <ele>63</ele>
        <time>2017-05-13T08:35:54Z</time>
      </trkpt>
      <trkpt lat="43.42957" lon="6.51226">
        <ele>63</ele>
        <time>2017-05-13T08:35:56Z</time>
      </trkpt>
      <trkpt lat="43.42953" lon="6.51233">
        <ele>64</ele>
        <time>2017-05-13T08:35:59Z</time>
      </trkpt>
      <trkpt lat="43.42951" lon="6.51236">
        <ele>64</ele>
        <time>2017-05-13T08:36:00Z</time>
      </trkpt>
      <trkpt lat="43.42948" lon="6.51244">
        <ele>64</ele>
        <time>2017-05-13T08:36:02Z</time>
      </trkpt>
      <trkpt lat="43.42945" lon="6.51252">
        <ele>60</ele>
        <time>2017-05-13T08:36:04Z</time>
      </trkpt>
      <trkpt lat="43.42941" lon="6.51259">
        <ele>61</ele>
        <time>2017-05-13T08:36:06Z</time>
      </trkpt>
      <trkpt lat="43.42937" lon="6.5127">
        <ele>61</ele>
        <time>2017-05-13T08:36:09Z</time>
      </trkpt>
      <trkpt lat="43.42935" lon="6.51273">
        <ele>60</ele>
        <time>2017-05-13T08:36:10Z</time>
      </trkpt>
      <trkpt lat="43.42931" lon="6.5128">
        <ele>60</ele>
        <time>2017-05-13T08:36:12Z</time>
      </trkpt>
      <trkpt lat="43.42927" lon="6.51286">
        <ele>60</ele>
        <time>2017-05-13T08:36:14Z</time>
      </trkpt>
      <trkpt lat="43.42924" lon="6.51293">
        <ele>59</ele>
        <time>2017-05-13T08:36:16Z</time>
      </trkpt>
      <trkpt lat="43.4292" lon="6.513">
        <ele>59</ele>
        <time>2017-05-13T08:36:18Z</time>
      </trkpt>
      <trkpt lat="43.42917" lon="6.51305">
        <ele>77</ele>
        <time>2017-05-13T08:36:20Z</time>
      </trkpt>
      <trkpt lat="43.42913" lon="6.51311">
        <ele>75</ele>
        <time>2017-05-13T08:36:22Z</time>
      </trkpt>
      <trkpt lat="43.4291" lon="6.51319">
        <ele>73</ele>
        <time>2017-05-13T08:36:24Z</time>
      </trkpt>
      <trkpt lat="43.42906" lon="6.51329">
        <ele>71</ele>
        <time>2017-05-13T08:36:27Z</time>
      </trkpt>
      <trkpt lat="43.42905" lon="6.51333">
        <ele>72</ele>
        <time>2017-05-13T08:36:28Z</time>
      </trkpt>
      <trkpt lat="43.42902" lon="6.5134">
        <ele>69</ele>
        <time>2017-05-13T08:36:30Z</time>
      </trkpt>
      <trkpt lat="43.429" lon="6.51347">
        <ele>70</ele>
        <time>2017-05-13T08:36:32Z</time>
      </trkpt>
      <trkpt lat="43.42898" lon="6.51354">
        <ele>71</ele>
        <time>2017-05-13T08:36:34Z</time>
      </trkpt>
      <trkpt lat="43.42894" lon="6.51364">
        <ele>72</ele>
        <time>2017-05-13T08:36:37Z</time>
      </trkpt>
      <trkpt lat="43.42892" lon="6.51366">
        <ele>72</ele>
        <time>2017-05-13T08:36:38Z</time>
      </trkpt>
      <trkpt lat="43.42886" lon="6.51372">
        <ele>73</ele>
        <time>2017-05-13T08:36:41Z</time>
      </trkpt>
      <trkpt lat="43.42884" lon="6.51375">
        <ele>73</ele>
        <time>2017-05-13T08:36:42Z</time>
      </trkpt>
      <trkpt lat="43.42881" lon="6.51381">
        <ele>73</ele>
        <time>2017-05-13T08:36:44Z</time>
      </trkpt>
      <trkpt lat="43.42879" lon="6.51388">
        <ele>73</ele>
        <time>2017-05-13T08:36:46Z</time>
      </trkpt>
      <trkpt lat="43.42877" lon="6.51394">
        <ele>73</ele>
        <time>2017-05-13T08:36:48Z</time>
      </trkpt>
      <trkpt lat="43.42875" lon="6.514">
        <ele>74</ele>
        <time>2017-05-13T08:36:50Z</time>
      </trkpt>
      <trkpt lat="43.42871" lon="6.51406">
        <ele>74</ele>
        <time>2017-05-13T08:36:52Z</time>
      </trkpt>
      <trkpt lat="43.42867" lon="6.51412">
        <ele>76</ele>
        <time>2017-05-13T08:36:54Z</time>
      </trkpt>
      <trkpt lat="43.42863" lon="6.51417">
        <ele>71</ele>
        <time>2017-05-13T08:36:56Z</time>
      </trkpt>
      <trkpt lat="43.4286" lon="6.51423">
        <ele>72</ele>
        <time>2017-05-13T08:36:58Z</time>
      </trkpt>
      <trkpt lat="43.42858" lon="6.5143">
        <ele>72</ele>
        <time>2017-05-13T08:37:00Z</time>
      </trkpt>
      <trkpt lat="43.42856" lon="6.51437">
        <ele>71</ele>
        <time>2017-05-13T08:37:02Z</time>
      </trkpt>
      <trkpt lat="43.42856" lon="6.51448">
        <ele>69</ele>
        <time>2017-05-13T08:37:05Z</time>
      </trkpt>
      <trkpt lat="43.42856" lon="6.51452">
        <ele>69</ele>
        <time>2017-05-13T08:37:06Z</time>
      </trkpt>
      <trkpt lat="43.42855" lon="6.5146">
        <ele>68</ele>
        <time>2017-05-13T08:37:08Z</time>
      </trkpt>
      <trkpt lat="43.42854" lon="6.51467">
        <ele>68</ele>
        <time>2017-05-13T08:37:10Z</time>
      </trkpt>
      <trkpt lat="43.42852" lon="6.51475">
        <ele>68</ele>
        <time>2017-05-13T08:37:12Z</time>
      </trkpt>
      <trkpt lat="43.42849" lon="6.51481">
        <ele>68</ele>
        <time>2017-05-13T08:37:14Z</time>
      </trkpt>
      <trkpt lat="43.42846" lon="6.51489">
        <ele>69</ele>
        <time>2017-05-13T08:37:17Z</time>
      </trkpt>
      <trkpt lat="43.42844" lon="6.51493">
        <ele>69</ele>
        <time>2017-05-13T08:37:18Z</time>
      </trkpt>
      <trkpt lat="43.42839" lon="6.51498">
        <ele>70</ele>
        <time>2017-05-13T08:37:20Z</time>
      </trkpt>
      <trkpt lat="43.42836" lon="6.51502">
        <ele>70</ele>
        <time>2017-05-13T08:37:22Z</time>
      </trkpt>
      <trkpt lat="43.42832" lon="6.51506">
        <ele>75</ele>
        <time>2017-05-13T08:37:24Z</time>
      </trkpt>
      <trkpt lat="43.42827" lon="6.51508">
        <ele>76</ele>
        <time>2017-05-13T08:37:26Z</time>
      </trkpt>
      <trkpt lat="43.42822" lon="6.51509">
        <ele>77</ele>
        <time>2017-05-13T08:37:28Z</time>
      </trkpt>
      <trkpt lat="43.42816" lon="6.51511">
        <ele>79</ele>
        <time>2017-05-13T08:37:30Z</time>
      </trkpt>
      <trkpt lat="43.42812" lon="6.51513">
        <ele>80</ele>
        <time>2017-05-13T08:37:32Z</time>
      </trkpt>
      <trkpt lat="43.42807" lon="6.51514">
        <ele>82</ele>
        <time>2017-05-13T08:37:34Z</time>
      </trkpt>
      <trkpt lat="43.42801" lon="6.5152">
        <ele>83</ele>
        <time>2017-05-13T08:37:37Z</time>
      </trkpt>
      <trkpt lat="43.42799" lon="6.51523">
        <ele>84</ele>
        <time>2017-05-13T08:37:38Z</time>
      </trkpt>
      <trkpt lat="43.42795" lon="6.51528">
        <ele>84</ele>
        <time>2017-05-13T08:37:40Z</time>
      </trkpt>
      <trkpt lat="43.4279" lon="6.51538">
        <ele>85</ele>
        <time>2017-05-13T08:37:43Z</time>
      </trkpt>
      <trkpt lat="43.42789" lon="6.51541">
        <ele>85</ele>
        <time>2017-05-13T08:37:44Z</time>
      </trkpt>
      <trkpt lat="43.42786" lon="6.51547">
        <ele>85</ele>
        <time>2017-05-13T08:37:46Z</time>
      </trkpt>
      <trkpt lat="43.42784" lon="6.51554">
        <ele>86</ele>
        <time>2017-05-13T08:37:48Z</time>
      </trkpt>
      <trkpt lat="43.42781" lon="6.5156">
        <ele>86</ele>
        <time>2017-05-13T08:37:50Z</time>
      </trkpt>
      <trkpt lat="43.42778" lon="6.51567">
        <ele>87</ele>
        <time>2017-05-13T08:37:52Z</time>
      </trkpt>
      <trkpt lat="43.42777" lon="6.51575">
        <ele>88</ele>
        <time>2017-05-13T08:37:54Z</time>
      </trkpt>
      <trkpt lat="43.42778" lon="6.51583">
        <ele>87</ele>
        <time>2017-05-13T08:37:56Z</time>
      </trkpt>
      <trkpt lat="43.42781" lon="6.51591">
        <ele>81</ele>
        <time>2017-05-13T08:37:58Z</time>
      </trkpt>
      <trkpt lat="43.42782" lon="6.51598">
        <ele>80</ele>
        <time>2017-05-13T08:38:00Z</time>
      </trkpt>
      <trkpt lat="43.42783" lon="6.51606">
        <ele>79</ele>
        <time>2017-05-13T08:38:02Z</time>
      </trkpt>
      <trkpt lat="43.42782" lon="6.51617">
        <ele>78</ele>
        <time>2017-05-13T08:38:05Z</time>
      </trkpt>
      <trkpt lat="43.42781" lon="6.5162">
        <ele>78</ele>
        <time>2017-05-13T08:38:06Z</time>
      </trkpt>
      <trkpt lat="43.42779" lon="6.51627">
        <ele>78</ele>
        <time>2017-05-13T08:38:08Z</time>
      </trkpt>
      <trkpt lat="43.42775" lon="6.51633">
        <ele>78</ele>
        <time>2017-05-13T08:38:10Z</time>
      </trkpt>
      <trkpt lat="43.4277" lon="6.51638">
        <ele>79</ele>
        <time>2017-05-13T08:38:12Z</time>
      </trkpt>
      <trkpt lat="43.42765" lon="6.51641">
        <ele>80</ele>
        <time>2017-05-13T08:38:14Z</time>
      </trkpt>
      <trkpt lat="43.42759" lon="6.51646">
        <ele>81</ele>
        <time>2017-05-13T08:38:16Z</time>
      </trkpt>
      <trkpt lat="43.42755" lon="6.5165">
        <ele>81</ele>
        <time>2017-05-13T08:38:18Z</time>
      </trkpt>
      <trkpt lat="43.42751" lon="6.51654">
        <ele>82</ele>
        <time>2017-05-13T08:38:20Z</time>
      </trkpt>
      <trkpt lat="43.42747" lon="6.51657">
        <ele>95</ele>
        <time>2017-05-13T08:38:22Z</time>
      </trkpt>
      <trkpt lat="43.42742" lon="6.51659">
        <ele>95</ele>
        <time>2017-05-13T08:38:24Z</time>
      </trkpt>
      <trkpt lat="43.42737" lon="6.51662">
        <ele>98</ele>
        <time>2017-05-13T08:38:26Z</time>
      </trkpt>
      <trkpt lat="43.42732" lon="6.51665">
        <ele>100</ele>
        <time>2017-05-13T08:38:28Z</time>
      </trkpt>
      <trkpt lat="43.42728" lon="6.51668">
        <ele>99</ele>
        <time>2017-05-13T08:38:30Z</time>
      </trkpt>
      <trkpt lat="43.42724" lon="6.51673">
        <ele>101</ele>
        <time>2017-05-13T08:38:32Z</time>
      </trkpt>
      <trkpt lat="43.42724" lon="6.51681">
        <ele>101</ele>
        <time>2017-05-13T08:38:34Z</time>
      </trkpt>
      <trkpt lat="43.42727" lon="6.51691">
        <ele>102</ele>
        <time>2017-05-13T08:38:37Z</time>
      </trkpt>
      <trkpt lat="43.4273" lon="6.51699">
        <ele>102</ele>
        <time>2017-05-13T08:38:39Z</time>
      </trkpt>
      <trkpt lat="43.42731" lon="6.51702">
        <ele>102</ele>
        <time>2017-05-13T08:38:40Z</time>
      </trkpt>
      <trkpt lat="43.42734" lon="6.51709">
        <ele>102</ele>
        <time>2017-05-13T08:38:42Z</time>
      </trkpt>
      <trkpt lat="43.42738" lon="6.51715">
        <ele>102</ele>
        <time>2017-05-13T08:38:44Z</time>
      </trkpt>
      <trkpt lat="43.42742" lon="6.51722">
        <ele>101</ele>
        <time>2017-05-13T08:38:46Z</time>
      </trkpt>
      <trkpt lat="43.42746" lon="6.51727">
        <ele>100</ele>
        <time>2017-05-13T08:38:48Z</time>
      </trkpt>
      <trkpt lat="43.4275" lon="6.51733">
        <ele>99</ele>
        <time>2017-05-13T08:38:50Z</time>
      </trkpt>
      <trkpt lat="43.42753" lon="6.51738">
        <ele>86</ele>
        <time>2017-05-13T08:38:52Z</time>
      </trkpt>
      <trkpt lat="43.42756" lon="6.51744">
        <ele>87</ele>
        <time>2017-05-13T08:38:54Z</time>
      </trkpt>
      <trkpt lat="43.4276" lon="6.51749">
        <ele>87</ele>
        <time>2017-05-13T08:38:56Z</time>
      </trkpt>
      <trkpt lat="43.42763" lon="6.51755">
        <ele>90</ele>
        <time>2017-05-13T08:38:58Z</time>
      </trkpt>
      <trkpt lat="43.42767" lon="6.51761">
        <ele>89</ele>
        <time>2017-05-13T08:39:00Z</time>
      </trkpt>
      <trkpt lat="43.4277" lon="6.51766">
        <ele>88</ele>
        <time>2017-05-13T08:39:02Z</time>
      </trkpt>
      <trkpt lat="43.42774" lon="6.51772">
        <ele>88</ele>
        <time>2017-05-13T08:39:04Z</time>
      </trkpt>
      <trkpt lat="43.42777" lon="6.51777">
        <ele>87</ele>
        <time>2017-05-13T08:39:06Z</time>
      </trkpt>
      <trkpt lat="43.42781" lon="6.51782">
        <ele>87</ele>
        <time>2017-05-13T08:39:08Z</time>
      </trkpt>
      <trkpt lat="43.42784" lon="6.51787">
        <ele>87</ele>
        <time>2017-05-13T08:39:10Z</time>
      </trkpt>
      <trkpt lat="43.42788" lon="6.51792">
        <ele>87</ele>
        <time>2017-05-13T08:39:12Z</time>
      </trkpt>
      <trkpt lat="43.42792" lon="6.51797">
        <ele>86</ele>
        <time>2017-05-13T08:39:14Z</time>
      </trkpt>
      <trkpt lat="43.42796" lon="6.51803">
        <ele>86</ele>
        <time>2017-05-13T08:39:16Z</time>
      </trkpt>
      <trkpt lat="43.42799" lon="6.51808">
        <ele>86</ele>
        <time>2017-05-13T08:39:18Z</time>
      </trkpt>
      <trkpt lat="43.42801" lon="6.51814">
        <ele>86</ele>
        <time>2017-05-13T08:39:20Z</time>
      </trkpt>
      <trkpt lat="43.42804" lon="6.51821">
        <ele>85</ele>
        <time>2017-05-13T08:39:22Z</time>
      </trkpt>
      <trkpt lat="43.42806" lon="6.51828">
        <ele>85</ele>
        <time>2017-05-13T08:39:24Z</time>
      </trkpt>
      <trkpt lat="43.42808" lon="6.51835">
        <ele>93</ele>
        <time>2017-05-13T08:39:26Z</time>
      </trkpt>
      <trkpt lat="43.42808" lon="6.51841">
        <ele>94</ele>
        <time>2017-05-13T08:39:28Z</time>
      </trkpt>
      <trkpt lat="43.42809" lon="6.5185">
        <ele>95</ele>
        <time>2017-05-13T08:39:31Z</time>
      </trkpt>
      <trkpt lat="43.42809" lon="6.51854">
        <ele>96</ele>
        <time>2017-05-13T08:39:32Z</time>
      </trkpt>
      <trkpt lat="43.4281" lon="6.51864">
        <ele>97</ele>
        <time>2017-05-13T08:39:35Z</time>
      </trkpt>
      <trkpt lat="43.42811" lon="6.51868">
        <ele>97</ele>
        <time>2017-05-13T08:39:36Z</time>
      </trkpt>
      <trkpt lat="43.42811" lon="6.51876">
        <ele>98</ele>
        <time>2017-05-13T08:39:39Z</time>
      </trkpt>
      <trkpt lat="43.42812" lon="6.5188">
        <ele>98</ele>
        <time>2017-05-13T08:39:40Z</time>
      </trkpt>
      <trkpt lat="43.42813" lon="6.51885">
        <ele>98</ele>
        <time>2017-05-13T08:39:42Z</time>
      </trkpt>
      <trkpt lat="43.42815" lon="6.51891">
        <ele>98</ele>
        <time>2017-05-13T08:39:44Z</time>
      </trkpt>
      <trkpt lat="43.42816" lon="6.51897">
        <ele>98</ele>
        <time>2017-05-13T08:39:46Z</time>
      </trkpt>
      <trkpt lat="43.42818" lon="6.51904">
        <ele>97</ele>
        <time>2017-05-13T08:39:48Z</time>
      </trkpt>
      <trkpt lat="43.42819" lon="6.5191">
        <ele>96</ele>
        <time>2017-05-13T08:39:50Z</time>
      </trkpt>
      <trkpt lat="43.4282" lon="6.51917">
        <ele>100</ele>
        <time>2017-05-13T08:39:52Z</time>
      </trkpt>
      <trkpt lat="43.42821" lon="6.51928">
        <ele>102</ele>
        <time>2017-05-13T08:39:55Z</time>
      </trkpt>
      <trkpt lat="43.4282" lon="6.51931">
        <ele>104</ele>
        <time>2017-05-13T08:39:56Z</time>
      </trkpt>
      <trkpt lat="43.4282" lon="6.51939">
        <ele>106</ele>
        <time>2017-05-13T08:39:58Z</time>
      </trkpt>
      <trkpt lat="43.42819" lon="6.51945">
        <ele>108</ele>
        <time>2017-05-13T08:40:00Z</time>
      </trkpt>
      <trkpt lat="43.42818" lon="6.51951">
        <ele>109</ele>
        <time>2017-05-13T08:40:02Z</time>
      </trkpt>
      <trkpt lat="43.42816" lon="6.51958">
        <ele>110</ele>
        <time>2017-05-13T08:40:05Z</time>
      </trkpt>
      <trkpt lat="43.42816" lon="6.51966">
        <ele>111</ele>
        <time>2017-05-13T08:40:07Z</time>
      </trkpt>
      <trkpt lat="43.42817" lon="6.51969">
        <ele>111</ele>
        <time>2017-05-13T08:40:08Z</time>
      </trkpt>
      <trkpt lat="43.42818" lon="6.51978">
        <ele>110</ele>
        <time>2017-05-13T08:40:11Z</time>
      </trkpt>
      <trkpt lat="43.42818" lon="6.51981">
        <ele>110</ele>
        <time>2017-05-13T08:40:12Z</time>
      </trkpt>
      <trkpt lat="43.4282" lon="6.51987">
        <ele>108</ele>
        <time>2017-05-13T08:40:14Z</time>
      </trkpt>
      <trkpt lat="43.42822" lon="6.51994">
        <ele>106</ele>
        <time>2017-05-13T08:40:16Z</time>
      </trkpt>
      <trkpt lat="43.42824" lon="6.52">
        <ele>105</ele>
        <time>2017-05-13T08:40:18Z</time>
      </trkpt>
      <trkpt lat="43.42826" lon="6.52006">
        <ele>107</ele>
        <time>2017-05-13T08:40:20Z</time>
      </trkpt>
      <trkpt lat="43.42828" lon="6.52011">
        <ele>109</ele>
        <time>2017-05-13T08:40:22Z</time>
      </trkpt>
      <trkpt lat="43.42829" lon="6.52018">
        <ele>111</ele>
        <time>2017-05-13T08:40:24Z</time>
      </trkpt>
      <trkpt lat="43.4283" lon="6.52024">
        <ele>113</ele>
        <time>2017-05-13T08:40:26Z</time>
      </trkpt>
      <trkpt lat="43.42831" lon="6.5203">
        <ele>115</ele>
        <time>2017-05-13T08:40:28Z</time>
      </trkpt>
      <trkpt lat="43.42831" lon="6.52037">
        <ele>116</ele>
        <time>2017-05-13T08:40:30Z</time>
      </trkpt>
      <trkpt lat="43.42832" lon="6.52044">
        <ele>117</ele>
        <time>2017-05-13T08:40:32Z</time>
      </trkpt>
      <trkpt lat="43.42835" lon="6.52051">
        <ele>89</ele>
        <time>2017-05-13T08:40:34Z</time>
      </trkpt>
      <trkpt lat="43.42838" lon="6.52057">
        <ele>90</ele>
        <time>2017-05-13T08:40:36Z</time>
      </trkpt>
      <trkpt lat="43.42841" lon="6.52063">
        <ele>92</ele>
        <time>2017-05-13T08:40:38Z</time>
      </trkpt>
      <trkpt lat="43.42843" lon="6.52069">
        <ele>94</ele>
        <time>2017-05-13T08:40:40Z</time>
      </trkpt>
      <trkpt lat="43.42846" lon="6.52075">
        <ele>95</ele>
        <time>2017-05-13T08:40:42Z</time>
      </trkpt>
      <trkpt lat="43.42849" lon="6.52082">
        <ele>95</ele>
        <time>2017-05-13T08:40:44Z</time>
      </trkpt>
      <trkpt lat="43.4285" lon="6.52088">
        <ele>95</ele>
        <time>2017-05-13T08:40:46Z</time>
      </trkpt>
      <trkpt lat="43.42852" lon="6.52095">
        <ele>92</ele>
        <time>2017-05-13T08:40:48Z</time>
      </trkpt>
      <trkpt lat="43.42855" lon="6.52102">
        <ele>90</ele>
        <time>2017-05-13T08:40:50Z</time>
      </trkpt>
      <trkpt lat="43.42856" lon="6.5211">
        <ele>88</ele>
        <time>2017-05-13T08:40:52Z</time>
      </trkpt>
      <trkpt lat="43.42856" lon="6.52118">
        <ele>86</ele>
        <time>2017-05-13T08:40:54Z</time>
      </trkpt>
      <trkpt lat="43.42854" lon="6.5213">
        <ele>86</ele>
        <time>2017-05-13T08:40:57Z</time>
      </trkpt>
      <trkpt lat="43.42852" lon="6.52133">
        <ele>86</ele>
        <time>2017-05-13T08:40:58Z</time>
      </trkpt>
      <trkpt lat="43.42849" lon="6.52139">
        <ele>87</ele>
        <time>2017-05-13T08:41:00Z</time>
      </trkpt>
      <trkpt lat="43.42844" lon="6.52144">
        <ele>88</ele>
        <time>2017-05-13T08:41:02Z</time>
      </trkpt>
      <trkpt lat="43.42837" lon="6.52149">
        <ele>90</ele>
        <time>2017-05-13T08:41:04Z</time>
      </trkpt>
      <trkpt lat="43.42832" lon="6.52152">
        <ele>104</ele>
        <time>2017-05-13T08:41:06Z</time>
      </trkpt>
      <trkpt lat="43.42827" lon="6.52154">
        <ele>104</ele>
        <time>2017-05-13T08:41:08Z</time>
      </trkpt>
      <trkpt lat="43.4282" lon="6.52155">
        <ele>105</ele>
        <time>2017-05-13T08:41:10Z</time>
      </trkpt>
      <trkpt lat="43.4281" lon="6.52158">
        <ele>108</ele>
        <time>2017-05-13T08:41:13Z</time>
      </trkpt>
      <trkpt lat="43.42806" lon="6.52159">
        <ele>109</ele>
        <time>2017-05-13T08:41:14Z</time>
      </trkpt>
      <trkpt lat="43.42797" lon="6.52163">
        <ele>111</ele>
        <time>2017-05-13T08:41:17Z</time>
      </trkpt>
      <trkpt lat="43.42794" lon="6.52165">
        <ele>111</ele>
        <time>2017-05-13T08:41:18Z</time>
      </trkpt>
      <trkpt lat="43.42789" lon="6.52168">
        <ele>95</ele>
        <time>2017-05-13T08:41:20Z</time>
      </trkpt>
      <trkpt lat="43.42784" lon="6.52169">
        <ele>96</ele>
        <time>2017-05-13T08:41:22Z</time>
      </trkpt>
      <trkpt lat="43.4278" lon="6.5217">
        <ele>97</ele>
        <time>2017-05-13T08:41:24Z</time>
      </trkpt>
      <trkpt lat="43.42773" lon="6.52169">
        <ele>99</ele>
        <time>2017-05-13T08:41:27Z</time>
      </trkpt>
      <trkpt lat="43.42771" lon="6.52168">
        <ele>100</ele>
        <time>2017-05-13T08:41:28Z</time>
      </trkpt>
      <trkpt lat="43.42766" lon="6.52166">
        <ele>114</ele>
        <time>2017-05-13T08:41:30Z</time>
      </trkpt>
      <trkpt lat="43.4276" lon="6.52164">
        <ele>114</ele>
        <time>2017-05-13T08:41:32Z</time>
      </trkpt>
      <trkpt lat="43.42756" lon="6.52162">
        <ele>114</ele>
        <time>2017-05-13T08:41:34Z</time>
      </trkpt>
      <trkpt lat="43.4275" lon="6.52161">
        <ele>114</ele>
        <time>2017-05-13T08:41:36Z</time>
      </trkpt>
      <trkpt lat="43.42745" lon="6.52158">
        <ele>121</ele>
        <time>2017-05-13T08:41:38Z</time>
      </trkpt>
      <trkpt lat="43.4274" lon="6.52154">
        <ele>123</ele>
        <time>2017-05-13T08:41:40Z</time>
      </trkpt>
      <trkpt lat="43.42733" lon="6.5215">
        <ele>126</ele>
        <time>2017-05-13T08:41:43Z</time>
      </trkpt>
      <trkpt lat="43.4273" lon="6.5215">
        <ele>126</ele>
        <time>2017-05-13T08:41:44Z</time>
      </trkpt>
      <trkpt lat="43.42725" lon="6.52149">
        <ele>128</ele>
        <time>2017-05-13T08:41:46Z</time>
      </trkpt>
      <trkpt lat="43.42719" lon="6.5215">
        <ele>128</ele>
        <time>2017-05-13T08:41:48Z</time>
      </trkpt>
      <trkpt lat="43.42714" lon="6.52152">
        <ele>129</ele>
        <time>2017-05-13T08:41:50Z</time>
      </trkpt>
      <trkpt lat="43.42709" lon="6.52155">
        <ele>129</ele>
        <time>2017-05-13T08:41:52Z</time>
      </trkpt>
      <trkpt lat="43.42704" lon="6.52158">
        <ele>129</ele>
        <time>2017-05-13T08:41:54Z</time>
      </trkpt>
      <trkpt lat="43.427" lon="6.52161">
        <ele>130</ele>
        <time>2017-05-13T08:41:56Z</time>
      </trkpt>
      <trkpt lat="43.42695" lon="6.52164">
        <ele>130</ele>
        <time>2017-05-13T08:41:58Z</time>
      </trkpt>
      <trkpt lat="43.42691" lon="6.52168">
        <ele>115</ele>
        <time>2017-05-13T08:42:00Z</time>
      </trkpt>
      <trkpt lat="43.42687" lon="6.52173">
        <ele>116</ele>
        <time>2017-05-13T08:42:02Z</time>
      </trkpt>
      <trkpt lat="43.42683" lon="6.52178">
        <ele>116</ele>
        <time>2017-05-13T08:42:04Z</time>
      </trkpt>
      <trkpt lat="43.42679" lon="6.52183">
        <ele>116</ele>
        <time>2017-05-13T08:42:06Z</time>
      </trkpt>
      <trkpt lat="43.42676" lon="6.52188">
        <ele>115</ele>
        <time>2017-05-13T08:42:08Z</time>
      </trkpt>
      <trkpt lat="43.42673" lon="6.52192">
        <ele>114</ele>
        <time>2017-05-13T08:42:10Z</time>
      </trkpt>
      <trkpt lat="43.4267" lon="6.52196">
        <ele>112</ele>
        <time>2017-05-13T08:42:12Z</time>
      </trkpt>
      <trkpt lat="43.42667" lon="6.522">
        <ele>117</ele>
        <time>2017-05-13T08:42:14Z</time>
      </trkpt>
      <trkpt lat="43.42663" lon="6.52204">
        <ele>116</ele>
        <time>2017-05-13T08:42:16Z</time>
      </trkpt>
      <trkpt lat="43.42659" lon="6.52208">
        <ele>115</ele>
        <time>2017-05-13T08:42:18Z</time>
      </trkpt>
      <trkpt lat="43.42654" lon="6.52211">
        <ele>114</ele>
        <time>2017-05-13T08:42:20Z</time>
      </trkpt>
      <trkpt lat="43.4265" lon="6.52214">
        <ele>114</ele>
        <time>2017-05-13T08:42:22Z</time>
      </trkpt>
      <trkpt lat="43.42646" lon="6.52216">
        <ele>114</ele>
        <time>2017-05-13T08:42:24Z</time>
      </trkpt>
      <trkpt lat="43.42641" lon="6.52217">
        <ele>113</ele>
        <time>2017-05-13T08:42:26Z</time>
      </trkpt>
      <trkpt lat="43.42636" lon="6.52217">
        <ele>114</ele>
        <time>2017-05-13T08:42:28Z</time>
      </trkpt>
      <trkpt lat="43.42632" lon="6.52214">
        <ele>114</ele>
        <time>2017-05-13T08:42:30Z</time>
      </trkpt>
      <trkpt lat="43.42628" lon="6.52212">
        <ele>114</ele>
        <time>2017-05-13T08:42:32Z</time>
      </trkpt>
      <trkpt lat="43.42624" lon="6.52209">
        <ele>115</ele>
        <time>2017-05-13T08:42:34Z</time>
      </trkpt>
      <trkpt lat="43.4262" lon="6.52206">
        <ele>115</ele>
        <time>2017-05-13T08:42:36Z</time>
      </trkpt>
      <trkpt lat="43.42616" lon="6.52203">
        <ele>115</ele>
        <time>2017-05-13T08:42:38Z</time>
      </trkpt>
      <trkpt lat="43.42613" lon="6.52199">
        <ele>116</ele>
        <time>2017-05-13T08:42:40Z</time>
      </trkpt>
      <trkpt lat="43.42611" lon="6.52194">
        <ele>116</ele>
        <time>2017-05-13T08:42:42Z</time>
      </trkpt>
      <trkpt lat="43.42608" lon="6.52189">
        <ele>117</ele>
        <time>2017-05-13T08:42:44Z</time>
      </trkpt>
      <trkpt lat="43.42606" lon="6.52181">
        <ele>118</ele>
        <time>2017-05-13T08:42:47Z</time>
      </trkpt>
      <trkpt lat="43.42605" lon="6.52178">
        <ele>118</ele>
        <time>2017-05-13T08:42:48Z</time>
      </trkpt>
      <trkpt lat="43.42603" lon="6.52173">
        <ele>119</ele>
        <time>2017-05-13T08:42:50Z</time>
      </trkpt>
      <trkpt lat="43.42601" lon="6.52167">
        <ele>119</ele>
        <time>2017-05-13T08:42:52Z</time>
      </trkpt>
      <trkpt lat="43.42599" lon="6.52162">
        <ele>127</ele>
        <time>2017-05-13T08:42:54Z</time>
      </trkpt>
      <trkpt lat="43.42597" lon="6.52156">
        <ele>127</ele>
        <time>2017-05-13T08:42:56Z</time>
      </trkpt>
      <trkpt lat="43.42597" lon="6.5215">
        <ele>128</ele>
        <time>2017-05-13T08:42:58Z</time>
      </trkpt>
      <trkpt lat="43.42596" lon="6.52144">
        <ele>128</ele>
        <time>2017-05-13T08:43:00Z</time>
      </trkpt>
      <trkpt lat="43.42595" lon="6.52137">
        <ele>129</ele>
        <time>2017-05-13T08:43:02Z</time>
      </trkpt>
      <trkpt lat="43.42594" lon="6.52128">
        <ele>130</ele>
        <time>2017-05-13T08:43:05Z</time>
      </trkpt>
      <trkpt lat="43.42594" lon="6.52125">
        <ele>130</ele>
        <time>2017-05-13T08:43:06Z</time>
      </trkpt>
      <trkpt lat="43.42594" lon="6.5212">
        <ele>130</ele>
        <time>2017-05-13T08:43:08Z</time>
      </trkpt>
      <trkpt lat="43.42594" lon="6.52111">
        <ele>131</ele>
        <time>2017-05-13T08:43:10Z</time>
      </trkpt>
      <trkpt lat="43.42594" lon="6.52104">
        <ele>131</ele>
        <time>2017-05-13T08:43:12Z</time>
      </trkpt>
      <trkpt lat="43.42594" lon="6.52098">
        <ele>131</ele>
        <time>2017-05-13T08:43:14Z</time>
      </trkpt>
      <trkpt lat="43.42595" lon="6.52092">
        <ele>131</ele>
        <time>2017-05-13T08:43:16Z</time>
      </trkpt>
      <trkpt lat="43.42595" lon="6.52083">
        <ele>135</ele>
        <time>2017-05-13T08:43:19Z</time>
      </trkpt>
      <trkpt lat="43.42596" lon="6.5208">
        <ele>135</ele>
        <time>2017-05-13T08:43:20Z</time>
      </trkpt>
      <trkpt lat="43.42595" lon="6.52073">
        <ele>136</ele>
        <time>2017-05-13T08:43:22Z</time>
      </trkpt>
      <trkpt lat="43.42595" lon="6.52067">
        <ele>138</ele>
        <time>2017-05-13T08:43:24Z</time>
      </trkpt>
      <trkpt lat="43.42596" lon="6.52061">
        <ele>139</ele>
        <time>2017-05-13T08:43:26Z</time>
      </trkpt>
      <trkpt lat="43.42596" lon="6.52056">
        <ele>140</ele>
        <time>2017-05-13T08:43:28Z</time>
      </trkpt>
      <trkpt lat="43.42597" lon="6.5205">
        <ele>141</ele>
        <time>2017-05-13T08:43:30Z</time>
      </trkpt>
      <trkpt lat="43.42597" lon="6.52044">
        <ele>142</ele>
        <time>2017-05-13T08:43:32Z</time>
      </trkpt>
      <trkpt lat="43.42596" lon="6.52038">
        <ele>142</ele>
        <time>2017-05-13T08:43:34Z</time>
      </trkpt>
      <trkpt lat="43.42595" lon="6.52032">
        <ele>143</ele>
        <time>2017-05-13T08:43:36Z</time>
      </trkpt>
      <trkpt lat="43.42593" lon="6.52026">
        <ele>143</ele>
        <time>2017-05-13T08:43:38Z</time>
      </trkpt>
      <trkpt lat="43.42591" lon="6.52021">
        <ele>143</ele>
        <time>2017-05-13T08:43:40Z</time>
      </trkpt>
      <trkpt lat="43.42589" lon="6.52015">
        <ele>143</ele>
        <time>2017-05-13T08:43:42Z</time>
      </trkpt>
      <trkpt lat="43.42588" lon="6.5201">
        <ele>142</ele>
        <time>2017-05-13T08:43:44Z</time>
      </trkpt>
      <trkpt lat="43.42585" lon="6.52004">
        <ele>142</ele>
        <time>2017-05-13T08:43:46Z</time>
      </trkpt>
      <trkpt lat="43.42582" lon="6.52">
        <ele>141</ele>
        <time>2017-05-13T08:43:48Z</time>
      </trkpt>
      <trkpt lat="43.42579" lon="6.51995">
        <ele>142</ele>
        <time>2017-05-13T08:43:50Z</time>
      </trkpt>
      <trkpt lat="43.42573" lon="6.5199">
        <ele>144</ele>
        <time>2017-05-13T08:43:53Z</time>
      </trkpt>
      <trkpt lat="43.42571" lon="6.51988">
        <ele>144</ele>
        <time>2017-05-13T08:43:54Z</time>
      </trkpt>
      <trkpt lat="43.42567" lon="6.51984">
        <ele>145</ele>
        <time>2017-05-13T08:43:56Z</time>
      </trkpt>
      <trkpt lat="43.42561" lon="6.5198">
        <ele>145</ele>
        <time>2017-05-13T08:43:59Z</time>
      </trkpt>
      <trkpt lat="43.42558" lon="6.51979">
        <ele>145</ele>
        <time>2017-05-13T08:44:00Z</time>
      </trkpt>
      <trkpt lat="43.42553" lon="6.51977">
        <ele>145</ele>
        <time>2017-05-13T08:44:02Z</time>
      </trkpt>
      <trkpt lat="43.42548" lon="6.51974">
        <ele>146</ele>
        <time>2017-05-13T08:44:04Z</time>
      </trkpt>
      <trkpt lat="43.42542" lon="6.51974">
        <ele>145</ele>
        <time>2017-05-13T08:44:06Z</time>
      </trkpt>
      <trkpt lat="43.42537" lon="6.51973">
        <ele>145</ele>
        <time>2017-05-13T08:44:08Z</time>
      </trkpt>
      <trkpt lat="43.42533" lon="6.51971">
        <ele>145</ele>
        <time>2017-05-13T08:44:10Z</time>
      </trkpt>
      <trkpt lat="43.42529" lon="6.51969">
        <ele>145</ele>
        <time>2017-05-13T08:44:12Z</time>
      </trkpt>
      <trkpt lat="43.42523" lon="6.51967">
        <ele>145</ele>
        <time>2017-05-13T08:44:15Z</time>
      </trkpt>
      <trkpt lat="43.42521" lon="6.51966">
        <ele>145</ele>
        <time>2017-05-13T08:44:16Z</time>
      </trkpt>
      <trkpt lat="43.42517" lon="6.51964">
        <ele>145</ele>
        <time>2017-05-13T08:44:18Z</time>
      </trkpt>
      <trkpt lat="43.42512" lon="6.51963">
        <ele>145</ele>
        <time>2017-05-13T08:44:20Z</time>
      </trkpt>
      <trkpt lat="43.42506" lon="6.51964">
        <ele>145</ele>
        <time>2017-05-13T08:44:22Z</time>
      </trkpt>
      <trkpt lat="43.42502" lon="6.51964">
        <ele>145</ele>
        <time>2017-05-13T08:44:24Z</time>
      </trkpt>
      <trkpt lat="43.42497" lon="6.51964">
        <ele>142</ele>
        <time>2017-05-13T08:44:26Z</time>
      </trkpt>
      <trkpt lat="43.42493" lon="6.51964">
        <ele>141</ele>
        <time>2017-05-13T08:44:28Z</time>
      </trkpt>
      <trkpt lat="43.42488" lon="6.51965">
        <ele>141</ele>
        <time>2017-05-13T08:44:30Z</time>
      </trkpt>
      <trkpt lat="43.42482" lon="6.51967">
        <ele>141</ele>
        <time>2017-05-13T08:44:32Z</time>
      </trkpt>
      <trkpt lat="43.42477" lon="6.51968">
        <ele>141</ele>
        <time>2017-05-13T08:44:34Z</time>
      </trkpt>
      <trkpt lat="43.42471" lon="6.51968">
        <ele>141</ele>
        <time>2017-05-13T08:44:36Z</time>
      </trkpt>
      <trkpt lat="43.42466" lon="6.51968">
        <ele>141</ele>
        <time>2017-05-13T08:44:38Z</time>
      </trkpt>
      <trkpt lat="43.42461" lon="6.51967">
        <ele>141</ele>
        <time>2017-05-13T08:44:40Z</time>
      </trkpt>
      <trkpt lat="43.42457" lon="6.51965">
        <ele>141</ele>
        <time>2017-05-13T08:44:42Z</time>
      </trkpt>
      <trkpt lat="43.42452" lon="6.51963">
        <ele>141</ele>
        <time>2017-05-13T08:44:44Z</time>
      </trkpt>
      <trkpt lat="43.42448" lon="6.51959">
        <ele>141</ele>
        <time>2017-05-13T08:44:46Z</time>
      </trkpt>
      <trkpt lat="43.42444" lon="6.51954">
        <ele>141</ele>
        <time>2017-05-13T08:44:48Z</time>
      </trkpt>
      <trkpt lat="43.42441" lon="6.5195">
        <ele>141</ele>
        <time>2017-05-13T08:44:50Z</time>
      </trkpt>
      <trkpt lat="43.4244" lon="6.51948">
        <ele>141</ele>
        <time>2017-05-13T08:44:52Z</time>
      </trkpt>
      <trkpt lat="43.42441" lon="6.51947">
        <ele>141</ele>
        <time>2017-05-13T08:44:54Z</time>
      </trkpt>
      <trkpt lat="43.42441" lon="6.51947">
        <ele>141</ele>
        <time>2017-05-13T08:44:56Z</time>
      </trkpt>
      <trkpt lat="43.42441" lon="6.51947">
        <ele>141</ele>
        <time>2017-05-13T08:44:58Z</time>
      </trkpt>
      <trkpt lat="43.4244" lon="6.51947">
        <ele>141</ele>
        <time>2017-05-13T08:45:00Z</time>
      </trkpt>
      <trkpt lat="43.42441" lon="6.51947">
        <ele>141</ele>
        <time>2017-05-13T08:45:02Z</time>
      </trkpt>
      <trkpt lat="43.42441" lon="6.51946">
        <ele>141</ele>
        <time>2017-05-13T08:45:04Z</time>
      </trkpt>
      <trkpt lat="43.42442" lon="6.51942">
        <ele>141</ele>
        <time>2017-05-13T08:45:06Z</time>
      </trkpt>
      <trkpt lat="43.42442" lon="6.51937">
        <ele>141</ele>
        <time>2017-05-13T08:45:08Z</time>
      </trkpt>
      <trkpt lat="43.42442" lon="6.51931">
        <ele>141</ele>
        <time>2017-05-13T08:45:10Z</time>
      </trkpt>
      <trkpt lat="43.42443" lon="6.51926">
        <ele>141</ele>
        <time>2017-05-13T08:45:12Z</time>
      </trkpt>
      <trkpt lat="43.42445" lon="6.51921">
        <ele>141</ele>
        <time>2017-05-13T08:45:14Z</time>
      </trkpt>
      <trkpt lat="43.42448" lon="6.51914">
        <ele>141</ele>
        <time>2017-05-13T08:45:17Z</time>
      </trkpt>
      <trkpt lat="43.4245" lon="6.51912">
        <ele>141</ele>
        <time>2017-05-13T08:45:18Z</time>
      </trkpt>
      <trkpt lat="43.42454" lon="6.51908">
        <ele>142</ele>
        <time>2017-05-13T08:45:20Z</time>
      </trkpt>
      <trkpt lat="43.42458" lon="6.51906">
        <ele>142</ele>
        <time>2017-05-13T08:45:22Z</time>
      </trkpt>
      <trkpt lat="43.42463" lon="6.51903">
        <ele>143</ele>
        <time>2017-05-13T08:45:24Z</time>
      </trkpt>
      <trkpt lat="43.42468" lon="6.51899">
        <ele>144</ele>
        <time>2017-05-13T08:45:26Z</time>
      </trkpt>
      <trkpt lat="43.42472" lon="6.51895">
        <ele>144</ele>
        <time>2017-05-13T08:45:28Z</time>
      </trkpt>
      <trkpt lat="43.42477" lon="6.51891">
        <ele>145</ele>
        <time>2017-05-13T08:45:30Z</time>
      </trkpt>
      <trkpt lat="43.42485" lon="6.51884">
        <ele>145</ele>
        <time>2017-05-13T08:45:33Z</time>
      </trkpt>
      <trkpt lat="43.42487" lon="6.51882">
        <ele>145</ele>
        <time>2017-05-13T08:45:34Z</time>
      </trkpt>
      <trkpt lat="43.42492" lon="6.51876">
        <ele>145</ele>
        <time>2017-05-13T08:45:36Z</time>
      </trkpt>
      <trkpt lat="43.42495" lon="6.51871">
        <ele>145</ele>
        <time>2017-05-13T08:45:38Z</time>
      </trkpt>
      <trkpt lat="43.42498" lon="6.51864">
        <ele>146</ele>
        <time>2017-05-13T08:45:40Z</time>
      </trkpt>
      <trkpt lat="43.42501" lon="6.51858">
        <ele>154</ele>
        <time>2017-05-13T08:45:42Z</time>
      </trkpt>
      <trkpt lat="43.42505" lon="6.51852">
        <ele>153</ele>
        <time>2017-05-13T08:45:44Z</time>
      </trkpt>
      <trkpt lat="43.42511" lon="6.51842">
        <ele>153</ele>
        <time>2017-05-13T08:45:47Z</time>
      </trkpt>
      <trkpt lat="43.42513" lon="6.51839">
        <ele>153</ele>
        <time>2017-05-13T08:45:48Z</time>
      </trkpt>
      <trkpt lat="43.42516" lon="6.51832">
        <ele>152</ele>
        <time>2017-05-13T08:45:50Z</time>
      </trkpt>
      <trkpt lat="43.42519" lon="6.51826">
        <ele>152</ele>
        <time>2017-05-13T08:45:52Z</time>
      </trkpt>
      <trkpt lat="43.42521" lon="6.51819">
        <ele>152</ele>
        <time>2017-05-13T08:45:54Z</time>
      </trkpt>
      <trkpt lat="43.42523" lon="6.51811">
        <ele>152</ele>
        <time>2017-05-13T08:45:56Z</time>
      </trkpt>
      <trkpt lat="43.42525" lon="6.51804">
        <ele>151</ele>
        <time>2017-05-13T08:45:58Z</time>
      </trkpt>
      <trkpt lat="43.42528" lon="6.51796">
        <ele>151</ele>
        <time>2017-05-13T08:46:00Z</time>
      </trkpt>
      <trkpt lat="43.42532" lon="6.51788">
        <ele>151</ele>
        <time>2017-05-13T08:46:02Z</time>
      </trkpt>
      <trkpt lat="43.42535" lon="6.51779">
        <ele>151</ele>
        <time>2017-05-13T08:46:04Z</time>
      </trkpt>
      <trkpt lat="43.42537" lon="6.5177">
        <ele>151</ele>
        <time>2017-05-13T08:46:06Z</time>
      </trkpt>
      <trkpt lat="43.42538" lon="6.51761">
        <ele>150</ele>
        <time>2017-05-13T08:46:08Z</time>
      </trkpt>
      <trkpt lat="43.42537" lon="6.51751">
        <ele>150</ele>
        <time>2017-05-13T08:46:10Z</time>
      </trkpt>
      <trkpt lat="43.42534" lon="6.51742">
        <ele>153</ele>
        <time>2017-05-13T08:46:12Z</time>
      </trkpt>
      <trkpt lat="43.42529" lon="6.51736">
        <ele>153</ele>
        <time>2017-05-13T08:46:14Z</time>
      </trkpt>
      <trkpt lat="43.42525" lon="6.5173">
        <ele>153</ele>
        <time>2017-05-13T08:46:16Z</time>
      </trkpt>
      <trkpt lat="43.42521" lon="6.51725">
        <ele>153</ele>
        <time>2017-05-13T08:46:18Z</time>
      </trkpt>
      <trkpt lat="43.42518" lon="6.51719">
        <ele>154</ele>
        <time>2017-05-13T08:46:20Z</time>
      </trkpt>
      <trkpt lat="43.42514" lon="6.51712">
        <ele>155</ele>
        <time>2017-05-13T08:46:22Z</time>
      </trkpt>
      <trkpt lat="43.42512" lon="6.51705">
        <ele>155</ele>
        <time>2017-05-13T08:46:24Z</time>
      </trkpt>
      <trkpt lat="43.42509" lon="6.51698">
        <ele>156</ele>
        <time>2017-05-13T08:46:26Z</time>
      </trkpt>
      <trkpt lat="43.42505" lon="6.51692">
        <ele>157</ele>
        <time>2017-05-13T08:46:28Z</time>
      </trkpt>
      <trkpt lat="43.42502" lon="6.51685">
        <ele>158</ele>
        <time>2017-05-13T08:46:30Z</time>
      </trkpt>
      <trkpt lat="43.42499" lon="6.51679">
        <ele>157</ele>
        <time>2017-05-13T08:46:32Z</time>
      </trkpt>
      <trkpt lat="43.42496" lon="6.51672">
        <ele>159</ele>
        <time>2017-05-13T08:46:34Z</time>
      </trkpt>
      <trkpt lat="43.42492" lon="6.51662">
        <ele>165</ele>
        <time>2017-05-13T08:46:37Z</time>
      </trkpt>
      <trkpt lat="43.42491" lon="6.51659">
        <ele>165</ele>
        <time>2017-05-13T08:46:38Z</time>
      </trkpt>
      <trkpt lat="43.42487" lon="6.51653">
        <ele>167</ele>
        <time>2017-05-13T08:46:40Z</time>
      </trkpt>
      <trkpt lat="43.42484" lon="6.51648">
        <ele>168</ele>
        <time>2017-05-13T08:46:42Z</time>
      </trkpt>
      <trkpt lat="43.42481" lon="6.51642">
        <ele>169</ele>
        <time>2017-05-13T08:46:44Z</time>
      </trkpt>
      <trkpt lat="43.42474" lon="6.51634">
        <ele>170</ele>
        <time>2017-05-13T08:46:47Z</time>
      </trkpt>
      <trkpt lat="43.42472" lon="6.51632">
        <ele>170</ele>
        <time>2017-05-13T08:46:48Z</time>
      </trkpt>
      <trkpt lat="43.42466" lon="6.51628">
        <ele>171</ele>
        <time>2017-05-13T08:46:50Z</time>
      </trkpt>
      <trkpt lat="43.4246" lon="6.51625">
        <ele>171</ele>
        <time>2017-05-13T08:46:52Z</time>
      </trkpt>
      <trkpt lat="43.42453" lon="6.51623">
        <ele>171</ele>
        <time>2017-05-13T08:46:54Z</time>
      </trkpt>
      <trkpt lat="43.42448" lon="6.51623">
        <ele>171</ele>
        <time>2017-05-13T08:46:56Z</time>
      </trkpt>
      <trkpt lat="43.4244" lon="6.51627">
        <ele>170</ele>
        <time>2017-05-13T08:46:59Z</time>
      </trkpt>
      <trkpt lat="43.42438" lon="6.51629">
        <ele>170</ele>
        <time>2017-05-13T08:47:00Z</time>
      </trkpt>
      <trkpt lat="43.42433" lon="6.51633">
        <ele>169</ele>
        <time>2017-05-13T08:47:02Z</time>
      </trkpt>
      <trkpt lat="43.42428" lon="6.51637">
        <ele>167</ele>
        <time>2017-05-13T08:47:04Z</time>
      </trkpt>
      <trkpt lat="43.42423" lon="6.51641">
        <ele>166</ele>
        <time>2017-05-13T08:47:06Z</time>
      </trkpt>
      <trkpt lat="43.42415" lon="6.51642">
        <ele>163</ele>
        <time>2017-05-13T08:47:09Z</time>
      </trkpt>
      <trkpt lat="43.42412" lon="6.51643">
        <ele>163</ele>
        <time>2017-05-13T08:47:10Z</time>
      </trkpt>
      <trkpt lat="43.42407" lon="6.51642">
        <ele>164</ele>
        <time>2017-05-13T08:47:12Z</time>
      </trkpt>
      <trkpt lat="43.42405" lon="6.5164">
        <ele>164</ele>
        <time>2017-05-13T08:47:14Z</time>
      </trkpt>
      <trkpt lat="43.42402" lon="6.51636">
        <ele>165</ele>
        <time>2017-05-13T08:47:16Z</time>
      </trkpt>
      <trkpt lat="43.42397" lon="6.51633">
        <ele>165</ele>
        <time>2017-05-13T08:47:18Z</time>
      </trkpt>
      <trkpt lat="43.4239" lon="6.51632">
        <ele>166</ele>
        <time>2017-05-13T08:47:20Z</time>
      </trkpt>
      <trkpt lat="43.4238" lon="6.51634">
        <ele>165</ele>
        <time>2017-05-13T08:47:23Z</time>
      </trkpt>
      <trkpt lat="43.42376" lon="6.51634">
        <ele>165</ele>
        <time>2017-05-13T08:47:24Z</time>
      </trkpt>
      <trkpt lat="43.4237" lon="6.51634">
        <ele>165</ele>
        <time>2017-05-13T08:47:26Z</time>
      </trkpt>
      <trkpt lat="43.42364" lon="6.51633">
        <ele>165</ele>
        <time>2017-05-13T08:47:28Z</time>
      </trkpt>
      <trkpt lat="43.42358" lon="6.51631">
        <ele>165</ele>
        <time>2017-05-13T08:47:30Z</time>
      </trkpt>
      <trkpt lat="43.42353" lon="6.51627">
        <ele>166</ele>
        <time>2017-05-13T08:47:32Z</time>
      </trkpt>
      <trkpt lat="43.42348" lon="6.51623">
        <ele>166</ele>
        <time>2017-05-13T08:47:34Z</time>
      </trkpt>
      <trkpt lat="43.42344" lon="6.51619">
        <ele>167</ele>
        <time>2017-05-13T08:47:36Z</time>
      </trkpt>
      <trkpt lat="43.42341" lon="6.51614">
        <ele>168</ele>
        <time>2017-05-13T08:47:38Z</time>
      </trkpt>
      <trkpt lat="43.42337" lon="6.51608">
        <ele>168</ele>
        <time>2017-05-13T08:47:40Z</time>
      </trkpt>
      <trkpt lat="43.42334" lon="6.51602">
        <ele>169</ele>
        <time>2017-05-13T08:47:42Z</time>
      </trkpt>
      <trkpt lat="43.4233" lon="6.51596">
        <ele>165</ele>
        <time>2017-05-13T08:47:44Z</time>
      </trkpt>
      <trkpt lat="43.42325" lon="6.51591">
        <ele>166</ele>
        <time>2017-05-13T08:47:46Z</time>
      </trkpt>
      <trkpt lat="43.4232" lon="6.51585">
        <ele>165</ele>
        <time>2017-05-13T08:47:48Z</time>
      </trkpt>
      <trkpt lat="43.42315" lon="6.5158">
        <ele>173</ele>
        <time>2017-05-13T08:47:50Z</time>
      </trkpt>
      <trkpt lat="43.42311" lon="6.51573">
        <ele>173</ele>
        <time>2017-05-13T08:47:52Z</time>
      </trkpt>
      <trkpt lat="43.42307" lon="6.51567">
        <ele>174</ele>
        <time>2017-05-13T08:47:54Z</time>
      </trkpt>
      <trkpt lat="43.42303" lon="6.51555">
        <ele>175</ele>
        <time>2017-05-13T08:47:57Z</time>
      </trkpt>
      <trkpt lat="43.42301" lon="6.51551">
        <ele>175</ele>
        <time>2017-05-13T08:47:58Z</time>
      </trkpt>
      <trkpt lat="43.42297" lon="6.51544">
        <ele>176</ele>
        <time>2017-05-13T08:48:00Z</time>
      </trkpt>
      <trkpt lat="43.42293" lon="6.51537">
        <ele>176</ele>
        <time>2017-05-13T08:48:02Z</time>
      </trkpt>
      <trkpt lat="43.42288" lon="6.5153">
        <ele>177</ele>
        <time>2017-05-13T08:48:04Z</time>
      </trkpt>
      <trkpt lat="43.42283" lon="6.51527">
        <ele>177</ele>
        <time>2017-05-13T08:48:06Z</time>
      </trkpt>
      <trkpt lat="43.42275" lon="6.51527">
        <ele>176</ele>
        <time>2017-05-13T08:48:08Z</time>
      </trkpt>
      <trkpt lat="43.42268" lon="6.51527">
        <ele>175</ele>
        <time>2017-05-13T08:48:10Z</time>
      </trkpt>
      <trkpt lat="43.42259" lon="6.51527">
        <ele>175</ele>
        <time>2017-05-13T08:48:12Z</time>
      </trkpt>
      <trkpt lat="43.42253" lon="6.51527">
        <ele>175</ele>
        <time>2017-05-13T08:48:14Z</time>
      </trkpt>
      <trkpt lat="43.42246" lon="6.51526">
        <ele>161</ele>
        <time>2017-05-13T08:48:16Z</time>
      </trkpt>
      <trkpt lat="43.42241" lon="6.51523">
        <ele>161</ele>
        <time>2017-05-13T08:48:18Z</time>
      </trkpt>
      <trkpt lat="43.42234" lon="6.51521">
        <ele>160</ele>
        <time>2017-05-13T08:48:20Z</time>
      </trkpt>
      <trkpt lat="43.42225" lon="6.51517">
        <ele>158</ele>
        <time>2017-05-13T08:48:23Z</time>
      </trkpt>
      <trkpt lat="43.42222" lon="6.51515">
        <ele>157</ele>
        <time>2017-05-13T08:48:24Z</time>
      </trkpt>
      <trkpt lat="43.42216" lon="6.5151">
        <ele>156</ele>
        <time>2017-05-13T08:48:26Z</time>
      </trkpt>
      <trkpt lat="43.42212" lon="6.51502">
        <ele>155</ele>
        <time>2017-05-13T08:48:28Z</time>
      </trkpt>
      <trkpt lat="43.42208" lon="6.51492">
        <ele>169</ele>
        <time>2017-05-13T08:48:30Z</time>
      </trkpt>
      <trkpt lat="43.42205" lon="6.51482">
        <ele>168</ele>
        <time>2017-05-13T08:48:32Z</time>
      </trkpt>
      <trkpt lat="43.422" lon="6.51466">
        <ele>169</ele>
        <time>2017-05-13T08:48:35Z</time>
      </trkpt>
      <trkpt lat="43.42199" lon="6.51461">
        <ele>170</ele>
        <time>2017-05-13T08:48:36Z</time>
      </trkpt>
      <trkpt lat="43.42194" lon="6.51451">
        <ele>170</ele>
        <time>2017-05-13T08:48:38Z</time>
      </trkpt>
      <trkpt lat="43.4219" lon="6.5144">
        <ele>170</ele>
        <time>2017-05-13T08:48:40Z</time>
      </trkpt>
      <trkpt lat="43.42186" lon="6.5143">
        <ele>169</ele>
        <time>2017-05-13T08:48:42Z</time>
      </trkpt>
      <trkpt lat="43.42183" lon="6.51419">
        <ele>168</ele>
        <time>2017-05-13T08:48:44Z</time>
      </trkpt>
      <trkpt lat="43.42179" lon="6.51408">
        <ele>176</ele>
        <time>2017-05-13T08:48:46Z</time>
      </trkpt>
      <trkpt lat="43.42175" lon="6.51396">
        <ele>179</ele>
        <time>2017-05-13T08:48:48Z</time>
      </trkpt>
      <trkpt lat="43.42172" lon="6.51385">
        <ele>183</ele>
        <time>2017-05-13T08:48:50Z</time>
      </trkpt>
      <trkpt lat="43.42168" lon="6.51373">
        <ele>185</ele>
        <time>2017-05-13T08:48:52Z</time>
      </trkpt>
      <trkpt lat="43.42167" lon="6.51363">
        <ele>186</ele>
        <time>2017-05-13T08:48:54Z</time>
      </trkpt>
      <trkpt lat="43.42158" lon="6.51351">
        <ele>172</ele>
        <time>2017-05-13T08:48:57Z</time>
      </trkpt>
      <trkpt lat="43.42157" lon="6.51346">
        <ele>173</ele>
        <time>2017-05-13T08:48:58Z</time>
      </trkpt>
      <trkpt lat="43.42151" lon="6.5134">
        <ele>172</ele>
        <time>2017-05-13T08:49:00Z</time>
      </trkpt>
      <trkpt lat="43.42147" lon="6.51332">
        <ele>180</ele>
        <time>2017-05-13T08:49:02Z</time>
      </trkpt>
      <trkpt lat="43.42143" lon="6.51323">
        <ele>180</ele>
        <time>2017-05-13T08:49:04Z</time>
      </trkpt>
      <trkpt lat="43.42138" lon="6.51314">
        <ele>179</ele>
        <time>2017-05-13T08:49:06Z</time>
      </trkpt>
      <trkpt lat="43.42134" lon="6.51306">
        <ele>179</ele>
        <time>2017-05-13T08:49:08Z</time>
      </trkpt>
      <trkpt lat="43.4213" lon="6.51298">
        <ele>179</ele>
        <time>2017-05-13T08:49:10Z</time>
      </trkpt>
      <trkpt lat="43.42125" lon="6.51291">
        <ele>179</ele>
        <time>2017-05-13T08:49:12Z</time>
      </trkpt>
      <trkpt lat="43.42118" lon="6.51286">
        <ele>178</ele>
        <time>2017-05-13T08:49:14Z</time>
      </trkpt>
      <trkpt lat="43.42112" lon="6.51282">
        <ele>178</ele>
        <time>2017-05-13T08:49:16Z</time>
      </trkpt>
      <trkpt lat="43.42103" lon="6.51272">
        <ele>177</ele>
        <time>2017-05-13T08:49:19Z</time>
      </trkpt>
      <trkpt lat="43.42101" lon="6.51268">
        <ele>177</ele>
        <time>2017-05-13T08:49:20Z</time>
      </trkpt>
      <trkpt lat="43.42094" lon="6.51254">
        <ele>175</ele>
        <time>2017-05-13T08:49:23Z</time>
      </trkpt>
      <trkpt lat="43.42092" lon="6.51248">
        <ele>180</ele>
        <time>2017-05-13T08:49:24Z</time>
      </trkpt>
      <trkpt lat="43.42089" lon="6.51238">
        <ele>182</ele>
        <time>2017-05-13T08:49:26Z</time>
      </trkpt>
      <trkpt lat="43.42086" lon="6.51227">
        <ele>187</ele>
        <time>2017-05-13T08:49:28Z</time>
      </trkpt>
      <trkpt lat="43.42083" lon="6.51217">
        <ele>179</ele>
        <time>2017-05-13T08:49:30Z</time>
      </trkpt>
      <trkpt lat="43.42079" lon="6.51207">
        <ele>181</ele>
        <time>2017-05-13T08:49:32Z</time>
      </trkpt>
      <trkpt lat="43.42074" lon="6.51199">
        <ele>182</ele>
        <time>2017-05-13T08:49:34Z</time>
      </trkpt>
      <trkpt lat="43.42068" lon="6.51191">
        <ele>183</ele>
        <time>2017-05-13T08:49:36Z</time>
      </trkpt>
      <trkpt lat="43.42061" lon="6.51184">
        <ele>183</ele>
        <time>2017-05-13T08:49:38Z</time>
      </trkpt>
      <trkpt lat="43.42055" lon="6.51178">
        <ele>183</ele>
        <time>2017-05-13T08:49:40Z</time>
      </trkpt>
      <trkpt lat="43.42047" lon="6.51167">
        <ele>190</ele>
        <time>2017-05-13T08:49:43Z</time>
      </trkpt>
      <trkpt lat="43.42044" lon="6.51163">
        <ele>190</ele>
        <time>2017-05-13T08:49:44Z</time>
      </trkpt>
      <trkpt lat="43.42039" lon="6.51156">
        <ele>190</ele>
        <time>2017-05-13T08:49:46Z</time>
      </trkpt>
      <trkpt lat="43.42033" lon="6.5115">
        <ele>189</ele>
        <time>2017-05-13T08:49:48Z</time>
      </trkpt>
      <trkpt lat="43.42026" lon="6.51139">
        <ele>189</ele>
        <time>2017-05-13T08:49:51Z</time>
      </trkpt>
      <trkpt lat="43.42025" lon="6.51135">
        <ele>189</ele>
        <time>2017-05-13T08:49:52Z</time>
      </trkpt>
      <trkpt lat="43.42022" lon="6.51127">
        <ele>190</ele>
        <time>2017-05-13T08:49:54Z</time>
      </trkpt>
      <trkpt lat="43.42019" lon="6.5112">
        <ele>190</ele>
        <time>2017-05-13T08:49:56Z</time>
      </trkpt>
      <trkpt lat="43.42015" lon="6.51112">
        <ele>190</ele>
        <time>2017-05-13T08:49:58Z</time>
      </trkpt>
      <trkpt lat="43.42012" lon="6.51104">
        <ele>189</ele>
        <time>2017-05-13T08:50:00Z</time>
      </trkpt>
      <trkpt lat="43.42008" lon="6.51096">
        <ele>188</ele>
        <time>2017-05-13T08:50:02Z</time>
      </trkpt>
      <trkpt lat="43.42005" lon="6.51088">
        <ele>187</ele>
        <time>2017-05-13T08:50:04Z</time>
      </trkpt>
      <trkpt lat="43.42001" lon="6.51079">
        <ele>188</ele>
        <time>2017-05-13T08:50:06Z</time>
      </trkpt>
      <trkpt lat="43.41997" lon="6.51071">
        <ele>190</ele>
        <time>2017-05-13T08:50:08Z</time>
      </trkpt>
      <trkpt lat="43.41993" lon="6.51064">
        <ele>191</ele>
        <time>2017-05-13T08:50:10Z</time>
      </trkpt>
      <trkpt lat="43.41989" lon="6.51056">
        <ele>193</ele>
        <time>2017-05-13T08:50:12Z</time>
      </trkpt>
      <trkpt lat="43.41985" lon="6.51048">
        <ele>194</ele>
        <time>2017-05-13T08:50:14Z</time>
      </trkpt>
      <trkpt lat="43.41981" lon="6.51042">
        <ele>195</ele>
        <time>2017-05-13T08:50:16Z</time>
      </trkpt>
      <trkpt lat="43.41972" lon="6.51042">
        <ele>196</ele>
        <time>2017-05-13T08:50:18Z</time>
      </trkpt>
      <trkpt lat="43.41963" lon="6.51047">
        <ele>196</ele>
        <time>2017-05-13T08:50:20Z</time>
      </trkpt>
      <trkpt lat="43.41956" lon="6.51053">
        <ele>196</ele>
        <time>2017-05-13T08:50:22Z</time>
      </trkpt>
      <trkpt lat="43.41951" lon="6.51063">
        <ele>196</ele>
        <time>2017-05-13T08:50:24Z</time>
      </trkpt>
      <trkpt lat="43.4195" lon="6.51074">
        <ele>195</ele>
        <time>2017-05-13T08:50:26Z</time>
      </trkpt>
      <trkpt lat="43.41955" lon="6.51087">
        <ele>191</ele>
        <time>2017-05-13T08:50:29Z</time>
      </trkpt>
      <trkpt lat="43.41968" lon="6.51088">
        <ele>190</ele>
        <time>2017-05-13T08:50:30Z</time>
      </trkpt>
      <trkpt lat="43.41975" lon="6.51099">
        <ele>190</ele>
        <time>2017-05-13T08:50:32Z</time>
      </trkpt>
      <trkpt lat="43.4198" lon="6.51114">
        <ele>189</ele>
        <time>2017-05-13T08:50:34Z</time>
      </trkpt>
      <trkpt lat="43.41983" lon="6.51127">
        <ele>189</ele>
        <time>2017-05-13T08:50:36Z</time>
      </trkpt>
      <trkpt lat="43.41984" lon="6.5114">
        <ele>188</ele>
        <time>2017-05-13T08:50:38Z</time>
      </trkpt>
      <trkpt lat="43.41985" lon="6.51152">
        <ele>187</ele>
        <time>2017-05-13T08:50:40Z</time>
      </trkpt>
      <trkpt lat="43.41989" lon="6.51167">
        <ele>185</ele>
        <time>2017-05-13T08:50:42Z</time>
      </trkpt>
      <trkpt lat="43.4199" lon="6.51178">
        <ele>186</ele>
        <time>2017-05-13T08:50:44Z</time>
      </trkpt>
      <trkpt lat="43.41992" lon="6.51191">
        <ele>188</ele>
        <time>2017-05-13T08:50:46Z</time>
      </trkpt>
      <trkpt lat="43.41994" lon="6.51205">
        <ele>189</ele>
        <time>2017-05-13T08:50:48Z</time>
      </trkpt>
      <trkpt lat="43.41995" lon="6.5122">
        <ele>188</ele>
        <time>2017-05-13T08:50:50Z</time>
      </trkpt>
      <trkpt lat="43.41992" lon="6.51239">
        <ele>184</ele>
        <time>2017-05-13T08:50:53Z</time>
      </trkpt>
      <trkpt lat="43.41991" lon="6.51247">
        <ele>183</ele>
        <time>2017-05-13T08:50:54Z</time>
      </trkpt>
      <trkpt lat="43.41989" lon="6.51264">
        <ele>186</ele>
        <time>2017-05-13T08:50:56Z</time>
      </trkpt>
      <trkpt lat="43.41986" lon="6.5128">
        <ele>189</ele>
        <time>2017-05-13T08:50:58Z</time>
      </trkpt>
      <trkpt lat="43.41987" lon="6.51297">
        <ele>189</ele>
        <time>2017-05-13T08:51:00Z</time>
      </trkpt>
      <trkpt lat="43.41994" lon="6.51307">
        <ele>187</ele>
        <time>2017-05-13T08:51:02Z</time>
      </trkpt>
      <trkpt lat="43.42" lon="6.51322">
        <ele>174</ele>
        <time>2017-05-13T08:51:04Z</time>
      </trkpt>
      <trkpt lat="43.42005" lon="6.51336">
        <ele>174</ele>
        <time>2017-05-13T08:51:06Z</time>
      </trkpt>
      <trkpt lat="43.42009" lon="6.51352">
        <ele>170</ele>
        <time>2017-05-13T08:51:08Z</time>
      </trkpt>
      <trkpt lat="43.42014" lon="6.51367">
        <ele>169</ele>
        <time>2017-05-13T08:51:10Z</time>
      </trkpt>
      <trkpt lat="43.42018" lon="6.51382">
        <ele>168</ele>
        <time>2017-05-13T08:51:12Z</time>
      </trkpt>
      <trkpt lat="43.42023" lon="6.51407">
        <ele>170</ele>
        <time>2017-05-13T08:51:15Z</time>
      </trkpt>
      <trkpt lat="43.42025" lon="6.51414">
        <ele>169</ele>
        <time>2017-05-13T08:51:16Z</time>
      </trkpt>
      <trkpt lat="43.42029" lon="6.5143">
        <ele>164</ele>
        <time>2017-05-13T08:51:18Z</time>
      </trkpt>
      <trkpt lat="43.42029" lon="6.51445">
        <ele>163</ele>
        <time>2017-05-13T08:51:20Z</time>
      </trkpt>
      <trkpt lat="43.42028" lon="6.51461">
        <ele>162</ele>
        <time>2017-05-13T08:51:22Z</time>
      </trkpt>
      <trkpt lat="43.42026" lon="6.51475">
        <ele>162</ele>
        <time>2017-05-13T08:51:24Z</time>
      </trkpt>
      <trkpt lat="43.42022" lon="6.51489">
        <ele>164</ele>
        <time>2017-05-13T08:51:26Z</time>
      </trkpt>
      <trkpt lat="43.42013" lon="6.51502">
        <ele>163</ele>
        <time>2017-05-13T08:51:28Z</time>
      </trkpt>
      <trkpt lat="43.42004" lon="6.51514">
        <ele>163</ele>
        <time>2017-05-13T08:51:30Z</time>
      </trkpt>
      <trkpt lat="43.41994" lon="6.51526">
        <ele>176</ele>
        <time>2017-05-13T08:51:32Z</time>
      </trkpt>
      <trkpt lat="43.41987" lon="6.51539">
        <ele>175</ele>
        <time>2017-05-13T08:51:34Z</time>
      </trkpt>
      <trkpt lat="43.41979" lon="6.51556">
        <ele>174</ele>
        <time>2017-05-13T08:51:36Z</time>
      </trkpt>
      <trkpt lat="43.41969" lon="6.51568">
        <ele>174</ele>
        <time>2017-05-13T08:51:38Z</time>
      </trkpt>
      <trkpt lat="43.4196" lon="6.5158">
        <ele>175</ele>
        <time>2017-05-13T08:51:40Z</time>
      </trkpt>
      <trkpt lat="43.41951" lon="6.51592">
        <ele>166</ele>
        <time>2017-05-13T08:51:42Z</time>
      </trkpt>
      <trkpt lat="43.41943" lon="6.51602">
        <ele>167</ele>
        <time>2017-05-13T08:51:44Z</time>
      </trkpt>
      <trkpt lat="43.41926" lon="6.51613">
        <ele>168</ele>
        <time>2017-05-13T08:51:47Z</time>
      </trkpt>
      <trkpt lat="43.41922" lon="6.51616">
        <ele>167</ele>
        <time>2017-05-13T08:51:48Z</time>
      </trkpt>
      <trkpt lat="43.41912" lon="6.51636">
        <ele>177</ele>
        <time>2017-05-13T08:51:51Z</time>
      </trkpt>
      <trkpt lat="43.41909" lon="6.51642">
        <ele>176</ele>
        <time>2017-05-13T08:51:52Z</time>
      </trkpt>
      <trkpt lat="43.41908" lon="6.51668">
        <ele>166</ele>
        <time>2017-05-13T08:51:55Z</time>
      </trkpt>
      <trkpt lat="43.41905" lon="6.51677">
        <ele>165</ele>
        <time>2017-05-13T08:51:56Z</time>
      </trkpt>
      <trkpt lat="43.41896" lon="6.51691">
        <ele>164</ele>
        <time>2017-05-13T08:51:58Z</time>
      </trkpt>
      <trkpt lat="43.41884" lon="6.51701">
        <ele>164</ele>
        <time>2017-05-13T08:52:00Z</time>
      </trkpt>
      <trkpt lat="43.41874" lon="6.51711">
        <ele>164</ele>
        <time>2017-05-13T08:52:02Z</time>
      </trkpt>
      <trkpt lat="43.41863" lon="6.5172">
        <ele>164</ele>
        <time>2017-05-13T08:52:04Z</time>
      </trkpt>
      <trkpt lat="43.41844" lon="6.51721">
        <ele>164</ele>
        <time>2017-05-13T08:52:07Z</time>
      </trkpt>
      <trkpt lat="43.4183" lon="6.51716">
        <ele>168</ele>
        <time>2017-05-13T08:52:09Z</time>
      </trkpt>
      <trkpt lat="43.41824" lon="6.51714">
        <ele>169</ele>
        <time>2017-05-13T08:52:10Z</time>
      </trkpt>
      <trkpt lat="43.41812" lon="6.51713">
        <ele>169</ele>
        <time>2017-05-13T08:52:12Z</time>
      </trkpt>
      <trkpt lat="43.41798" lon="6.51718">
        <ele>169</ele>
        <time>2017-05-13T08:52:14Z</time>
      </trkpt>
      <trkpt lat="43.41787" lon="6.51722">
        <ele>169</ele>
        <time>2017-05-13T08:52:16Z</time>
      </trkpt>
      <trkpt lat="43.41776" lon="6.51723">
        <ele>169</ele>
        <time>2017-05-13T08:52:18Z</time>
      </trkpt>
      <trkpt lat="43.41768" lon="6.5173">
        <ele>168</ele>
        <time>2017-05-13T08:52:20Z</time>
      </trkpt>
      <trkpt lat="43.41765" lon="6.51746">
        <ele>166</ele>
        <time>2017-05-13T08:52:22Z</time>
      </trkpt>
      <trkpt lat="43.41762" lon="6.51761">
        <ele>160</ele>
        <time>2017-05-13T08:52:24Z</time>
      </trkpt>
      <trkpt lat="43.41759" lon="6.51776">
        <ele>159</ele>
        <time>2017-05-13T08:52:26Z</time>
      </trkpt>
      <trkpt lat="43.41754" lon="6.51792">
        <ele>157</ele>
        <time>2017-05-13T08:52:28Z</time>
      </trkpt>
      <trkpt lat="43.41749" lon="6.5182">
        <ele>156</ele>
        <time>2017-05-13T08:52:31Z</time>
      </trkpt>
      <trkpt lat="43.41746" lon="6.51826">
        <ele>156</ele>
        <time>2017-05-13T08:52:32Z</time>
      </trkpt>
      <trkpt lat="43.41737" lon="6.51838">
        <ele>150</ele>
        <time>2017-05-13T08:52:34Z</time>
      </trkpt>
      <trkpt lat="43.41726" lon="6.5184">
        <ele>148</ele>
        <time>2017-05-13T08:52:36Z</time>
      </trkpt>
      <trkpt lat="43.41714" lon="6.51832">
        <ele>155</ele>
        <time>2017-05-13T08:52:38Z</time>
      </trkpt>
      <trkpt lat="43.41705" lon="6.51817">
        <ele>155</ele>
        <time>2017-05-13T08:52:40Z</time>
      </trkpt>
      <trkpt lat="43.41697" lon="6.51801">
        <ele>156</ele>
        <time>2017-05-13T08:52:42Z</time>
      </trkpt>
      <trkpt lat="43.41691" lon="6.51785">
        <ele>157</ele>
        <time>2017-05-13T08:52:44Z</time>
      </trkpt>
      <trkpt lat="43.41687" lon="6.51768">
        <ele>158</ele>
        <time>2017-05-13T08:52:46Z</time>
      </trkpt>
      <trkpt lat="43.41682" lon="6.51751">
        <ele>158</ele>
        <time>2017-05-13T08:52:48Z</time>
      </trkpt>
      <trkpt lat="43.41673" lon="6.51735">
        <ele>164</ele>
        <time>2017-05-13T08:52:50Z</time>
      </trkpt>
      <trkpt lat="43.41664" lon="6.51722">
        <ele>164</ele>
        <time>2017-05-13T08:52:52Z</time>
      </trkpt>
      <trkpt lat="43.41653" lon="6.51709">
        <ele>165</ele>
        <time>2017-05-13T08:52:54Z</time>
      </trkpt>
      <trkpt lat="43.41643" lon="6.51701">
        <ele>166</ele>
        <time>2017-05-13T08:52:56Z</time>
      </trkpt>
      <trkpt lat="43.41632" lon="6.51696">
        <ele>167</ele>
        <time>2017-05-13T08:52:58Z</time>
      </trkpt>
      <trkpt lat="43.41621" lon="6.51708">
        <ele>165</ele>
        <time>2017-05-13T08:53:00Z</time>
      </trkpt>
      <trkpt lat="43.41613" lon="6.51722">
        <ele>164</ele>
        <time>2017-05-13T08:53:02Z</time>
      </trkpt>
      <trkpt lat="43.41604" lon="6.51736">
        <ele>162</ele>
        <time>2017-05-13T08:53:04Z</time>
      </trkpt>
      <trkpt lat="43.41592" lon="6.51743">
        <ele>160</ele>
        <time>2017-05-13T08:53:06Z</time>
      </trkpt>
      <trkpt lat="43.4158" lon="6.5175">
        <ele>157</ele>
        <time>2017-05-13T08:53:08Z</time>
      </trkpt>
      <trkpt lat="43.4157" lon="6.51746">
        <ele>159</ele>
        <time>2017-05-13T08:53:10Z</time>
      </trkpt>
      <trkpt lat="43.41557" lon="6.51739">
        <ele>161</ele>
        <time>2017-05-13T08:53:12Z</time>
      </trkpt>
      <trkpt lat="43.41547" lon="6.51733">
        <ele>162</ele>
        <time>2017-05-13T08:53:14Z</time>
      </trkpt>
      <trkpt lat="43.41539" lon="6.51725">
        <ele>162</ele>
        <time>2017-05-13T08:53:16Z</time>
      </trkpt>
      <trkpt lat="43.4153" lon="6.51718">
        <ele>163</ele>
        <time>2017-05-13T08:53:18Z</time>
      </trkpt>
      <trkpt lat="43.4152" lon="6.51712">
        <ele>163</ele>
        <time>2017-05-13T08:53:20Z</time>
      </trkpt>
      <trkpt lat="43.4151" lon="6.5171">
        <ele>163</ele>
        <time>2017-05-13T08:53:22Z</time>
      </trkpt>
      <trkpt lat="43.41494" lon="6.51705">
        <ele>164</ele>
        <time>2017-05-13T08:53:25Z</time>
      </trkpt>
      <trkpt lat="43.4149" lon="6.51703">
        <ele>164</ele>
        <time>2017-05-13T08:53:26Z</time>
      </trkpt>
      <trkpt lat="43.41478" lon="6.51697">
        <ele>164</ele>
        <time>2017-05-13T08:53:28Z</time>
      </trkpt>
      <trkpt lat="43.41467" lon="6.51703">
        <ele>164</ele>
        <time>2017-05-13T08:53:30Z</time>
      </trkpt>
      <trkpt lat="43.41459" lon="6.51714">
        <ele>163</ele>
        <time>2017-05-13T08:53:32Z</time>
      </trkpt>
      <trkpt lat="43.41453" lon="6.51726">
        <ele>163</ele>
        <time>2017-05-13T08:53:34Z</time>
      </trkpt>
      <trkpt lat="43.41446" lon="6.51738">
        <ele>162</ele>
        <time>2017-05-13T08:53:36Z</time>
      </trkpt>
      <trkpt lat="43.41434" lon="6.51754">
        <ele>157</ele>
        <time>2017-05-13T08:53:39Z</time>
      </trkpt>
      <trkpt lat="43.41429" lon="6.51758">
        <ele>157</ele>
        <time>2017-05-13T08:53:40Z</time>
      </trkpt>
      <trkpt lat="43.41421" lon="6.51767">
        <ele>156</ele>
        <time>2017-05-13T08:53:42Z</time>
      </trkpt>
      <trkpt lat="43.41409" lon="6.51774">
        <ele>157</ele>
        <time>2017-05-13T08:53:44Z</time>
      </trkpt>
      <trkpt lat="43.41399" lon="6.51775">
        <ele>156</ele>
        <time>2017-05-13T08:53:46Z</time>
      </trkpt>
      <trkpt lat="43.41387" lon="6.51772">
        <ele>156</ele>
        <time>2017-05-13T08:53:48Z</time>
      </trkpt>
      <trkpt lat="43.41378" lon="6.51762">
        <ele>156</ele>
        <time>2017-05-13T08:53:50Z</time>
      </trkpt>
      <trkpt lat="43.41371" lon="6.51751">
        <ele>157</ele>
        <time>2017-05-13T08:53:52Z</time>
      </trkpt>
      <trkpt lat="43.41362" lon="6.51743">
        <ele>163</ele>
        <time>2017-05-13T08:53:54Z</time>
      </trkpt>
      <trkpt lat="43.41353" lon="6.51734">
        <ele>163</ele>
        <time>2017-05-13T08:53:56Z</time>
      </trkpt>
      <trkpt lat="43.41343" lon="6.51729">
        <ele>163</ele>
        <time>2017-05-13T08:53:58Z</time>
      </trkpt>
      <trkpt lat="43.41337" lon="6.5173">
        <ele>163</ele>
        <time>2017-05-13T08:54:00Z</time>
      </trkpt>
      <trkpt lat="43.4133" lon="6.51731">
        <ele>163</ele>
        <time>2017-05-13T08:54:02Z</time>
      </trkpt>
      <trkpt lat="43.41323" lon="6.51732">
        <ele>163</ele>
        <time>2017-05-13T08:54:04Z</time>
      </trkpt>
      <trkpt lat="43.41317" lon="6.51733">
        <ele>163</ele>
        <time>2017-05-13T08:54:06Z</time>
      </trkpt>
      <trkpt lat="43.41314" lon="6.51734">
        <ele>163</ele>
        <time>2017-05-13T08:54:08Z</time>
      </trkpt>
      <trkpt lat="43.4131" lon="6.51735">
        <ele>163</ele>
        <time>2017-05-13T08:54:10Z</time>
      </trkpt>
      <trkpt lat="43.41301" lon="6.51735">
        <ele>164</ele>
        <time>2017-05-13T08:54:13Z</time>
      </trkpt>
      <trkpt lat="43.41299" lon="6.51734">
        <ele>164</ele>
        <time>2017-05-13T08:54:14Z</time>
      </trkpt>
      <trkpt lat="43.41295" lon="6.51732">
        <ele>164</ele>
        <time>2017-05-13T08:54:16Z</time>
      </trkpt>
      <trkpt lat="43.4129" lon="6.51729">
        <ele>164</ele>
        <time>2017-05-13T08:54:18Z</time>
      </trkpt>
      <trkpt lat="43.41285" lon="6.51725">
        <ele>165</ele>
        <time>2017-05-13T08:54:20Z</time>
      </trkpt>
      <trkpt lat="43.41279" lon="6.51721">
        <ele>165</ele>
        <time>2017-05-13T08:54:22Z</time>
      </trkpt>
      <trkpt lat="43.41275" lon="6.51716">
        <ele>165</ele>
        <time>2017-05-13T08:54:24Z</time>
      </trkpt>
      <trkpt lat="43.4127" lon="6.51712">
        <ele>166</ele>
        <time>2017-05-13T08:54:26Z</time>
      </trkpt>
      <trkpt lat="43.41265" lon="6.51707">
        <ele>166</ele>
        <time>2017-05-13T08:54:28Z</time>
      </trkpt>
      <trkpt lat="43.41261" lon="6.51703">
        <ele>167</ele>
        <time>2017-05-13T08:54:30Z</time>
      </trkpt>
      <trkpt lat="43.41256" lon="6.51701">
        <ele>167</ele>
        <time>2017-05-13T08:54:32Z</time>
      </trkpt>
      <trkpt lat="43.41252" lon="6.51698">
        <ele>168</ele>
        <time>2017-05-13T08:54:34Z</time>
      </trkpt>
      <trkpt lat="43.41247" lon="6.51695">
        <ele>167</ele>
        <time>2017-05-13T08:54:36Z</time>
      </trkpt>
      <trkpt lat="43.41241" lon="6.51692">
        <ele>168</ele>
        <time>2017-05-13T08:54:38Z</time>
      </trkpt>
      <trkpt lat="43.41237" lon="6.51688">
        <ele>168</ele>
        <time>2017-05-13T08:54:40Z</time>
      </trkpt>
      <trkpt lat="43.41233" lon="6.51684">
        <ele>168</ele>
        <time>2017-05-13T08:54:42Z</time>
      </trkpt>
      <trkpt lat="43.41228" lon="6.5168">
        <ele>168</ele>
        <time>2017-05-13T08:54:44Z</time>
      </trkpt>
      <trkpt lat="43.41225" lon="6.51675">
        <ele>168</ele>
        <time>2017-05-13T08:54:46Z</time>
      </trkpt>
      <trkpt lat="43.41221" lon="6.51669">
        <ele>168</ele>
        <time>2017-05-13T08:54:48Z</time>
      </trkpt>
      <trkpt lat="43.41219" lon="6.51664">
        <ele>175</ele>
        <time>2017-05-13T08:54:50Z</time>
      </trkpt>
      <trkpt lat="43.41216" lon="6.51658">
        <ele>175</ele>
        <time>2017-05-13T08:54:52Z</time>
      </trkpt>
      <trkpt lat="43.41214" lon="6.51653">
        <ele>175</ele>
        <time>2017-05-13T08:54:54Z</time>
      </trkpt>
      <trkpt lat="43.41213" lon="6.51647">
        <ele>175</ele>
        <time>2017-05-13T08:54:56Z</time>
      </trkpt>
      <trkpt lat="43.41211" lon="6.51642">
        <ele>176</ele>
        <time>2017-05-13T08:54:58Z</time>
      </trkpt>
      <trkpt lat="43.4121" lon="6.51636">
        <ele>176</ele>
        <time>2017-05-13T08:55:00Z</time>
      </trkpt>
      <trkpt lat="43.4121" lon="6.51632">
        <ele>176</ele>
        <time>2017-05-13T08:55:02Z</time>
      </trkpt>
      <trkpt lat="43.4121" lon="6.51626">
        <ele>177</ele>
        <time>2017-05-13T08:55:04Z</time>
      </trkpt>
      <trkpt lat="43.41208" lon="6.51616">
        <ele>177</ele>
        <time>2017-05-13T08:55:07Z</time>
      </trkpt>
      <trkpt lat="43.41208" lon="6.51613">
        <ele>177</ele>
        <time>2017-05-13T08:55:08Z</time>
      </trkpt>
      <trkpt lat="43.41208" lon="6.51608">
        <ele>177</ele>
        <time>2017-05-13T08:55:10Z</time>
      </trkpt>
      <trkpt lat="43.41209" lon="6.51599">
        <ele>178</ele>
        <time>2017-05-13T08:55:13Z</time>
      </trkpt>
      <trkpt lat="43.4121" lon="6.51595">
        <ele>178</ele>
        <time>2017-05-13T08:55:14Z</time>
      </trkpt>
      <trkpt lat="43.4121" lon="6.51587">
        <ele>178</ele>
        <time>2017-05-13T08:55:17Z</time>
      </trkpt>
      <trkpt lat="43.41211" lon="6.51584">
        <ele>179</ele>
        <time>2017-05-13T08:55:18Z</time>
      </trkpt>
      <trkpt lat="43.41212" lon="6.51577">
        <ele>185</ele>
        <time>2017-05-13T08:55:20Z</time>
      </trkpt>
      <trkpt lat="43.41213" lon="6.5157">
        <ele>185</ele>
        <time>2017-05-13T08:55:22Z</time>
      </trkpt>
      <trkpt lat="43.41213" lon="6.51563">
        <ele>186</ele>
        <time>2017-05-13T08:55:24Z</time>
      </trkpt>
      <trkpt lat="43.4121" lon="6.5156">
        <ele>186</ele>
        <time>2017-05-13T08:55:26Z</time>
      </trkpt>
      <trkpt lat="43.41206" lon="6.51557">
        <ele>186</ele>
        <time>2017-05-13T08:55:28Z</time>
      </trkpt>
      <trkpt lat="43.41198" lon="6.51557">
        <ele>185</ele>
        <time>2017-05-13T08:55:31Z</time>
      </trkpt>
      <trkpt lat="43.41195" lon="6.51557">
        <ele>185</ele>
        <time>2017-05-13T08:55:32Z</time>
      </trkpt>
      <trkpt lat="43.41191" lon="6.51556">
        <ele>185</ele>
        <time>2017-05-13T08:55:34Z</time>
      </trkpt>
      <trkpt lat="43.41184" lon="6.51553">
        <ele>185</ele>
        <time>2017-05-13T08:55:37Z</time>
      </trkpt>
      <trkpt lat="43.41179" lon="6.5155">
        <ele>185</ele>
        <time>2017-05-13T08:55:39Z</time>
      </trkpt>
      <trkpt lat="43.41177" lon="6.51549">
        <ele>185</ele>
        <time>2017-05-13T08:55:40Z</time>
      </trkpt>
      <trkpt lat="43.41171" lon="6.51545">
        <ele>185</ele>
        <time>2017-05-13T08:55:43Z</time>
      </trkpt>
      <trkpt lat="43.41169" lon="6.51543">
        <ele>185</ele>
        <time>2017-05-13T08:55:44Z</time>
      </trkpt>
      <trkpt lat="43.41164" lon="6.51542">
        <ele>182</ele>
        <time>2017-05-13T08:55:46Z</time>
      </trkpt>
      <trkpt lat="43.4116" lon="6.5154">
        <ele>182</ele>
        <time>2017-05-13T08:55:48Z</time>
      </trkpt>
      <trkpt lat="43.41158" lon="6.51536">
        <ele>182</ele>
        <time>2017-05-13T08:55:50Z</time>
      </trkpt>
      <trkpt lat="43.41155" lon="6.51531">
        <ele>183</ele>
        <time>2017-05-13T08:55:52Z</time>
      </trkpt>
      <trkpt lat="43.41151" lon="6.51526">
        <ele>183</ele>
        <time>2017-05-13T08:55:54Z</time>
      </trkpt>
      <trkpt lat="43.41149" lon="6.51523">
        <ele>183</ele>
        <time>2017-05-13T08:55:56Z</time>
      </trkpt>
      <trkpt lat="43.41146" lon="6.51518">
        <ele>183</ele>
        <time>2017-05-13T08:55:58Z</time>
      </trkpt>
      <trkpt lat="43.41142" lon="6.51513">
        <ele>183</ele>
        <time>2017-05-13T08:56:00Z</time>
      </trkpt>
      <trkpt lat="43.41138" lon="6.51508">
        <ele>183</ele>
        <time>2017-05-13T08:56:02Z</time>
      </trkpt>
      <trkpt lat="43.41136" lon="6.51503">
        <ele>183</ele>
        <time>2017-05-13T08:56:04Z</time>
      </trkpt>
      <trkpt lat="43.41131" lon="6.51495">
        <ele>192</ele>
        <time>2017-05-13T08:56:07Z</time>
      </trkpt>
      <trkpt lat="43.4113" lon="6.51492">
        <ele>192</ele>
        <time>2017-05-13T08:56:08Z</time>
      </trkpt>
      <trkpt lat="43.41126" lon="6.51485">
        <ele>193</ele>
        <time>2017-05-13T08:56:11Z</time>
      </trkpt>
      <trkpt lat="43.41125" lon="6.51483">
        <ele>193</ele>
        <time>2017-05-13T08:56:12Z</time>
      </trkpt>
      <trkpt lat="43.41122" lon="6.51478">
        <ele>193</ele>
        <time>2017-05-13T08:56:14Z</time>
      </trkpt>
      <trkpt lat="43.41118" lon="6.51475">
        <ele>193</ele>
        <time>2017-05-13T08:56:16Z</time>
      </trkpt>
      <trkpt lat="43.41116" lon="6.51471">
        <ele>193</ele>
        <time>2017-05-13T08:56:18Z</time>
      </trkpt>
      <trkpt lat="43.41115" lon="6.51466">
        <ele>194</ele>
        <time>2017-05-13T08:56:20Z</time>
      </trkpt>
      <trkpt lat="43.41114" lon="6.5146">
        <ele>195</ele>
        <time>2017-05-13T08:56:22Z</time>
      </trkpt>
      <trkpt lat="43.41113" lon="6.51455">
        <ele>195</ele>
        <time>2017-05-13T08:56:24Z</time>
      </trkpt>
      <trkpt lat="43.41112" lon="6.5145">
        <ele>196</ele>
        <time>2017-05-13T08:56:26Z</time>
      </trkpt>
      <trkpt lat="43.41111" lon="6.51443">
        <ele>196</ele>
        <time>2017-05-13T08:56:29Z</time>
      </trkpt>
      <trkpt lat="43.41109" lon="6.5144">
        <ele>197</ele>
        <time>2017-05-13T08:56:31Z</time>
      </trkpt>
      <trkpt lat="43.41109" lon="6.51436">
        <ele>197</ele>
        <time>2017-05-13T08:56:33Z</time>
      </trkpt>
      <trkpt lat="43.41109" lon="6.51435">
        <ele>197</ele>
        <time>2017-05-13T08:56:34Z</time>
      </trkpt>
      <trkpt lat="43.41109" lon="6.51432">
        <ele>197</ele>
        <time>2017-05-13T08:56:36Z</time>
      </trkpt>
      <trkpt lat="43.41109" lon="6.51428">
        <ele>198</ele>
        <time>2017-05-13T08:56:38Z</time>
      </trkpt>
      <trkpt lat="43.41107" lon="6.51424">
        <ele>198</ele>
        <time>2017-05-13T08:56:40Z</time>
      </trkpt>
      <trkpt lat="43.41105" lon="6.5142">
        <ele>198</ele>
        <time>2017-05-13T08:56:42Z</time>
      </trkpt>
      <trkpt lat="43.41102" lon="6.51418">
        <ele>198</ele>
        <time>2017-05-13T08:56:44Z</time>
      </trkpt>
      <trkpt lat="43.41099" lon="6.51418">
        <ele>199</ele>
        <time>2017-05-13T08:56:46Z</time>
      </trkpt>
      <trkpt lat="43.41096" lon="6.51419">
        <ele>199</ele>
        <time>2017-05-13T08:56:48Z</time>
      </trkpt>
      <trkpt lat="43.41093" lon="6.51422">
        <ele>199</ele>
        <time>2017-05-13T08:56:50Z</time>
      </trkpt>
      <trkpt lat="43.41091" lon="6.51424">
        <ele>199</ele>
        <time>2017-05-13T08:56:52Z</time>
      </trkpt>
      <trkpt lat="43.41088" lon="6.51427">
        <ele>199</ele>
        <time>2017-05-13T08:56:54Z</time>
      </trkpt>
      <trkpt lat="43.41086" lon="6.5143">
        <ele>198</ele>
        <time>2017-05-13T08:56:56Z</time>
      </trkpt>
      <trkpt lat="43.41084" lon="6.51435">
        <ele>198</ele>
        <time>2017-05-13T08:56:59Z</time>
      </trkpt>
      <trkpt lat="43.41083" lon="6.51436">
        <ele>196</ele>
        <time>2017-05-13T08:57:00Z</time>
      </trkpt>
      <trkpt lat="43.41081" lon="6.5144">
        <ele>196</ele>
        <time>2017-05-13T08:57:02Z</time>
      </trkpt>
      <trkpt lat="43.4108" lon="6.51443">
        <ele>195</ele>
        <time>2017-05-13T08:57:04Z</time>
      </trkpt>
      <trkpt lat="43.41077" lon="6.51445">
        <ele>195</ele>
        <time>2017-05-13T08:57:06Z</time>
      </trkpt>
      <trkpt lat="43.41075" lon="6.51448">
        <ele>194</ele>
        <time>2017-05-13T08:57:08Z</time>
      </trkpt>
      <trkpt lat="43.41073" lon="6.51449">
        <ele>194</ele>
        <time>2017-05-13T08:57:10Z</time>
      </trkpt>
      <trkpt lat="43.4107" lon="6.51452">
        <ele>194</ele>
        <time>2017-05-13T08:57:13Z</time>
      </trkpt>
      <trkpt lat="43.41069" lon="6.51452">
        <ele>194</ele>
        <time>2017-05-13T08:57:14Z</time>
      </trkpt>
      <trkpt lat="43.41065" lon="6.51452">
        <ele>194</ele>
        <time>2017-05-13T08:57:16Z</time>
      </trkpt>
      <trkpt lat="43.41062" lon="6.51451">
        <ele>194</ele>
        <time>2017-05-13T08:57:18Z</time>
      </trkpt>
      <trkpt lat="43.4106" lon="6.51449">
        <ele>194</ele>
        <time>2017-05-13T08:57:20Z</time>
      </trkpt>
      <trkpt lat="43.41057" lon="6.51447">
        <ele>194</ele>
        <time>2017-05-13T08:57:22Z</time>
      </trkpt>
      <trkpt lat="43.41055" lon="6.51446">
        <ele>194</ele>
        <time>2017-05-13T08:57:24Z</time>
      </trkpt>
      <trkpt lat="43.41051" lon="6.51443">
        <ele>194</ele>
        <time>2017-05-13T08:57:27Z</time>
      </trkpt>
      <trkpt lat="43.41047" lon="6.51441">
        <ele>195</ele>
        <time>2017-05-13T08:57:29Z</time>
      </trkpt>
      <trkpt lat="43.41046" lon="6.5144">
        <ele>195</ele>
        <time>2017-05-13T08:57:30Z</time>
      </trkpt>
      <trkpt lat="43.41044" lon="6.51437">
        <ele>195</ele>
        <time>2017-05-13T08:57:32Z</time>
      </trkpt>
      <trkpt lat="43.41042" lon="6.51434">
        <ele>195</ele>
        <time>2017-05-13T08:57:34Z</time>
      </trkpt>
      <trkpt lat="43.41041" lon="6.51431">
        <ele>195</ele>
        <time>2017-05-13T08:57:36Z</time>
      </trkpt>
      <trkpt lat="43.41037" lon="6.51428">
        <ele>195</ele>
        <time>2017-05-13T08:57:39Z</time>
      </trkpt>
      <trkpt lat="43.41037" lon="6.51427">
        <ele>195</ele>
        <time>2017-05-13T08:57:40Z</time>
      </trkpt>
      <trkpt lat="43.41035" lon="6.51425">
        <ele>196</ele>
        <time>2017-05-13T08:57:42Z</time>
      </trkpt>
      <trkpt lat="43.41034" lon="6.51423">
        <ele>196</ele>
        <time>2017-05-13T08:57:44Z</time>
      </trkpt>
      <trkpt lat="43.41033" lon="6.51419">
        <ele>196</ele>
        <time>2017-05-13T08:57:46Z</time>
      </trkpt>
      <trkpt lat="43.4103" lon="6.51415">
        <ele>205</ele>
        <time>2017-05-13T08:57:48Z</time>
      </trkpt>
      <trkpt lat="43.41027" lon="6.51409">
        <ele>206</ele>
        <time>2017-05-13T08:57:50Z</time>
      </trkpt>
      <trkpt lat="43.41024" lon="6.51402">
        <ele>206</ele>
        <time>2017-05-13T08:57:52Z</time>
      </trkpt>
      <trkpt lat="43.4102" lon="6.51395">
        <ele>206</ele>
        <time>2017-05-13T08:57:54Z</time>
      </trkpt>
      <trkpt lat="43.41017" lon="6.5139">
        <ele>207</ele>
        <time>2017-05-13T08:57:56Z</time>
      </trkpt>
      <trkpt lat="43.41013" lon="6.51386">
        <ele>207</ele>
        <time>2017-05-13T08:57:58Z</time>
      </trkpt>
      <trkpt lat="43.41009" lon="6.51382">
        <ele>208</ele>
        <time>2017-05-13T08:58:00Z</time>
      </trkpt>
      <trkpt lat="43.41005" lon="6.51376">
        <ele>209</ele>
        <time>2017-05-13T08:58:03Z</time>
      </trkpt>
      <trkpt lat="43.41004" lon="6.51374">
        <ele>209</ele>
        <time>2017-05-13T08:58:04Z</time>
      </trkpt>
      <trkpt lat="43.41001" lon="6.51371">
        <ele>209</ele>
        <time>2017-05-13T08:58:06Z</time>
      </trkpt>
      <trkpt lat="43.40999" lon="6.51366">
        <ele>213</ele>
        <time>2017-05-13T08:58:08Z</time>
      </trkpt>
      <trkpt lat="43.40997" lon="6.51362">
        <ele>214</ele>
        <time>2017-05-13T08:58:10Z</time>
      </trkpt>
      <trkpt lat="43.40991" lon="6.51356">
        <ele>215</ele>
        <time>2017-05-13T08:58:13Z</time>
      </trkpt>
      <trkpt lat="43.40986" lon="6.51354">
        <ele>215</ele>
        <time>2017-05-13T08:58:15Z</time>
      </trkpt>
      <trkpt lat="43.40984" lon="6.51355">
        <ele>215</ele>
        <time>2017-05-13T08:58:16Z</time>
      </trkpt>
      <trkpt lat="43.40978" lon="6.51359">
        <ele>215</ele>
        <time>2017-05-13T08:58:19Z</time>
      </trkpt>
      <trkpt lat="43.40976" lon="6.51361">
        <ele>215</ele>
        <time>2017-05-13T08:58:20Z</time>
      </trkpt>
      <trkpt lat="43.40973" lon="6.51366">
        <ele>214</ele>
        <time>2017-05-13T08:58:22Z</time>
      </trkpt>
      <trkpt lat="43.4097" lon="6.51372">
        <ele>214</ele>
        <time>2017-05-13T08:58:24Z</time>
      </trkpt>
      <trkpt lat="43.40966" lon="6.51377">
        <ele>213</ele>
        <time>2017-05-13T08:58:26Z</time>
      </trkpt>
      <trkpt lat="43.40963" lon="6.51381">
        <ele>213</ele>
        <time>2017-05-13T08:58:28Z</time>
      </trkpt>
      <trkpt lat="43.4096" lon="6.51385">
        <ele>213</ele>
        <time>2017-05-13T08:58:30Z</time>
      </trkpt>
      <trkpt lat="43.40958" lon="6.5139">
        <ele>213</ele>
        <time>2017-05-13T08:58:32Z</time>
      </trkpt>
      <trkpt lat="43.40955" lon="6.51395">
        <ele>213</ele>
        <time>2017-05-13T08:58:34Z</time>
      </trkpt>
      <trkpt lat="43.40952" lon="6.51399">
        <ele>212</ele>
        <time>2017-05-13T08:58:36Z</time>
      </trkpt>
      <trkpt lat="43.40949" lon="6.51403">
        <ele>212</ele>
        <time>2017-05-13T08:58:38Z</time>
      </trkpt>
      <trkpt lat="43.40946" lon="6.51408">
        <ele>212</ele>
        <time>2017-05-13T08:58:40Z</time>
      </trkpt>
      <trkpt lat="43.40944" lon="6.51411">
        <ele>212</ele>
        <time>2017-05-13T08:58:42Z</time>
      </trkpt>
      <trkpt lat="43.40942" lon="6.51413">
        <ele>212</ele>
        <time>2017-05-13T08:58:44Z</time>
      </trkpt>
      <trkpt lat="43.4094" lon="6.51415">
        <ele>212</ele>
        <time>2017-05-13T08:58:46Z</time>
      </trkpt>
      <trkpt lat="43.40937" lon="6.51416">
        <ele>212</ele>
        <time>2017-05-13T08:58:48Z</time>
      </trkpt>
      <trkpt lat="43.40932" lon="6.51416">
        <ele>212</ele>
        <time>2017-05-13T08:58:50Z</time>
      </trkpt>
      <trkpt lat="43.40927" lon="6.51416">
        <ele>212</ele>
        <time>2017-05-13T08:58:52Z</time>
      </trkpt>
      <trkpt lat="43.40923" lon="6.51416">
        <ele>212</ele>
        <time>2017-05-13T08:58:54Z</time>
      </trkpt>
      <trkpt lat="43.40919" lon="6.51415">
        <ele>211</ele>
        <time>2017-05-13T08:58:56Z</time>
      </trkpt>
      <trkpt lat="43.40915" lon="6.51415">
        <ele>212</ele>
        <time>2017-05-13T08:58:58Z</time>
      </trkpt>
      <trkpt lat="43.40913" lon="6.51414">
        <ele>213</ele>
        <time>2017-05-13T08:59:00Z</time>
      </trkpt>
      <trkpt lat="43.4091" lon="6.51414">
        <ele>214</ele>
        <time>2017-05-13T08:59:02Z</time>
      </trkpt>
      <trkpt lat="43.40906" lon="6.51412">
        <ele>215</ele>
        <time>2017-05-13T08:59:04Z</time>
      </trkpt>
      <trkpt lat="43.40902" lon="6.51411">
        <ele>216</ele>
        <time>2017-05-13T08:59:07Z</time>
      </trkpt>
      <trkpt lat="43.409" lon="6.5141">
        <ele>217</ele>
        <time>2017-05-13T08:59:08Z</time>
      </trkpt>
      <trkpt lat="43.40895" lon="6.51409">
        <ele>218</ele>
        <time>2017-05-13T08:59:10Z</time>
      </trkpt>
      <trkpt lat="43.4089" lon="6.51407">
        <ele>219</ele>
        <time>2017-05-13T08:59:12Z</time>
      </trkpt>
      <trkpt lat="43.40883" lon="6.51407">
        <ele>219</ele>
        <time>2017-05-13T08:59:15Z</time>
      </trkpt>
      <trkpt lat="43.40881" lon="6.51406">
        <ele>220</ele>
        <time>2017-05-13T08:59:16Z</time>
      </trkpt>
      <trkpt lat="43.40875" lon="6.51405">
        <ele>220</ele>
        <time>2017-05-13T08:59:19Z</time>
      </trkpt>
      <trkpt lat="43.40873" lon="6.51405">
        <ele>220</ele>
        <time>2017-05-13T08:59:20Z</time>
      </trkpt>
      <trkpt lat="43.40865" lon="6.51404">
        <ele>220</ele>
        <time>2017-05-13T08:59:23Z</time>
      </trkpt>
      <trkpt lat="43.40861" lon="6.51403">
        <ele>220</ele>
        <time>2017-05-13T08:59:25Z</time>
      </trkpt>
      <trkpt lat="43.40859" lon="6.51402">
        <ele>220</ele>
        <time>2017-05-13T08:59:26Z</time>
      </trkpt>
      <trkpt lat="43.40856" lon="6.514">
        <ele>221</ele>
        <time>2017-05-13T08:59:28Z</time>
      </trkpt>
      <trkpt lat="43.40853" lon="6.51397">
        <ele>221</ele>
        <time>2017-05-13T08:59:30Z</time>
      </trkpt>
      <trkpt lat="43.40851" lon="6.51394">
        <ele>221</ele>
        <time>2017-05-13T08:59:32Z</time>
      </trkpt>
      <trkpt lat="43.40847" lon="6.5139">
        <ele>222</ele>
        <time>2017-05-13T08:59:35Z</time>
      </trkpt>
      <trkpt lat="43.40845" lon="6.51389">
        <ele>222</ele>
        <time>2017-05-13T08:59:36Z</time>
      </trkpt>
      <trkpt lat="43.40841" lon="6.51385">
        <ele>222</ele>
        <time>2017-05-13T08:59:38Z</time>
      </trkpt>
      <trkpt lat="43.40838" lon="6.51381">
        <ele>223</ele>
        <time>2017-05-13T08:59:40Z</time>
      </trkpt>
      <trkpt lat="43.40835" lon="6.51377">
        <ele>224</ele>
        <time>2017-05-13T08:59:42Z</time>
      </trkpt>
      <trkpt lat="43.40831" lon="6.51373">
        <ele>230</ele>
        <time>2017-05-13T08:59:44Z</time>
      </trkpt>
      <trkpt lat="43.40828" lon="6.5137">
        <ele>231</ele>
        <time>2017-05-13T08:59:46Z</time>
      </trkpt>
      <trkpt lat="43.40824" lon="6.51368">
        <ele>231</ele>
        <time>2017-05-13T08:59:48Z</time>
      </trkpt>
      <trkpt lat="43.40817" lon="6.51369">
        <ele>231</ele>
        <time>2017-05-13T08:59:51Z</time>
      </trkpt>
      <trkpt lat="43.40816" lon="6.5137">
        <ele>231</ele>
        <time>2017-05-13T08:59:52Z</time>
      </trkpt>
      <trkpt lat="43.4081" lon="6.51376">
        <ele>230</ele>
        <time>2017-05-13T08:59:55Z</time>
      </trkpt>
      <trkpt lat="43.40807" lon="6.5138">
        <ele>230</ele>
        <time>2017-05-13T08:59:57Z</time>
      </trkpt>
      <trkpt lat="43.40806" lon="6.51383">
        <ele>230</ele>
        <time>2017-05-13T08:59:58Z</time>
      </trkpt>
      <trkpt lat="43.40804" lon="6.51389">
        <ele>229</ele>
        <time>2017-05-13T09:00:00Z</time>
      </trkpt>
      <trkpt lat="43.40801" lon="6.51397">
        <ele>229</ele>
        <time>2017-05-13T09:00:02Z</time>
      </trkpt>
      <trkpt lat="43.40796" lon="6.51406">
        <ele>229</ele>
        <time>2017-05-13T09:00:05Z</time>
      </trkpt>
      <trkpt lat="43.40794" lon="6.51409">
        <ele>229</ele>
        <time>2017-05-13T09:00:06Z</time>
      </trkpt>
      <trkpt lat="43.40787" lon="6.51415">
        <ele>229</ele>
        <time>2017-05-13T09:00:09Z</time>
      </trkpt>
      <trkpt lat="43.40784" lon="6.51416">
        <ele>229</ele>
        <time>2017-05-13T09:00:10Z</time>
      </trkpt>
      <trkpt lat="43.40779" lon="6.51418">
        <ele>220</ele>
        <time>2017-05-13T09:00:12Z</time>
      </trkpt>
      <trkpt lat="43.40775" lon="6.51421">
        <ele>221</ele>
        <time>2017-05-13T09:00:14Z</time>
      </trkpt>
      <trkpt lat="43.40772" lon="6.51425">
        <ele>221</ele>
        <time>2017-05-13T09:00:16Z</time>
      </trkpt>
      <trkpt lat="43.40768" lon="6.51427">
        <ele>222</ele>
        <time>2017-05-13T09:00:18Z</time>
      </trkpt>
      <trkpt lat="43.40764" lon="6.51428">
        <ele>223</ele>
        <time>2017-05-13T09:00:20Z</time>
      </trkpt>
      <trkpt lat="43.4076" lon="6.5143">
        <ele>223</ele>
        <time>2017-05-13T09:00:22Z</time>
      </trkpt>
      <trkpt lat="43.40756" lon="6.51432">
        <ele>223</ele>
        <time>2017-05-13T09:00:24Z</time>
      </trkpt>
      <trkpt lat="43.40752" lon="6.51434">
        <ele>223</ele>
        <time>2017-05-13T09:00:26Z</time>
      </trkpt>
      <trkpt lat="43.40748" lon="6.51437">
        <ele>230</ele>
        <time>2017-05-13T09:00:28Z</time>
      </trkpt>
      <trkpt lat="43.40744" lon="6.5144">
        <ele>230</ele>
        <time>2017-05-13T09:00:30Z</time>
      </trkpt>
      <trkpt lat="43.40741" lon="6.51442">
        <ele>230</ele>
        <time>2017-05-13T09:00:32Z</time>
      </trkpt>
      <trkpt lat="43.40738" lon="6.51444">
        <ele>230</ele>
        <time>2017-05-13T09:00:34Z</time>
      </trkpt>
      <trkpt lat="43.40735" lon="6.51445">
        <ele>230</ele>
        <time>2017-05-13T09:00:36Z</time>
      </trkpt>
      <trkpt lat="43.40732" lon="6.51447">
        <ele>231</ele>
        <time>2017-05-13T09:00:38Z</time>
      </trkpt>
      <trkpt lat="43.40728" lon="6.51448">
        <ele>231</ele>
        <time>2017-05-13T09:00:40Z</time>
      </trkpt>
      <trkpt lat="43.40725" lon="6.51449">
        <ele>231</ele>
        <time>2017-05-13T09:00:42Z</time>
      </trkpt>
      <trkpt lat="43.40723" lon="6.51451">
        <ele>231</ele>
        <time>2017-05-13T09:00:44Z</time>
      </trkpt>
      <trkpt lat="43.4072" lon="6.51453">
        <ele>231</ele>
        <time>2017-05-13T09:00:46Z</time>
      </trkpt>
      <trkpt lat="43.40718" lon="6.51454">
        <ele>231</ele>
        <time>2017-05-13T09:00:48Z</time>
      </trkpt>
      <trkpt lat="43.40715" lon="6.51457">
        <ele>231</ele>
        <time>2017-05-13T09:00:50Z</time>
      </trkpt>
      <trkpt lat="43.40713" lon="6.51459">
        <ele>231</ele>
        <time>2017-05-13T09:00:52Z</time>
      </trkpt>
      <trkpt lat="43.4071" lon="6.51461">
        <ele>231</ele>
        <time>2017-05-13T09:00:54Z</time>
      </trkpt>
      <trkpt lat="43.40708" lon="6.51463">
        <ele>231</ele>
        <time>2017-05-13T09:00:56Z</time>
      </trkpt>
      <trkpt lat="43.40705" lon="6.51464">
        <ele>232</ele>
        <time>2017-05-13T09:00:58Z</time>
      </trkpt>
      <trkpt lat="43.40703" lon="6.51466">
        <ele>232</ele>
        <time>2017-05-13T09:01:00Z</time>
      </trkpt>
      <trkpt lat="43.407" lon="6.51467">
        <ele>232</ele>
        <time>2017-05-13T09:01:02Z</time>
      </trkpt>
      <trkpt lat="43.40695" lon="6.51469">
        <ele>232</ele>
        <time>2017-05-13T09:01:05Z</time>
      </trkpt>
      <trkpt lat="43.40694" lon="6.5147">
        <ele>233</ele>
        <time>2017-05-13T09:01:06Z</time>
      </trkpt>
      <trkpt lat="43.40691" lon="6.51471">
        <ele>233</ele>
        <time>2017-05-13T09:01:08Z</time>
      </trkpt>
      <trkpt lat="43.40688" lon="6.51473">
        <ele>233</ele>
        <time>2017-05-13T09:01:10Z</time>
      </trkpt>
      <trkpt lat="43.40686" lon="6.51475">
        <ele>233</ele>
        <time>2017-05-13T09:01:12Z</time>
      </trkpt>
      <trkpt lat="43.40685" lon="6.51478">
        <ele>233</ele>
        <time>2017-05-13T09:01:14Z</time>
      </trkpt>
      <trkpt lat="43.40682" lon="6.51481">
        <ele>233</ele>
        <time>2017-05-13T09:01:16Z</time>
      </trkpt>
      <trkpt lat="43.40679" lon="6.51483">
        <ele>234</ele>
        <time>2017-05-13T09:01:18Z</time>
      </trkpt>
      <trkpt lat="43.40676" lon="6.51486">
        <ele>234</ele>
        <time>2017-05-13T09:01:20Z</time>
      </trkpt>
      <trkpt lat="43.40673" lon="6.51491">
        <ele>234</ele>
        <time>2017-05-13T09:01:22Z</time>
      </trkpt>
      <trkpt lat="43.40671" lon="6.51497">
        <ele>235</ele>
        <time>2017-05-13T09:01:24Z</time>
      </trkpt>
      <trkpt lat="43.40668" lon="6.51502">
        <ele>235</ele>
        <time>2017-05-13T09:01:26Z</time>
      </trkpt>
      <trkpt lat="43.40664" lon="6.51506">
        <ele>236</ele>
        <time>2017-05-13T09:01:28Z</time>
      </trkpt>
      <trkpt lat="43.4066" lon="6.51509">
        <ele>236</ele>
        <time>2017-05-13T09:01:30Z</time>
      </trkpt>
      <trkpt lat="43.40657" lon="6.51513">
        <ele>236</ele>
        <time>2017-05-13T09:01:32Z</time>
      </trkpt>
      <trkpt lat="43.40653" lon="6.51516">
        <ele>236</ele>
        <time>2017-05-13T09:01:34Z</time>
      </trkpt>
      <trkpt lat="43.4065" lon="6.51519">
        <ele>236</ele>
        <time>2017-05-13T09:01:36Z</time>
      </trkpt>
      <trkpt lat="43.40646" lon="6.51522">
        <ele>236</ele>
        <time>2017-05-13T09:01:38Z</time>
      </trkpt>
      <trkpt lat="43.40641" lon="6.51524">
        <ele>236</ele>
        <time>2017-05-13T09:01:40Z</time>
      </trkpt>
      <trkpt lat="43.40636" lon="6.51527">
        <ele>236</ele>
        <time>2017-05-13T09:01:42Z</time>
      </trkpt>
      <trkpt lat="43.40632" lon="6.51528">
        <ele>236</ele>
        <time>2017-05-13T09:01:44Z</time>
      </trkpt>
      <trkpt lat="43.40628" lon="6.5153">
        <ele>237</ele>
        <time>2017-05-13T09:01:46Z</time>
      </trkpt>
      <trkpt lat="43.40624" lon="6.51531">
        <ele>237</ele>
        <time>2017-05-13T09:01:48Z</time>
      </trkpt>
      <trkpt lat="43.40621" lon="6.51533">
        <ele>237</ele>
        <time>2017-05-13T09:01:50Z</time>
      </trkpt>
      <trkpt lat="43.40616" lon="6.51535">
        <ele>237</ele>
        <time>2017-05-13T09:01:52Z</time>
      </trkpt>
      <trkpt lat="43.40612" lon="6.51536">
        <ele>237</ele>
        <time>2017-05-13T09:01:54Z</time>
      </trkpt>
      <trkpt lat="43.40609" lon="6.51538">
        <ele>238</ele>
        <time>2017-05-13T09:01:56Z</time>
      </trkpt>
      <trkpt lat="43.40605" lon="6.51541">
        <ele>238</ele>
        <time>2017-05-13T09:01:58Z</time>
      </trkpt>
      <trkpt lat="43.406" lon="6.51543">
        <ele>238</ele>
        <time>2017-05-13T09:02:00Z</time>
      </trkpt>
      <trkpt lat="43.40596" lon="6.51545">
        <ele>238</ele>
        <time>2017-05-13T09:02:02Z</time>
      </trkpt>
      <trkpt lat="43.40592" lon="6.51548">
        <ele>238</ele>
        <time>2017-05-13T09:02:04Z</time>
      </trkpt>
      <trkpt lat="43.40588" lon="6.51551">
        <ele>238</ele>
        <time>2017-05-13T09:02:06Z</time>
      </trkpt>
      <trkpt lat="43.40583" lon="6.51554">
        <ele>238</ele>
        <time>2017-05-13T09:02:08Z</time>
      </trkpt>
      <trkpt lat="43.4058" lon="6.51558">
        <ele>240</ele>
        <time>2017-05-13T09:02:10Z</time>
      </trkpt>
      <trkpt lat="43.40577" lon="6.51563">
        <ele>240</ele>
        <time>2017-05-13T09:02:12Z</time>
      </trkpt>
      <trkpt lat="43.40575" lon="6.51567">
        <ele>240</ele>
        <time>2017-05-13T09:02:14Z</time>
      </trkpt>
      <trkpt lat="43.40575" lon="6.51573">
        <ele>240</ele>
        <time>2017-05-13T09:02:16Z</time>
      </trkpt>
      <trkpt lat="43.40574" lon="6.51578">
        <ele>240</ele>
        <time>2017-05-13T09:02:18Z</time>
      </trkpt>
      <trkpt lat="43.40574" lon="6.51585">
        <ele>240</ele>
        <time>2017-05-13T09:02:20Z</time>
      </trkpt>
      <trkpt lat="43.40574" lon="6.51592">
        <ele>240</ele>
        <time>2017-05-13T09:02:22Z</time>
      </trkpt>
      <trkpt lat="43.40574" lon="6.51598">
        <ele>240</ele>
        <time>2017-05-13T09:02:24Z</time>
      </trkpt>
      <trkpt lat="43.40574" lon="6.51603">
        <ele>240</ele>
        <time>2017-05-13T09:02:26Z</time>
      </trkpt>
      <trkpt lat="43.40573" lon="6.51609">
        <ele>240</ele>
        <time>2017-05-13T09:02:28Z</time>
      </trkpt>
      <trkpt lat="43.40572" lon="6.51613">
        <ele>240</ele>
        <time>2017-05-13T09:02:30Z</time>
      </trkpt>
      <trkpt lat="43.4057" lon="6.51617">
        <ele>240</ele>
        <time>2017-05-13T09:02:32Z</time>
      </trkpt>
      <trkpt lat="43.40568" lon="6.51621">
        <ele>240</ele>
        <time>2017-05-13T09:02:34Z</time>
      </trkpt>
      <trkpt lat="43.40567" lon="6.51623">
        <ele>240</ele>
        <time>2017-05-13T09:02:36Z</time>
      </trkpt>
      <trkpt lat="43.40567" lon="6.51623">
        <ele>240</ele>
        <time>2017-05-13T09:02:38Z</time>
      </trkpt>
      <trkpt lat="43.40566" lon="6.51623">
        <ele>240</ele>
        <time>2017-05-13T09:02:40Z</time>
      </trkpt>
      <trkpt lat="43.40567" lon="6.51622">
        <ele>240</ele>
        <time>2017-05-13T09:02:42Z</time>
      </trkpt>
      <trkpt lat="43.40566" lon="6.51622">
        <ele>240</ele>
        <time>2017-05-13T09:02:44Z</time>
      </trkpt>
      <trkpt lat="43.40566" lon="6.51622">
        <ele>240</ele>
        <time>2017-05-13T09:02:47Z</time>
      </trkpt>
      <trkpt lat="43.40566" lon="6.51622">
        <ele>240</ele>
        <time>2017-05-13T09:02:48Z</time>
      </trkpt>
      <trkpt lat="43.40566" lon="6.51622">
        <ele>240</ele>
        <time>2017-05-13T09:02:50Z</time>
      </trkpt>
      <trkpt lat="43.40566" lon="6.51622">
        <ele>240</ele>
        <time>2017-05-13T09:02:52Z</time>
      </trkpt>
      <trkpt lat="43.40566" lon="6.51623">
        <ele>240</ele>
        <time>2017-05-13T09:02:54Z</time>
      </trkpt>
      <trkpt lat="43.40565" lon="6.51623">
        <ele>240</ele>
        <time>2017-05-13T09:02:56Z</time>
      </trkpt>
      <trkpt lat="43.40564" lon="6.51623">
        <ele>240</ele>
        <time>2017-05-13T09:11:45Z</time>
      </trkpt>
      <trkpt lat="43.40564" lon="6.51623">
        <ele>240</ele>
        <time>2017-05-13T09:11:47Z</time>
      </trkpt>
      <trkpt lat="43.40563" lon="6.51623">
        <ele>240</ele>
        <time>2017-05-13T09:11:49Z</time>
      </trkpt>
      <trkpt lat="43.40563" lon="6.51625">
        <ele>240</ele>
        <time>2017-05-13T09:11:51Z</time>
      </trkpt>
      <trkpt lat="43.40563" lon="6.51628">
        <ele>240</ele>
        <time>2017-05-13T09:11:53Z</time>
      </trkpt>
      <trkpt lat="43.40564" lon="6.51631">
        <ele>241</ele>
        <time>2017-05-13T09:11:55Z</time>
      </trkpt>
      <trkpt lat="43.40565" lon="6.51636">
        <ele>241</ele>
        <time>2017-05-13T09:11:57Z</time>
      </trkpt>
      <trkpt lat="43.40567" lon="6.51641">
        <ele>241</ele>
        <time>2017-05-13T09:11:59Z</time>
      </trkpt>
      <trkpt lat="43.40568" lon="6.5165">
        <ele>241</ele>
        <time>2017-05-13T09:12:02Z</time>
      </trkpt>
      <trkpt lat="43.40569" lon="6.51653">
        <ele>241</ele>
        <time>2017-05-13T09:12:03Z</time>
      </trkpt>
      <trkpt lat="43.40569" lon="6.5166">
        <ele>241</ele>
        <time>2017-05-13T09:12:05Z</time>
      </trkpt>
      <trkpt lat="43.40569" lon="6.51666">
        <ele>241</ele>
        <time>2017-05-13T09:12:07Z</time>
      </trkpt>
      <trkpt lat="43.40568" lon="6.51669">
        <ele>244</ele>
        <time>2017-05-13T09:12:09Z</time>
      </trkpt>
      <trkpt lat="43.40562" lon="6.51673">
        <ele>244</ele>
        <time>2017-05-13T09:12:12Z</time>
      </trkpt>
      <trkpt lat="43.40559" lon="6.51674">
        <ele>244</ele>
        <time>2017-05-13T09:12:13Z</time>
      </trkpt>
      <trkpt lat="43.40551" lon="6.51671">
        <ele>244</ele>
        <time>2017-05-13T09:12:15Z</time>
      </trkpt>
      <trkpt lat="43.40545" lon="6.51661">
        <ele>241</ele>
        <time>2017-05-13T09:12:17Z</time>
      </trkpt>
      <trkpt lat="43.40537" lon="6.51651">
        <ele>241</ele>
        <time>2017-05-13T09:12:19Z</time>
      </trkpt>
      <trkpt lat="43.40527" lon="6.51638">
        <ele>240</ele>
        <time>2017-05-13T09:12:21Z</time>
      </trkpt>
      <trkpt lat="43.40517" lon="6.51626">
        <ele>240</ele>
        <time>2017-05-13T09:12:23Z</time>
      </trkpt>
      <trkpt lat="43.40507" lon="6.51618">
        <ele>240</ele>
        <time>2017-05-13T09:12:25Z</time>
      </trkpt>
      <trkpt lat="43.40498" lon="6.5161">
        <ele>239</ele>
        <time>2017-05-13T09:12:27Z</time>
      </trkpt>
      <trkpt lat="43.40487" lon="6.51603">
        <ele>238</ele>
        <time>2017-05-13T09:12:29Z</time>
      </trkpt>
      <trkpt lat="43.40479" lon="6.51596">
        <ele>238</ele>
        <time>2017-05-13T09:12:31Z</time>
      </trkpt>
      <trkpt lat="43.40469" lon="6.51587">
        <ele>238</ele>
        <time>2017-05-13T09:12:33Z</time>
      </trkpt>
      <trkpt lat="43.40461" lon="6.51578">
        <ele>234</ele>
        <time>2017-05-13T09:12:35Z</time>
      </trkpt>
      <trkpt lat="43.40455" lon="6.51569">
        <ele>233</ele>
        <time>2017-05-13T09:12:37Z</time>
      </trkpt>
      <trkpt lat="43.40448" lon="6.5156">
        <ele>233</ele>
        <time>2017-05-13T09:12:39Z</time>
      </trkpt>
      <trkpt lat="43.40443" lon="6.51548">
        <ele>232</ele>
        <time>2017-05-13T09:12:41Z</time>
      </trkpt>
      <trkpt lat="43.40431" lon="6.5152">
        <ele>230</ele>
        <time>2017-05-13T09:12:44Z</time>
      </trkpt>
      <trkpt lat="43.40425" lon="6.51509">
        <ele>228</ele>
        <time>2017-05-13T09:12:45Z</time>
      </trkpt>
      <trkpt lat="43.4041" lon="6.51484">
        <ele>224</ele>
        <time>2017-05-13T09:12:48Z</time>
      </trkpt>
      <trkpt lat="43.40402" lon="6.5147">
        <ele>224</ele>
        <time>2017-05-13T09:12:50Z</time>
      </trkpt>
      <trkpt lat="43.40398" lon="6.51461">
        <ele>223</ele>
        <time>2017-05-13T09:12:51Z</time>
      </trkpt>
      <trkpt lat="43.40386" lon="6.51435">
        <ele>223</ele>
        <time>2017-05-13T09:12:54Z</time>
      </trkpt>
      <trkpt lat="43.40382" lon="6.51427">
        <ele>222</ele>
        <time>2017-05-13T09:12:55Z</time>
      </trkpt>
      <trkpt lat="43.40376" lon="6.51417">
        <ele>222</ele>
        <time>2017-05-13T09:12:57Z</time>
      </trkpt>
      <trkpt lat="43.4037" lon="6.5141">
        <ele>220</ele>
        <time>2017-05-13T09:12:59Z</time>
      </trkpt>
      <trkpt lat="43.40366" lon="6.51405">
        <ele>220</ele>
        <time>2017-05-13T09:13:01Z</time>
      </trkpt>
      <trkpt lat="43.40364" lon="6.51398">
        <ele>219</ele>
        <time>2017-05-13T09:13:03Z</time>
      </trkpt>
      <trkpt lat="43.40361" lon="6.51387">
        <ele>219</ele>
        <time>2017-05-13T09:13:05Z</time>
      </trkpt>
      <trkpt lat="43.40359" lon="6.51369">
        <ele>219</ele>
        <time>2017-05-13T09:13:08Z</time>
      </trkpt>
      <trkpt lat="43.40358" lon="6.51361">
        <ele>218</ele>
        <time>2017-05-13T09:13:09Z</time>
      </trkpt>
      <trkpt lat="43.40358" lon="6.51335">
        <ele>218</ele>
        <time>2017-05-13T09:13:12Z</time>
      </trkpt>
      <trkpt lat="43.4036" lon="6.51327">
        <ele>216</ele>
        <time>2017-05-13T09:13:13Z</time>
      </trkpt>
      <trkpt lat="43.40363" lon="6.51309">
        <ele>216</ele>
        <time>2017-05-13T09:13:15Z</time>
      </trkpt>
      <trkpt lat="43.40365" lon="6.51292">
        <ele>216</ele>
        <time>2017-05-13T09:13:17Z</time>
      </trkpt>
      <trkpt lat="43.40366" lon="6.51264">
        <ele>215</ele>
        <time>2017-05-13T09:13:20Z</time>
      </trkpt>
      <trkpt lat="43.40365" lon="6.51255">
        <ele>215</ele>
        <time>2017-05-13T09:13:21Z</time>
      </trkpt>
      <trkpt lat="43.40362" lon="6.5123">
        <ele>214</ele>
        <time>2017-05-13T09:13:24Z</time>
      </trkpt>
      <trkpt lat="43.4036" lon="6.51222">
        <ele>214</ele>
        <time>2017-05-13T09:13:25Z</time>
      </trkpt>
      <trkpt lat="43.40357" lon="6.51205">
        <ele>213</ele>
        <time>2017-05-13T09:13:27Z</time>
      </trkpt>
      <trkpt lat="43.40354" lon="6.51189">
        <ele>213</ele>
        <time>2017-05-13T09:13:29Z</time>
      </trkpt>
      <trkpt lat="43.40349" lon="6.51173">
        <ele>211</ele>
        <time>2017-05-13T09:13:31Z</time>
      </trkpt>
      <trkpt lat="43.40341" lon="6.51162">
        <ele>209</ele>
        <time>2017-05-13T09:13:33Z</time>
      </trkpt>
      <trkpt lat="43.40326" lon="6.51143">
        <ele>208</ele>
        <time>2017-05-13T09:13:36Z</time>
      </trkpt>
      <trkpt lat="43.4032" lon="6.51135">
        <ele>208</ele>
        <time>2017-05-13T09:13:37Z</time>
      </trkpt>
      <trkpt lat="43.40318" lon="6.51121">
        <ele>208</ele>
        <time>2017-05-13T09:13:39Z</time>
      </trkpt>
      <trkpt lat="43.40313" lon="6.51109">
        <ele>208</ele>
        <time>2017-05-13T09:13:41Z</time>
      </trkpt>
      <trkpt lat="43.40314" lon="6.51094">
        <ele>207</ele>
        <time>2017-05-13T09:13:43Z</time>
      </trkpt>
      <trkpt lat="43.40315" lon="6.51083">
        <ele>205</ele>
        <time>2017-05-13T09:13:45Z</time>
      </trkpt>
      <trkpt lat="43.40316" lon="6.5107">
        <ele>204</ele>
        <time>2017-05-13T09:13:47Z</time>
      </trkpt>
      <trkpt lat="43.40316" lon="6.51056">
        <ele>204</ele>
        <time>2017-05-13T09:13:49Z</time>
      </trkpt>
      <trkpt lat="43.40319" lon="6.51044">
        <ele>204</ele>
        <time>2017-05-13T09:13:51Z</time>
      </trkpt>
      <trkpt lat="43.40322" lon="6.51029">
        <ele>203</ele>
        <time>2017-05-13T09:13:53Z</time>
      </trkpt>
      <trkpt lat="43.40326" lon="6.51017">
        <ele>202</ele>
        <time>2017-05-13T09:13:55Z</time>
      </trkpt>
      <trkpt lat="43.40336" lon="6.50994">
        <ele>200</ele>
        <time>2017-05-13T09:13:58Z</time>
      </trkpt>
      <trkpt lat="43.40339" lon="6.50986">
        <ele>200</ele>
        <time>2017-05-13T09:13:59Z</time>
      </trkpt>
      <trkpt lat="43.40346" lon="6.50971">
        <ele>200</ele>
        <time>2017-05-13T09:14:01Z</time>
      </trkpt>
      <trkpt lat="43.40351" lon="6.50953">
        <ele>199</ele>
        <time>2017-05-13T09:14:03Z</time>
      </trkpt>
      <trkpt lat="43.40351" lon="6.50939">
        <ele>199</ele>
        <time>2017-05-13T09:14:05Z</time>
      </trkpt>
      <trkpt lat="43.4035" lon="6.50924">
        <ele>198</ele>
        <time>2017-05-13T09:14:08Z</time>
      </trkpt>
      <trkpt lat="43.4035" lon="6.50918">
        <ele>198</ele>
        <time>2017-05-13T09:14:09Z</time>
      </trkpt>
      <trkpt lat="43.40351" lon="6.50909">
        <ele>197</ele>
        <time>2017-05-13T09:14:11Z</time>
      </trkpt>
      <trkpt lat="43.40352" lon="6.50897">
        <ele>197</ele>
        <time>2017-05-13T09:14:13Z</time>
      </trkpt>
      <trkpt lat="43.40351" lon="6.50881">
        <ele>197</ele>
        <time>2017-05-13T09:14:15Z</time>
      </trkpt>
      <trkpt lat="43.40343" lon="6.5086">
        <ele>196</ele>
        <time>2017-05-13T09:14:18Z</time>
      </trkpt>
      <trkpt lat="43.4034" lon="6.50855">
        <ele>196</ele>
        <time>2017-05-13T09:14:19Z</time>
      </trkpt>
      <trkpt lat="43.40339" lon="6.50838">
        <ele>194</ele>
        <time>2017-05-13T09:14:21Z</time>
      </trkpt>
      <trkpt lat="43.40335" lon="6.50819">
        <ele>193</ele>
        <time>2017-05-13T09:14:23Z</time>
      </trkpt>
      <trkpt lat="43.40333" lon="6.50807">
        <ele>194</ele>
        <time>2017-05-13T09:14:25Z</time>
      </trkpt>
      <trkpt lat="43.40325" lon="6.50795">
        <ele>193</ele>
        <time>2017-05-13T09:14:27Z</time>
      </trkpt>
      <trkpt lat="43.40321" lon="6.50782">
        <ele>193</ele>
        <time>2017-05-13T09:14:29Z</time>
      </trkpt>
      <trkpt lat="43.40308" lon="6.50756">
        <ele>193</ele>
        <time>2017-05-13T09:14:32Z</time>
      </trkpt>
      <trkpt lat="43.40303" lon="6.50749">
        <ele>189</ele>
        <time>2017-05-13T09:14:33Z</time>
      </trkpt>
      <trkpt lat="43.40289" lon="6.50728">
        <ele>189</ele>
        <time>2017-05-13T09:14:36Z</time>
      </trkpt>
      <trkpt lat="43.40286" lon="6.50723">
        <ele>189</ele>
        <time>2017-05-13T09:14:37Z</time>
      </trkpt>
      <trkpt lat="43.40283" lon="6.50716">
        <ele>189</ele>
        <time>2017-05-13T09:14:39Z</time>
      </trkpt>
      <trkpt lat="43.40281" lon="6.5071">
        <ele>189</ele>
        <time>2017-05-13T09:14:41Z</time>
      </trkpt>
      <trkpt lat="43.40279" lon="6.50706">
        <ele>188</ele>
        <time>2017-05-13T09:14:43Z</time>
      </trkpt>
      <trkpt lat="43.40276" lon="6.50702">
        <ele>188</ele>
        <time>2017-05-13T09:14:45Z</time>
      </trkpt>
      <trkpt lat="43.4027" lon="6.50695">
        <ele>188</ele>
        <time>2017-05-13T09:14:48Z</time>
      </trkpt>
      <trkpt lat="43.40266" lon="6.50691">
        <ele>188</ele>
        <time>2017-05-13T09:14:50Z</time>
      </trkpt>
      <trkpt lat="43.40265" lon="6.5069">
        <ele>187</ele>
        <time>2017-05-13T09:14:51Z</time>
      </trkpt>
      <trkpt lat="43.40261" lon="6.50684">
        <ele>187</ele>
        <time>2017-05-13T09:14:54Z</time>
      </trkpt>
      <trkpt lat="43.40258" lon="6.50681">
        <ele>187</ele>
        <time>2017-05-13T09:14:55Z</time>
      </trkpt>
      <trkpt lat="43.40254" lon="6.50675">
        <ele>186</ele>
        <time>2017-05-13T09:14:57Z</time>
      </trkpt>
      <trkpt lat="43.40248" lon="6.50668">
        <ele>186</ele>
        <time>2017-05-13T09:14:59Z</time>
      </trkpt>
      <trkpt lat="43.40242" lon="6.50662">
        <ele>185</ele>
        <time>2017-05-13T09:15:01Z</time>
      </trkpt>
      <trkpt lat="43.40237" lon="6.50655">
        <ele>186</ele>
        <time>2017-05-13T09:15:03Z</time>
      </trkpt>
      <trkpt lat="43.4023" lon="6.5065">
        <ele>186</ele>
        <time>2017-05-13T09:15:05Z</time>
      </trkpt>
      <trkpt lat="43.40224" lon="6.50646">
        <ele>186</ele>
        <time>2017-05-13T09:15:07Z</time>
      </trkpt>
      <trkpt lat="43.40212" lon="6.50642">
        <ele>186</ele>
        <time>2017-05-13T09:15:10Z</time>
      </trkpt>
      <trkpt lat="43.40209" lon="6.50642">
        <ele>187</ele>
        <time>2017-05-13T09:15:11Z</time>
      </trkpt>
      <trkpt lat="43.40203" lon="6.50639">
        <ele>187</ele>
        <time>2017-05-13T09:15:13Z</time>
      </trkpt>
      <trkpt lat="43.40197" lon="6.50636">
        <ele>187</ele>
        <time>2017-05-13T09:15:15Z</time>
      </trkpt>
      <trkpt lat="43.40191" lon="6.50631">
        <ele>187</ele>
        <time>2017-05-13T09:15:17Z</time>
      </trkpt>
      <trkpt lat="43.40186" lon="6.50624">
        <ele>187</ele>
        <time>2017-05-13T09:15:19Z</time>
      </trkpt>
      <trkpt lat="43.40178" lon="6.50615">
        <ele>186</ele>
        <time>2017-05-13T09:15:22Z</time>
      </trkpt>
      <trkpt lat="43.40174" lon="6.50609">
        <ele>186</ele>
        <time>2017-05-13T09:15:23Z</time>
      </trkpt>
      <trkpt lat="43.40163" lon="6.50586">
        <ele>186</ele>
        <time>2017-05-13T09:15:26Z</time>
      </trkpt>
      <trkpt lat="43.40155" lon="6.5057">
        <ele>188</ele>
        <time>2017-05-13T09:15:28Z</time>
      </trkpt>
      <trkpt lat="43.4015" lon="6.50564">
        <ele>189</ele>
        <time>2017-05-13T09:15:29Z</time>
      </trkpt>
      <trkpt lat="43.40144" lon="6.50555">
        <ele>190</ele>
        <time>2017-05-13T09:15:31Z</time>
      </trkpt>
      <trkpt lat="43.40142" lon="6.50554">
        <ele>190</ele>
        <time>2017-05-13T09:15:33Z</time>
      </trkpt>
      <trkpt lat="43.40142" lon="6.5055">
        <ele>190</ele>
        <time>2017-05-13T09:15:35Z</time>
      </trkpt>
      <trkpt lat="43.4014" lon="6.50547">
        <ele>190</ele>
        <time>2017-05-13T09:15:37Z</time>
      </trkpt>
      <trkpt lat="43.40139" lon="6.50546">
        <ele>191</ele>
        <time>2017-05-13T09:15:39Z</time>
      </trkpt>
      <trkpt lat="43.40138" lon="6.50544">
        <ele>191</ele>
        <time>2017-05-13T09:15:41Z</time>
      </trkpt>
      <trkpt lat="43.40136" lon="6.50541">
        <ele>191</ele>
        <time>2017-05-13T09:15:43Z</time>
      </trkpt>
      <trkpt lat="43.40134" lon="6.50538">
        <ele>191</ele>
        <time>2017-05-13T09:15:45Z</time>
      </trkpt>
      <trkpt lat="43.40132" lon="6.50535">
        <ele>191</ele>
        <time>2017-05-13T09:15:47Z</time>
      </trkpt>
      <trkpt lat="43.4013" lon="6.50533">
        <ele>191</ele>
        <time>2017-05-13T09:15:49Z</time>
      </trkpt>
      <trkpt lat="43.40129" lon="6.5053">
        <ele>191</ele>
        <time>2017-05-13T09:15:51Z</time>
      </trkpt>
      <trkpt lat="43.40127" lon="6.50527">
        <ele>191</ele>
        <time>2017-05-13T09:15:53Z</time>
      </trkpt>
      <trkpt lat="43.40125" lon="6.50525">
        <ele>192</ele>
        <time>2017-05-13T09:15:55Z</time>
      </trkpt>
      <trkpt lat="43.40124" lon="6.50522">
        <ele>192</ele>
        <time>2017-05-13T09:15:57Z</time>
      </trkpt>
      <trkpt lat="43.40122" lon="6.50519">
        <ele>192</ele>
        <time>2017-05-13T09:15:59Z</time>
      </trkpt>
      <trkpt lat="43.4012" lon="6.50517">
        <ele>192</ele>
        <time>2017-05-13T09:16:01Z</time>
      </trkpt>
      <trkpt lat="43.40118" lon="6.50515">
        <ele>192</ele>
        <time>2017-05-13T09:16:03Z</time>
      </trkpt>
      <trkpt lat="43.40116" lon="6.50512">
        <ele>192</ele>
        <time>2017-05-13T09:16:05Z</time>
      </trkpt>
      <trkpt lat="43.40114" lon="6.5051">
        <ele>192</ele>
        <time>2017-05-13T09:16:07Z</time>
      </trkpt>
      <trkpt lat="43.40112" lon="6.50508">
        <ele>193</ele>
        <time>2017-05-13T09:16:09Z</time>
      </trkpt>
      <trkpt lat="43.4011" lon="6.50505">
        <ele>193</ele>
        <time>2017-05-13T09:16:11Z</time>
      </trkpt>
      <trkpt lat="43.40108" lon="6.505">
        <ele>196</ele>
        <time>2017-05-13T09:16:13Z</time>
      </trkpt>
      <trkpt lat="43.40106" lon="6.50494">
        <ele>196</ele>
        <time>2017-05-13T09:16:15Z</time>
      </trkpt>
      <trkpt lat="43.40104" lon="6.50489">
        <ele>197</ele>
        <time>2017-05-13T09:16:17Z</time>
      </trkpt>
      <trkpt lat="43.40102" lon="6.50485">
        <ele>197</ele>
        <time>2017-05-13T09:16:19Z</time>
      </trkpt>
      <trkpt lat="43.40101" lon="6.50482">
        <ele>197</ele>
        <time>2017-05-13T09:16:21Z</time>
      </trkpt>
      <trkpt lat="43.40099" lon="6.50479">
        <ele>197</ele>
        <time>2017-05-13T09:16:23Z</time>
      </trkpt>
      <trkpt lat="43.40098" lon="6.50475">
        <ele>197</ele>
        <time>2017-05-13T09:16:25Z</time>
      </trkpt>
      <trkpt lat="43.40097" lon="6.50471">
        <ele>197</ele>
        <time>2017-05-13T09:16:27Z</time>
      </trkpt>
      <trkpt lat="43.40096" lon="6.50468">
        <ele>198</ele>
        <time>2017-05-13T09:16:29Z</time>
      </trkpt>
      <trkpt lat="43.40095" lon="6.50465">
        <ele>198</ele>
        <time>2017-05-13T09:16:32Z</time>
      </trkpt>
      <trkpt lat="43.40095" lon="6.50463">
        <ele>198</ele>
        <time>2017-05-13T09:16:33Z</time>
      </trkpt>
      <trkpt lat="43.40095" lon="6.50461">
        <ele>198</ele>
        <time>2017-05-13T09:16:35Z</time>
      </trkpt>
      <trkpt lat="43.40095" lon="6.50458">
        <ele>198</ele>
        <time>2017-05-13T09:16:37Z</time>
      </trkpt>
      <trkpt lat="43.40096" lon="6.50454">
        <ele>199</ele>
        <time>2017-05-13T09:16:39Z</time>
      </trkpt>
      <trkpt lat="43.40096" lon="6.50451">
        <ele>199</ele>
        <time>2017-05-13T09:16:41Z</time>
      </trkpt>
      <trkpt lat="43.40097" lon="6.50447">
        <ele>199</ele>
        <time>2017-05-13T09:16:43Z</time>
      </trkpt>
      <trkpt lat="43.40098" lon="6.50443">
        <ele>199</ele>
        <time>2017-05-13T09:16:45Z</time>
      </trkpt>
      <trkpt lat="43.40099" lon="6.5044">
        <ele>200</ele>
        <time>2017-05-13T09:16:47Z</time>
      </trkpt>
      <trkpt lat="43.401" lon="6.50437">
        <ele>200</ele>
        <time>2017-05-13T09:16:50Z</time>
      </trkpt>
      <trkpt lat="43.401" lon="6.50436">
        <ele>200</ele>
        <time>2017-05-13T09:16:51Z</time>
      </trkpt>
      <trkpt lat="43.40101" lon="6.50433">
        <ele>200</ele>
        <time>2017-05-13T09:16:53Z</time>
      </trkpt>
      <trkpt lat="43.40101" lon="6.50431">
        <ele>200</ele>
        <time>2017-05-13T09:16:55Z</time>
      </trkpt>
      <trkpt lat="43.40101" lon="6.50428">
        <ele>201</ele>
        <time>2017-05-13T09:16:57Z</time>
      </trkpt>
      <trkpt lat="43.401" lon="6.50426">
        <ele>201</ele>
        <time>2017-05-13T09:16:59Z</time>
      </trkpt>
      <trkpt lat="43.401" lon="6.50425">
        <ele>201</ele>
        <time>2017-05-13T09:17:01Z</time>
      </trkpt>
      <trkpt lat="43.40099" lon="6.50424">
        <ele>201</ele>
        <time>2017-05-13T09:17:03Z</time>
      </trkpt>
      <trkpt lat="43.401" lon="6.50426">
        <ele>201</ele>
        <time>2017-05-13T09:17:05Z</time>
      </trkpt>
      <trkpt lat="43.401" lon="6.50425">
        <ele>201</ele>
        <time>2017-05-13T09:17:07Z</time>
      </trkpt>
      <trkpt lat="43.401" lon="6.50425">
        <ele>201</ele>
        <time>2017-05-13T09:17:09Z</time>
      </trkpt>
      <trkpt lat="43.401" lon="6.50425">
        <ele>201</ele>
        <time>2017-05-13T09:17:11Z</time>
      </trkpt>
      <trkpt lat="43.40099" lon="6.50425">
        <ele>201</ele>
        <time>2017-05-13T09:17:13Z</time>
      </trkpt>
      <trkpt lat="43.40099" lon="6.50424">
        <ele>201</ele>
        <time>2017-05-13T09:17:15Z</time>
      </trkpt>
      <trkpt lat="43.40099" lon="6.50424">
        <ele>201</ele>
        <time>2017-05-13T09:17:17Z</time>
      </trkpt>
      <trkpt lat="43.40099" lon="6.50424">
        <ele>201</ele>
        <time>2017-05-13T09:17:19Z</time>
      </trkpt>
      <trkpt lat="43.40099" lon="6.50424">
        <ele>201</ele>
        <time>2017-05-13T09:17:21Z</time>
      </trkpt>
      <trkpt lat="43.40099" lon="6.50424">
        <ele>201</ele>
        <time>2017-05-13T09:17:23Z</time>
      </trkpt>
      <trkpt lat="43.40099" lon="6.50424">
        <ele>201</ele>
        <time>2017-05-13T09:17:25Z</time>
      </trkpt>
      <trkpt lat="43.40099" lon="6.50424">
        <ele>201</ele>
        <time>2017-05-13T09:17:27Z</time>
      </trkpt>
      <trkpt lat="43.40099" lon="6.50424">
        <ele>201</ele>
        <time>2017-05-13T09:17:29Z</time>
      </trkpt>
      <trkpt lat="43.40099" lon="6.50424">
        <ele>201</ele>
        <time>2017-05-13T09:17:31Z</time>
      </trkpt>
      <trkpt lat="43.40099" lon="6.50424">
        <ele>201</ele>
        <time>2017-05-13T09:17:33Z</time>
      </trkpt>
      <trkpt lat="43.40099" lon="6.50424">
        <ele>201</ele>
        <time>2017-05-13T09:17:35Z</time>
      </trkpt>
      <trkpt lat="43.401" lon="6.50418">
        <ele>201</ele>
        <time>2017-05-13T09:18:38Z</time>
      </trkpt>
      <trkpt lat="43.40099" lon="6.50417">
        <ele>201</ele>
        <time>2017-05-13T09:18:40Z</time>
      </trkpt>
      <trkpt lat="43.40098" lon="6.50416">
        <ele>206</ele>
        <time>2017-05-13T09:18:42Z</time>
      </trkpt>
      <trkpt lat="43.40096" lon="6.50412">
        <ele>206</ele>
        <time>2017-05-13T09:18:44Z</time>
      </trkpt>
      <trkpt lat="43.40093" lon="6.50406">
        <ele>206</ele>
        <time>2017-05-13T09:18:46Z</time>
      </trkpt>
      <trkpt lat="43.4009" lon="6.504">
        <ele>206</ele>
        <time>2017-05-13T09:18:48Z</time>
      </trkpt>
      <trkpt lat="43.40087" lon="6.50392">
        <ele>207</ele>
        <time>2017-05-13T09:18:50Z</time>
      </trkpt>
      <trkpt lat="43.40085" lon="6.50386">
        <ele>207</ele>
        <time>2017-05-13T09:18:52Z</time>
      </trkpt>
      <trkpt lat="43.40082" lon="6.50379">
        <ele>209</ele>
        <time>2017-05-13T09:18:54Z</time>
      </trkpt>
      <trkpt lat="43.40078" lon="6.50373">
        <ele>209</ele>
        <time>2017-05-13T09:18:56Z</time>
      </trkpt>
      <trkpt lat="43.40073" lon="6.50364">
        <ele>210</ele>
        <time>2017-05-13T09:18:59Z</time>
      </trkpt>
      <trkpt lat="43.4007" lon="6.50358">
        <ele>210</ele>
        <time>2017-05-13T09:19:01Z</time>
      </trkpt>
      <trkpt lat="43.40069" lon="6.50355">
        <ele>210</ele>
        <time>2017-05-13T09:19:02Z</time>
      </trkpt>
      <trkpt lat="43.40067" lon="6.5035">
        <ele>210</ele>
        <time>2017-05-13T09:19:04Z</time>
      </trkpt>
      <trkpt lat="43.40065" lon="6.50344">
        <ele>211</ele>
        <time>2017-05-13T09:19:06Z</time>
      </trkpt>
      <trkpt lat="43.40062" lon="6.50335">
        <ele>211</ele>
        <time>2017-05-13T09:19:09Z</time>
      </trkpt>
      <trkpt lat="43.40061" lon="6.50332">
        <ele>213</ele>
        <time>2017-05-13T09:19:10Z</time>
      </trkpt>
      <trkpt lat="43.4006" lon="6.50327">
        <ele>213</ele>
        <time>2017-05-13T09:19:12Z</time>
      </trkpt>
      <trkpt lat="43.40057" lon="6.50322">
        <ele>213</ele>
        <time>2017-05-13T09:19:14Z</time>
      </trkpt>
      <trkpt lat="43.40054" lon="6.50317">
        <ele>214</ele>
        <time>2017-05-13T09:19:16Z</time>
      </trkpt>
      <trkpt lat="43.40052" lon="6.50312">
        <ele>214</ele>
        <time>2017-05-13T09:19:18Z</time>
      </trkpt>
      <trkpt lat="43.4005" lon="6.50306">
        <ele>214</ele>
        <time>2017-05-13T09:19:20Z</time>
      </trkpt>
      <trkpt lat="43.40047" lon="6.50301">
        <ele>214</ele>
        <time>2017-05-13T09:19:22Z</time>
      </trkpt>
      <trkpt lat="43.40045" lon="6.50296">
        <ele>214</ele>
        <time>2017-05-13T09:19:24Z</time>
      </trkpt>
      <trkpt lat="43.40042" lon="6.50289">
        <ele>214</ele>
        <time>2017-05-13T09:19:26Z</time>
      </trkpt>
      <trkpt lat="43.40036" lon="6.50281">
        <ele>214</ele>
        <time>2017-05-13T09:19:28Z</time>
      </trkpt>
      <trkpt lat="43.40031" lon="6.50275">
        <ele>213</ele>
        <time>2017-05-13T09:19:30Z</time>
      </trkpt>
      <trkpt lat="43.40022" lon="6.50272">
        <ele>213</ele>
        <time>2017-05-13T09:19:32Z</time>
      </trkpt>
      <trkpt lat="43.40011" lon="6.50267">
        <ele>212</ele>
        <time>2017-05-13T09:19:34Z</time>
      </trkpt>
      <trkpt lat="43.4" lon="6.50263">
        <ele>208</ele>
        <time>2017-05-13T09:19:36Z</time>
      </trkpt>
      <trkpt lat="43.39989" lon="6.50257">
        <ele>207</ele>
        <time>2017-05-13T09:19:38Z</time>
      </trkpt>
      <trkpt lat="43.39981" lon="6.50253">
        <ele>207</ele>
        <time>2017-05-13T09:19:40Z</time>
      </trkpt>
      <trkpt lat="43.39974" lon="6.50248">
        <ele>207</ele>
        <time>2017-05-13T09:19:42Z</time>
      </trkpt>
      <trkpt lat="43.39966" lon="6.50243">
        <ele>207</ele>
        <time>2017-05-13T09:19:44Z</time>
      </trkpt>
      <trkpt lat="43.39961" lon="6.5024">
        <ele>207</ele>
        <time>2017-05-13T09:19:46Z</time>
      </trkpt>
      <trkpt lat="43.39954" lon="6.50238">
        <ele>206</ele>
        <time>2017-05-13T09:19:48Z</time>
      </trkpt>
      <trkpt lat="43.39946" lon="6.50234">
        <ele>205</ele>
        <time>2017-05-13T09:19:50Z</time>
      </trkpt>
      <trkpt lat="43.39938" lon="6.50229">
        <ele>205</ele>
        <time>2017-05-13T09:19:52Z</time>
      </trkpt>
      <trkpt lat="43.3993" lon="6.50224">
        <ele>205</ele>
        <time>2017-05-13T09:19:54Z</time>
      </trkpt>
      <trkpt lat="43.39922" lon="6.50217">
        <ele>205</ele>
        <time>2017-05-13T09:19:56Z</time>
      </trkpt>
      <trkpt lat="43.39915" lon="6.50211">
        <ele>197</ele>
        <time>2017-05-13T09:19:58Z</time>
      </trkpt>
      <trkpt lat="43.39905" lon="6.50205">
        <ele>197</ele>
        <time>2017-05-13T09:20:00Z</time>
      </trkpt>
      <trkpt lat="43.3989" lon="6.50201">
        <ele>196</ele>
        <time>2017-05-13T09:20:03Z</time>
      </trkpt>
      <trkpt lat="43.39886" lon="6.50199">
        <ele>196</ele>
        <time>2017-05-13T09:20:04Z</time>
      </trkpt>
      <trkpt lat="43.39877" lon="6.50196">
        <ele>195</ele>
        <time>2017-05-13T09:20:06Z</time>
      </trkpt>
      <trkpt lat="43.39868" lon="6.50193">
        <ele>194</ele>
        <time>2017-05-13T09:20:08Z</time>
      </trkpt>
      <trkpt lat="43.39859" lon="6.5019">
        <ele>193</ele>
        <time>2017-05-13T09:20:10Z</time>
      </trkpt>
      <trkpt lat="43.39849" lon="6.50189">
        <ele>192</ele>
        <time>2017-05-13T09:20:12Z</time>
      </trkpt>
      <trkpt lat="43.39841" lon="6.50192">
        <ele>192</ele>
        <time>2017-05-13T09:20:14Z</time>
      </trkpt>
      <trkpt lat="43.39832" lon="6.50194">
        <ele>186</ele>
        <time>2017-05-13T09:20:16Z</time>
      </trkpt>
      <trkpt lat="43.39822" lon="6.50196">
        <ele>185</ele>
        <time>2017-05-13T09:20:18Z</time>
      </trkpt>
      <trkpt lat="43.39812" lon="6.50196">
        <ele>185</ele>
        <time>2017-05-13T09:20:20Z</time>
      </trkpt>
      <trkpt lat="43.39801" lon="6.50197">
        <ele>184</ele>
        <time>2017-05-13T09:20:22Z</time>
      </trkpt>
      <trkpt lat="43.39781" lon="6.50189">
        <ele>183</ele>
        <time>2017-05-13T09:20:25Z</time>
      </trkpt>
      <trkpt lat="43.39768" lon="6.50181">
        <ele>181</ele>
        <time>2017-05-13T09:20:27Z</time>
      </trkpt>
      <trkpt lat="43.39762" lon="6.50178">
        <ele>180</ele>
        <time>2017-05-13T09:20:28Z</time>
      </trkpt>
      <trkpt lat="43.39752" lon="6.50167">
        <ele>178</ele>
        <time>2017-05-13T09:20:30Z</time>
      </trkpt>
      <trkpt lat="43.39743" lon="6.50153">
        <ele>175</ele>
        <time>2017-05-13T09:20:32Z</time>
      </trkpt>
      <trkpt lat="43.39733" lon="6.50143">
        <ele>175</ele>
        <time>2017-05-13T09:20:34Z</time>
      </trkpt>
      <trkpt lat="43.39722" lon="6.50139">
        <ele>174</ele>
        <time>2017-05-13T09:20:36Z</time>
      </trkpt>
      <trkpt lat="43.39712" lon="6.50134">
        <ele>173</ele>
        <time>2017-05-13T09:20:38Z</time>
      </trkpt>
      <trkpt lat="43.39705" lon="6.50128">
        <ele>173</ele>
        <time>2017-05-13T09:20:40Z</time>
      </trkpt>
      <trkpt lat="43.39698" lon="6.50121">
        <ele>172</ele>
        <time>2017-05-13T09:20:42Z</time>
      </trkpt>
      <trkpt lat="43.39692" lon="6.50109">
        <ele>172</ele>
        <time>2017-05-13T09:20:44Z</time>
      </trkpt>
      <trkpt lat="43.39687" lon="6.50099">
        <ele>172</ele>
        <time>2017-05-13T09:20:46Z</time>
      </trkpt>
      <trkpt lat="43.39683" lon="6.50086">
        <ele>171</ele>
        <time>2017-05-13T09:20:48Z</time>
      </trkpt>
      <trkpt lat="43.39678" lon="6.50077">
        <ele>174</ele>
        <time>2017-05-13T09:20:50Z</time>
      </trkpt>
      <trkpt lat="43.39667" lon="6.50073">
        <ele>173</ele>
        <time>2017-05-13T09:20:52Z</time>
      </trkpt>
      <trkpt lat="43.39656" lon="6.50071">
        <ele>169</ele>
        <time>2017-05-13T09:20:54Z</time>
      </trkpt>
      <trkpt lat="43.39645" lon="6.50071">
        <ele>168</ele>
        <time>2017-05-13T09:20:56Z</time>
      </trkpt>
      <trkpt lat="43.39634" lon="6.50074">
        <ele>168</ele>
        <time>2017-05-13T09:20:58Z</time>
      </trkpt>
      <trkpt lat="43.39627" lon="6.50075">
        <ele>167</ele>
        <time>2017-05-13T09:21:00Z</time>
      </trkpt>
      <trkpt lat="43.39613" lon="6.50072">
        <ele>166</ele>
        <time>2017-05-13T09:21:03Z</time>
      </trkpt>
      <trkpt lat="43.39608" lon="6.50068">
        <ele>166</ele>
        <time>2017-05-13T09:21:04Z</time>
      </trkpt>
      <trkpt lat="43.39601" lon="6.50057">
        <ele>166</ele>
        <time>2017-05-13T09:21:06Z</time>
      </trkpt>
      <trkpt lat="43.39599" lon="6.50044">
        <ele>167</ele>
        <time>2017-05-13T09:21:08Z</time>
      </trkpt>
      <trkpt lat="43.39602" lon="6.50028">
        <ele>167</ele>
        <time>2017-05-13T09:21:10Z</time>
      </trkpt>
      <trkpt lat="43.39609" lon="6.50014">
        <ele>167</ele>
        <time>2017-05-13T09:21:12Z</time>
      </trkpt>
      <trkpt lat="43.39616" lon="6.50003">
        <ele>168</ele>
        <time>2017-05-13T09:21:14Z</time>
      </trkpt>
      <trkpt lat="43.39624" lon="6.49992">
        <ele>172</ele>
        <time>2017-05-13T09:21:16Z</time>
      </trkpt>
      <trkpt lat="43.39628" lon="6.49979">
        <ele>173</ele>
        <time>2017-05-13T09:21:18Z</time>
      </trkpt>
      <trkpt lat="43.39626" lon="6.49965">
        <ele>173</ele>
        <time>2017-05-13T09:21:20Z</time>
      </trkpt>
      <trkpt lat="43.3962" lon="6.49958">
        <ele>172</ele>
        <time>2017-05-13T09:21:22Z</time>
      </trkpt>
      <trkpt lat="43.39614" lon="6.49946">
        <ele>172</ele>
        <time>2017-05-13T09:21:24Z</time>
      </trkpt>
      <trkpt lat="43.39611" lon="6.49934">
        <ele>172</ele>
        <time>2017-05-13T09:21:26Z</time>
      </trkpt>
      <trkpt lat="43.39603" lon="6.49927">
        <ele>171</ele>
        <time>2017-05-13T09:21:28Z</time>
      </trkpt>
      <trkpt lat="43.39593" lon="6.49926">
        <ele>170</ele>
        <time>2017-05-13T09:21:30Z</time>
      </trkpt>
      <trkpt lat="43.39584" lon="6.49932">
        <ele>170</ele>
        <time>2017-05-13T09:21:32Z</time>
      </trkpt>
      <trkpt lat="43.39574" lon="6.49938">
        <ele>165</ele>
        <time>2017-05-13T09:21:34Z</time>
      </trkpt>
      <trkpt lat="43.39565" lon="6.49939">
        <ele>164</ele>
        <time>2017-05-13T09:21:36Z</time>
      </trkpt>
      <trkpt lat="43.39555" lon="6.4994">
        <ele>164</ele>
        <time>2017-05-13T09:21:38Z</time>
      </trkpt>
      <trkpt lat="43.39545" lon="6.49939">
        <ele>163</ele>
        <time>2017-05-13T09:21:40Z</time>
      </trkpt>
      <trkpt lat="43.39538" lon="6.4993">
        <ele>163</ele>
        <time>2017-05-13T09:21:42Z</time>
      </trkpt>
      <trkpt lat="43.39532" lon="6.49918">
        <ele>163</ele>
        <time>2017-05-13T09:21:44Z</time>
      </trkpt>
      <trkpt lat="43.39528" lon="6.49907">
        <ele>166</ele>
        <time>2017-05-13T09:21:46Z</time>
      </trkpt>
      <trkpt lat="43.39524" lon="6.49893">
        <ele>166</ele>
        <time>2017-05-13T09:21:48Z</time>
      </trkpt>
      <trkpt lat="43.39518" lon="6.49879">
        <ele>166</ele>
        <time>2017-05-13T09:21:50Z</time>
      </trkpt>
      <trkpt lat="43.39512" lon="6.49864">
        <ele>166</ele>
        <time>2017-05-13T09:21:52Z</time>
      </trkpt>
      <trkpt lat="43.39506" lon="6.49849">
        <ele>166</ele>
        <time>2017-05-13T09:21:54Z</time>
      </trkpt>
      <trkpt lat="43.395" lon="6.49836">
        <ele>165</ele>
        <time>2017-05-13T09:21:56Z</time>
      </trkpt>
      <trkpt lat="43.39491" lon="6.49818">
        <ele>164</ele>
        <time>2017-05-13T09:21:59Z</time>
      </trkpt>
      <trkpt lat="43.39489" lon="6.4981">
        <ele>163</ele>
        <time>2017-05-13T09:22:00Z</time>
      </trkpt>
      <trkpt lat="43.39484" lon="6.49792">
        <ele>163</ele>
        <time>2017-05-13T09:22:03Z</time>
      </trkpt>
      <trkpt lat="43.39481" lon="6.49786">
        <ele>163</ele>
        <time>2017-05-13T09:22:04Z</time>
      </trkpt>
      <trkpt lat="43.39476" lon="6.49778">
        <ele>163</ele>
        <time>2017-05-13T09:22:06Z</time>
      </trkpt>
      <trkpt lat="43.39473" lon="6.49766">
        <ele>163</ele>
        <time>2017-05-13T09:22:08Z</time>
      </trkpt>
      <trkpt lat="43.39464" lon="6.49751">
        <ele>163</ele>
        <time>2017-05-13T09:22:11Z</time>
      </trkpt>
      <trkpt lat="43.39461" lon="6.49746">
        <ele>164</ele>
        <time>2017-05-13T09:22:12Z</time>
      </trkpt>
      <trkpt lat="43.39453" lon="6.49732">
        <ele>164</ele>
        <time>2017-05-13T09:22:14Z</time>
      </trkpt>
      <trkpt lat="43.39445" lon="6.49723">
        <ele>163</ele>
        <time>2017-05-13T09:22:16Z</time>
      </trkpt>
      <trkpt lat="43.39433" lon="6.49706">
        <ele>163</ele>
        <time>2017-05-13T09:22:19Z</time>
      </trkpt>
      <trkpt lat="43.39428" lon="6.497">
        <ele>163</ele>
        <time>2017-05-13T09:22:20Z</time>
      </trkpt>
      <trkpt lat="43.3942" lon="6.49689">
        <ele>163</ele>
        <time>2017-05-13T09:22:22Z</time>
      </trkpt>
      <trkpt lat="43.39412" lon="6.49679">
        <ele>160</ele>
        <time>2017-05-13T09:22:24Z</time>
      </trkpt>
      <trkpt lat="43.39402" lon="6.49669">
        <ele>160</ele>
        <time>2017-05-13T09:22:26Z</time>
      </trkpt>
      <trkpt lat="43.39394" lon="6.49657">
        <ele>159</ele>
        <time>2017-05-13T09:22:28Z</time>
      </trkpt>
      <trkpt lat="43.39387" lon="6.49645">
        <ele>159</ele>
        <time>2017-05-13T09:22:30Z</time>
      </trkpt>
      <trkpt lat="43.3938" lon="6.49637">
        <ele>158</ele>
        <time>2017-05-13T09:22:32Z</time>
      </trkpt>
      <trkpt lat="43.39373" lon="6.49626">
        <ele>158</ele>
        <time>2017-05-13T09:22:34Z</time>
      </trkpt>
      <trkpt lat="43.39364" lon="6.49617">
        <ele>158</ele>
        <time>2017-05-13T09:22:36Z</time>
      </trkpt>
      <trkpt lat="43.39356" lon="6.49609">
        <ele>158</ele>
        <time>2017-05-13T09:22:38Z</time>
      </trkpt>
      <trkpt lat="43.39349" lon="6.496">
        <ele>158</ele>
        <time>2017-05-13T09:22:40Z</time>
      </trkpt>
      <trkpt lat="43.39341" lon="6.49591">
        <ele>157</ele>
        <time>2017-05-13T09:22:42Z</time>
      </trkpt>
      <trkpt lat="43.39333" lon="6.49582">
        <ele>157</ele>
        <time>2017-05-13T09:22:44Z</time>
      </trkpt>
      <trkpt lat="43.39324" lon="6.49572">
        <ele>155</ele>
        <time>2017-05-13T09:22:46Z</time>
      </trkpt>
      <trkpt lat="43.39318" lon="6.49563">
        <ele>155</ele>
        <time>2017-05-13T09:22:48Z</time>
      </trkpt>
      <trkpt lat="43.39312" lon="6.49553">
        <ele>154</ele>
        <time>2017-05-13T09:22:50Z</time>
      </trkpt>
      <trkpt lat="43.39305" lon="6.49543">
        <ele>154</ele>
        <time>2017-05-13T09:22:52Z</time>
      </trkpt>
      <trkpt lat="43.39298" lon="6.49535">
        <ele>153</ele>
        <time>2017-05-13T09:22:54Z</time>
      </trkpt>
      <trkpt lat="43.39289" lon="6.49529">
        <ele>153</ele>
        <time>2017-05-13T09:22:56Z</time>
      </trkpt>
      <trkpt lat="43.39281" lon="6.49523">
        <ele>153</ele>
        <time>2017-05-13T09:22:58Z</time>
      </trkpt>
      <trkpt lat="43.3927" lon="6.49518">
        <ele>153</ele>
        <time>2017-05-13T09:23:00Z</time>
      </trkpt>
      <trkpt lat="43.39263" lon="6.49508">
        <ele>153</ele>
        <time>2017-05-13T09:23:02Z</time>
      </trkpt>
      <trkpt lat="43.39258" lon="6.49498">
        <ele>152</ele>
        <time>2017-05-13T09:23:04Z</time>
      </trkpt>
      <trkpt lat="43.39253" lon="6.49485">
        <ele>152</ele>
        <time>2017-05-13T09:23:06Z</time>
      </trkpt>
      <trkpt lat="43.3925" lon="6.49477">
        <ele>151</ele>
        <time>2017-05-13T09:23:08Z</time>
      </trkpt>
      <trkpt lat="43.39246" lon="6.4947">
        <ele>148</ele>
        <time>2017-05-13T09:23:10Z</time>
      </trkpt>
      <trkpt lat="43.39245" lon="6.49461">
        <ele>147</ele>
        <time>2017-05-13T09:23:12Z</time>
      </trkpt>
      <trkpt lat="43.39252" lon="6.49453">
        <ele>150</ele>
        <time>2017-05-13T09:23:14Z</time>
      </trkpt>
      <trkpt lat="43.39261" lon="6.49451">
        <ele>150</ele>
        <time>2017-05-13T09:23:16Z</time>
      </trkpt>
      <trkpt lat="43.3927" lon="6.49449">
        <ele>150</ele>
        <time>2017-05-13T09:23:18Z</time>
      </trkpt>
      <trkpt lat="43.39281" lon="6.49448">
        <ele>150</ele>
        <time>2017-05-13T09:23:20Z</time>
      </trkpt>
      <trkpt lat="43.39291" lon="6.49448">
        <ele>150</ele>
        <time>2017-05-13T09:23:22Z</time>
      </trkpt>
      <trkpt lat="43.393" lon="6.49449">
        <ele>150</ele>
        <time>2017-05-13T09:23:24Z</time>
      </trkpt>
      <trkpt lat="43.39309" lon="6.49452">
        <ele>150</ele>
        <time>2017-05-13T09:23:26Z</time>
      </trkpt>
      <trkpt lat="43.39317" lon="6.49452">
        <ele>150</ele>
        <time>2017-05-13T09:23:28Z</time>
      </trkpt>
      <trkpt lat="43.39325" lon="6.49445">
        <ele>150</ele>
        <time>2017-05-13T09:23:30Z</time>
      </trkpt>
      <trkpt lat="43.39328" lon="6.49432">
        <ele>149</ele>
        <time>2017-05-13T09:23:32Z</time>
      </trkpt>
      <trkpt lat="43.39326" lon="6.49421">
        <ele>149</ele>
        <time>2017-05-13T09:23:34Z</time>
      </trkpt>
      <trkpt lat="43.39322" lon="6.49412">
        <ele>147</ele>
        <time>2017-05-13T09:23:36Z</time>
      </trkpt>
      <trkpt lat="43.39318" lon="6.49404">
        <ele>147</ele>
        <time>2017-05-13T09:23:38Z</time>
      </trkpt>
      <trkpt lat="43.39313" lon="6.49396">
        <ele>147</ele>
        <time>2017-05-13T09:23:40Z</time>
      </trkpt>
      <trkpt lat="43.3931" lon="6.49386">
        <ele>147</ele>
        <time>2017-05-13T09:23:42Z</time>
      </trkpt>
      <trkpt lat="43.39307" lon="6.49377">
        <ele>146</ele>
        <time>2017-05-13T09:23:44Z</time>
      </trkpt>
      <trkpt lat="43.39306" lon="6.49368">
        <ele>146</ele>
        <time>2017-05-13T09:23:46Z</time>
      </trkpt>
      <trkpt lat="43.39305" lon="6.49357">
        <ele>146</ele>
        <time>2017-05-13T09:23:48Z</time>
      </trkpt>
      <trkpt lat="43.39307" lon="6.49346">
        <ele>146</ele>
        <time>2017-05-13T09:23:50Z</time>
      </trkpt>
      <trkpt lat="43.39308" lon="6.49336">
        <ele>147</ele>
        <time>2017-05-13T09:23:52Z</time>
      </trkpt>
      <trkpt lat="43.39304" lon="6.49323">
        <ele>145</ele>
        <time>2017-05-13T09:23:55Z</time>
      </trkpt>
      <trkpt lat="43.39302" lon="6.49319">
        <ele>145</ele>
        <time>2017-05-13T09:23:56Z</time>
      </trkpt>
      <trkpt lat="43.39298" lon="6.49311">
        <ele>144</ele>
        <time>2017-05-13T09:23:58Z</time>
      </trkpt>
      <trkpt lat="43.39294" lon="6.49302">
        <ele>144</ele>
        <time>2017-05-13T09:24:00Z</time>
      </trkpt>
      <trkpt lat="43.39295" lon="6.49289">
        <ele>144</ele>
        <time>2017-05-13T09:24:02Z</time>
      </trkpt>
      <trkpt lat="43.39294" lon="6.49277">
        <ele>144</ele>
        <time>2017-05-13T09:24:04Z</time>
      </trkpt>
      <trkpt lat="43.39297" lon="6.49267">
        <ele>144</ele>
        <time>2017-05-13T09:24:06Z</time>
      </trkpt>
      <trkpt lat="43.39299" lon="6.49257">
        <ele>144</ele>
        <time>2017-05-13T09:24:08Z</time>
      </trkpt>
      <trkpt lat="43.393" lon="6.49243">
        <ele>143</ele>
        <time>2017-05-13T09:24:10Z</time>
      </trkpt>
      <trkpt lat="43.39302" lon="6.49228">
        <ele>143</ele>
        <time>2017-05-13T09:24:12Z</time>
      </trkpt>
      <trkpt lat="43.39304" lon="6.49209">
        <ele>143</ele>
        <time>2017-05-13T09:24:15Z</time>
      </trkpt>
      <trkpt lat="43.39304" lon="6.49205">
        <ele>143</ele>
        <time>2017-05-13T09:24:16Z</time>
      </trkpt>
      <trkpt lat="43.393" lon="6.49196">
        <ele>143</ele>
        <time>2017-05-13T09:24:18Z</time>
      </trkpt>
      <trkpt lat="43.39298" lon="6.49192">
        <ele>143</ele>
        <time>2017-05-13T09:24:20Z</time>
      </trkpt>
      <trkpt lat="43.39298" lon="6.49192">
        <ele>143</ele>
        <time>2017-05-13T09:24:22Z</time>
      </trkpt>
      <trkpt lat="43.39299" lon="6.49193">
        <ele>143</ele>
        <time>2017-05-13T09:24:24Z</time>
      </trkpt>
      <trkpt lat="43.393" lon="6.49193">
        <ele>143</ele>
        <time>2017-05-13T09:24:26Z</time>
      </trkpt>
      <trkpt lat="43.39301" lon="6.49193">
        <ele>143</ele>
        <time>2017-05-13T09:24:28Z</time>
      </trkpt>
      <trkpt lat="43.393" lon="6.4919">
        <ele>143</ele>
        <time>2017-05-13T09:25:32Z</time>
      </trkpt>
      <trkpt lat="43.39299" lon="6.49191">
        <ele>143</ele>
        <time>2017-05-13T09:25:34Z</time>
      </trkpt>
      <trkpt lat="43.39297" lon="6.49191">
        <ele>143</ele>
        <time>2017-05-13T09:25:36Z</time>
      </trkpt>
      <trkpt lat="43.39294" lon="6.49191">
        <ele>142</ele>
        <time>2017-05-13T09:25:38Z</time>
      </trkpt>
      <trkpt lat="43.39289" lon="6.49189">
        <ele>142</ele>
        <time>2017-05-13T09:25:40Z</time>
      </trkpt>
      <trkpt lat="43.39285" lon="6.49185">
        <ele>141</ele>
        <time>2017-05-13T09:25:42Z</time>
      </trkpt>
      <trkpt lat="43.39281" lon="6.49179">
        <ele>141</ele>
        <time>2017-05-13T09:25:44Z</time>
      </trkpt>
      <trkpt lat="43.39276" lon="6.49173">
        <ele>140</ele>
        <time>2017-05-13T09:25:46Z</time>
      </trkpt>
      <trkpt lat="43.3927" lon="6.49167">
        <ele>140</ele>
        <time>2017-05-13T09:25:48Z</time>
      </trkpt>
      <trkpt lat="43.39263" lon="6.49158">
        <ele>138</ele>
        <time>2017-05-13T09:25:50Z</time>
      </trkpt>
      <trkpt lat="43.39255" lon="6.49149">
        <ele>138</ele>
        <time>2017-05-13T09:25:52Z</time>
      </trkpt>
      <trkpt lat="43.39246" lon="6.49139">
        <ele>133</ele>
        <time>2017-05-13T09:25:54Z</time>
      </trkpt>
      <trkpt lat="43.39238" lon="6.4913">
        <ele>133</ele>
        <time>2017-05-13T09:25:56Z</time>
      </trkpt>
      <trkpt lat="43.39231" lon="6.49119">
        <ele>132</ele>
        <time>2017-05-13T09:25:58Z</time>
      </trkpt>
      <trkpt lat="43.39223" lon="6.49109">
        <ele>132</ele>
        <time>2017-05-13T09:26:00Z</time>
      </trkpt>
      <trkpt lat="43.39216" lon="6.49098">
        <ele>131</ele>
        <time>2017-05-13T09:26:02Z</time>
      </trkpt>
      <trkpt lat="43.39212" lon="6.49086">
        <ele>131</ele>
        <time>2017-05-13T09:26:04Z</time>
      </trkpt>
      <trkpt lat="43.39205" lon="6.49078">
        <ele>129</ele>
        <time>2017-05-13T09:26:06Z</time>
      </trkpt>
      <trkpt lat="43.39196" lon="6.49067">
        <ele>128</ele>
        <time>2017-05-13T09:26:08Z</time>
      </trkpt>
      <trkpt lat="43.39187" lon="6.49058">
        <ele>127</ele>
        <time>2017-05-13T09:26:10Z</time>
      </trkpt>
      <trkpt lat="43.39178" lon="6.49049">
        <ele>127</ele>
        <time>2017-05-13T09:26:12Z</time>
      </trkpt>
      <trkpt lat="43.39167" lon="6.49035">
        <ele>126</ele>
        <time>2017-05-13T09:26:15Z</time>
      </trkpt>
      <trkpt lat="43.39163" lon="6.49031">
        <ele>122</ele>
        <time>2017-05-13T09:26:16Z</time>
      </trkpt>
      <trkpt lat="43.39155" lon="6.49026">
        <ele>122</ele>
        <time>2017-05-13T09:26:18Z</time>
      </trkpt>
      <trkpt lat="43.39149" lon="6.49017">
        <ele>122</ele>
        <time>2017-05-13T09:26:20Z</time>
      </trkpt>
      <trkpt lat="43.39144" lon="6.49006">
        <ele>121</ele>
        <time>2017-05-13T09:26:22Z</time>
      </trkpt>
      <trkpt lat="43.39138" lon="6.48991">
        <ele>118</ele>
        <time>2017-05-13T09:26:24Z</time>
      </trkpt>
      <trkpt lat="43.39128" lon="6.48974">
        <ele>117</ele>
        <time>2017-05-13T09:26:26Z</time>
      </trkpt>
      <trkpt lat="43.39121" lon="6.48956">
        <ele>116</ele>
        <time>2017-05-13T09:26:28Z</time>
      </trkpt>
      <trkpt lat="43.39116" lon="6.48939">
        <ele>115</ele>
        <time>2017-05-13T09:26:30Z</time>
      </trkpt>
      <trkpt lat="43.39113" lon="6.48918">
        <ele>115</ele>
        <time>2017-05-13T09:26:32Z</time>
      </trkpt>
      <trkpt lat="43.39108" lon="6.48899">
        <ele>112</ele>
        <time>2017-05-13T09:26:34Z</time>
      </trkpt>
      <trkpt lat="43.39103" lon="6.48884">
        <ele>111</ele>
        <time>2017-05-13T09:26:36Z</time>
      </trkpt>
      <trkpt lat="43.39097" lon="6.48869">
        <ele>111</ele>
        <time>2017-05-13T09:26:38Z</time>
      </trkpt>
      <trkpt lat="43.39091" lon="6.48852">
        <ele>110</ele>
        <time>2017-05-13T09:26:40Z</time>
      </trkpt>
      <trkpt lat="43.39084" lon="6.48837">
        <ele>109</ele>
        <time>2017-05-13T09:26:42Z</time>
      </trkpt>
      <trkpt lat="43.39078" lon="6.48822">
        <ele>107</ele>
        <time>2017-05-13T09:26:44Z</time>
      </trkpt>
      <trkpt lat="43.39073" lon="6.48807">
        <ele>106</ele>
        <time>2017-05-13T09:26:46Z</time>
      </trkpt>
      <trkpt lat="43.39071" lon="6.48791">
        <ele>106</ele>
        <time>2017-05-13T09:26:48Z</time>
      </trkpt>
      <trkpt lat="43.39071" lon="6.48776">
        <ele>106</ele>
        <time>2017-05-13T09:26:50Z</time>
      </trkpt>
      <trkpt lat="43.39073" lon="6.48757">
        <ele>107</ele>
        <time>2017-05-13T09:26:53Z</time>
      </trkpt>
      <trkpt lat="43.39073" lon="6.48751">
        <ele>107</ele>
        <time>2017-05-13T09:26:54Z</time>
      </trkpt>
      <trkpt lat="43.39076" lon="6.48738">
        <ele>107</ele>
        <time>2017-05-13T09:26:56Z</time>
      </trkpt>
      <trkpt lat="43.39079" lon="6.48726">
        <ele>106</ele>
        <time>2017-05-13T09:26:58Z</time>
      </trkpt>
      <trkpt lat="43.39084" lon="6.48716">
        <ele>106</ele>
        <time>2017-05-13T09:27:00Z</time>
      </trkpt>
      <trkpt lat="43.39088" lon="6.48705">
        <ele>105</ele>
        <time>2017-05-13T09:27:02Z</time>
      </trkpt>
      <trkpt lat="43.39091" lon="6.48693">
        <ele>105</ele>
        <time>2017-05-13T09:27:04Z</time>
      </trkpt>
      <trkpt lat="43.39094" lon="6.4868">
        <ele>105</ele>
        <time>2017-05-13T09:27:06Z</time>
      </trkpt>
      <trkpt lat="43.39099" lon="6.48665">
        <ele>103</ele>
        <time>2017-05-13T09:27:08Z</time>
      </trkpt>
      <trkpt lat="43.39102" lon="6.4865">
        <ele>103</ele>
        <time>2017-05-13T09:27:10Z</time>
      </trkpt>
      <trkpt lat="43.39103" lon="6.48636">
        <ele>102</ele>
        <time>2017-05-13T09:27:12Z</time>
      </trkpt>
      <trkpt lat="43.39103" lon="6.48621">
        <ele>102</ele>
        <time>2017-05-13T09:27:14Z</time>
      </trkpt>
      <trkpt lat="43.39103" lon="6.48608">
        <ele>102</ele>
        <time>2017-05-13T09:27:16Z</time>
      </trkpt>
      <trkpt lat="43.39102" lon="6.48597">
        <ele>102</ele>
        <time>2017-05-13T09:27:18Z</time>
      </trkpt>
      <trkpt lat="43.39107" lon="6.48587">
        <ele>102</ele>
        <time>2017-05-13T09:27:20Z</time>
      </trkpt>
      <trkpt lat="43.39113" lon="6.48576">
        <ele>99</ele>
        <time>2017-05-13T09:27:22Z</time>
      </trkpt>
      <trkpt lat="43.39118" lon="6.48564">
        <ele>99</ele>
        <time>2017-05-13T09:27:24Z</time>
      </trkpt>
      <trkpt lat="43.39123" lon="6.48551">
        <ele>98</ele>
        <time>2017-05-13T09:27:26Z</time>
      </trkpt>
      <trkpt lat="43.39128" lon="6.48538">
        <ele>98</ele>
        <time>2017-05-13T09:27:28Z</time>
      </trkpt>
      <trkpt lat="43.39133" lon="6.48524">
        <ele>97</ele>
        <time>2017-05-13T09:27:30Z</time>
      </trkpt>
      <trkpt lat="43.39137" lon="6.48513">
        <ele>97</ele>
        <time>2017-05-13T09:27:32Z</time>
      </trkpt>
      <trkpt lat="43.3914" lon="6.48501">
        <ele>97</ele>
        <time>2017-05-13T09:27:35Z</time>
      </trkpt>
      <trkpt lat="43.3914" lon="6.48496">
        <ele>95</ele>
        <time>2017-05-13T09:27:36Z</time>
      </trkpt>
      <trkpt lat="43.39141" lon="6.48487">
        <ele>95</ele>
        <time>2017-05-13T09:27:38Z</time>
      </trkpt>
      <trkpt lat="43.39143" lon="6.48478">
        <ele>95</ele>
        <time>2017-05-13T09:27:40Z</time>
      </trkpt>
      <trkpt lat="43.39144" lon="6.48469">
        <ele>95</ele>
        <time>2017-05-13T09:27:42Z</time>
      </trkpt>
      <trkpt lat="43.39143" lon="6.48459">
        <ele>95</ele>
        <time>2017-05-13T09:27:44Z</time>
      </trkpt>
      <trkpt lat="43.39142" lon="6.48448">
        <ele>95</ele>
        <time>2017-05-13T09:27:46Z</time>
      </trkpt>
      <trkpt lat="43.39141" lon="6.48428">
        <ele>95</ele>
        <time>2017-05-13T09:27:49Z</time>
      </trkpt>
      <trkpt lat="43.39141" lon="6.48417">
        <ele>95</ele>
        <time>2017-05-13T09:27:51Z</time>
      </trkpt>
      <trkpt lat="43.3914" lon="6.48411">
        <ele>93</ele>
        <time>2017-05-13T09:27:52Z</time>
      </trkpt>
      <trkpt lat="43.39137" lon="6.48399">
        <ele>93</ele>
        <time>2017-05-13T09:27:54Z</time>
      </trkpt>
      <trkpt lat="43.39133" lon="6.48388">
        <ele>93</ele>
        <time>2017-05-13T09:27:56Z</time>
      </trkpt>
      <trkpt lat="43.39128" lon="6.48379">
        <ele>92</ele>
        <time>2017-05-13T09:27:58Z</time>
      </trkpt>
      <trkpt lat="43.3912" lon="6.48371">
        <ele>92</ele>
        <time>2017-05-13T09:28:00Z</time>
      </trkpt>
      <trkpt lat="43.39115" lon="6.48361">
        <ele>91</ele>
        <time>2017-05-13T09:28:02Z</time>
      </trkpt>
      <trkpt lat="43.39113" lon="6.4835">
        <ele>91</ele>
        <time>2017-05-13T09:28:04Z</time>
      </trkpt>
      <trkpt lat="43.39113" lon="6.48338">
        <ele>90</ele>
        <time>2017-05-13T09:28:06Z</time>
      </trkpt>
      <trkpt lat="43.39116" lon="6.48323">
        <ele>87</ele>
        <time>2017-05-13T09:28:08Z</time>
      </trkpt>
      <trkpt lat="43.39117" lon="6.48308">
        <ele>87</ele>
        <time>2017-05-13T09:28:10Z</time>
      </trkpt>
      <trkpt lat="43.39116" lon="6.48292">
        <ele>86</ele>
        <time>2017-05-13T09:28:12Z</time>
      </trkpt>
      <trkpt lat="43.3911" lon="6.48278">
        <ele>85</ele>
        <time>2017-05-13T09:28:14Z</time>
      </trkpt>
      <trkpt lat="43.39106" lon="6.48265">
        <ele>84</ele>
        <time>2017-05-13T09:28:16Z</time>
      </trkpt>
      <trkpt lat="43.39104" lon="6.48252">
        <ele>83</ele>
        <time>2017-05-13T09:28:18Z</time>
      </trkpt>
      <trkpt lat="43.39101" lon="6.48241">
        <ele>80</ele>
        <time>2017-05-13T09:28:20Z</time>
      </trkpt>
      <trkpt lat="43.39098" lon="6.48227">
        <ele>80</ele>
        <time>2017-05-13T09:28:22Z</time>
      </trkpt>
      <trkpt lat="43.39094" lon="6.48216">
        <ele>79</ele>
        <time>2017-05-13T09:28:24Z</time>
      </trkpt>
      <trkpt lat="43.39087" lon="6.4821">
        <ele>79</ele>
        <time>2017-05-13T09:28:26Z</time>
      </trkpt>
      <trkpt lat="43.3908" lon="6.48197">
        <ele>73</ele>
        <time>2017-05-13T09:28:28Z</time>
      </trkpt>
      <trkpt lat="43.39076" lon="6.48183">
        <ele>73</ele>
        <time>2017-05-13T09:28:30Z</time>
      </trkpt>
      <trkpt lat="43.3907" lon="6.48167">
        <ele>72</ele>
        <time>2017-05-13T09:28:32Z</time>
      </trkpt>
      <trkpt lat="43.39065" lon="6.48152">
        <ele>70</ele>
        <time>2017-05-13T09:28:34Z</time>
      </trkpt>
      <trkpt lat="43.39059" lon="6.48139">
        <ele>70</ele>
        <time>2017-05-13T09:28:36Z</time>
      </trkpt>
      <trkpt lat="43.39053" lon="6.4813">
        <ele>69</ele>
        <time>2017-05-13T09:28:38Z</time>
      </trkpt>
      <trkpt lat="43.39053" lon="6.48118">
        <ele>69</ele>
        <time>2017-05-13T09:28:40Z</time>
      </trkpt>
      <trkpt lat="43.39053" lon="6.48108">
        <ele>69</ele>
        <time>2017-05-13T09:28:42Z</time>
      </trkpt>
      <trkpt lat="43.39054" lon="6.48097">
        <ele>69</ele>
        <time>2017-05-13T09:28:44Z</time>
      </trkpt>
      <trkpt lat="43.39059" lon="6.48089">
        <ele>69</ele>
        <time>2017-05-13T09:28:46Z</time>
      </trkpt>
      <trkpt lat="43.39063" lon="6.48081">
        <ele>67</ele>
        <time>2017-05-13T09:28:48Z</time>
      </trkpt>
      <trkpt lat="43.39067" lon="6.48074">
        <ele>67</ele>
        <time>2017-05-13T09:28:50Z</time>
      </trkpt>
      <trkpt lat="43.39069" lon="6.48065">
        <ele>67</ele>
        <time>2017-05-13T09:28:52Z</time>
      </trkpt>
      <trkpt lat="43.39073" lon="6.48056">
        <ele>66</ele>
        <time>2017-05-13T09:28:54Z</time>
      </trkpt>
      <trkpt lat="43.39077" lon="6.48046">
        <ele>66</ele>
        <time>2017-05-13T09:28:56Z</time>
      </trkpt>
      <trkpt lat="43.3908" lon="6.48036">
        <ele>65</ele>
        <time>2017-05-13T09:28:58Z</time>
      </trkpt>
      <trkpt lat="43.39081" lon="6.48024">
        <ele>65</ele>
        <time>2017-05-13T09:29:00Z</time>
      </trkpt>
      <trkpt lat="43.3909" lon="6.48003">
        <ele>66</ele>
        <time>2017-05-13T09:29:03Z</time>
      </trkpt>
      <trkpt lat="43.39098" lon="6.47992">
        <ele>65</ele>
        <time>2017-05-13T09:29:05Z</time>
      </trkpt>
      <trkpt lat="43.39101" lon="6.47985">
        <ele>65</ele>
        <time>2017-05-13T09:29:06Z</time>
      </trkpt>
      <trkpt lat="43.39106" lon="6.47973">
        <ele>65</ele>
        <time>2017-05-13T09:29:08Z</time>
      </trkpt>
      <trkpt lat="43.39111" lon="6.4796">
        <ele>65</ele>
        <time>2017-05-13T09:29:10Z</time>
      </trkpt>
      <trkpt lat="43.3912" lon="6.47945">
        <ele>65</ele>
        <time>2017-05-13T09:29:12Z</time>
      </trkpt>
      <trkpt lat="43.39129" lon="6.47933">
        <ele>65</ele>
        <time>2017-05-13T09:29:14Z</time>
      </trkpt>
      <trkpt lat="43.39137" lon="6.47924">
        <ele>65</ele>
        <time>2017-05-13T09:29:16Z</time>
      </trkpt>
      <trkpt lat="43.39148" lon="6.47916">
        <ele>62</ele>
        <time>2017-05-13T09:29:19Z</time>
      </trkpt>
      <trkpt lat="43.39161" lon="6.47907">
        <ele>63</ele>
        <time>2017-05-13T09:29:21Z</time>
      </trkpt>
      <trkpt lat="43.39166" lon="6.47902">
        <ele>63</ele>
        <time>2017-05-13T09:29:22Z</time>
      </trkpt>
      <trkpt lat="43.39181" lon="6.47888">
        <ele>63</ele>
        <time>2017-05-13T09:29:24Z</time>
      </trkpt>
      <trkpt lat="43.39199" lon="6.47866">
        <ele>62</ele>
        <time>2017-05-13T09:29:27Z</time>
      </trkpt>
      <trkpt lat="43.39206" lon="6.47857">
        <ele>61</ele>
        <time>2017-05-13T09:29:28Z</time>
      </trkpt>
      <trkpt lat="43.3922" lon="6.47843">
        <ele>61</ele>
        <time>2017-05-13T09:29:30Z</time>
      </trkpt>
      <trkpt lat="43.39232" lon="6.4783">
        <ele>58</ele>
        <time>2017-05-13T09:29:32Z</time>
      </trkpt>
      <trkpt lat="43.39243" lon="6.47814">
        <ele>58</ele>
        <time>2017-05-13T09:29:34Z</time>
      </trkpt>
      <trkpt lat="43.39253" lon="6.47783">
        <ele>59</ele>
        <time>2017-05-13T09:29:37Z</time>
      </trkpt>
      <trkpt lat="43.39255" lon="6.47773">
        <ele>58</ele>
        <time>2017-05-13T09:29:38Z</time>
      </trkpt>
      <trkpt lat="43.39262" lon="6.47752">
        <ele>58</ele>
        <time>2017-05-13T09:29:40Z</time>
      </trkpt>
      <trkpt lat="43.39268" lon="6.47731">
        <ele>57</ele>
        <time>2017-05-13T09:29:42Z</time>
      </trkpt>
      <trkpt lat="43.39274" lon="6.47707">
        <ele>57</ele>
        <time>2017-05-13T09:29:44Z</time>
      </trkpt>
      <trkpt lat="43.39281" lon="6.47673">
        <ele>56</ele>
        <time>2017-05-13T09:29:47Z</time>
      </trkpt>
      <trkpt lat="43.39285" lon="6.4766">
        <ele>54</ele>
        <time>2017-05-13T09:29:48Z</time>
      </trkpt>
      <trkpt lat="43.39291" lon="6.47639">
        <ele>54</ele>
        <time>2017-05-13T09:29:50Z</time>
      </trkpt>
      <trkpt lat="43.39304" lon="6.47607">
        <ele>53</ele>
        <time>2017-05-13T09:29:53Z</time>
      </trkpt>
      <trkpt lat="43.39308" lon="6.47597">
        <ele>53</ele>
        <time>2017-05-13T09:29:54Z</time>
      </trkpt>
      <trkpt lat="43.39317" lon="6.4758">
        <ele>51</ele>
        <time>2017-05-13T09:29:56Z</time>
      </trkpt>
      <trkpt lat="43.39325" lon="6.47563">
        <ele>51</ele>
        <time>2017-05-13T09:29:58Z</time>
      </trkpt>
      <trkpt lat="43.39333" lon="6.47546">
        <ele>50</ele>
        <time>2017-05-13T09:30:00Z</time>
      </trkpt>
      <trkpt lat="43.39343" lon="6.4752">
        <ele>49</ele>
        <time>2017-05-13T09:30:03Z</time>
      </trkpt>
      <trkpt lat="43.39344" lon="6.4751">
        <ele>48</ele>
        <time>2017-05-13T09:30:04Z</time>
      </trkpt>
      <trkpt lat="43.39345" lon="6.47491">
        <ele>48</ele>
        <time>2017-05-13T09:30:06Z</time>
      </trkpt>
      <trkpt lat="43.39345" lon="6.47472">
        <ele>48</ele>
        <time>2017-05-13T09:30:08Z</time>
      </trkpt>
      <trkpt lat="43.39345" lon="6.47453">
        <ele>48</ele>
        <time>2017-05-13T09:30:10Z</time>
      </trkpt>
      <trkpt lat="43.39344" lon="6.47435">
        <ele>49</ele>
        <time>2017-05-13T09:30:12Z</time>
      </trkpt>
      <trkpt lat="43.39343" lon="6.47417">
        <ele>49</ele>
        <time>2017-05-13T09:30:14Z</time>
      </trkpt>
      <trkpt lat="43.39341" lon="6.474">
        <ele>50</ele>
        <time>2017-05-13T09:30:16Z</time>
      </trkpt>
      <trkpt lat="43.39341" lon="6.47384">
        <ele>51</ele>
        <time>2017-05-13T09:30:18Z</time>
      </trkpt>
      <trkpt lat="43.39342" lon="6.47371">
        <ele>51</ele>
        <time>2017-05-13T09:30:20Z</time>
      </trkpt>
      <trkpt lat="43.39341" lon="6.47358">
        <ele>52</ele>
        <time>2017-05-13T09:30:22Z</time>
      </trkpt>
      <trkpt lat="43.39341" lon="6.47344">
        <ele>52</ele>
        <time>2017-05-13T09:30:24Z</time>
      </trkpt>
      <trkpt lat="43.3934" lon="6.4733">
        <ele>53</ele>
        <time>2017-05-13T09:30:26Z</time>
      </trkpt>
      <trkpt lat="43.3934" lon="6.47316">
        <ele>53</ele>
        <time>2017-05-13T09:30:28Z</time>
      </trkpt>
      <trkpt lat="43.39339" lon="6.47303">
        <ele>53</ele>
        <time>2017-05-13T09:30:30Z</time>
      </trkpt>
      <trkpt lat="43.39339" lon="6.4729">
        <ele>54</ele>
        <time>2017-05-13T09:30:32Z</time>
      </trkpt>
      <trkpt lat="43.39339" lon="6.47276">
        <ele>54</ele>
        <time>2017-05-13T09:30:34Z</time>
      </trkpt>
      <trkpt lat="43.3934" lon="6.47261">
        <ele>55</ele>
        <time>2017-05-13T09:30:36Z</time>
      </trkpt>
      <trkpt lat="43.3934" lon="6.47247">
        <ele>56</ele>
        <time>2017-05-13T09:30:38Z</time>
      </trkpt>
      <trkpt lat="43.39341" lon="6.47234">
        <ele>56</ele>
        <time>2017-05-13T09:30:40Z</time>
      </trkpt>
      <trkpt lat="43.39342" lon="6.47221">
        <ele>56</ele>
        <time>2017-05-13T09:30:42Z</time>
      </trkpt>
      <trkpt lat="43.39344" lon="6.47208">
        <ele>56</ele>
        <time>2017-05-13T09:30:44Z</time>
      </trkpt>
      <trkpt lat="43.39347" lon="6.47195">
        <ele>57</ele>
        <time>2017-05-13T09:30:46Z</time>
      </trkpt>
      <trkpt lat="43.3935" lon="6.47183">
        <ele>57</ele>
        <time>2017-05-13T09:30:48Z</time>
      </trkpt>
      <trkpt lat="43.39353" lon="6.47171">
        <ele>57</ele>
        <time>2017-05-13T09:30:50Z</time>
      </trkpt>
      <trkpt lat="43.39358" lon="6.47158">
        <ele>59</ele>
        <time>2017-05-13T09:30:52Z</time>
      </trkpt>
      <trkpt lat="43.39362" lon="6.47146">
        <ele>59</ele>
        <time>2017-05-13T09:30:54Z</time>
      </trkpt>
      <trkpt lat="43.39369" lon="6.47136">
        <ele>59</ele>
        <time>2017-05-13T09:30:56Z</time>
      </trkpt>
      <trkpt lat="43.39374" lon="6.47127">
        <ele>59</ele>
        <time>2017-05-13T09:30:58Z</time>
      </trkpt>
      <trkpt lat="43.39379" lon="6.47116">
        <ele>59</ele>
        <time>2017-05-13T09:31:00Z</time>
      </trkpt>
      <trkpt lat="43.39383" lon="6.47104">
        <ele>59</ele>
        <time>2017-05-13T09:31:02Z</time>
      </trkpt>
      <trkpt lat="43.39385" lon="6.47092">
        <ele>59</ele>
        <time>2017-05-13T09:31:04Z</time>
      </trkpt>
      <trkpt lat="43.39384" lon="6.47079">
        <ele>61</ele>
        <time>2017-05-13T09:31:06Z</time>
      </trkpt>
      <trkpt lat="43.39383" lon="6.47067">
        <ele>62</ele>
        <time>2017-05-13T09:31:08Z</time>
      </trkpt>
      <trkpt lat="43.39383" lon="6.47054">
        <ele>62</ele>
        <time>2017-05-13T09:31:10Z</time>
      </trkpt>
      <trkpt lat="43.39383" lon="6.47043">
        <ele>62</ele>
        <time>2017-05-13T09:31:12Z</time>
      </trkpt>
      <trkpt lat="43.39382" lon="6.47032">
        <ele>62</ele>
        <time>2017-05-13T09:31:14Z</time>
      </trkpt>
      <trkpt lat="43.39381" lon="6.47021">
        <ele>63</ele>
        <time>2017-05-13T09:31:16Z</time>
      </trkpt>
      <trkpt lat="43.3938" lon="6.47008">
        <ele>63</ele>
        <time>2017-05-13T09:31:18Z</time>
      </trkpt>
      <trkpt lat="43.3938" lon="6.46997">
        <ele>64</ele>
        <time>2017-05-13T09:31:20Z</time>
      </trkpt>
      <trkpt lat="43.39379" lon="6.46986">
        <ele>64</ele>
        <time>2017-05-13T09:31:22Z</time>
      </trkpt>
      <trkpt lat="43.39378" lon="6.46975">
        <ele>64</ele>
        <time>2017-05-13T09:31:24Z</time>
      </trkpt>
      <trkpt lat="43.39377" lon="6.46963">
        <ele>64</ele>
        <time>2017-05-13T09:31:26Z</time>
      </trkpt>
      <trkpt lat="43.39375" lon="6.46953">
        <ele>65</ele>
        <time>2017-05-13T09:31:28Z</time>
      </trkpt>
      <trkpt lat="43.39373" lon="6.46943">
        <ele>65</ele>
        <time>2017-05-13T09:31:30Z</time>
      </trkpt>
      <trkpt lat="43.39369" lon="6.46934">
        <ele>65</ele>
        <time>2017-05-13T09:31:32Z</time>
      </trkpt>
      <trkpt lat="43.39363" lon="6.46925">
        <ele>65</ele>
        <time>2017-05-13T09:31:34Z</time>
      </trkpt>
      <trkpt lat="43.39356" lon="6.46917">
        <ele>65</ele>
        <time>2017-05-13T09:31:36Z</time>
      </trkpt>
      <trkpt lat="43.3935" lon="6.46909">
        <ele>65</ele>
        <time>2017-05-13T09:31:38Z</time>
      </trkpt>
      <trkpt lat="43.39344" lon="6.46902">
        <ele>65</ele>
        <time>2017-05-13T09:31:40Z</time>
      </trkpt>
      <trkpt lat="43.39338" lon="6.46895">
        <ele>66</ele>
        <time>2017-05-13T09:31:42Z</time>
      </trkpt>
      <trkpt lat="43.39332" lon="6.46889">
        <ele>66</ele>
        <time>2017-05-13T09:31:44Z</time>
      </trkpt>
      <trkpt lat="43.39326" lon="6.46881">
        <ele>66</ele>
        <time>2017-05-13T09:31:46Z</time>
      </trkpt>
      <trkpt lat="43.39322" lon="6.46872">
        <ele>67</ele>
        <time>2017-05-13T09:31:48Z</time>
      </trkpt>
      <trkpt lat="43.3932" lon="6.46862">
        <ele>67</ele>
        <time>2017-05-13T09:31:50Z</time>
      </trkpt>
      <trkpt lat="43.3932" lon="6.4685">
        <ele>67</ele>
        <time>2017-05-13T09:31:52Z</time>
      </trkpt>
      <trkpt lat="43.39323" lon="6.4684">
        <ele>67</ele>
        <time>2017-05-13T09:31:54Z</time>
      </trkpt>
      <trkpt lat="43.39327" lon="6.46829">
        <ele>68</ele>
        <time>2017-05-13T09:31:56Z</time>
      </trkpt>
      <trkpt lat="43.3933" lon="6.46819">
        <ele>68</ele>
        <time>2017-05-13T09:31:58Z</time>
      </trkpt>
      <trkpt lat="43.39334" lon="6.46809">
        <ele>68</ele>
        <time>2017-05-13T09:32:00Z</time>
      </trkpt>
      <trkpt lat="43.39337" lon="6.46799">
        <ele>68</ele>
        <time>2017-05-13T09:32:02Z</time>
      </trkpt>
      <trkpt lat="43.3934" lon="6.4679">
        <ele>69</ele>
        <time>2017-05-13T09:32:04Z</time>
      </trkpt>
      <trkpt lat="43.39343" lon="6.4678">
        <ele>69</ele>
        <time>2017-05-13T09:32:06Z</time>
      </trkpt>
      <trkpt lat="43.39346" lon="6.46771">
        <ele>69</ele>
        <time>2017-05-13T09:32:08Z</time>
      </trkpt>
      <trkpt lat="43.39348" lon="6.46762">
        <ele>70</ele>
        <time>2017-05-13T09:32:10Z</time>
      </trkpt>
      <trkpt lat="43.3935" lon="6.46753">
        <ele>70</ele>
        <time>2017-05-13T09:32:12Z</time>
      </trkpt>
      <trkpt lat="43.39353" lon="6.46744">
        <ele>71</ele>
        <time>2017-05-13T09:32:14Z</time>
      </trkpt>
      <trkpt lat="43.39355" lon="6.46735">
        <ele>71</ele>
        <time>2017-05-13T09:32:16Z</time>
      </trkpt>
      <trkpt lat="43.39357" lon="6.46727">
        <ele>71</ele>
        <time>2017-05-13T09:32:18Z</time>
      </trkpt>
      <trkpt lat="43.39359" lon="6.46718">
        <ele>72</ele>
        <time>2017-05-13T09:32:20Z</time>
      </trkpt>
      <trkpt lat="43.39361" lon="6.46709">
        <ele>72</ele>
        <time>2017-05-13T09:32:22Z</time>
      </trkpt>
      <trkpt lat="43.39364" lon="6.467">
        <ele>72</ele>
        <time>2017-05-13T09:32:24Z</time>
      </trkpt>
      <trkpt lat="43.39366" lon="6.4669">
        <ele>72</ele>
        <time>2017-05-13T09:32:26Z</time>
      </trkpt>
      <trkpt lat="43.39369" lon="6.46681">
        <ele>72</ele>
        <time>2017-05-13T09:32:28Z</time>
      </trkpt>
      <trkpt lat="43.39371" lon="6.46672">
        <ele>72</ele>
        <time>2017-05-13T09:32:30Z</time>
      </trkpt>
      <trkpt lat="43.39374" lon="6.46663">
        <ele>74</ele>
        <time>2017-05-13T09:32:32Z</time>
      </trkpt>
      <trkpt lat="43.39377" lon="6.46654">
        <ele>74</ele>
        <time>2017-05-13T09:32:34Z</time>
      </trkpt>
      <trkpt lat="43.3938" lon="6.46644">
        <ele>74</ele>
        <time>2017-05-13T09:32:36Z</time>
      </trkpt>
      <trkpt lat="43.39384" lon="6.46635">
        <ele>74</ele>
        <time>2017-05-13T09:32:38Z</time>
      </trkpt>
      <trkpt lat="43.39388" lon="6.46626">
        <ele>74</ele>
        <time>2017-05-13T09:32:40Z</time>
      </trkpt>
      <trkpt lat="43.39392" lon="6.46619">
        <ele>75</ele>
        <time>2017-05-13T09:32:42Z</time>
      </trkpt>
      <trkpt lat="43.39397" lon="6.46612">
        <ele>75</ele>
        <time>2017-05-13T09:32:44Z</time>
      </trkpt>
      <trkpt lat="43.39402" lon="6.46605">
        <ele>75</ele>
        <time>2017-05-13T09:32:46Z</time>
      </trkpt>
      <trkpt lat="43.39408" lon="6.46598">
        <ele>75</ele>
        <time>2017-05-13T09:32:48Z</time>
      </trkpt>
      <trkpt lat="43.39413" lon="6.46591">
        <ele>75</ele>
        <time>2017-05-13T09:32:50Z</time>
      </trkpt>
      <trkpt lat="43.39419" lon="6.46584">
        <ele>75</ele>
        <time>2017-05-13T09:32:52Z</time>
      </trkpt>
      <trkpt lat="43.39424" lon="6.46578">
        <ele>76</ele>
        <time>2017-05-13T09:32:54Z</time>
      </trkpt>
      <trkpt lat="43.39428" lon="6.46571">
        <ele>77</ele>
        <time>2017-05-13T09:32:56Z</time>
      </trkpt>
      <trkpt lat="43.39437" lon="6.46561">
        <ele>77</ele>
        <time>2017-05-13T09:32:59Z</time>
      </trkpt>
      <trkpt lat="43.39439" lon="6.46558">
        <ele>77</ele>
        <time>2017-05-13T09:33:00Z</time>
      </trkpt>
      <trkpt lat="43.39446" lon="6.46551">
        <ele>78</ele>
        <time>2017-05-13T09:33:02Z</time>
      </trkpt>
      <trkpt lat="43.39454" lon="6.46541">
        <ele>78</ele>
        <time>2017-05-13T09:33:05Z</time>
      </trkpt>
      <trkpt lat="43.39457" lon="6.46537">
        <ele>78</ele>
        <time>2017-05-13T09:33:06Z</time>
      </trkpt>
      <trkpt lat="43.39467" lon="6.46528">
        <ele>78</ele>
        <time>2017-05-13T09:33:09Z</time>
      </trkpt>
      <trkpt lat="43.39469" lon="6.46524">
        <ele>78</ele>
        <time>2017-05-13T09:33:10Z</time>
      </trkpt>
      <trkpt lat="43.39474" lon="6.46516">
        <ele>78</ele>
        <time>2017-05-13T09:33:12Z</time>
      </trkpt>
      <trkpt lat="43.39479" lon="6.46509">
        <ele>79</ele>
        <time>2017-05-13T09:33:14Z</time>
      </trkpt>
      <trkpt lat="43.39483" lon="6.465">
        <ele>79</ele>
        <time>2017-05-13T09:33:16Z</time>
      </trkpt>
      <trkpt lat="43.39487" lon="6.46491">
        <ele>79</ele>
        <time>2017-05-13T09:33:18Z</time>
      </trkpt>
      <trkpt lat="43.39492" lon="6.46477">
        <ele>79</ele>
        <time>2017-05-13T09:33:21Z</time>
      </trkpt>
      <trkpt lat="43.39494" lon="6.46473">
        <ele>79</ele>
        <time>2017-05-13T09:33:22Z</time>
      </trkpt>
      <trkpt lat="43.39501" lon="6.46457">
        <ele>79</ele>
        <time>2017-05-13T09:33:25Z</time>
      </trkpt>
      <trkpt lat="43.39505" lon="6.46452">
        <ele>79</ele>
        <time>2017-05-13T09:33:26Z</time>
      </trkpt>
      <trkpt lat="43.39512" lon="6.46446">
        <ele>79</ele>
        <time>2017-05-13T09:33:28Z</time>
      </trkpt>
      <trkpt lat="43.39518" lon="6.4644">
        <ele>79</ele>
        <time>2017-05-13T09:33:30Z</time>
      </trkpt>
      <trkpt lat="43.39523" lon="6.46435">
        <ele>79</ele>
        <time>2017-05-13T09:33:32Z</time>
      </trkpt>
      <trkpt lat="43.39528" lon="6.46432">
        <ele>79</ele>
        <time>2017-05-13T09:33:34Z</time>
      </trkpt>
      <trkpt lat="43.39535" lon="6.46426">
        <ele>79</ele>
        <time>2017-05-13T09:33:36Z</time>
      </trkpt>
      <trkpt lat="43.39541" lon="6.46419">
        <ele>79</ele>
        <time>2017-05-13T09:33:38Z</time>
      </trkpt>
      <trkpt lat="43.39547" lon="6.46413">
        <ele>78</ele>
        <time>2017-05-13T09:33:40Z</time>
      </trkpt>
      <trkpt lat="43.39556" lon="6.46405">
        <ele>77</ele>
        <time>2017-05-13T09:33:42Z</time>
      </trkpt>
      <trkpt lat="43.39565" lon="6.46397">
        <ele>77</ele>
        <time>2017-05-13T09:33:44Z</time>
      </trkpt>
      <trkpt lat="43.39574" lon="6.46389">
        <ele>77</ele>
        <time>2017-05-13T09:33:46Z</time>
      </trkpt>
      <trkpt lat="43.39584" lon="6.46381">
        <ele>77</ele>
        <time>2017-05-13T09:33:48Z</time>
      </trkpt>
      <trkpt lat="43.39594" lon="6.46371">
        <ele>77</ele>
        <time>2017-05-13T09:33:50Z</time>
      </trkpt>
      <trkpt lat="43.39605" lon="6.4636">
        <ele>77</ele>
        <time>2017-05-13T09:33:52Z</time>
      </trkpt>
      <trkpt lat="43.39616" lon="6.46348">
        <ele>76</ele>
        <time>2017-05-13T09:33:54Z</time>
      </trkpt>
      <trkpt lat="43.39627" lon="6.4634">
        <ele>76</ele>
        <time>2017-05-13T09:33:56Z</time>
      </trkpt>
      <trkpt lat="43.39638" lon="6.4633">
        <ele>75</ele>
        <time>2017-05-13T09:33:58Z</time>
      </trkpt>
      <trkpt lat="43.39647" lon="6.46316">
        <ele>75</ele>
        <time>2017-05-13T09:34:00Z</time>
      </trkpt>
      <trkpt lat="43.39652" lon="6.46298">
        <ele>75</ele>
        <time>2017-05-13T09:34:02Z</time>
      </trkpt>
      <trkpt lat="43.39655" lon="6.46276">
        <ele>74</ele>
        <time>2017-05-13T09:34:04Z</time>
      </trkpt>
      <trkpt lat="43.39656" lon="6.46244">
        <ele>73</ele>
        <time>2017-05-13T09:34:07Z</time>
      </trkpt>
      <trkpt lat="43.39655" lon="6.46232">
        <ele>73</ele>
        <time>2017-05-13T09:34:08Z</time>
      </trkpt>
      <trkpt lat="43.39654" lon="6.46209">
        <ele>72</ele>
        <time>2017-05-13T09:34:10Z</time>
      </trkpt>
      <trkpt lat="43.39651" lon="6.46185">
        <ele>71</ele>
        <time>2017-05-13T09:34:12Z</time>
      </trkpt>
      <trkpt lat="43.39646" lon="6.46163">
        <ele>69</ele>
        <time>2017-05-13T09:34:14Z</time>
      </trkpt>
      <trkpt lat="43.3964" lon="6.46141">
        <ele>69</ele>
        <time>2017-05-13T09:34:16Z</time>
      </trkpt>
      <trkpt lat="43.39633" lon="6.4612">
        <ele>69</ele>
        <time>2017-05-13T09:34:18Z</time>
      </trkpt>
      <trkpt lat="43.39627" lon="6.46097">
        <ele>68</ele>
        <time>2017-05-13T09:34:20Z</time>
      </trkpt>
      <trkpt lat="43.3962" lon="6.46074">
        <ele>67</ele>
        <time>2017-05-13T09:34:22Z</time>
      </trkpt>
      <trkpt lat="43.39613" lon="6.46051">
        <ele>67</ele>
        <time>2017-05-13T09:34:24Z</time>
      </trkpt>
      <trkpt lat="43.39607" lon="6.46028">
        <ele>67</ele>
        <time>2017-05-13T09:34:26Z</time>
      </trkpt>
      <trkpt lat="43.39592" lon="6.45999">
        <ele>66</ele>
        <time>2017-05-13T09:34:29Z</time>
      </trkpt>
      <trkpt lat="43.39585" lon="6.45993">
        <ele>66</ele>
        <time>2017-05-13T09:34:30Z</time>
      </trkpt>
      <trkpt lat="43.39572" lon="6.45981">
        <ele>64</ele>
        <time>2017-05-13T09:34:32Z</time>
      </trkpt>
      <trkpt lat="43.39558" lon="6.4597">
        <ele>64</ele>
        <time>2017-05-13T09:34:34Z</time>
      </trkpt>
      <trkpt lat="43.39546" lon="6.45958">
        <ele>64</ele>
        <time>2017-05-13T09:34:36Z</time>
      </trkpt>
      <trkpt lat="43.39535" lon="6.4594">
        <ele>64</ele>
        <time>2017-05-13T09:34:38Z</time>
      </trkpt>
      <trkpt lat="43.39525" lon="6.45922">
        <ele>63</ele>
        <time>2017-05-13T09:34:40Z</time>
      </trkpt>
      <trkpt lat="43.39516" lon="6.45904">
        <ele>63</ele>
        <time>2017-05-13T09:34:42Z</time>
      </trkpt>
      <trkpt lat="43.39502" lon="6.45874">
        <ele>63</ele>
        <time>2017-05-13T09:34:45Z</time>
      </trkpt>
      <trkpt lat="43.39497" lon="6.45864">
        <ele>62</ele>
        <time>2017-05-13T09:34:46Z</time>
      </trkpt>
      <trkpt lat="43.39483" lon="6.45836">
        <ele>62</ele>
        <time>2017-05-13T09:34:49Z</time>
      </trkpt>
      <trkpt lat="43.39474" lon="6.45817">
        <ele>61</ele>
        <time>2017-05-13T09:34:51Z</time>
      </trkpt>
      <trkpt lat="43.39469" lon="6.45808">
        <ele>60</ele>
        <time>2017-05-13T09:34:52Z</time>
      </trkpt>
      <trkpt lat="43.39459" lon="6.45789">
        <ele>60</ele>
        <time>2017-05-13T09:34:54Z</time>
      </trkpt>
      <trkpt lat="43.39451" lon="6.45769">
        <ele>60</ele>
        <time>2017-05-13T09:34:56Z</time>
      </trkpt>
      <trkpt lat="43.39446" lon="6.45734">
        <ele>58</ele>
        <time>2017-05-13T09:34:59Z</time>
      </trkpt>
      <trkpt lat="43.39446" lon="6.45722">
        <ele>58</ele>
        <time>2017-05-13T09:35:00Z</time>
      </trkpt>
      <trkpt lat="43.39444" lon="6.45698">
        <ele>57</ele>
        <time>2017-05-13T09:35:02Z</time>
      </trkpt>
      <trkpt lat="43.39444" lon="6.45673">
        <ele>56</ele>
        <time>2017-05-13T09:35:04Z</time>
      </trkpt>
      <trkpt lat="43.39447" lon="6.45647">
        <ele>54</ele>
        <time>2017-05-13T09:35:06Z</time>
      </trkpt>
      <trkpt lat="43.39453" lon="6.45624">
        <ele>54</ele>
        <time>2017-05-13T09:35:08Z</time>
      </trkpt>
      <trkpt lat="43.39458" lon="6.45601">
        <ele>54</ele>
        <time>2017-05-13T09:35:10Z</time>
      </trkpt>
      <trkpt lat="43.39464" lon="6.45578">
        <ele>51</ele>
        <time>2017-05-13T09:35:12Z</time>
      </trkpt>
      <trkpt lat="43.39476" lon="6.45561">
        <ele>51</ele>
        <time>2017-05-13T09:35:14Z</time>
      </trkpt>
      <trkpt lat="43.39492" lon="6.45556">
        <ele>52</ele>
        <time>2017-05-13T09:35:16Z</time>
      </trkpt>
      <trkpt lat="43.39509" lon="6.45556">
        <ele>52</ele>
        <time>2017-05-13T09:35:18Z</time>
      </trkpt>
      <trkpt lat="43.39524" lon="6.45558">
        <ele>52</ele>
        <time>2017-05-13T09:35:20Z</time>
      </trkpt>
      <trkpt lat="43.39539" lon="6.45562">
        <ele>52</ele>
        <time>2017-05-13T09:35:22Z</time>
      </trkpt>
      <trkpt lat="43.39554" lon="6.45565">
        <ele>52</ele>
        <time>2017-05-13T09:35:24Z</time>
      </trkpt>
      <trkpt lat="43.39568" lon="6.45566">
        <ele>52</ele>
        <time>2017-05-13T09:35:26Z</time>
      </trkpt>
      <trkpt lat="43.39582" lon="6.45569">
        <ele>52</ele>
        <time>2017-05-13T09:35:28Z</time>
      </trkpt>
      <trkpt lat="43.39594" lon="6.4557">
        <ele>51</ele>
        <time>2017-05-13T09:35:30Z</time>
      </trkpt>
      <trkpt lat="43.39607" lon="6.45572">
        <ele>50</ele>
        <time>2017-05-13T09:35:32Z</time>
      </trkpt>
      <trkpt lat="43.39619" lon="6.45573">
        <ele>49</ele>
        <time>2017-05-13T09:35:34Z</time>
      </trkpt>
      <trkpt lat="43.39631" lon="6.45576">
        <ele>49</ele>
        <time>2017-05-13T09:35:36Z</time>
      </trkpt>
      <trkpt lat="43.39644" lon="6.4558">
        <ele>49</ele>
        <time>2017-05-13T09:35:38Z</time>
      </trkpt>
      <trkpt lat="43.39656" lon="6.45589">
        <ele>52</ele>
        <time>2017-05-13T09:35:40Z</time>
      </trkpt>
      <trkpt lat="43.39666" lon="6.45595">
        <ele>52</ele>
        <time>2017-05-13T09:35:42Z</time>
      </trkpt>
      <trkpt lat="43.39677" lon="6.45604">
        <ele>51</ele>
        <time>2017-05-13T09:35:44Z</time>
      </trkpt>
      <trkpt lat="43.39687" lon="6.45614">
        <ele>51</ele>
        <time>2017-05-13T09:35:46Z</time>
      </trkpt>
      <trkpt lat="43.39697" lon="6.45623">
        <ele>51</ele>
        <time>2017-05-13T09:35:48Z</time>
      </trkpt>
      <trkpt lat="43.39706" lon="6.45618">
        <ele>51</ele>
        <time>2017-05-13T09:35:50Z</time>
      </trkpt>
      <trkpt lat="43.39714" lon="6.45605">
        <ele>50</ele>
        <time>2017-05-13T09:35:52Z</time>
      </trkpt>
      <trkpt lat="43.39722" lon="6.45592">
        <ele>50</ele>
        <time>2017-05-13T09:35:54Z</time>
      </trkpt>
      <trkpt lat="43.3973" lon="6.45575">
        <ele>48</ele>
        <time>2017-05-13T09:35:57Z</time>
      </trkpt>
      <trkpt lat="43.39733" lon="6.45567">
        <ele>48</ele>
        <time>2017-05-13T09:35:58Z</time>
      </trkpt>
      <trkpt lat="43.39743" lon="6.45552">
        <ele>48</ele>
        <time>2017-05-13T09:36:01Z</time>
      </trkpt>
      <trkpt lat="43.39746" lon="6.45554">
        <ele>48</ele>
        <time>2017-05-13T09:36:02Z</time>
      </trkpt>
      <trkpt lat="43.3976" lon="6.45565">
        <ele>49</ele>
        <time>2017-05-13T09:36:05Z</time>
      </trkpt>
      <trkpt lat="43.39765" lon="6.45571">
        <ele>49</ele>
        <time>2017-05-13T09:36:06Z</time>
      </trkpt>
      <trkpt lat="43.39774" lon="6.45581">
        <ele>49</ele>
        <time>2017-05-13T09:36:08Z</time>
      </trkpt>
      <trkpt lat="43.39786" lon="6.45589">
        <ele>48</ele>
        <time>2017-05-13T09:36:10Z</time>
      </trkpt>
      <trkpt lat="43.39797" lon="6.45599">
        <ele>48</ele>
        <time>2017-05-13T09:36:12Z</time>
      </trkpt>
      <trkpt lat="43.39808" lon="6.45608">
        <ele>48</ele>
        <time>2017-05-13T09:36:14Z</time>
      </trkpt>
      <trkpt lat="43.39818" lon="6.45616">
        <ele>48</ele>
        <time>2017-05-13T09:36:16Z</time>
      </trkpt>
      <trkpt lat="43.39831" lon="6.45622">
        <ele>48</ele>
        <time>2017-05-13T09:36:18Z</time>
      </trkpt>
      <trkpt lat="43.39844" lon="6.45624">
        <ele>46</ele>
        <time>2017-05-13T09:36:20Z</time>
      </trkpt>
      <trkpt lat="43.39854" lon="6.45618">
        <ele>46</ele>
        <time>2017-05-13T09:36:22Z</time>
      </trkpt>
      <trkpt lat="43.3986" lon="6.45603">
        <ele>47</ele>
        <time>2017-05-13T09:36:24Z</time>
      </trkpt>
      <trkpt lat="43.39859" lon="6.45586">
        <ele>47</ele>
        <time>2017-05-13T09:36:26Z</time>
      </trkpt>
      <trkpt lat="43.39854" lon="6.45569">
        <ele>48</ele>
        <time>2017-05-13T09:36:28Z</time>
      </trkpt>
      <trkpt lat="43.3985" lon="6.4555">
        <ele>48</ele>
        <time>2017-05-13T09:36:30Z</time>
      </trkpt>
      <trkpt lat="43.39848" lon="6.45534">
        <ele>49</ele>
        <time>2017-05-13T09:36:32Z</time>
      </trkpt>
      <trkpt lat="43.39846" lon="6.45514">
        <ele>49</ele>
        <time>2017-05-13T09:36:34Z</time>
      </trkpt>
      <trkpt lat="43.39844" lon="6.45496">
        <ele>50</ele>
        <time>2017-05-13T09:36:36Z</time>
      </trkpt>
      <trkpt lat="43.39842" lon="6.45477">
        <ele>49</ele>
        <time>2017-05-13T09:36:38Z</time>
      </trkpt>
      <trkpt lat="43.3984" lon="6.45461">
        <ele>49</ele>
        <time>2017-05-13T09:36:40Z</time>
      </trkpt>
      <trkpt lat="43.39838" lon="6.45444">
        <ele>49</ele>
        <time>2017-05-13T09:36:42Z</time>
      </trkpt>
      <trkpt lat="43.39837" lon="6.45427">
        <ele>49</ele>
        <time>2017-05-13T09:36:44Z</time>
      </trkpt>
      <trkpt lat="43.39835" lon="6.4541">
        <ele>49</ele>
        <time>2017-05-13T09:36:46Z</time>
      </trkpt>
      <trkpt lat="43.39835" lon="6.45394">
        <ele>48</ele>
        <time>2017-05-13T09:36:48Z</time>
      </trkpt>
      <trkpt lat="43.39837" lon="6.45377">
        <ele>47</ele>
        <time>2017-05-13T09:36:50Z</time>
      </trkpt>
      <trkpt lat="43.39842" lon="6.4536">
        <ele>47</ele>
        <time>2017-05-13T09:36:52Z</time>
      </trkpt>
      <trkpt lat="43.39846" lon="6.45344">
        <ele>47</ele>
        <time>2017-05-13T09:36:54Z</time>
      </trkpt>
      <trkpt lat="43.3985" lon="6.45329">
        <ele>46</ele>
        <time>2017-05-13T09:36:56Z</time>
      </trkpt>
      <trkpt lat="43.3985" lon="6.45312">
        <ele>46</ele>
        <time>2017-05-13T09:36:58Z</time>
      </trkpt>
      <trkpt lat="43.39848" lon="6.45296">
        <ele>45</ele>
        <time>2017-05-13T09:37:00Z</time>
      </trkpt>
      <trkpt lat="43.3985" lon="6.4528">
        <ele>45</ele>
        <time>2017-05-13T09:37:02Z</time>
      </trkpt>
      <trkpt lat="43.39847" lon="6.45262">
        <ele>46</ele>
        <time>2017-05-13T09:37:04Z</time>
      </trkpt>
      <trkpt lat="43.39844" lon="6.45243">
        <ele>46</ele>
        <time>2017-05-13T09:37:06Z</time>
      </trkpt>
      <trkpt lat="43.39845" lon="6.45226">
        <ele>45</ele>
        <time>2017-05-13T09:37:08Z</time>
      </trkpt>
      <trkpt lat="43.39847" lon="6.45208">
        <ele>45</ele>
        <time>2017-05-13T09:37:10Z</time>
      </trkpt>
      <trkpt lat="43.39849" lon="6.45191">
        <ele>45</ele>
        <time>2017-05-13T09:37:12Z</time>
      </trkpt>
      <trkpt lat="43.39854" lon="6.45172">
        <ele>46</ele>
        <time>2017-05-13T09:37:14Z</time>
      </trkpt>
      <trkpt lat="43.39863" lon="6.45147">
        <ele>45</ele>
        <time>2017-05-13T09:37:17Z</time>
      </trkpt>
      <trkpt lat="43.39868" lon="6.45141">
        <ele>45</ele>
        <time>2017-05-13T09:37:18Z</time>
      </trkpt>
      <trkpt lat="43.3988" lon="6.4513">
        <ele>44</ele>
        <time>2017-05-13T09:37:20Z</time>
      </trkpt>
      <trkpt lat="43.3989" lon="6.45119">
        <ele>44</ele>
        <time>2017-05-13T09:37:22Z</time>
      </trkpt>
      <trkpt lat="43.39902" lon="6.45108">
        <ele>44</ele>
        <time>2017-05-13T09:37:24Z</time>
      </trkpt>
      <trkpt lat="43.39913" lon="6.45097">
        <ele>43</ele>
        <time>2017-05-13T09:37:26Z</time>
      </trkpt>
      <trkpt lat="43.39925" lon="6.45086">
        <ele>41</ele>
        <time>2017-05-13T09:37:28Z</time>
      </trkpt>
      <trkpt lat="43.39936" lon="6.45075">
        <ele>42</ele>
        <time>2017-05-13T09:37:30Z</time>
      </trkpt>
      <trkpt lat="43.39947" lon="6.45065">
        <ele>42</ele>
        <time>2017-05-13T09:37:32Z</time>
      </trkpt>
      <trkpt lat="43.39958" lon="6.45054">
        <ele>42</ele>
        <time>2017-05-13T09:37:34Z</time>
      </trkpt>
      <trkpt lat="43.39969" lon="6.45043">
        <ele>42</ele>
        <time>2017-05-13T09:37:36Z</time>
      </trkpt>
      <trkpt lat="43.3998" lon="6.4503">
        <ele>42</ele>
        <time>2017-05-13T09:37:38Z</time>
      </trkpt>
      <trkpt lat="43.39991" lon="6.4502">
        <ele>42</ele>
        <time>2017-05-13T09:37:40Z</time>
      </trkpt>
      <trkpt lat="43.40001" lon="6.45009">
        <ele>42</ele>
        <time>2017-05-13T09:37:42Z</time>
      </trkpt>
      <trkpt lat="43.40013" lon="6.44996">
        <ele>42</ele>
        <time>2017-05-13T09:37:44Z</time>
      </trkpt>
      <trkpt lat="43.40024" lon="6.44985">
        <ele>42</ele>
        <time>2017-05-13T09:37:46Z</time>
      </trkpt>
      <trkpt lat="43.40034" lon="6.44974">
        <ele>42</ele>
        <time>2017-05-13T09:37:48Z</time>
      </trkpt>
      <trkpt lat="43.40044" lon="6.44949">
        <ele>42</ele>
        <time>2017-05-13T09:37:51Z</time>
      </trkpt>
      <trkpt lat="43.40047" lon="6.44939">
        <ele>42</ele>
        <time>2017-05-13T09:37:52Z</time>
      </trkpt>
      <trkpt lat="43.40051" lon="6.44923">
        <ele>42</ele>
        <time>2017-05-13T09:37:54Z</time>
      </trkpt>
      <trkpt lat="43.40056" lon="6.44903">
        <ele>42</ele>
        <time>2017-05-13T09:37:56Z</time>
      </trkpt>
      <trkpt lat="43.4006" lon="6.44887">
        <ele>42</ele>
        <time>2017-05-13T09:37:58Z</time>
      </trkpt>
      <trkpt lat="43.40065" lon="6.44871">
        <ele>43</ele>
        <time>2017-05-13T09:38:00Z</time>
      </trkpt>
      <trkpt lat="43.40076" lon="6.44857">
        <ele>43</ele>
        <time>2017-05-13T09:38:02Z</time>
      </trkpt>
      <trkpt lat="43.40088" lon="6.44848">
        <ele>42</ele>
        <time>2017-05-13T09:38:04Z</time>
      </trkpt>
      <trkpt lat="43.40099" lon="6.44841">
        <ele>42</ele>
        <time>2017-05-13T09:38:06Z</time>
      </trkpt>
      <trkpt lat="43.40119" lon="6.44836">
        <ele>42</ele>
        <time>2017-05-13T09:38:09Z</time>
      </trkpt>
      <trkpt lat="43.40126" lon="6.44834">
        <ele>42</ele>
        <time>2017-05-13T09:38:10Z</time>
      </trkpt>
      <trkpt lat="43.40137" lon="6.44832">
        <ele>43</ele>
        <time>2017-05-13T09:38:12Z</time>
      </trkpt>
      <trkpt lat="43.4015" lon="6.44831">
        <ele>43</ele>
        <time>2017-05-13T09:38:14Z</time>
      </trkpt>
      <trkpt lat="43.40167" lon="6.44831">
        <ele>42</ele>
        <time>2017-05-13T09:38:17Z</time>
      </trkpt>
      <trkpt lat="43.40173" lon="6.44832">
        <ele>42</ele>
        <time>2017-05-13T09:38:18Z</time>
      </trkpt>
      <trkpt lat="43.40187" lon="6.44832">
        <ele>42</ele>
        <time>2017-05-13T09:38:20Z</time>
      </trkpt>
      <trkpt lat="43.40201" lon="6.4483">
        <ele>42</ele>
        <time>2017-05-13T09:38:22Z</time>
      </trkpt>
      <trkpt lat="43.40215" lon="6.44825">
        <ele>42</ele>
        <time>2017-05-13T09:38:24Z</time>
      </trkpt>
      <trkpt lat="43.40227" lon="6.4482">
        <ele>41</ele>
        <time>2017-05-13T09:38:26Z</time>
      </trkpt>
      <trkpt lat="43.40239" lon="6.44814">
        <ele>41</ele>
        <time>2017-05-13T09:38:28Z</time>
      </trkpt>
      <trkpt lat="43.40248" lon="6.44805">
        <ele>41</ele>
        <time>2017-05-13T09:38:30Z</time>
      </trkpt>
      <trkpt lat="43.40256" lon="6.44793">
        <ele>41</ele>
        <time>2017-05-13T09:38:32Z</time>
      </trkpt>
      <trkpt lat="43.40261" lon="6.44778">
        <ele>41</ele>
        <time>2017-05-13T09:38:34Z</time>
      </trkpt>
      <trkpt lat="43.40266" lon="6.44764">
        <ele>41</ele>
        <time>2017-05-13T09:38:36Z</time>
      </trkpt>
      <trkpt lat="43.4027" lon="6.44747">
        <ele>41</ele>
        <time>2017-05-13T09:38:38Z</time>
      </trkpt>
      <trkpt lat="43.40273" lon="6.4473">
        <ele>41</ele>
        <time>2017-05-13T09:38:40Z</time>
      </trkpt>
      <trkpt lat="43.40275" lon="6.44714">
        <ele>41</ele>
        <time>2017-05-13T09:38:42Z</time>
      </trkpt>
      <trkpt lat="43.40279" lon="6.44698">
        <ele>42</ele>
        <time>2017-05-13T09:38:44Z</time>
      </trkpt>
      <trkpt lat="43.40282" lon="6.44681">
        <ele>42</ele>
        <time>2017-05-13T09:38:46Z</time>
      </trkpt>
      <trkpt lat="43.40286" lon="6.44665">
        <ele>42</ele>
        <time>2017-05-13T09:38:48Z</time>
      </trkpt>
      <trkpt lat="43.4029" lon="6.4464">
        <ele>42</ele>
        <time>2017-05-13T09:38:51Z</time>
      </trkpt>
      <trkpt lat="43.40291" lon="6.44631">
        <ele>42</ele>
        <time>2017-05-13T09:38:52Z</time>
      </trkpt>
      <trkpt lat="43.40295" lon="6.44615">
        <ele>43</ele>
        <time>2017-05-13T09:38:54Z</time>
      </trkpt>
      <trkpt lat="43.40296" lon="6.44599">
        <ele>43</ele>
        <time>2017-05-13T09:38:56Z</time>
      </trkpt>
      <trkpt lat="43.40297" lon="6.44583">
        <ele>44</ele>
        <time>2017-05-13T09:38:58Z</time>
      </trkpt>
      <trkpt lat="43.40296" lon="6.44557">
        <ele>44</ele>
        <time>2017-05-13T09:39:01Z</time>
      </trkpt>
      <trkpt lat="43.40295" lon="6.44549">
        <ele>44</ele>
        <time>2017-05-13T09:39:02Z</time>
      </trkpt>
      <trkpt lat="43.40294" lon="6.44532">
        <ele>44</ele>
        <time>2017-05-13T09:39:04Z</time>
      </trkpt>
      <trkpt lat="43.40293" lon="6.44515">
        <ele>44</ele>
        <time>2017-05-13T09:39:06Z</time>
      </trkpt>
      <trkpt lat="43.40294" lon="6.44498">
        <ele>45</ele>
        <time>2017-05-13T09:39:08Z</time>
      </trkpt>
      <trkpt lat="43.40304" lon="6.44487">
        <ele>45</ele>
        <time>2017-05-13T09:39:10Z</time>
      </trkpt>
      <trkpt lat="43.40313" lon="6.44488">
        <ele>45</ele>
        <time>2017-05-13T09:39:12Z</time>
      </trkpt>
      <trkpt lat="43.40325" lon="6.44489">
        <ele>45</ele>
        <time>2017-05-13T09:39:14Z</time>
      </trkpt>
      <trkpt lat="43.40337" lon="6.44491">
        <ele>45</ele>
        <time>2017-05-13T09:39:16Z</time>
      </trkpt>
      <trkpt lat="43.40348" lon="6.44491">
        <ele>45</ele>
        <time>2017-05-13T09:39:18Z</time>
      </trkpt>
      <trkpt lat="43.40359" lon="6.44483">
        <ele>45</ele>
        <time>2017-05-13T09:39:20Z</time>
      </trkpt>
      <trkpt lat="43.40368" lon="6.44474">
        <ele>45</ele>
        <time>2017-05-13T09:39:22Z</time>
      </trkpt>
      <trkpt lat="43.40376" lon="6.44463">
        <ele>45</ele>
        <time>2017-05-13T09:39:24Z</time>
      </trkpt>
      <trkpt lat="43.40383" lon="6.44452">
        <ele>45</ele>
        <time>2017-05-13T09:39:26Z</time>
      </trkpt>
      <trkpt lat="43.40392" lon="6.44443">
        <ele>45</ele>
        <time>2017-05-13T09:39:28Z</time>
      </trkpt>
      <trkpt lat="43.40398" lon="6.44433">
        <ele>45</ele>
        <time>2017-05-13T09:39:30Z</time>
      </trkpt>
      <trkpt lat="43.40406" lon="6.44421">
        <ele>45</ele>
        <time>2017-05-13T09:39:32Z</time>
      </trkpt>
      <trkpt lat="43.40411" lon="6.44409">
        <ele>45</ele>
        <time>2017-05-13T09:39:34Z</time>
      </trkpt>
      <trkpt lat="43.40417" lon="6.44397">
        <ele>46</ele>
        <time>2017-05-13T09:39:36Z</time>
      </trkpt>
      <trkpt lat="43.40423" lon="6.44387">
        <ele>47</ele>
        <time>2017-05-13T09:39:38Z</time>
      </trkpt>
      <trkpt lat="43.40429" lon="6.44376">
        <ele>47</ele>
        <time>2017-05-13T09:39:40Z</time>
      </trkpt>
      <trkpt lat="43.40436" lon="6.44367">
        <ele>47</ele>
        <time>2017-05-13T09:39:42Z</time>
      </trkpt>
      <trkpt lat="43.40442" lon="6.44356">
        <ele>47</ele>
        <time>2017-05-13T09:39:44Z</time>
      </trkpt>
      <trkpt lat="43.40446" lon="6.44344">
        <ele>47</ele>
        <time>2017-05-13T09:39:46Z</time>
      </trkpt>
      <trkpt lat="43.4045" lon="6.44332">
        <ele>47</ele>
        <time>2017-05-13T09:39:48Z</time>
      </trkpt>
      <trkpt lat="43.40456" lon="6.44319">
        <ele>47</ele>
        <time>2017-05-13T09:39:50Z</time>
      </trkpt>
      <trkpt lat="43.4046" lon="6.44308">
        <ele>48</ele>
        <time>2017-05-13T09:39:52Z</time>
      </trkpt>
      <trkpt lat="43.40464" lon="6.44294">
        <ele>48</ele>
        <time>2017-05-13T09:39:54Z</time>
      </trkpt>
      <trkpt lat="43.40468" lon="6.44275">
        <ele>48</ele>
        <time>2017-05-13T09:39:57Z</time>
      </trkpt>
      <trkpt lat="43.4047" lon="6.44268">
        <ele>48</ele>
        <time>2017-05-13T09:39:58Z</time>
      </trkpt>
      <trkpt lat="43.40473" lon="6.44253">
        <ele>48</ele>
        <time>2017-05-13T09:40:00Z</time>
      </trkpt>
      <trkpt lat="43.40476" lon="6.44239">
        <ele>48</ele>
        <time>2017-05-13T09:40:02Z</time>
      </trkpt>
      <trkpt lat="43.4048" lon="6.44226">
        <ele>48</ele>
        <time>2017-05-13T09:40:04Z</time>
      </trkpt>
      <trkpt lat="43.40483" lon="6.44212">
        <ele>48</ele>
        <time>2017-05-13T09:40:06Z</time>
      </trkpt>
      <trkpt lat="43.40486" lon="6.44197">
        <ele>48</ele>
        <time>2017-05-13T09:40:08Z</time>
      </trkpt>
      <trkpt lat="43.40489" lon="6.44184">
        <ele>48</ele>
        <time>2017-05-13T09:40:10Z</time>
      </trkpt>
      <trkpt lat="43.40491" lon="6.44169">
        <ele>48</ele>
        <time>2017-05-13T09:40:12Z</time>
      </trkpt>
      <trkpt lat="43.40494" lon="6.44154">
        <ele>48</ele>
        <time>2017-05-13T09:40:14Z</time>
      </trkpt>
      <trkpt lat="43.40497" lon="6.44139">
        <ele>47</ele>
        <time>2017-05-13T09:40:16Z</time>
      </trkpt>
      <trkpt lat="43.40501" lon="6.44124">
        <ele>50</ele>
        <time>2017-05-13T09:40:18Z</time>
      </trkpt>
      <trkpt lat="43.40504" lon="6.44109">
        <ele>49</ele>
        <time>2017-05-13T09:40:20Z</time>
      </trkpt>
      <trkpt lat="43.40507" lon="6.44094">
        <ele>49</ele>
        <time>2017-05-13T09:40:22Z</time>
      </trkpt>
      <trkpt lat="43.40509" lon="6.44079">
        <ele>48</ele>
        <time>2017-05-13T09:40:24Z</time>
      </trkpt>
      <trkpt lat="43.40509" lon="6.44062">
        <ele>48</ele>
        <time>2017-05-13T09:40:26Z</time>
      </trkpt>
      <trkpt lat="43.40508" lon="6.44048">
        <ele>48</ele>
        <time>2017-05-13T09:40:28Z</time>
      </trkpt>
      <trkpt lat="43.40506" lon="6.4403">
        <ele>48</ele>
        <time>2017-05-13T09:40:30Z</time>
      </trkpt>
      <trkpt lat="43.40506" lon="6.44013">
        <ele>47</ele>
        <time>2017-05-13T09:40:32Z</time>
      </trkpt>
      <trkpt lat="43.40506" lon="6.43997">
        <ele>47</ele>
        <time>2017-05-13T09:40:34Z</time>
      </trkpt>
      <trkpt lat="43.40505" lon="6.43979">
        <ele>47</ele>
        <time>2017-05-13T09:40:36Z</time>
      </trkpt>
      <trkpt lat="43.40505" lon="6.43963">
        <ele>48</ele>
        <time>2017-05-13T09:40:38Z</time>
      </trkpt>
      <trkpt lat="43.40506" lon="6.43948">
        <ele>48</ele>
        <time>2017-05-13T09:40:40Z</time>
      </trkpt>
      <trkpt lat="43.40506" lon="6.43923">
        <ele>47</ele>
        <time>2017-05-13T09:40:43Z</time>
      </trkpt>
      <trkpt lat="43.40506" lon="6.43914">
        <ele>48</ele>
        <time>2017-05-13T09:40:44Z</time>
      </trkpt>
      <trkpt lat="43.40507" lon="6.43899">
        <ele>48</ele>
        <time>2017-05-13T09:40:46Z</time>
      </trkpt>
      <trkpt lat="43.40507" lon="6.43881">
        <ele>48</ele>
        <time>2017-05-13T09:40:48Z</time>
      </trkpt>
      <trkpt lat="43.40509" lon="6.43865">
        <ele>49</ele>
        <time>2017-05-13T09:40:50Z</time>
      </trkpt>
      <trkpt lat="43.40513" lon="6.43849">
        <ele>49</ele>
        <time>2017-05-13T09:40:52Z</time>
      </trkpt>
      <trkpt lat="43.40523" lon="6.43827">
        <ele>48</ele>
        <time>2017-05-13T09:40:55Z</time>
      </trkpt>
      <trkpt lat="43.40527" lon="6.43821">
        <ele>48</ele>
        <time>2017-05-13T09:40:56Z</time>
      </trkpt>
      <trkpt lat="43.40534" lon="6.43809">
        <ele>48</ele>
        <time>2017-05-13T09:40:58Z</time>
      </trkpt>
      <trkpt lat="43.40543" lon="6.43796">
        <ele>49</ele>
        <time>2017-05-13T09:41:00Z</time>
      </trkpt>
      <trkpt lat="43.4055" lon="6.43784">
        <ele>49</ele>
        <time>2017-05-13T09:41:02Z</time>
      </trkpt>
      <trkpt lat="43.40558" lon="6.43772">
        <ele>49</ele>
        <time>2017-05-13T09:41:04Z</time>
      </trkpt>
      <trkpt lat="43.40565" lon="6.43761">
        <ele>49</ele>
        <time>2017-05-13T09:41:06Z</time>
      </trkpt>
      <trkpt lat="43.40573" lon="6.4375">
        <ele>49</ele>
        <time>2017-05-13T09:41:08Z</time>
      </trkpt>
      <trkpt lat="43.4058" lon="6.43737">
        <ele>49</ele>
        <time>2017-05-13T09:41:10Z</time>
      </trkpt>
      <trkpt lat="43.40587" lon="6.43724">
        <ele>53</ele>
        <time>2017-05-13T09:41:12Z</time>
      </trkpt>
      <trkpt lat="43.40595" lon="6.43713">
        <ele>54</ele>
        <time>2017-05-13T09:41:14Z</time>
      </trkpt>
      <trkpt lat="43.40602" lon="6.43702">
        <ele>54</ele>
        <time>2017-05-13T09:41:16Z</time>
      </trkpt>
      <trkpt lat="43.40608" lon="6.43691">
        <ele>54</ele>
        <time>2017-05-13T09:41:18Z</time>
      </trkpt>
      <trkpt lat="43.40614" lon="6.43679">
        <ele>54</ele>
        <time>2017-05-13T09:41:20Z</time>
      </trkpt>
      <trkpt lat="43.4062" lon="6.43661">
        <ele>54</ele>
        <time>2017-05-13T09:41:23Z</time>
      </trkpt>
      <trkpt lat="43.40623" lon="6.43655">
        <ele>54</ele>
        <time>2017-05-13T09:41:24Z</time>
      </trkpt>
      <trkpt lat="43.40628" lon="6.43644">
        <ele>54</ele>
        <time>2017-05-13T09:41:26Z</time>
      </trkpt>
      <trkpt lat="43.40632" lon="6.43633">
        <ele>54</ele>
        <time>2017-05-13T09:41:28Z</time>
      </trkpt>
      <trkpt lat="43.40643" lon="6.43622">
        <ele>54</ele>
        <time>2017-05-13T09:41:31Z</time>
      </trkpt>
      <trkpt lat="43.40647" lon="6.4362">
        <ele>54</ele>
        <time>2017-05-13T09:41:32Z</time>
      </trkpt>
      <trkpt lat="43.40658" lon="6.43615">
        <ele>54</ele>
        <time>2017-05-13T09:41:35Z</time>
      </trkpt>
      <trkpt lat="43.40662" lon="6.43615">
        <ele>54</ele>
        <time>2017-05-13T09:41:36Z</time>
      </trkpt>
      <trkpt lat="43.40672" lon="6.43613">
        <ele>57</ele>
        <time>2017-05-13T09:41:38Z</time>
      </trkpt>
      <trkpt lat="43.40681" lon="6.43612">
        <ele>57</ele>
        <time>2017-05-13T09:41:40Z</time>
      </trkpt>
      <trkpt lat="43.40689" lon="6.43612">
        <ele>57</ele>
        <time>2017-05-13T09:41:42Z</time>
      </trkpt>
      <trkpt lat="43.40698" lon="6.4361">
        <ele>58</ele>
        <time>2017-05-13T09:41:44Z</time>
      </trkpt>
      <trkpt lat="43.40707" lon="6.4361">
        <ele>58</ele>
        <time>2017-05-13T09:41:46Z</time>
      </trkpt>
      <trkpt lat="43.40716" lon="6.43607">
        <ele>58</ele>
        <time>2017-05-13T09:41:48Z</time>
      </trkpt>
      <trkpt lat="43.40724" lon="6.43606">
        <ele>58</ele>
        <time>2017-05-13T09:41:50Z</time>
      </trkpt>
      <trkpt lat="43.40735" lon="6.43607">
        <ele>58</ele>
        <time>2017-05-13T09:41:53Z</time>
      </trkpt>
      <trkpt lat="43.40738" lon="6.43609">
        <ele>58</ele>
        <time>2017-05-13T09:41:54Z</time>
      </trkpt>
      <trkpt lat="43.40746" lon="6.43614">
        <ele>58</ele>
        <time>2017-05-13T09:41:56Z</time>
      </trkpt>
      <trkpt lat="43.40758" lon="6.43622">
        <ele>60</ele>
        <time>2017-05-13T09:41:59Z</time>
      </trkpt>
      <trkpt lat="43.40761" lon="6.43625">
        <ele>60</ele>
        <time>2017-05-13T09:42:00Z</time>
      </trkpt>
      <trkpt lat="43.40767" lon="6.4363">
        <ele>60</ele>
        <time>2017-05-13T09:42:02Z</time>
      </trkpt>
      <trkpt lat="43.40774" lon="6.43635">
        <ele>60</ele>
        <time>2017-05-13T09:42:04Z</time>
      </trkpt>
      <trkpt lat="43.4078" lon="6.43639">
        <ele>60</ele>
        <time>2017-05-13T09:42:06Z</time>
      </trkpt>
      <trkpt lat="43.40787" lon="6.43642">
        <ele>60</ele>
        <time>2017-05-13T09:42:08Z</time>
      </trkpt>
      <trkpt lat="43.40794" lon="6.43642">
        <ele>60</ele>
        <time>2017-05-13T09:42:10Z</time>
      </trkpt>
      <trkpt lat="43.40801" lon="6.43639">
        <ele>60</ele>
        <time>2017-05-13T09:42:12Z</time>
      </trkpt>
      <trkpt lat="43.40808" lon="6.43633">
        <ele>60</ele>
        <time>2017-05-13T09:42:14Z</time>
      </trkpt>
      <trkpt lat="43.40814" lon="6.43627">
        <ele>60</ele>
        <time>2017-05-13T09:42:16Z</time>
      </trkpt>
      <trkpt lat="43.40821" lon="6.43621">
        <ele>60</ele>
        <time>2017-05-13T09:42:18Z</time>
      </trkpt>
      <trkpt lat="43.40827" lon="6.43615">
        <ele>60</ele>
        <time>2017-05-13T09:42:20Z</time>
      </trkpt>
      <trkpt lat="43.40835" lon="6.43611">
        <ele>60</ele>
        <time>2017-05-13T09:42:22Z</time>
      </trkpt>
      <trkpt lat="43.40846" lon="6.43608">
        <ele>60</ele>
        <time>2017-05-13T09:42:24Z</time>
      </trkpt>
      <trkpt lat="43.40854" lon="6.43604">
        <ele>60</ele>
        <time>2017-05-13T09:42:26Z</time>
      </trkpt>
      <trkpt lat="43.40863" lon="6.43604">
        <ele>60</ele>
        <time>2017-05-13T09:42:28Z</time>
      </trkpt>
      <trkpt lat="43.40871" lon="6.43607">
        <ele>61</ele>
        <time>2017-05-13T09:42:30Z</time>
      </trkpt>
      <trkpt lat="43.40879" lon="6.43613">
        <ele>61</ele>
        <time>2017-05-13T09:42:32Z</time>
      </trkpt>
      <trkpt lat="43.40886" lon="6.4362">
        <ele>61</ele>
        <time>2017-05-13T09:42:34Z</time>
      </trkpt>
      <trkpt lat="43.40893" lon="6.43627">
        <ele>61</ele>
        <time>2017-05-13T09:42:36Z</time>
      </trkpt>
      <trkpt lat="43.40903" lon="6.43632">
        <ele>61</ele>
        <time>2017-05-13T09:42:38Z</time>
      </trkpt>
      <trkpt lat="43.40911" lon="6.43634">
        <ele>61</ele>
        <time>2017-05-13T09:42:40Z</time>
      </trkpt>
      <trkpt lat="43.4092" lon="6.43633">
        <ele>62</ele>
        <time>2017-05-13T09:42:42Z</time>
      </trkpt>
      <trkpt lat="43.40927" lon="6.43625">
        <ele>62</ele>
        <time>2017-05-13T09:42:44Z</time>
      </trkpt>
      <trkpt lat="43.40933" lon="6.43617">
        <ele>62</ele>
        <time>2017-05-13T09:42:46Z</time>
      </trkpt>
      <trkpt lat="43.40936" lon="6.43605">
        <ele>62</ele>
        <time>2017-05-13T09:42:48Z</time>
      </trkpt>
      <trkpt lat="43.4094" lon="6.43591">
        <ele>62</ele>
        <time>2017-05-13T09:42:50Z</time>
      </trkpt>
      <trkpt lat="43.40943" lon="6.4358">
        <ele>61</ele>
        <time>2017-05-13T09:42:52Z</time>
      </trkpt>
      <trkpt lat="43.40946" lon="6.43566">
        <ele>61</ele>
        <time>2017-05-13T09:42:54Z</time>
      </trkpt>
      <trkpt lat="43.40953" lon="6.43548">
        <ele>61</ele>
        <time>2017-05-13T09:42:57Z</time>
      </trkpt>
      <trkpt lat="43.40954" lon="6.43541">
        <ele>61</ele>
        <time>2017-05-13T09:42:58Z</time>
      </trkpt>
      <trkpt lat="43.40958" lon="6.43527">
        <ele>61</ele>
        <time>2017-05-13T09:43:00Z</time>
      </trkpt>
      <trkpt lat="43.40962" lon="6.43507">
        <ele>61</ele>
        <time>2017-05-13T09:43:03Z</time>
      </trkpt>
      <trkpt lat="43.40964" lon="6.435">
        <ele>61</ele>
        <time>2017-05-13T09:43:04Z</time>
      </trkpt>
      <trkpt lat="43.40967" lon="6.43486">
        <ele>60</ele>
        <time>2017-05-13T09:43:06Z</time>
      </trkpt>
      <trkpt lat="43.40972" lon="6.43472">
        <ele>60</ele>
        <time>2017-05-13T09:43:08Z</time>
      </trkpt>
      <trkpt lat="43.40975" lon="6.43456">
        <ele>60</ele>
        <time>2017-05-13T09:43:10Z</time>
      </trkpt>
      <trkpt lat="43.40979" lon="6.43441">
        <ele>59</ele>
        <time>2017-05-13T09:43:12Z</time>
      </trkpt>
      <trkpt lat="43.40983" lon="6.43427">
        <ele>59</ele>
        <time>2017-05-13T09:43:14Z</time>
      </trkpt>
      <trkpt lat="43.40989" lon="6.43405">
        <ele>58</ele>
        <time>2017-05-13T09:43:17Z</time>
      </trkpt>
      <trkpt lat="43.40991" lon="6.43398">
        <ele>58</ele>
        <time>2017-05-13T09:43:18Z</time>
      </trkpt>
      <trkpt lat="43.40996" lon="6.43383">
        <ele>58</ele>
        <time>2017-05-13T09:43:20Z</time>
      </trkpt>
      <trkpt lat="43.40999" lon="6.43367">
        <ele>58</ele>
        <time>2017-05-13T09:43:22Z</time>
      </trkpt>
      <trkpt lat="43.41004" lon="6.43352">
        <ele>59</ele>
        <time>2017-05-13T09:43:24Z</time>
      </trkpt>
      <trkpt lat="43.41007" lon="6.43337">
        <ele>59</ele>
        <time>2017-05-13T09:43:26Z</time>
      </trkpt>
      <trkpt lat="43.41011" lon="6.43322">
        <ele>59</ele>
        <time>2017-05-13T09:43:28Z</time>
      </trkpt>
      <trkpt lat="43.41018" lon="6.43299">
        <ele>60</ele>
        <time>2017-05-13T09:43:31Z</time>
      </trkpt>
      <trkpt lat="43.4102" lon="6.43291">
        <ele>60</ele>
        <time>2017-05-13T09:43:32Z</time>
      </trkpt>
      <trkpt lat="43.41025" lon="6.43277">
        <ele>60</ele>
        <time>2017-05-13T09:43:34Z</time>
      </trkpt>
      <trkpt lat="43.41028" lon="6.43264">
        <ele>60</ele>
        <time>2017-05-13T09:43:36Z</time>
      </trkpt>
      <trkpt lat="43.41033" lon="6.43249">
        <ele>60</ele>
        <time>2017-05-13T09:43:38Z</time>
      </trkpt>
      <trkpt lat="43.4104" lon="6.43236">
        <ele>60</ele>
        <time>2017-05-13T09:43:40Z</time>
      </trkpt>
      <trkpt lat="43.41047" lon="6.43225">
        <ele>60</ele>
        <time>2017-05-13T09:43:42Z</time>
      </trkpt>
      <trkpt lat="43.41056" lon="6.43214">
        <ele>60</ele>
        <time>2017-05-13T09:43:44Z</time>
      </trkpt>
      <trkpt lat="43.41065" lon="6.43206">
        <ele>61</ele>
        <time>2017-05-13T09:43:46Z</time>
      </trkpt>
      <trkpt lat="43.41074" lon="6.43199">
        <ele>61</ele>
        <time>2017-05-13T09:43:48Z</time>
      </trkpt>
      <trkpt lat="43.41083" lon="6.43192">
        <ele>61</ele>
        <time>2017-05-13T09:43:50Z</time>
      </trkpt>
      <trkpt lat="43.41092" lon="6.43184">
        <ele>63</ele>
        <time>2017-05-13T09:43:52Z</time>
      </trkpt>
      <trkpt lat="43.41101" lon="6.43176">
        <ele>63</ele>
        <time>2017-05-13T09:43:54Z</time>
      </trkpt>
      <trkpt lat="43.41108" lon="6.43168">
        <ele>63</ele>
        <time>2017-05-13T09:43:56Z</time>
      </trkpt>
      <trkpt lat="43.41116" lon="6.4316">
        <ele>63</ele>
        <time>2017-05-13T09:43:58Z</time>
      </trkpt>
      <trkpt lat="43.41125" lon="6.43153">
        <ele>63</ele>
        <time>2017-05-13T09:44:00Z</time>
      </trkpt>
      <trkpt lat="43.41134" lon="6.43147">
        <ele>63</ele>
        <time>2017-05-13T09:44:02Z</time>
      </trkpt>
      <trkpt lat="43.41142" lon="6.43141">
        <ele>64</ele>
        <time>2017-05-13T09:44:04Z</time>
      </trkpt>
      <trkpt lat="43.41151" lon="6.43134">
        <ele>64</ele>
        <time>2017-05-13T09:44:06Z</time>
      </trkpt>
      <trkpt lat="43.41159" lon="6.43128">
        <ele>64</ele>
        <time>2017-05-13T09:44:08Z</time>
      </trkpt>
      <trkpt lat="43.41167" lon="6.43119">
        <ele>66</ele>
        <time>2017-05-13T09:44:10Z</time>
      </trkpt>
      <trkpt lat="43.41173" lon="6.43107">
        <ele>66</ele>
        <time>2017-05-13T09:44:12Z</time>
      </trkpt>
      <trkpt lat="43.4118" lon="6.43097">
        <ele>65</ele>
        <time>2017-05-13T09:44:14Z</time>
      </trkpt>
      <trkpt lat="43.41186" lon="6.43078">
        <ele>65</ele>
        <time>2017-05-13T09:44:17Z</time>
      </trkpt>
      <trkpt lat="43.41188" lon="6.43072">
        <ele>65</ele>
        <time>2017-05-13T09:44:18Z</time>
      </trkpt>
      <trkpt lat="43.41192" lon="6.4306">
        <ele>65</ele>
        <time>2017-05-13T09:44:20Z</time>
      </trkpt>
      <trkpt lat="43.41196" lon="6.43046">
        <ele>66</ele>
        <time>2017-05-13T09:44:22Z</time>
      </trkpt>
      <trkpt lat="43.41199" lon="6.43036">
        <ele>66</ele>
        <time>2017-05-13T09:44:24Z</time>
      </trkpt>
      <trkpt lat="43.41202" lon="6.43024">
        <ele>66</ele>
        <time>2017-05-13T09:44:26Z</time>
      </trkpt>
      <trkpt lat="43.41205" lon="6.43012">
        <ele>66</ele>
        <time>2017-05-13T09:44:28Z</time>
      </trkpt>
      <trkpt lat="43.4121" lon="6.43">
        <ele>66</ele>
        <time>2017-05-13T09:44:30Z</time>
      </trkpt>
      <trkpt lat="43.41217" lon="6.42992">
        <ele>66</ele>
        <time>2017-05-13T09:44:32Z</time>
      </trkpt>
      <trkpt lat="43.41226" lon="6.42985">
        <ele>66</ele>
        <time>2017-05-13T09:44:34Z</time>
      </trkpt>
      <trkpt lat="43.41233" lon="6.4298">
        <ele>67</ele>
        <time>2017-05-13T09:44:36Z</time>
      </trkpt>
      <trkpt lat="43.41242" lon="6.42972">
        <ele>67</ele>
        <time>2017-05-13T09:44:38Z</time>
      </trkpt>
      <trkpt lat="43.41251" lon="6.42966">
        <ele>68</ele>
        <time>2017-05-13T09:44:40Z</time>
      </trkpt>
      <trkpt lat="43.41259" lon="6.42959">
        <ele>68</ele>
        <time>2017-05-13T09:44:42Z</time>
      </trkpt>
      <trkpt lat="43.41267" lon="6.42953">
        <ele>68</ele>
        <time>2017-05-13T09:44:44Z</time>
      </trkpt>
      <trkpt lat="43.41275" lon="6.42946">
        <ele>69</ele>
        <time>2017-05-13T09:44:46Z</time>
      </trkpt>
      <trkpt lat="43.41285" lon="6.42941">
        <ele>69</ele>
        <time>2017-05-13T09:44:48Z</time>
      </trkpt>
      <trkpt lat="43.41297" lon="6.42939">
        <ele>69</ele>
        <time>2017-05-13T09:44:50Z</time>
      </trkpt>
      <trkpt lat="43.41306" lon="6.42935">
        <ele>69</ele>
        <time>2017-05-13T09:44:52Z</time>
      </trkpt>
      <trkpt lat="43.41316" lon="6.42931">
        <ele>69</ele>
        <time>2017-05-13T09:44:54Z</time>
      </trkpt>
      <trkpt lat="43.41331" lon="6.42926">
        <ele>70</ele>
        <time>2017-05-13T09:44:57Z</time>
      </trkpt>
      <trkpt lat="43.41337" lon="6.42923">
        <ele>70</ele>
        <time>2017-05-13T09:44:58Z</time>
      </trkpt>
      <trkpt lat="43.41346" lon="6.4292">
        <ele>70</ele>
        <time>2017-05-13T09:45:00Z</time>
      </trkpt>
      <trkpt lat="43.41355" lon="6.42917">
        <ele>71</ele>
        <time>2017-05-13T09:45:02Z</time>
      </trkpt>
      <trkpt lat="43.41364" lon="6.42912">
        <ele>70</ele>
        <time>2017-05-13T09:45:05Z</time>
      </trkpt>
      <trkpt lat="43.41368" lon="6.42911">
        <ele>70</ele>
        <time>2017-05-13T09:45:06Z</time>
      </trkpt>
      <trkpt lat="43.41386" lon="6.42905">
        <ele>70</ele>
        <time>2017-05-13T09:45:09Z</time>
      </trkpt>
      <trkpt lat="43.41398" lon="6.42902">
        <ele>70</ele>
        <time>2017-05-13T09:45:11Z</time>
      </trkpt>
      <trkpt lat="43.41409" lon="6.42896">
        <ele>70</ele>
        <time>2017-05-13T09:45:13Z</time>
      </trkpt>
      <trkpt lat="43.41414" lon="6.42892">
        <ele>70</ele>
        <time>2017-05-13T09:45:14Z</time>
      </trkpt>
      <trkpt lat="43.41425" lon="6.42887">
        <ele>70</ele>
        <time>2017-05-13T09:45:16Z</time>
      </trkpt>
      <trkpt lat="43.41435" lon="6.42879">
        <ele>69</ele>
        <time>2017-05-13T09:45:18Z</time>
      </trkpt>
      <trkpt lat="43.41445" lon="6.4287">
        <ele>69</ele>
        <time>2017-05-13T09:45:20Z</time>
      </trkpt>
      <trkpt lat="43.41455" lon="6.4286">
        <ele>69</ele>
        <time>2017-05-13T09:45:22Z</time>
      </trkpt>
      <trkpt lat="43.41465" lon="6.42851">
        <ele>68</ele>
        <time>2017-05-13T09:45:24Z</time>
      </trkpt>
      <trkpt lat="43.41475" lon="6.42839">
        <ele>68</ele>
        <time>2017-05-13T09:45:26Z</time>
      </trkpt>
      <trkpt lat="43.41486" lon="6.42831">
        <ele>67</ele>
        <time>2017-05-13T09:45:28Z</time>
      </trkpt>
      <trkpt lat="43.41502" lon="6.4282">
        <ele>66</ele>
        <time>2017-05-13T09:45:31Z</time>
      </trkpt>
      <trkpt lat="43.41507" lon="6.42815">
        <ele>65</ele>
        <time>2017-05-13T09:45:32Z</time>
      </trkpt>
      <trkpt lat="43.4152" lon="6.42805">
        <ele>65</ele>
        <time>2017-05-13T09:45:34Z</time>
      </trkpt>
      <trkpt lat="43.41531" lon="6.42799">
        <ele>65</ele>
        <time>2017-05-13T09:45:36Z</time>
      </trkpt>
      <trkpt lat="43.4154" lon="6.42793">
        <ele>65</ele>
        <time>2017-05-13T09:45:38Z</time>
      </trkpt>
      <trkpt lat="43.41545" lon="6.42789">
        <ele>65</ele>
        <time>2017-05-13T09:45:40Z</time>
      </trkpt>
      <trkpt lat="43.41548" lon="6.42785">
        <ele>65</ele>
        <time>2017-05-13T09:45:42Z</time>
      </trkpt>
      <trkpt lat="43.4155" lon="6.42782">
        <ele>65</ele>
        <time>2017-05-13T09:45:44Z</time>
      </trkpt>
      <trkpt lat="43.41551" lon="6.42779">
        <ele>64</ele>
        <time>2017-05-13T09:45:46Z</time>
      </trkpt>
      <trkpt lat="43.41555" lon="6.42774">
        <ele>64</ele>
        <time>2017-05-13T09:45:48Z</time>
      </trkpt>
      <trkpt lat="43.41561" lon="6.42767">
        <ele>64</ele>
        <time>2017-05-13T09:45:50Z</time>
      </trkpt>
      <trkpt lat="43.4157" lon="6.42758">
        <ele>63</ele>
        <time>2017-05-13T09:45:52Z</time>
      </trkpt>
      <trkpt lat="43.41578" lon="6.42748">
        <ele>62</ele>
        <time>2017-05-13T09:45:54Z</time>
      </trkpt>
      <trkpt lat="43.41588" lon="6.42739">
        <ele>61</ele>
        <time>2017-05-13T09:45:56Z</time>
      </trkpt>
      <trkpt lat="43.416" lon="6.42734">
        <ele>61</ele>
        <time>2017-05-13T09:45:58Z</time>
      </trkpt>
      <trkpt lat="43.41613" lon="6.42734">
        <ele>61</ele>
        <time>2017-05-13T09:46:00Z</time>
      </trkpt>
      <trkpt lat="43.41625" lon="6.42737">
        <ele>60</ele>
        <time>2017-05-13T09:46:02Z</time>
      </trkpt>
      <trkpt lat="43.41639" lon="6.42742">
        <ele>60</ele>
        <time>2017-05-13T09:46:04Z</time>
      </trkpt>
      <trkpt lat="43.41651" lon="6.42745">
        <ele>61</ele>
        <time>2017-05-13T09:46:06Z</time>
      </trkpt>
      <trkpt lat="43.41664" lon="6.42749">
        <ele>61</ele>
        <time>2017-05-13T09:46:08Z</time>
      </trkpt>
      <trkpt lat="43.41677" lon="6.42752">
        <ele>61</ele>
        <time>2017-05-13T09:46:10Z</time>
      </trkpt>
      <trkpt lat="43.41689" lon="6.42754">
        <ele>60</ele>
        <time>2017-05-13T09:46:12Z</time>
      </trkpt>
      <trkpt lat="43.41702" lon="6.42756">
        <ele>60</ele>
        <time>2017-05-13T09:46:14Z</time>
      </trkpt>
      <trkpt lat="43.41714" lon="6.42758">
        <ele>60</ele>
        <time>2017-05-13T09:46:16Z</time>
      </trkpt>
      <trkpt lat="43.41727" lon="6.4276">
        <ele>59</ele>
        <time>2017-05-13T09:46:18Z</time>
      </trkpt>
      <trkpt lat="43.4174" lon="6.42763">
        <ele>59</ele>
        <time>2017-05-13T09:46:20Z</time>
      </trkpt>
      <trkpt lat="43.41752" lon="6.42765">
        <ele>58</ele>
        <time>2017-05-13T09:46:22Z</time>
      </trkpt>
      <trkpt lat="43.41765" lon="6.42767">
        <ele>58</ele>
        <time>2017-05-13T09:46:24Z</time>
      </trkpt>
      <trkpt lat="43.41778" lon="6.42769">
        <ele>58</ele>
        <time>2017-05-13T09:46:26Z</time>
      </trkpt>
      <trkpt lat="43.41791" lon="6.42774">
        <ele>58</ele>
        <time>2017-05-13T09:46:28Z</time>
      </trkpt>
      <trkpt lat="43.41804" lon="6.42779">
        <ele>58</ele>
        <time>2017-05-13T09:46:30Z</time>
      </trkpt>
      <trkpt lat="43.41816" lon="6.42785">
        <ele>58</ele>
        <time>2017-05-13T09:46:32Z</time>
      </trkpt>
      <trkpt lat="43.41829" lon="6.42791">
        <ele>58</ele>
        <time>2017-05-13T09:46:34Z</time>
      </trkpt>
      <trkpt lat="43.41841" lon="6.42797">
        <ele>58</ele>
        <time>2017-05-13T09:46:36Z</time>
      </trkpt>
      <trkpt lat="43.41854" lon="6.42802">
        <ele>58</ele>
        <time>2017-05-13T09:46:38Z</time>
      </trkpt>
      <trkpt lat="43.41866" lon="6.42807">
        <ele>58</ele>
        <time>2017-05-13T09:46:40Z</time>
      </trkpt>
      <trkpt lat="43.41879" lon="6.4281">
        <ele>58</ele>
        <time>2017-05-13T09:46:42Z</time>
      </trkpt>
      <trkpt lat="43.41891" lon="6.42814">
        <ele>58</ele>
        <time>2017-05-13T09:46:44Z</time>
      </trkpt>
      <trkpt lat="43.41903" lon="6.42818">
        <ele>58</ele>
        <time>2017-05-13T09:46:46Z</time>
      </trkpt>
      <trkpt lat="43.41915" lon="6.42823">
        <ele>58</ele>
        <time>2017-05-13T09:46:48Z</time>
      </trkpt>
      <trkpt lat="43.41927" lon="6.42829">
        <ele>58</ele>
        <time>2017-05-13T09:46:50Z</time>
      </trkpt>
      <trkpt lat="43.41938" lon="6.42834">
        <ele>58</ele>
        <time>2017-05-13T09:46:52Z</time>
      </trkpt>
      <trkpt lat="43.4195" lon="6.42838">
        <ele>59</ele>
        <time>2017-05-13T09:46:54Z</time>
      </trkpt>
      <trkpt lat="43.41961" lon="6.42843">
        <ele>59</ele>
        <time>2017-05-13T09:46:56Z</time>
      </trkpt>
      <trkpt lat="43.41973" lon="6.42848">
        <ele>59</ele>
        <time>2017-05-13T09:46:58Z</time>
      </trkpt>
      <trkpt lat="43.41985" lon="6.42853">
        <ele>59</ele>
        <time>2017-05-13T09:47:00Z</time>
      </trkpt>
      <trkpt lat="43.41996" lon="6.42857">
        <ele>59</ele>
        <time>2017-05-13T09:47:02Z</time>
      </trkpt>
      <trkpt lat="43.42007" lon="6.42863">
        <ele>59</ele>
        <time>2017-05-13T09:47:04Z</time>
      </trkpt>
      <trkpt lat="43.42017" lon="6.42868">
        <ele>59</ele>
        <time>2017-05-13T09:47:06Z</time>
      </trkpt>
      <trkpt lat="43.42027" lon="6.42873">
        <ele>59</ele>
        <time>2017-05-13T09:47:08Z</time>
      </trkpt>
      <trkpt lat="43.42038" lon="6.42878">
        <ele>60</ele>
        <time>2017-05-13T09:47:10Z</time>
      </trkpt>
      <trkpt lat="43.42049" lon="6.42884">
        <ele>60</ele>
        <time>2017-05-13T09:47:12Z</time>
      </trkpt>
      <trkpt lat="43.42059" lon="6.42891">
        <ele>60</ele>
        <time>2017-05-13T09:47:14Z</time>
      </trkpt>
      <trkpt lat="43.42068" lon="6.42897">
        <ele>60</ele>
        <time>2017-05-13T09:47:16Z</time>
      </trkpt>
      <trkpt lat="43.42081" lon="6.42903">
        <ele>60</ele>
        <time>2017-05-13T09:47:18Z</time>
      </trkpt>
      <trkpt lat="43.42091" lon="6.42909">
        <ele>60</ele>
        <time>2017-05-13T09:47:20Z</time>
      </trkpt>
      <trkpt lat="43.42102" lon="6.42916">
        <ele>60</ele>
        <time>2017-05-13T09:47:22Z</time>
      </trkpt>
      <trkpt lat="43.42113" lon="6.42924">
        <ele>61</ele>
        <time>2017-05-13T09:47:24Z</time>
      </trkpt>
      <trkpt lat="43.42123" lon="6.42932">
        <ele>61</ele>
        <time>2017-05-13T09:47:26Z</time>
      </trkpt>
      <trkpt lat="43.42131" lon="6.4294">
        <ele>61</ele>
        <time>2017-05-13T09:47:28Z</time>
      </trkpt>
      <trkpt lat="43.42141" lon="6.42948">
        <ele>61</ele>
        <time>2017-05-13T09:47:30Z</time>
      </trkpt>
      <trkpt lat="43.4215" lon="6.42958">
        <ele>61</ele>
        <time>2017-05-13T09:47:32Z</time>
      </trkpt>
      <trkpt lat="43.42159" lon="6.42966">
        <ele>61</ele>
        <time>2017-05-13T09:47:34Z</time>
      </trkpt>
      <trkpt lat="43.4217" lon="6.42972">
        <ele>61</ele>
        <time>2017-05-13T09:47:36Z</time>
      </trkpt>
      <trkpt lat="43.4218" lon="6.42978">
        <ele>61</ele>
        <time>2017-05-13T09:47:38Z</time>
      </trkpt>
      <trkpt lat="43.42189" lon="6.42988">
        <ele>62</ele>
        <time>2017-05-13T09:47:40Z</time>
      </trkpt>
      <trkpt lat="43.42198" lon="6.42996">
        <ele>61</ele>
        <time>2017-05-13T09:47:42Z</time>
      </trkpt>
      <trkpt lat="43.42206" lon="6.43005">
        <ele>63</ele>
        <time>2017-05-13T09:47:44Z</time>
      </trkpt>
      <trkpt lat="43.42216" lon="6.43013">
        <ele>63</ele>
        <time>2017-05-13T09:47:46Z</time>
      </trkpt>
      <trkpt lat="43.42225" lon="6.43021">
        <ele>63</ele>
        <time>2017-05-13T09:47:48Z</time>
      </trkpt>
      <trkpt lat="43.42234" lon="6.4303">
        <ele>63</ele>
        <time>2017-05-13T09:47:50Z</time>
      </trkpt>
      <trkpt lat="43.42242" lon="6.43038">
        <ele>64</ele>
        <time>2017-05-13T09:47:52Z</time>
      </trkpt>
      <trkpt lat="43.42254" lon="6.43049">
        <ele>62</ele>
        <time>2017-05-13T09:47:55Z</time>
      </trkpt>
      <trkpt lat="43.42263" lon="6.43056">
        <ele>62</ele>
        <time>2017-05-13T09:47:57Z</time>
      </trkpt>
      <trkpt lat="43.42273" lon="6.43065">
        <ele>62</ele>
        <time>2017-05-13T09:47:59Z</time>
      </trkpt>
      <trkpt lat="43.42277" lon="6.43071">
        <ele>62</ele>
        <time>2017-05-13T09:48:00Z</time>
      </trkpt>
      <trkpt lat="43.42284" lon="6.43081">
        <ele>62</ele>
        <time>2017-05-13T09:48:02Z</time>
      </trkpt>
      <trkpt lat="43.42293" lon="6.43091">
        <ele>65</ele>
        <time>2017-05-13T09:48:04Z</time>
      </trkpt>
      <trkpt lat="43.42302" lon="6.431">
        <ele>65</ele>
        <time>2017-05-13T09:48:06Z</time>
      </trkpt>
      <trkpt lat="43.4231" lon="6.43108">
        <ele>65</ele>
        <time>2017-05-13T09:48:08Z</time>
      </trkpt>
      <trkpt lat="43.4232" lon="6.43116">
        <ele>65</ele>
        <time>2017-05-13T09:48:10Z</time>
      </trkpt>
      <trkpt lat="43.42328" lon="6.4312">
        <ele>66</ele>
        <time>2017-05-13T09:48:12Z</time>
      </trkpt>
      <trkpt lat="43.42336" lon="6.43122">
        <ele>63</ele>
        <time>2017-05-13T09:48:14Z</time>
      </trkpt>
      <trkpt lat="43.42346" lon="6.43125">
        <ele>63</ele>
        <time>2017-05-13T09:48:16Z</time>
      </trkpt>
      <trkpt lat="43.42357" lon="6.43126">
        <ele>63</ele>
        <time>2017-05-13T09:48:18Z</time>
      </trkpt>
      <trkpt lat="43.42367" lon="6.43127">
        <ele>63</ele>
        <time>2017-05-13T09:48:20Z</time>
      </trkpt>
      <trkpt lat="43.42377" lon="6.43128">
        <ele>63</ele>
        <time>2017-05-13T09:48:22Z</time>
      </trkpt>
      <trkpt lat="43.4239" lon="6.43128">
        <ele>63</ele>
        <time>2017-05-13T09:48:24Z</time>
      </trkpt>
      <trkpt lat="43.42403" lon="6.43126">
        <ele>62</ele>
        <time>2017-05-13T09:48:26Z</time>
      </trkpt>
      <trkpt lat="43.42424" lon="6.43121">
        <ele>61</ele>
        <time>2017-05-13T09:48:29Z</time>
      </trkpt>
      <trkpt lat="43.42431" lon="6.43118">
        <ele>61</ele>
        <time>2017-05-13T09:48:30Z</time>
      </trkpt>
      <trkpt lat="43.42444" lon="6.43113">
        <ele>61</ele>
        <time>2017-05-13T09:48:32Z</time>
      </trkpt>
      <trkpt lat="43.42458" lon="6.43111">
        <ele>61</ele>
        <time>2017-05-13T09:48:34Z</time>
      </trkpt>
      <trkpt lat="43.42471" lon="6.43109">
        <ele>61</ele>
        <time>2017-05-13T09:48:36Z</time>
      </trkpt>
      <trkpt lat="43.42483" lon="6.43107">
        <ele>61</ele>
        <time>2017-05-13T09:48:38Z</time>
      </trkpt>
      <trkpt lat="43.425" lon="6.43104">
        <ele>61</ele>
        <time>2017-05-13T09:48:41Z</time>
      </trkpt>
      <trkpt lat="43.42505" lon="6.43103">
        <ele>61</ele>
        <time>2017-05-13T09:48:42Z</time>
      </trkpt>
      <trkpt lat="43.42515" lon="6.43101">
        <ele>61</ele>
        <time>2017-05-13T09:48:44Z</time>
      </trkpt>
      <trkpt lat="43.42526" lon="6.43099">
        <ele>61</ele>
        <time>2017-05-13T09:48:46Z</time>
      </trkpt>
      <trkpt lat="43.42535" lon="6.43096">
        <ele>61</ele>
        <time>2017-05-13T09:48:48Z</time>
      </trkpt>
      <trkpt lat="43.42546" lon="6.43096">
        <ele>61</ele>
        <time>2017-05-13T09:48:50Z</time>
      </trkpt>
      <trkpt lat="43.42556" lon="6.43093">
        <ele>61</ele>
        <time>2017-05-13T09:48:52Z</time>
      </trkpt>
      <trkpt lat="43.42565" lon="6.43088">
        <ele>61</ele>
        <time>2017-05-13T09:48:54Z</time>
      </trkpt>
      <trkpt lat="43.42575" lon="6.4308">
        <ele>60</ele>
        <time>2017-05-13T09:48:56Z</time>
      </trkpt>
      <trkpt lat="43.42584" lon="6.43072">
        <ele>59</ele>
        <time>2017-05-13T09:48:58Z</time>
      </trkpt>
      <trkpt lat="43.42594" lon="6.43063">
        <ele>59</ele>
        <time>2017-05-13T09:49:00Z</time>
      </trkpt>
      <trkpt lat="43.42603" lon="6.43056">
        <ele>59</ele>
        <time>2017-05-13T09:49:02Z</time>
      </trkpt>
      <trkpt lat="43.42611" lon="6.4305">
        <ele>58</ele>
        <time>2017-05-13T09:49:04Z</time>
      </trkpt>
      <trkpt lat="43.42619" lon="6.43043">
        <ele>58</ele>
        <time>2017-05-13T09:49:06Z</time>
      </trkpt>
      <trkpt lat="43.42627" lon="6.43037">
        <ele>58</ele>
        <time>2017-05-13T09:49:08Z</time>
      </trkpt>
      <trkpt lat="43.42638" lon="6.43038">
        <ele>58</ele>
        <time>2017-05-13T09:49:11Z</time>
      </trkpt>
      <trkpt lat="43.42642" lon="6.43041">
        <ele>58</ele>
        <time>2017-05-13T09:49:12Z</time>
      </trkpt>
      <trkpt lat="43.42649" lon="6.43048">
        <ele>58</ele>
        <time>2017-05-13T09:49:14Z</time>
      </trkpt>
      <trkpt lat="43.42657" lon="6.43052">
        <ele>58</ele>
        <time>2017-05-13T09:49:16Z</time>
      </trkpt>
      <trkpt lat="43.42663" lon="6.43057">
        <ele>58</ele>
        <time>2017-05-13T09:49:18Z</time>
      </trkpt>
      <trkpt lat="43.42671" lon="6.43063">
        <ele>58</ele>
        <time>2017-05-13T09:49:20Z</time>
      </trkpt>
      <trkpt lat="43.42679" lon="6.43069">
        <ele>58</ele>
        <time>2017-05-13T09:49:22Z</time>
      </trkpt>
      <trkpt lat="43.42688" lon="6.43075">
        <ele>58</ele>
        <time>2017-05-13T09:49:24Z</time>
      </trkpt>
      <trkpt lat="43.42698" lon="6.43087">
        <ele>59</ele>
        <time>2017-05-13T09:49:26Z</time>
      </trkpt>
      <trkpt lat="43.42706" lon="6.43098">
        <ele>60</ele>
        <time>2017-05-13T09:49:28Z</time>
      </trkpt>
      <trkpt lat="43.42714" lon="6.43108">
        <ele>60</ele>
        <time>2017-05-13T09:49:30Z</time>
      </trkpt>
      <trkpt lat="43.4272" lon="6.43123">
        <ele>60</ele>
        <time>2017-05-13T09:49:33Z</time>
      </trkpt>
      <trkpt lat="43.4272" lon="6.43129">
        <ele>60</ele>
        <time>2017-05-13T09:49:34Z</time>
      </trkpt>
      <trkpt lat="43.42721" lon="6.4314">
        <ele>60</ele>
        <time>2017-05-13T09:49:36Z</time>
      </trkpt>
      <trkpt lat="43.42727" lon="6.43149">
        <ele>60</ele>
        <time>2017-05-13T09:49:38Z</time>
      </trkpt>
      <trkpt lat="43.42734" lon="6.43158">
        <ele>61</ele>
        <time>2017-05-13T09:49:40Z</time>
      </trkpt>
      <trkpt lat="43.42741" lon="6.43167">
        <ele>62</ele>
        <time>2017-05-13T09:49:42Z</time>
      </trkpt>
      <trkpt lat="43.42746" lon="6.43177">
        <ele>62</ele>
        <time>2017-05-13T09:49:44Z</time>
      </trkpt>
      <trkpt lat="43.4275" lon="6.43185">
        <ele>62</ele>
        <time>2017-05-13T09:49:46Z</time>
      </trkpt>
      <trkpt lat="43.42761" lon="6.432">
        <ele>61</ele>
        <time>2017-05-13T09:49:49Z</time>
      </trkpt>
      <trkpt lat="43.42768" lon="6.43209">
        <ele>61</ele>
        <time>2017-05-13T09:49:51Z</time>
      </trkpt>
      <trkpt lat="43.42772" lon="6.43213">
        <ele>61</ele>
        <time>2017-05-13T09:49:52Z</time>
      </trkpt>
      <trkpt lat="43.42778" lon="6.43222">
        <ele>61</ele>
        <time>2017-05-13T09:49:54Z</time>
      </trkpt>
      <trkpt lat="43.42786" lon="6.43228">
        <ele>61</ele>
        <time>2017-05-13T09:49:56Z</time>
      </trkpt>
      <trkpt lat="43.42794" lon="6.43237">
        <ele>61</ele>
        <time>2017-05-13T09:49:58Z</time>
      </trkpt>
      <trkpt lat="43.42801" lon="6.43245">
        <ele>61</ele>
        <time>2017-05-13T09:50:00Z</time>
      </trkpt>
      <trkpt lat="43.42809" lon="6.43253">
        <ele>62</ele>
        <time>2017-05-13T09:50:02Z</time>
      </trkpt>
      <trkpt lat="43.42816" lon="6.43262">
        <ele>62</ele>
        <time>2017-05-13T09:50:04Z</time>
      </trkpt>
      <trkpt lat="43.42824" lon="6.4327">
        <ele>62</ele>
        <time>2017-05-13T09:50:06Z</time>
      </trkpt>
      <trkpt lat="43.42831" lon="6.43277">
        <ele>62</ele>
        <time>2017-05-13T09:50:08Z</time>
      </trkpt>
      <trkpt lat="43.42844" lon="6.43291">
        <ele>60</ele>
        <time>2017-05-13T09:50:11Z</time>
      </trkpt>
      <trkpt lat="43.42848" lon="6.43293">
        <ele>60</ele>
        <time>2017-05-13T09:50:12Z</time>
      </trkpt>
      <trkpt lat="43.42864" lon="6.43299">
        <ele>60</ele>
        <time>2017-05-13T09:50:15Z</time>
      </trkpt>
      <trkpt lat="43.42868" lon="6.43305">
        <ele>60</ele>
        <time>2017-05-13T09:50:16Z</time>
      </trkpt>
      <trkpt lat="43.42877" lon="6.43313">
        <ele>60</ele>
        <time>2017-05-13T09:50:18Z</time>
      </trkpt>
      <trkpt lat="43.42884" lon="6.43322">
        <ele>60</ele>
        <time>2017-05-13T09:50:20Z</time>
      </trkpt>
      <trkpt lat="43.42892" lon="6.43331">
        <ele>60</ele>
        <time>2017-05-13T09:50:22Z</time>
      </trkpt>
      <trkpt lat="43.42899" lon="6.43341">
        <ele>61</ele>
        <time>2017-05-13T09:50:24Z</time>
      </trkpt>
      <trkpt lat="43.42908" lon="6.43351">
        <ele>61</ele>
        <time>2017-05-13T09:50:26Z</time>
      </trkpt>
      <trkpt lat="43.42916" lon="6.43362">
        <ele>61</ele>
        <time>2017-05-13T09:50:28Z</time>
      </trkpt>
      <trkpt lat="43.42926" lon="6.4337">
        <ele>60</ele>
        <time>2017-05-13T09:50:30Z</time>
      </trkpt>
      <trkpt lat="43.42936" lon="6.43385">
        <ele>60</ele>
        <time>2017-05-13T09:50:33Z</time>
      </trkpt>
      <trkpt lat="43.42941" lon="6.4339">
        <ele>60</ele>
        <time>2017-05-13T09:50:34Z</time>
      </trkpt>
      <trkpt lat="43.42948" lon="6.43401">
        <ele>60</ele>
        <time>2017-05-13T09:50:36Z</time>
      </trkpt>
      <trkpt lat="43.42955" lon="6.43411">
        <ele>60</ele>
        <time>2017-05-13T09:50:38Z</time>
      </trkpt>
      <trkpt lat="43.42963" lon="6.43422">
        <ele>61</ele>
        <time>2017-05-13T09:50:40Z</time>
      </trkpt>
      <trkpt lat="43.42971" lon="6.43431">
        <ele>61</ele>
        <time>2017-05-13T09:50:42Z</time>
      </trkpt>
      <trkpt lat="43.42978" lon="6.43441">
        <ele>61</ele>
        <time>2017-05-13T09:50:44Z</time>
      </trkpt>
      <trkpt lat="43.42985" lon="6.43454">
        <ele>61</ele>
        <time>2017-05-13T09:50:46Z</time>
      </trkpt>
      <trkpt lat="43.42991" lon="6.43464">
        <ele>60</ele>
        <time>2017-05-13T09:50:48Z</time>
      </trkpt>
      <trkpt lat="43.42998" lon="6.43474">
        <ele>60</ele>
        <time>2017-05-13T09:50:50Z</time>
      </trkpt>
      <trkpt lat="43.43004" lon="6.43482">
        <ele>61</ele>
        <time>2017-05-13T09:50:52Z</time>
      </trkpt>
      <trkpt lat="43.4301" lon="6.4349">
        <ele>61</ele>
        <time>2017-05-13T09:50:54Z</time>
      </trkpt>
      <trkpt lat="43.43016" lon="6.43497">
        <ele>61</ele>
        <time>2017-05-13T09:50:56Z</time>
      </trkpt>
      <trkpt lat="43.43025" lon="6.43509">
        <ele>62</ele>
        <time>2017-05-13T09:50:59Z</time>
      </trkpt>
      <trkpt lat="43.43028" lon="6.43512">
        <ele>62</ele>
        <time>2017-05-13T09:51:00Z</time>
      </trkpt>
      <trkpt lat="43.43034" lon="6.43519">
        <ele>63</ele>
        <time>2017-05-13T09:51:02Z</time>
      </trkpt>
      <trkpt lat="43.43039" lon="6.43526">
        <ele>63</ele>
        <time>2017-05-13T09:51:04Z</time>
      </trkpt>
      <trkpt lat="43.43045" lon="6.43535">
        <ele>63</ele>
        <time>2017-05-13T09:51:06Z</time>
      </trkpt>
      <trkpt lat="43.43049" lon="6.43543">
        <ele>63</ele>
        <time>2017-05-13T09:51:08Z</time>
      </trkpt>
      <trkpt lat="43.43054" lon="6.43549">
        <ele>63</ele>
        <time>2017-05-13T09:51:10Z</time>
      </trkpt>
      <trkpt lat="43.43058" lon="6.43554">
        <ele>63</ele>
        <time>2017-05-13T09:51:12Z</time>
      </trkpt>
      <trkpt lat="43.43063" lon="6.43559">
        <ele>64</ele>
        <time>2017-05-13T09:51:14Z</time>
      </trkpt>
      <trkpt lat="43.43068" lon="6.43563">
        <ele>64</ele>
        <time>2017-05-13T09:51:16Z</time>
      </trkpt>
      <trkpt lat="43.43072" lon="6.43566">
        <ele>64</ele>
        <time>2017-05-13T09:51:18Z</time>
      </trkpt>
      <trkpt lat="43.43079" lon="6.43572">
        <ele>64</ele>
        <time>2017-05-13T09:51:21Z</time>
      </trkpt>
      <trkpt lat="43.43081" lon="6.43574">
        <ele>64</ele>
        <time>2017-05-13T09:51:22Z</time>
      </trkpt>
      <trkpt lat="43.43084" lon="6.43579">
        <ele>66</ele>
        <time>2017-05-13T09:51:24Z</time>
      </trkpt>
      <trkpt lat="43.43086" lon="6.43584">
        <ele>66</ele>
        <time>2017-05-13T09:51:26Z</time>
      </trkpt>
      <trkpt lat="43.43089" lon="6.43588">
        <ele>66</ele>
        <time>2017-05-13T09:51:28Z</time>
      </trkpt>
      <trkpt lat="43.43091" lon="6.43592">
        <ele>67</ele>
        <time>2017-05-13T09:51:30Z</time>
      </trkpt>
      <trkpt lat="43.43094" lon="6.43597">
        <ele>67</ele>
        <time>2017-05-13T09:51:32Z</time>
      </trkpt>
      <trkpt lat="43.43097" lon="6.43601">
        <ele>68</ele>
        <time>2017-05-13T09:51:34Z</time>
      </trkpt>
      <trkpt lat="43.431" lon="6.43606">
        <ele>68</ele>
        <time>2017-05-13T09:51:36Z</time>
      </trkpt>
      <trkpt lat="43.43105" lon="6.43611">
        <ele>68</ele>
        <time>2017-05-13T09:51:38Z</time>
      </trkpt>
      <trkpt lat="43.43108" lon="6.43615">
        <ele>69</ele>
        <time>2017-05-13T09:51:40Z</time>
      </trkpt>
      <trkpt lat="43.43112" lon="6.43619">
        <ele>69</ele>
        <time>2017-05-13T09:51:42Z</time>
      </trkpt>
      <trkpt lat="43.43115" lon="6.43624">
        <ele>69</ele>
        <time>2017-05-13T09:51:44Z</time>
      </trkpt>
      <trkpt lat="43.43119" lon="6.43628">
        <ele>69</ele>
        <time>2017-05-13T09:51:47Z</time>
      </trkpt>
      <trkpt lat="43.4312" lon="6.4363">
        <ele>69</ele>
        <time>2017-05-13T09:51:48Z</time>
      </trkpt>
      <trkpt lat="43.43123" lon="6.43634">
        <ele>69</ele>
        <time>2017-05-13T09:51:50Z</time>
      </trkpt>
      <trkpt lat="43.43124" lon="6.43644">
        <ele>70</ele>
        <time>2017-05-13T09:51:53Z</time>
      </trkpt>
      <trkpt lat="43.43123" lon="6.43648">
        <ele>70</ele>
        <time>2017-05-13T09:51:54Z</time>
      </trkpt>
      <trkpt lat="43.43119" lon="6.43655">
        <ele>69</ele>
        <time>2017-05-13T09:51:56Z</time>
      </trkpt>
      <trkpt lat="43.43114" lon="6.43662">
        <ele>69</ele>
        <time>2017-05-13T09:51:58Z</time>
      </trkpt>
      <trkpt lat="43.43111" lon="6.43671">
        <ele>71</ele>
        <time>2017-05-13T09:52:00Z</time>
      </trkpt>
      <trkpt lat="43.43112" lon="6.4368">
        <ele>72</ele>
        <time>2017-05-13T09:52:02Z</time>
      </trkpt>
      <trkpt lat="43.43118" lon="6.4369">
        <ele>72</ele>
        <time>2017-05-13T09:52:05Z</time>
      </trkpt>
      <trkpt lat="43.43121" lon="6.43692">
        <ele>73</ele>
        <time>2017-05-13T09:52:06Z</time>
      </trkpt>
      <trkpt lat="43.43127" lon="6.43696">
        <ele>73</ele>
        <time>2017-05-13T09:52:08Z</time>
      </trkpt>
      <trkpt lat="43.43133" lon="6.43698">
        <ele>73</ele>
        <time>2017-05-13T09:52:10Z</time>
      </trkpt>
      <trkpt lat="43.43138" lon="6.43698">
        <ele>73</ele>
        <time>2017-05-13T09:52:12Z</time>
      </trkpt>
      <trkpt lat="43.43144" lon="6.43697">
        <ele>73</ele>
        <time>2017-05-13T09:52:14Z</time>
      </trkpt>
      <trkpt lat="43.43151" lon="6.43698">
        <ele>73</ele>
        <time>2017-05-13T09:52:16Z</time>
      </trkpt>
      <trkpt lat="43.43157" lon="6.43701">
        <ele>73</ele>
        <time>2017-05-13T09:52:18Z</time>
      </trkpt>
      <trkpt lat="43.43163" lon="6.43705">
        <ele>73</ele>
        <time>2017-05-13T09:52:20Z</time>
      </trkpt>
      <trkpt lat="43.4317" lon="6.43713">
        <ele>73</ele>
        <time>2017-05-13T09:52:23Z</time>
      </trkpt>
      <trkpt lat="43.43175" lon="6.43718">
        <ele>73</ele>
        <time>2017-05-13T09:52:25Z</time>
      </trkpt>
      <trkpt lat="43.43178" lon="6.4372">
        <ele>74</ele>
        <time>2017-05-13T09:52:26Z</time>
      </trkpt>
      <trkpt lat="43.43184" lon="6.43725">
        <ele>74</ele>
        <time>2017-05-13T09:52:28Z</time>
      </trkpt>
      <trkpt lat="43.43188" lon="6.43729">
        <ele>74</ele>
        <time>2017-05-13T09:52:30Z</time>
      </trkpt>
      <trkpt lat="43.43192" lon="6.43735">
        <ele>74</ele>
        <time>2017-05-13T09:52:32Z</time>
      </trkpt>
      <trkpt lat="43.43197" lon="6.4374">
        <ele>74</ele>
        <time>2017-05-13T09:52:34Z</time>
      </trkpt>
      <trkpt lat="43.43201" lon="6.43744">
        <ele>73</ele>
        <time>2017-05-13T09:52:36Z</time>
      </trkpt>
      <trkpt lat="43.43206" lon="6.43749">
        <ele>73</ele>
        <time>2017-05-13T09:52:38Z</time>
      </trkpt>
      <trkpt lat="43.43212" lon="6.43754">
        <ele>75</ele>
        <time>2017-05-13T09:52:40Z</time>
      </trkpt>
      <trkpt lat="43.43217" lon="6.43758">
        <ele>75</ele>
        <time>2017-05-13T09:52:42Z</time>
      </trkpt>
      <trkpt lat="43.43222" lon="6.43763">
        <ele>75</ele>
        <time>2017-05-13T09:52:44Z</time>
      </trkpt>
      <trkpt lat="43.43227" lon="6.43767">
        <ele>75</ele>
        <time>2017-05-13T09:52:46Z</time>
      </trkpt>
      <trkpt lat="43.43232" lon="6.43772">
        <ele>75</ele>
        <time>2017-05-13T09:52:48Z</time>
      </trkpt>
      <trkpt lat="43.43238" lon="6.43777">
        <ele>75</ele>
        <time>2017-05-13T09:52:50Z</time>
      </trkpt>
      <trkpt lat="43.43244" lon="6.43783">
        <ele>75</ele>
        <time>2017-05-13T09:52:52Z</time>
      </trkpt>
      <trkpt lat="43.43252" lon="6.43792">
        <ele>75</ele>
        <time>2017-05-13T09:52:55Z</time>
      </trkpt>
      <trkpt lat="43.43255" lon="6.43795">
        <ele>75</ele>
        <time>2017-05-13T09:52:56Z</time>
      </trkpt>
      <trkpt lat="43.43261" lon="6.43801">
        <ele>75</ele>
        <time>2017-05-13T09:52:58Z</time>
      </trkpt>
      <trkpt lat="43.43267" lon="6.43807">
        <ele>75</ele>
        <time>2017-05-13T09:53:00Z</time>
      </trkpt>
      <trkpt lat="43.43274" lon="6.43812">
        <ele>75</ele>
        <time>2017-05-13T09:53:02Z</time>
      </trkpt>
      <trkpt lat="43.4328" lon="6.43817">
        <ele>75</ele>
        <time>2017-05-13T09:53:04Z</time>
      </trkpt>
      <trkpt lat="43.43286" lon="6.43824">
        <ele>76</ele>
        <time>2017-05-13T09:53:06Z</time>
      </trkpt>
      <trkpt lat="43.43292" lon="6.4383">
        <ele>76</ele>
        <time>2017-05-13T09:53:08Z</time>
      </trkpt>
      <trkpt lat="43.43297" lon="6.43837">
        <ele>79</ele>
        <time>2017-05-13T09:53:10Z</time>
      </trkpt>
      <trkpt lat="43.43307" lon="6.43846">
        <ele>79</ele>
        <time>2017-05-13T09:53:13Z</time>
      </trkpt>
      <trkpt lat="43.43311" lon="6.43849">
        <ele>79</ele>
        <time>2017-05-13T09:53:14Z</time>
      </trkpt>
      <trkpt lat="43.43319" lon="6.43855">
        <ele>79</ele>
        <time>2017-05-13T09:53:16Z</time>
      </trkpt>
      <trkpt lat="43.43326" lon="6.43862">
        <ele>79</ele>
        <time>2017-05-13T09:53:18Z</time>
      </trkpt>
      <trkpt lat="43.43331" lon="6.43869">
        <ele>80</ele>
        <time>2017-05-13T09:53:20Z</time>
      </trkpt>
      <trkpt lat="43.43338" lon="6.43876">
        <ele>81</ele>
        <time>2017-05-13T09:53:22Z</time>
      </trkpt>
      <trkpt lat="43.43344" lon="6.43883">
        <ele>82</ele>
        <time>2017-05-13T09:53:24Z</time>
      </trkpt>
      <trkpt lat="43.43349" lon="6.4389">
        <ele>82</ele>
        <time>2017-05-13T09:53:26Z</time>
      </trkpt>
      <trkpt lat="43.43355" lon="6.43898">
        <ele>82</ele>
        <time>2017-05-13T09:53:28Z</time>
      </trkpt>
      <trkpt lat="43.43361" lon="6.43905">
        <ele>82</ele>
        <time>2017-05-13T09:53:30Z</time>
      </trkpt>
      <trkpt lat="43.43366" lon="6.43912">
        <ele>82</ele>
        <time>2017-05-13T09:53:32Z</time>
      </trkpt>
      <trkpt lat="43.43371" lon="6.43919">
        <ele>83</ele>
        <time>2017-05-13T09:53:34Z</time>
      </trkpt>
      <trkpt lat="43.43376" lon="6.43927">
        <ele>84</ele>
        <time>2017-05-13T09:53:36Z</time>
      </trkpt>
      <trkpt lat="43.4338" lon="6.43936">
        <ele>84</ele>
        <time>2017-05-13T09:53:38Z</time>
      </trkpt>
      <trkpt lat="43.43387" lon="6.4395">
        <ele>84</ele>
        <time>2017-05-13T09:53:41Z</time>
      </trkpt>
      <trkpt lat="43.43392" lon="6.43958">
        <ele>84</ele>
        <time>2017-05-13T09:53:43Z</time>
      </trkpt>
      <trkpt lat="43.43394" lon="6.43962">
        <ele>84</ele>
        <time>2017-05-13T09:53:44Z</time>
      </trkpt>
      <trkpt lat="43.43399" lon="6.43972">
        <ele>84</ele>
        <time>2017-05-13T09:53:46Z</time>
      </trkpt>
      <trkpt lat="43.43406" lon="6.43991">
        <ele>83</ele>
        <time>2017-05-13T09:53:49Z</time>
      </trkpt>
      <trkpt lat="43.43408" lon="6.43998">
        <ele>83</ele>
        <time>2017-05-13T09:53:50Z</time>
      </trkpt>
      <trkpt lat="43.43412" lon="6.4401">
        <ele>84</ele>
        <time>2017-05-13T09:53:52Z</time>
      </trkpt>
      <trkpt lat="43.43417" lon="6.4402">
        <ele>83</ele>
        <time>2017-05-13T09:53:54Z</time>
      </trkpt>
      <trkpt lat="43.43425" lon="6.44041">
        <ele>84</ele>
        <time>2017-05-13T09:53:57Z</time>
      </trkpt>
      <trkpt lat="43.43428" lon="6.44048">
        <ele>84</ele>
        <time>2017-05-13T09:53:58Z</time>
      </trkpt>
      <trkpt lat="43.43432" lon="6.44059">
        <ele>84</ele>
        <time>2017-05-13T09:54:00Z</time>
      </trkpt>
      <trkpt lat="43.43438" lon="6.44073">
        <ele>84</ele>
        <time>2017-05-13T09:54:02Z</time>
      </trkpt>
      <trkpt lat="43.43446" lon="6.44096">
        <ele>83</ele>
        <time>2017-05-13T09:54:05Z</time>
      </trkpt>
      <trkpt lat="43.43449" lon="6.44104">
        <ele>83</ele>
        <time>2017-05-13T09:54:06Z</time>
      </trkpt>
      <trkpt lat="43.43455" lon="6.4412">
        <ele>83</ele>
        <time>2017-05-13T09:54:08Z</time>
      </trkpt>
      <trkpt lat="43.4346" lon="6.44136">
        <ele>82</ele>
        <time>2017-05-13T09:54:10Z</time>
      </trkpt>
      <trkpt lat="43.43468" lon="6.44161">
        <ele>82</ele>
        <time>2017-05-13T09:54:13Z</time>
      </trkpt>
      <trkpt lat="43.43471" lon="6.44168">
        <ele>81</ele>
        <time>2017-05-13T09:54:14Z</time>
      </trkpt>
      <trkpt lat="43.43477" lon="6.44186">
        <ele>80</ele>
        <time>2017-05-13T09:54:16Z</time>
      </trkpt>
      <trkpt lat="43.43482" lon="6.44205">
        <ele>80</ele>
        <time>2017-05-13T09:54:18Z</time>
      </trkpt>
      <trkpt lat="43.43487" lon="6.44222">
        <ele>79</ele>
        <time>2017-05-13T09:54:20Z</time>
      </trkpt>
      <trkpt lat="43.43496" lon="6.4425">
        <ele>77</ele>
        <time>2017-05-13T09:54:23Z</time>
      </trkpt>
      <trkpt lat="43.43499" lon="6.44259">
        <ele>77</ele>
        <time>2017-05-13T09:54:24Z</time>
      </trkpt>
      <trkpt lat="43.43506" lon="6.44278">
        <ele>75</ele>
        <time>2017-05-13T09:54:26Z</time>
      </trkpt>
      <trkpt lat="43.43512" lon="6.44298">
        <ele>75</ele>
        <time>2017-05-13T09:54:28Z</time>
      </trkpt>
      <trkpt lat="43.43517" lon="6.44318">
        <ele>76</ele>
        <time>2017-05-13T09:54:30Z</time>
      </trkpt>
      <trkpt lat="43.43523" lon="6.44336">
        <ele>77</ele>
        <time>2017-05-13T09:54:32Z</time>
      </trkpt>
      <trkpt lat="43.43528" lon="6.44354">
        <ele>77</ele>
        <time>2017-05-13T09:54:34Z</time>
      </trkpt>
      <trkpt lat="43.43534" lon="6.44372">
        <ele>78</ele>
        <time>2017-05-13T09:54:36Z</time>
      </trkpt>
      <trkpt lat="43.43541" lon="6.4439">
        <ele>78</ele>
        <time>2017-05-13T09:54:38Z</time>
      </trkpt>
      <trkpt lat="43.43549" lon="6.44405">
        <ele>79</ele>
        <time>2017-05-13T09:54:40Z</time>
      </trkpt>
      <trkpt lat="43.43553" lon="6.44419">
        <ele>81</ele>
        <time>2017-05-13T09:54:42Z</time>
      </trkpt>
      <trkpt lat="43.43558" lon="6.44437">
        <ele>81</ele>
        <time>2017-05-13T09:54:44Z</time>
      </trkpt>
      <trkpt lat="43.43566" lon="6.44454">
        <ele>81</ele>
        <time>2017-05-13T09:54:46Z</time>
      </trkpt>
      <trkpt lat="43.43574" lon="6.44469">
        <ele>80</ele>
        <time>2017-05-13T09:54:48Z</time>
      </trkpt>
      <trkpt lat="43.4358" lon="6.44485">
        <ele>79</ele>
        <time>2017-05-13T09:54:50Z</time>
      </trkpt>
      <trkpt lat="43.43588" lon="6.44503">
        <ele>77</ele>
        <time>2017-05-13T09:54:52Z</time>
      </trkpt>
      <trkpt lat="43.43599" lon="6.44528">
        <ele>77</ele>
        <time>2017-05-13T09:54:55Z</time>
      </trkpt>
      <trkpt lat="43.43603" lon="6.44536">
        <ele>77</ele>
        <time>2017-05-13T09:54:56Z</time>
      </trkpt>
      <trkpt lat="43.43612" lon="6.44552">
        <ele>77</ele>
        <time>2017-05-13T09:54:58Z</time>
      </trkpt>
      <trkpt lat="43.43625" lon="6.44577">
        <ele>76</ele>
        <time>2017-05-13T09:55:01Z</time>
      </trkpt>
      <trkpt lat="43.4363" lon="6.44587">
        <ele>75</ele>
        <time>2017-05-13T09:55:02Z</time>
      </trkpt>
      <trkpt lat="43.4364" lon="6.44606">
        <ele>75</ele>
        <time>2017-05-13T09:55:04Z</time>
      </trkpt>
      <trkpt lat="43.43659" lon="6.44636">
        <ele>73</ele>
        <time>2017-05-13T09:55:07Z</time>
      </trkpt>
      <trkpt lat="43.43664" lon="6.44645">
        <ele>72</ele>
        <time>2017-05-13T09:55:08Z</time>
      </trkpt>
      <trkpt lat="43.43676" lon="6.44667">
        <ele>68</ele>
        <time>2017-05-13T09:55:10Z</time>
      </trkpt>
      <trkpt lat="43.43685" lon="6.4469">
        <ele>67</ele>
        <time>2017-05-13T09:55:12Z</time>
      </trkpt>
      <trkpt lat="43.43699" lon="6.44713">
        <ele>66</ele>
        <time>2017-05-13T09:55:14Z</time>
      </trkpt>
      <trkpt lat="43.43713" lon="6.44736">
        <ele>65</ele>
        <time>2017-05-13T09:55:16Z</time>
      </trkpt>
      <trkpt lat="43.43726" lon="6.44759">
        <ele>61</ele>
        <time>2017-05-13T09:55:18Z</time>
      </trkpt>
      <trkpt lat="43.43747" lon="6.44795">
        <ele>60</ele>
        <time>2017-05-13T09:55:21Z</time>
      </trkpt>
      <trkpt lat="43.43754" lon="6.44807">
        <ele>55</ele>
        <time>2017-05-13T09:55:22Z</time>
      </trkpt>
      <trkpt lat="43.43768" lon="6.4483">
        <ele>54</ele>
        <time>2017-05-13T09:55:24Z</time>
      </trkpt>
      <trkpt lat="43.43782" lon="6.44854">
        <ele>52</ele>
        <time>2017-05-13T09:55:26Z</time>
      </trkpt>
      <trkpt lat="43.43796" lon="6.44877">
        <ele>51</ele>
        <time>2017-05-13T09:55:28Z</time>
      </trkpt>
      <trkpt lat="43.43809" lon="6.449">
        <ele>51</ele>
        <time>2017-05-13T09:55:30Z</time>
      </trkpt>
      <trkpt lat="43.43821" lon="6.44923">
        <ele>50</ele>
        <time>2017-05-13T09:55:32Z</time>
      </trkpt>
      <trkpt lat="43.43832" lon="6.44945">
        <ele>50</ele>
        <time>2017-05-13T09:55:34Z</time>
      </trkpt>
      <trkpt lat="43.43843" lon="6.44967">
        <ele>48</ele>
        <time>2017-05-13T09:55:36Z</time>
      </trkpt>
      <trkpt lat="43.43852" lon="6.44987">
        <ele>48</ele>
        <time>2017-05-13T09:55:38Z</time>
      </trkpt>
      <trkpt lat="43.43866" lon="6.45017">
        <ele>47</ele>
        <time>2017-05-13T09:55:41Z</time>
      </trkpt>
      <trkpt lat="43.43871" lon="6.45028">
        <ele>47</ele>
        <time>2017-05-13T09:55:42Z</time>
      </trkpt>
      <trkpt lat="43.4388" lon="6.45047">
        <ele>47</ele>
        <time>2017-05-13T09:55:44Z</time>
      </trkpt>
      <trkpt lat="43.43891" lon="6.45076">
        <ele>46</ele>
        <time>2017-05-13T09:55:47Z</time>
      </trkpt>
      <trkpt lat="43.43896" lon="6.45084">
        <ele>47</ele>
        <time>2017-05-13T09:55:48Z</time>
      </trkpt>
      <trkpt lat="43.43904" lon="6.45104">
        <ele>47</ele>
        <time>2017-05-13T09:55:50Z</time>
      </trkpt>
      <trkpt lat="43.4391" lon="6.45122">
        <ele>47</ele>
        <time>2017-05-13T09:55:52Z</time>
      </trkpt>
      <trkpt lat="43.43917" lon="6.45139">
        <ele>47</ele>
        <time>2017-05-13T09:55:54Z</time>
      </trkpt>
      <trkpt lat="43.43924" lon="6.45156">
        <ele>47</ele>
        <time>2017-05-13T09:55:56Z</time>
      </trkpt>
      <trkpt lat="43.43931" lon="6.45175">
        <ele>48</ele>
        <time>2017-05-13T09:55:58Z</time>
      </trkpt>
      <trkpt lat="43.4394" lon="6.45195">
        <ele>47</ele>
        <time>2017-05-13T09:56:01Z</time>
      </trkpt>
      <trkpt lat="43.43944" lon="6.45204">
        <ele>47</ele>
        <time>2017-05-13T09:56:02Z</time>
      </trkpt>
      <trkpt lat="43.43951" lon="6.4522">
        <ele>47</ele>
        <time>2017-05-13T09:56:04Z</time>
      </trkpt>
      <trkpt lat="43.43957" lon="6.45236">
        <ele>47</ele>
        <time>2017-05-13T09:56:06Z</time>
      </trkpt>
      <trkpt lat="43.43963" lon="6.4525">
        <ele>47</ele>
        <time>2017-05-13T09:56:08Z</time>
      </trkpt>
      <trkpt lat="43.4397" lon="6.45267">
        <ele>47</ele>
        <time>2017-05-13T09:56:10Z</time>
      </trkpt>
      <trkpt lat="43.43977" lon="6.45281">
        <ele>47</ele>
        <time>2017-05-13T09:56:12Z</time>
      </trkpt>
      <trkpt lat="43.43984" lon="6.45296">
        <ele>48</ele>
        <time>2017-05-13T09:56:14Z</time>
      </trkpt>
      <trkpt lat="43.43988" lon="6.4531">
        <ele>48</ele>
        <time>2017-05-13T09:56:16Z</time>
      </trkpt>
      <trkpt lat="43.43993" lon="6.45322">
        <ele>48</ele>
        <time>2017-05-13T09:56:18Z</time>
      </trkpt>
      <trkpt lat="43.43999" lon="6.45336">
        <ele>48</ele>
        <time>2017-05-13T09:56:20Z</time>
      </trkpt>
      <trkpt lat="43.44004" lon="6.4535">
        <ele>48</ele>
        <time>2017-05-13T09:56:22Z</time>
      </trkpt>
      <trkpt lat="43.44015" lon="6.45371">
        <ele>48</ele>
        <time>2017-05-13T09:56:25Z</time>
      </trkpt>
      <trkpt lat="43.44016" lon="6.45378">
        <ele>48</ele>
        <time>2017-05-13T09:56:26Z</time>
      </trkpt>
      <trkpt lat="43.44021" lon="6.45391">
        <ele>48</ele>
        <time>2017-05-13T09:56:28Z</time>
      </trkpt>
      <trkpt lat="43.44028" lon="6.45406">
        <ele>48</ele>
        <time>2017-05-13T09:56:30Z</time>
      </trkpt>
      <trkpt lat="43.44036" lon="6.45427">
        <ele>48</ele>
        <time>2017-05-13T09:56:33Z</time>
      </trkpt>
      <trkpt lat="43.4404" lon="6.45444">
        <ele>48</ele>
        <time>2017-05-13T09:56:35Z</time>
      </trkpt>
      <trkpt lat="43.44043" lon="6.4545">
        <ele>48</ele>
        <time>2017-05-13T09:56:36Z</time>
      </trkpt>
      <trkpt lat="43.44051" lon="6.45464">
        <ele>48</ele>
        <time>2017-05-13T09:56:38Z</time>
      </trkpt>
      <trkpt lat="43.44057" lon="6.45479">
        <ele>49</ele>
        <time>2017-05-13T09:56:40Z</time>
      </trkpt>
      <trkpt lat="43.44063" lon="6.45493">
        <ele>49</ele>
        <time>2017-05-13T09:56:42Z</time>
      </trkpt>
      <trkpt lat="43.44068" lon="6.45508">
        <ele>49</ele>
        <time>2017-05-13T09:56:44Z</time>
      </trkpt>
      <trkpt lat="43.44072" lon="6.45521">
        <ele>49</ele>
        <time>2017-05-13T09:56:46Z</time>
      </trkpt>
      <trkpt lat="43.44077" lon="6.45536">
        <ele>49</ele>
        <time>2017-05-13T09:56:48Z</time>
      </trkpt>
      <trkpt lat="43.44082" lon="6.45549">
        <ele>49</ele>
        <time>2017-05-13T09:56:50Z</time>
      </trkpt>
      <trkpt lat="43.44088" lon="6.45564">
        <ele>49</ele>
        <time>2017-05-13T09:56:52Z</time>
      </trkpt>
      <trkpt lat="43.44093" lon="6.45578">
        <ele>49</ele>
        <time>2017-05-13T09:56:54Z</time>
      </trkpt>
      <trkpt lat="43.44098" lon="6.45593">
        <ele>49</ele>
        <time>2017-05-13T09:56:56Z</time>
      </trkpt>
      <trkpt lat="43.44104" lon="6.45608">
        <ele>48</ele>
        <time>2017-05-13T09:56:58Z</time>
      </trkpt>
      <trkpt lat="43.4411" lon="6.45621">
        <ele>48</ele>
        <time>2017-05-13T09:57:00Z</time>
      </trkpt>
      <trkpt lat="43.44117" lon="6.45636">
        <ele>47</ele>
        <time>2017-05-13T09:57:02Z</time>
      </trkpt>
      <trkpt lat="43.44123" lon="6.4565">
        <ele>47</ele>
        <time>2017-05-13T09:57:04Z</time>
      </trkpt>
      <trkpt lat="43.44128" lon="6.45665">
        <ele>47</ele>
        <time>2017-05-13T09:57:06Z</time>
      </trkpt>
      <trkpt lat="43.44133" lon="6.45679">
        <ele>47</ele>
        <time>2017-05-13T09:57:08Z</time>
      </trkpt>
      <trkpt lat="43.44137" lon="6.4569">
        <ele>47</ele>
        <time>2017-05-13T09:57:10Z</time>
      </trkpt>
      <trkpt lat="43.44142" lon="6.45704">
        <ele>47</ele>
        <time>2017-05-13T09:57:12Z</time>
      </trkpt>
      <trkpt lat="43.44149" lon="6.45719">
        <ele>47</ele>
        <time>2017-05-13T09:57:14Z</time>
      </trkpt>
      <trkpt lat="43.44154" lon="6.45732">
        <ele>47</ele>
        <time>2017-05-13T09:57:16Z</time>
      </trkpt>
      <trkpt lat="43.44157" lon="6.45746">
        <ele>48</ele>
        <time>2017-05-13T09:57:18Z</time>
      </trkpt>
      <trkpt lat="43.44161" lon="6.45759">
        <ele>47</ele>
        <time>2017-05-13T09:57:20Z</time>
      </trkpt>
      <trkpt lat="43.44167" lon="6.45772">
        <ele>47</ele>
        <time>2017-05-13T09:57:22Z</time>
      </trkpt>
      <trkpt lat="43.44172" lon="6.45786">
        <ele>47</ele>
        <time>2017-05-13T09:57:24Z</time>
      </trkpt>
      <trkpt lat="43.44177" lon="6.45802">
        <ele>47</ele>
        <time>2017-05-13T09:57:26Z</time>
      </trkpt>
      <trkpt lat="43.44181" lon="6.45817">
        <ele>47</ele>
        <time>2017-05-13T09:57:28Z</time>
      </trkpt>
      <trkpt lat="43.44184" lon="6.45832">
        <ele>47</ele>
        <time>2017-05-13T09:57:30Z</time>
      </trkpt>
      <trkpt lat="43.44187" lon="6.45847">
        <ele>46</ele>
        <time>2017-05-13T09:57:32Z</time>
      </trkpt>
      <trkpt lat="43.44192" lon="6.45863">
        <ele>46</ele>
        <time>2017-05-13T09:57:34Z</time>
      </trkpt>
      <trkpt lat="43.44195" lon="6.45878">
        <ele>46</ele>
        <time>2017-05-13T09:57:36Z</time>
      </trkpt>
      <trkpt lat="43.44198" lon="6.45894">
        <ele>46</ele>
        <time>2017-05-13T09:57:38Z</time>
      </trkpt>
      <trkpt lat="43.44201" lon="6.45909">
        <ele>46</ele>
        <time>2017-05-13T09:57:40Z</time>
      </trkpt>
      <trkpt lat="43.44208" lon="6.45932">
        <ele>45</ele>
        <time>2017-05-13T09:57:43Z</time>
      </trkpt>
      <trkpt lat="43.44212" lon="6.45939">
        <ele>46</ele>
        <time>2017-05-13T09:57:44Z</time>
      </trkpt>
      <trkpt lat="43.44215" lon="6.45953">
        <ele>46</ele>
        <time>2017-05-13T09:57:46Z</time>
      </trkpt>
      <trkpt lat="43.44218" lon="6.45968">
        <ele>46</ele>
        <time>2017-05-13T09:57:48Z</time>
      </trkpt>
      <trkpt lat="43.44221" lon="6.45983">
        <ele>46</ele>
        <time>2017-05-13T09:57:50Z</time>
      </trkpt>
      <trkpt lat="43.44226" lon="6.45999">
        <ele>46</ele>
        <time>2017-05-13T09:57:52Z</time>
      </trkpt>
      <trkpt lat="43.4423" lon="6.46014">
        <ele>45</ele>
        <time>2017-05-13T09:57:54Z</time>
      </trkpt>
      <trkpt lat="43.44233" lon="6.46029">
        <ele>45</ele>
        <time>2017-05-13T09:57:56Z</time>
      </trkpt>
      <trkpt lat="43.44237" lon="6.46045">
        <ele>45</ele>
        <time>2017-05-13T09:57:58Z</time>
      </trkpt>
      <trkpt lat="43.4424" lon="6.46063">
        <ele>45</ele>
        <time>2017-05-13T09:58:00Z</time>
      </trkpt>
      <trkpt lat="43.44245" lon="6.46077">
        <ele>45</ele>
        <time>2017-05-13T09:58:02Z</time>
      </trkpt>
      <trkpt lat="43.44247" lon="6.46091">
        <ele>45</ele>
        <time>2017-05-13T09:58:04Z</time>
      </trkpt>
      <trkpt lat="43.44251" lon="6.46105">
        <ele>45</ele>
        <time>2017-05-13T09:58:06Z</time>
      </trkpt>
      <trkpt lat="43.44256" lon="6.46118">
        <ele>44</ele>
        <time>2017-05-13T09:58:08Z</time>
      </trkpt>
      <trkpt lat="43.44263" lon="6.46132">
        <ele>44</ele>
        <time>2017-05-13T09:58:10Z</time>
      </trkpt>
      <trkpt lat="43.44265" lon="6.46145">
        <ele>44</ele>
        <time>2017-05-13T09:58:12Z</time>
      </trkpt>
      <trkpt lat="43.44269" lon="6.46159">
        <ele>44</ele>
        <time>2017-05-13T09:58:14Z</time>
      </trkpt>
      <trkpt lat="43.44272" lon="6.46175">
        <ele>44</ele>
        <time>2017-05-13T09:58:16Z</time>
      </trkpt>
      <trkpt lat="43.44276" lon="6.4619">
        <ele>44</ele>
        <time>2017-05-13T09:58:18Z</time>
      </trkpt>
      <trkpt lat="43.44278" lon="6.46206">
        <ele>44</ele>
        <time>2017-05-13T09:58:20Z</time>
      </trkpt>
      <trkpt lat="43.44283" lon="6.4622">
        <ele>44</ele>
        <time>2017-05-13T09:58:22Z</time>
      </trkpt>
      <trkpt lat="43.44288" lon="6.46242">
        <ele>44</ele>
        <time>2017-05-13T09:58:25Z</time>
      </trkpt>
      <trkpt lat="43.44292" lon="6.4625">
        <ele>44</ele>
        <time>2017-05-13T09:58:26Z</time>
      </trkpt>
      <trkpt lat="43.44298" lon="6.46273">
        <ele>45</ele>
        <time>2017-05-13T09:58:29Z</time>
      </trkpt>
      <trkpt lat="43.44301" lon="6.46278">
        <ele>45</ele>
        <time>2017-05-13T09:58:30Z</time>
      </trkpt>
      <trkpt lat="43.44306" lon="6.463">
        <ele>45</ele>
        <time>2017-05-13T09:58:33Z</time>
      </trkpt>
      <trkpt lat="43.44308" lon="6.46306">
        <ele>46</ele>
        <time>2017-05-13T09:58:34Z</time>
      </trkpt>
      <trkpt lat="43.4431" lon="6.4632">
        <ele>46</ele>
        <time>2017-05-13T09:58:36Z</time>
      </trkpt>
      <trkpt lat="43.44313" lon="6.46336">
        <ele>46</ele>
        <time>2017-05-13T09:58:38Z</time>
      </trkpt>
      <trkpt lat="43.44316" lon="6.4635">
        <ele>46</ele>
        <time>2017-05-13T09:58:40Z</time>
      </trkpt>
      <trkpt lat="43.4432" lon="6.46371">
        <ele>45</ele>
        <time>2017-05-13T09:58:43Z</time>
      </trkpt>
      <trkpt lat="43.44321" lon="6.46385">
        <ele>45</ele>
        <time>2017-05-13T09:58:45Z</time>
      </trkpt>
      <trkpt lat="43.44322" lon="6.46391">
        <ele>45</ele>
        <time>2017-05-13T09:58:46Z</time>
      </trkpt>
      <trkpt lat="43.44323" lon="6.46405">
        <ele>46</ele>
        <time>2017-05-13T09:58:48Z</time>
      </trkpt>
      <trkpt lat="43.44325" lon="6.46418">
        <ele>45</ele>
        <time>2017-05-13T09:58:50Z</time>
      </trkpt>
      <trkpt lat="43.4433" lon="6.46432">
        <ele>45</ele>
        <time>2017-05-13T09:58:52Z</time>
      </trkpt>
      <trkpt lat="43.44333" lon="6.46451">
        <ele>45</ele>
        <time>2017-05-13T09:58:55Z</time>
      </trkpt>
      <trkpt lat="43.44335" lon="6.46458">
        <ele>45</ele>
        <time>2017-05-13T09:58:56Z</time>
      </trkpt>
      <trkpt lat="43.44338" lon="6.46472">
        <ele>45</ele>
        <time>2017-05-13T09:58:58Z</time>
      </trkpt>
      <trkpt lat="43.4434" lon="6.46484">
        <ele>46</ele>
        <time>2017-05-13T09:59:00Z</time>
      </trkpt>
      <trkpt lat="43.44342" lon="6.46495">
        <ele>46</ele>
        <time>2017-05-13T09:59:02Z</time>
      </trkpt>
      <trkpt lat="43.44343" lon="6.46504">
        <ele>46</ele>
        <time>2017-05-13T09:59:04Z</time>
      </trkpt>
      <trkpt lat="43.44346" lon="6.4652">
        <ele>45</ele>
        <time>2017-05-13T09:59:06Z</time>
      </trkpt>
      <trkpt lat="43.4435" lon="6.46532">
        <ele>45</ele>
        <time>2017-05-13T09:59:08Z</time>
      </trkpt>
      <trkpt lat="43.44353" lon="6.46547">
        <ele>45</ele>
        <time>2017-05-13T09:59:10Z</time>
      </trkpt>
      <trkpt lat="43.44356" lon="6.46556">
        <ele>45</ele>
        <time>2017-05-13T09:59:12Z</time>
      </trkpt>
      <trkpt lat="43.44358" lon="6.4657">
        <ele>45</ele>
        <time>2017-05-13T09:59:14Z</time>
      </trkpt>
      <trkpt lat="43.44363" lon="6.46589">
        <ele>45</ele>
        <time>2017-05-13T09:59:17Z</time>
      </trkpt>
      <trkpt lat="43.44365" lon="6.46596">
        <ele>45</ele>
        <time>2017-05-13T09:59:18Z</time>
      </trkpt>
      <trkpt lat="43.44369" lon="6.46614">
        <ele>45</ele>
        <time>2017-05-13T09:59:21Z</time>
      </trkpt>
      <trkpt lat="43.44371" lon="6.46624">
        <ele>45</ele>
        <time>2017-05-13T09:59:23Z</time>
      </trkpt>
      <trkpt lat="43.44375" lon="6.46637">
        <ele>45</ele>
        <time>2017-05-13T09:59:25Z</time>
      </trkpt>
      <trkpt lat="43.44378" lon="6.46645">
        <ele>45</ele>
        <time>2017-05-13T09:59:26Z</time>
      </trkpt>
      <trkpt lat="43.44381" lon="6.46658">
        <ele>45</ele>
        <time>2017-05-13T09:59:28Z</time>
      </trkpt>
      <trkpt lat="43.44384" lon="6.4667">
        <ele>45</ele>
        <time>2017-05-13T09:59:30Z</time>
      </trkpt>
      <trkpt lat="43.44387" lon="6.46684">
        <ele>45</ele>
        <time>2017-05-13T09:59:32Z</time>
      </trkpt>
      <trkpt lat="43.44392" lon="6.46697">
        <ele>45</ele>
        <time>2017-05-13T09:59:34Z</time>
      </trkpt>
      <trkpt lat="43.44399" lon="6.46716">
        <ele>45</ele>
        <time>2017-05-13T09:59:37Z</time>
      </trkpt>
      <trkpt lat="43.44402" lon="6.46722">
        <ele>45</ele>
        <time>2017-05-13T09:59:38Z</time>
      </trkpt>
      <trkpt lat="43.44406" lon="6.46733">
        <ele>45</ele>
        <time>2017-05-13T09:59:40Z</time>
      </trkpt>
      <trkpt lat="43.44411" lon="6.46744">
        <ele>46</ele>
        <time>2017-05-13T09:59:42Z</time>
      </trkpt>
      <trkpt lat="43.44417" lon="6.46755">
        <ele>46</ele>
        <time>2017-05-13T09:59:44Z</time>
      </trkpt>
      <trkpt lat="43.44425" lon="6.4677">
        <ele>46</ele>
        <time>2017-05-13T09:59:47Z</time>
      </trkpt>
      <trkpt lat="43.44428" lon="6.46776">
        <ele>46</ele>
        <time>2017-05-13T09:59:48Z</time>
      </trkpt>
      <trkpt lat="43.44433" lon="6.46788">
        <ele>46</ele>
        <time>2017-05-13T09:59:50Z</time>
      </trkpt>
      <trkpt lat="43.44439" lon="6.46799">
        <ele>46</ele>
        <time>2017-05-13T09:59:52Z</time>
      </trkpt>
      <trkpt lat="43.44444" lon="6.46809">
        <ele>46</ele>
        <time>2017-05-13T09:59:54Z</time>
      </trkpt>
      <trkpt lat="43.44453" lon="6.46819">
        <ele>46</ele>
        <time>2017-05-13T09:59:56Z</time>
      </trkpt>
      <trkpt lat="43.4446" lon="6.4683">
        <ele>46</ele>
        <time>2017-05-13T09:59:58Z</time>
      </trkpt>
      <trkpt lat="43.44467" lon="6.4684">
        <ele>46</ele>
        <time>2017-05-13T10:00:00Z</time>
      </trkpt>
      <trkpt lat="43.44472" lon="6.46851">
        <ele>46</ele>
        <time>2017-05-13T10:00:02Z</time>
      </trkpt>
      <trkpt lat="43.44478" lon="6.46861">
        <ele>46</ele>
        <time>2017-05-13T10:00:04Z</time>
      </trkpt>
      <trkpt lat="43.44484" lon="6.46871">
        <ele>46</ele>
        <time>2017-05-13T10:00:06Z</time>
      </trkpt>
      <trkpt lat="43.44489" lon="6.46881">
        <ele>46</ele>
        <time>2017-05-13T10:00:08Z</time>
      </trkpt>
      <trkpt lat="43.44495" lon="6.4689">
        <ele>46</ele>
        <time>2017-05-13T10:00:10Z</time>
      </trkpt>
      <trkpt lat="43.445" lon="6.46899">
        <ele>46</ele>
        <time>2017-05-13T10:00:12Z</time>
      </trkpt>
      <trkpt lat="43.44506" lon="6.46908">
        <ele>46</ele>
        <time>2017-05-13T10:00:14Z</time>
      </trkpt>
      <trkpt lat="43.44512" lon="6.46917">
        <ele>46</ele>
        <time>2017-05-13T10:00:16Z</time>
      </trkpt>
      <trkpt lat="43.44517" lon="6.46926">
        <ele>46</ele>
        <time>2017-05-13T10:00:18Z</time>
      </trkpt>
      <trkpt lat="43.44523" lon="6.46935">
        <ele>46</ele>
        <time>2017-05-13T10:00:20Z</time>
      </trkpt>
      <trkpt lat="43.44528" lon="6.46945">
        <ele>46</ele>
        <time>2017-05-13T10:00:22Z</time>
      </trkpt>
      <trkpt lat="43.44532" lon="6.46954">
        <ele>46</ele>
        <time>2017-05-13T10:00:24Z</time>
      </trkpt>
      <trkpt lat="43.44538" lon="6.46964">
        <ele>45</ele>
        <time>2017-05-13T10:00:26Z</time>
      </trkpt>
      <trkpt lat="43.44543" lon="6.46973">
        <ele>46</ele>
        <time>2017-05-13T10:00:28Z</time>
      </trkpt>
      <trkpt lat="43.44548" lon="6.46982">
        <ele>46</ele>
        <time>2017-05-13T10:00:30Z</time>
      </trkpt>
      <trkpt lat="43.44554" lon="6.46992">
        <ele>46</ele>
        <time>2017-05-13T10:00:32Z</time>
      </trkpt>
      <trkpt lat="43.44559" lon="6.47002">
        <ele>46</ele>
        <time>2017-05-13T10:00:34Z</time>
      </trkpt>
      <trkpt lat="43.44565" lon="6.47011">
        <ele>46</ele>
        <time>2017-05-13T10:00:36Z</time>
      </trkpt>
      <trkpt lat="43.4457" lon="6.4702">
        <ele>46</ele>
        <time>2017-05-13T10:00:38Z</time>
      </trkpt>
      <trkpt lat="43.44575" lon="6.4703">
        <ele>46</ele>
        <time>2017-05-13T10:00:40Z</time>
      </trkpt>
      <trkpt lat="43.4458" lon="6.47039">
        <ele>46</ele>
        <time>2017-05-13T10:00:42Z</time>
      </trkpt>
      <trkpt lat="43.44585" lon="6.47049">
        <ele>45</ele>
        <time>2017-05-13T10:00:44Z</time>
      </trkpt>
      <trkpt lat="43.4459" lon="6.47059">
        <ele>45</ele>
        <time>2017-05-13T10:00:46Z</time>
      </trkpt>
      <trkpt lat="43.44595" lon="6.47068">
        <ele>45</ele>
        <time>2017-05-13T10:00:48Z</time>
      </trkpt>
      <trkpt lat="43.446" lon="6.47078">
        <ele>45</ele>
        <time>2017-05-13T10:00:50Z</time>
      </trkpt>
      <trkpt lat="43.44604" lon="6.47088">
        <ele>45</ele>
        <time>2017-05-13T10:00:52Z</time>
      </trkpt>
      <trkpt lat="43.44609" lon="6.47098">
        <ele>45</ele>
        <time>2017-05-13T10:00:54Z</time>
      </trkpt>
      <trkpt lat="43.44613" lon="6.47108">
        <ele>45</ele>
        <time>2017-05-13T10:00:56Z</time>
      </trkpt>
      <trkpt lat="43.44618" lon="6.47118">
        <ele>44</ele>
        <time>2017-05-13T10:00:58Z</time>
      </trkpt>
      <trkpt lat="43.44622" lon="6.47129">
        <ele>44</ele>
        <time>2017-05-13T10:01:00Z</time>
      </trkpt>
      <trkpt lat="43.44626" lon="6.47139">
        <ele>44</ele>
        <time>2017-05-13T10:01:02Z</time>
      </trkpt>
      <trkpt lat="43.44631" lon="6.4715">
        <ele>44</ele>
        <time>2017-05-13T10:01:04Z</time>
      </trkpt>
      <trkpt lat="43.44635" lon="6.4716">
        <ele>44</ele>
        <time>2017-05-13T10:01:06Z</time>
      </trkpt>
      <trkpt lat="43.44641" lon="6.47171">
        <ele>43</ele>
        <time>2017-05-13T10:01:08Z</time>
      </trkpt>
      <trkpt lat="43.44645" lon="6.47181">
        <ele>43</ele>
        <time>2017-05-13T10:01:10Z</time>
      </trkpt>
      <trkpt lat="43.44649" lon="6.47192">
        <ele>43</ele>
        <time>2017-05-13T10:01:12Z</time>
      </trkpt>
      <trkpt lat="43.44654" lon="6.47203">
        <ele>43</ele>
        <time>2017-05-13T10:01:14Z</time>
      </trkpt>
      <trkpt lat="43.44658" lon="6.47213">
        <ele>43</ele>
        <time>2017-05-13T10:01:16Z</time>
      </trkpt>
      <trkpt lat="43.44662" lon="6.47224">
        <ele>43</ele>
        <time>2017-05-13T10:01:18Z</time>
      </trkpt>
      <trkpt lat="43.44666" lon="6.47234">
        <ele>43</ele>
        <time>2017-05-13T10:01:20Z</time>
      </trkpt>
      <trkpt lat="43.4467" lon="6.47244">
        <ele>43</ele>
        <time>2017-05-13T10:01:22Z</time>
      </trkpt>
      <trkpt lat="43.44674" lon="6.47254">
        <ele>43</ele>
        <time>2017-05-13T10:01:24Z</time>
      </trkpt>
      <trkpt lat="43.44678" lon="6.47263">
        <ele>44</ele>
        <time>2017-05-13T10:01:26Z</time>
      </trkpt>
      <trkpt lat="43.44682" lon="6.47272">
        <ele>44</ele>
        <time>2017-05-13T10:01:28Z</time>
      </trkpt>
      <trkpt lat="43.44686" lon="6.47282">
        <ele>44</ele>
        <time>2017-05-13T10:01:30Z</time>
      </trkpt>
      <trkpt lat="43.44691" lon="6.47291">
        <ele>44</ele>
        <time>2017-05-13T10:01:32Z</time>
      </trkpt>
      <trkpt lat="43.44694" lon="6.47301">
        <ele>44</ele>
        <time>2017-05-13T10:01:34Z</time>
      </trkpt>
      <trkpt lat="43.44698" lon="6.4731">
        <ele>44</ele>
        <time>2017-05-13T10:01:36Z</time>
      </trkpt>
      <trkpt lat="43.44702" lon="6.4732">
        <ele>44</ele>
        <time>2017-05-13T10:01:38Z</time>
      </trkpt>
      <trkpt lat="43.44706" lon="6.4733">
        <ele>44</ele>
        <time>2017-05-13T10:01:40Z</time>
      </trkpt>
      <trkpt lat="43.44709" lon="6.4734">
        <ele>46</ele>
        <time>2017-05-13T10:01:42Z</time>
      </trkpt>
      <trkpt lat="43.44713" lon="6.4735">
        <ele>46</ele>
        <time>2017-05-13T10:01:44Z</time>
      </trkpt>
      <trkpt lat="43.44716" lon="6.47361">
        <ele>46</ele>
        <time>2017-05-13T10:01:46Z</time>
      </trkpt>
      <trkpt lat="43.44719" lon="6.47371">
        <ele>46</ele>
        <time>2017-05-13T10:01:48Z</time>
      </trkpt>
      <trkpt lat="43.44723" lon="6.47381">
        <ele>46</ele>
        <time>2017-05-13T10:01:50Z</time>
      </trkpt>
      <trkpt lat="43.44725" lon="6.47391">
        <ele>46</ele>
        <time>2017-05-13T10:01:52Z</time>
      </trkpt>
      <trkpt lat="43.44728" lon="6.47402">
        <ele>46</ele>
        <time>2017-05-13T10:01:54Z</time>
      </trkpt>
      <trkpt lat="43.4473" lon="6.47413">
        <ele>46</ele>
        <time>2017-05-13T10:01:56Z</time>
      </trkpt>
      <trkpt lat="43.44731" lon="6.47423">
        <ele>46</ele>
        <time>2017-05-13T10:01:58Z</time>
      </trkpt>
      <trkpt lat="43.44733" lon="6.47433">
        <ele>46</ele>
        <time>2017-05-13T10:02:00Z</time>
      </trkpt>
      <trkpt lat="43.44735" lon="6.47443">
        <ele>46</ele>
        <time>2017-05-13T10:02:02Z</time>
      </trkpt>
      <trkpt lat="43.44735" lon="6.47454">
        <ele>46</ele>
        <time>2017-05-13T10:02:04Z</time>
      </trkpt>
      <trkpt lat="43.44735" lon="6.47467">
        <ele>46</ele>
        <time>2017-05-13T10:02:06Z</time>
      </trkpt>
      <trkpt lat="43.44736" lon="6.4748">
        <ele>45</ele>
        <time>2017-05-13T10:02:08Z</time>
      </trkpt>
      <trkpt lat="43.44739" lon="6.47491">
        <ele>45</ele>
        <time>2017-05-13T10:02:10Z</time>
      </trkpt>
      <trkpt lat="43.44746" lon="6.47498">
        <ele>45</ele>
        <time>2017-05-13T10:02:12Z</time>
      </trkpt>
      <trkpt lat="43.44755" lon="6.475">
        <ele>45</ele>
        <time>2017-05-13T10:02:14Z</time>
      </trkpt>
      <trkpt lat="43.44763" lon="6.47495">
        <ele>45</ele>
        <time>2017-05-13T10:02:16Z</time>
      </trkpt>
      <trkpt lat="43.44772" lon="6.4749">
        <ele>46</ele>
        <time>2017-05-13T10:02:18Z</time>
      </trkpt>
      <trkpt lat="43.44781" lon="6.47489">
        <ele>46</ele>
        <time>2017-05-13T10:02:20Z</time>
      </trkpt>
      <trkpt lat="43.44791" lon="6.47495">
        <ele>46</ele>
        <time>2017-05-13T10:02:22Z</time>
      </trkpt>
      <trkpt lat="43.448" lon="6.47502">
        <ele>46</ele>
        <time>2017-05-13T10:02:24Z</time>
      </trkpt>
      <trkpt lat="43.44809" lon="6.4751">
        <ele>46</ele>
        <time>2017-05-13T10:02:26Z</time>
      </trkpt>
      <trkpt lat="43.44817" lon="6.47518">
        <ele>47</ele>
        <time>2017-05-13T10:02:28Z</time>
      </trkpt>
      <trkpt lat="43.44826" lon="6.47526">
        <ele>47</ele>
        <time>2017-05-13T10:02:30Z</time>
      </trkpt>
      <trkpt lat="43.44833" lon="6.47535">
        <ele>47</ele>
        <time>2017-05-13T10:02:32Z</time>
      </trkpt>
      <trkpt lat="43.44841" lon="6.47541">
        <ele>47</ele>
        <time>2017-05-13T10:02:34Z</time>
      </trkpt>
      <trkpt lat="43.44849" lon="6.47543">
        <ele>47</ele>
        <time>2017-05-13T10:02:36Z</time>
      </trkpt>
      <trkpt lat="43.44856" lon="6.47547">
        <ele>47</ele>
        <time>2017-05-13T10:02:38Z</time>
      </trkpt>
      <trkpt lat="43.44862" lon="6.47554">
        <ele>47</ele>
        <time>2017-05-13T10:02:40Z</time>
      </trkpt>
      <trkpt lat="43.4487" lon="6.47557">
        <ele>47</ele>
        <time>2017-05-13T10:02:42Z</time>
      </trkpt>
      <trkpt lat="43.44878" lon="6.47556">
        <ele>47</ele>
        <time>2017-05-13T10:02:44Z</time>
      </trkpt>
      <trkpt lat="43.44884" lon="6.47554">
        <ele>47</ele>
        <time>2017-05-13T10:02:46Z</time>
      </trkpt>
      <trkpt lat="43.44891" lon="6.47556">
        <ele>47</ele>
        <time>2017-05-13T10:02:48Z</time>
      </trkpt>
      <trkpt lat="43.44897" lon="6.47561">
        <ele>47</ele>
        <time>2017-05-13T10:02:50Z</time>
      </trkpt>
      <trkpt lat="43.44902" lon="6.47567">
        <ele>48</ele>
        <time>2017-05-13T10:02:52Z</time>
      </trkpt>
      <trkpt lat="43.44908" lon="6.47572">
        <ele>48</ele>
        <time>2017-05-13T10:02:54Z</time>
      </trkpt>
      <trkpt lat="43.44915" lon="6.47576">
        <ele>48</ele>
        <time>2017-05-13T10:02:56Z</time>
      </trkpt>
      <trkpt lat="43.44921" lon="6.47581">
        <ele>48</ele>
        <time>2017-05-13T10:02:58Z</time>
      </trkpt>
      <trkpt lat="43.44926" lon="6.47587">
        <ele>49</ele>
        <time>2017-05-13T10:03:00Z</time>
      </trkpt>
      <trkpt lat="43.44932" lon="6.47593">
        <ele>49</ele>
        <time>2017-05-13T10:03:02Z</time>
      </trkpt>
      <trkpt lat="43.44936" lon="6.47597">
        <ele>49</ele>
        <time>2017-05-13T10:03:04Z</time>
      </trkpt>
      <trkpt lat="43.44942" lon="6.47601">
        <ele>49</ele>
        <time>2017-05-13T10:03:06Z</time>
      </trkpt>
      <trkpt lat="43.44947" lon="6.47605">
        <ele>49</ele>
        <time>2017-05-13T10:03:08Z</time>
      </trkpt>
      <trkpt lat="43.44952" lon="6.47609">
        <ele>49</ele>
        <time>2017-05-13T10:03:10Z</time>
      </trkpt>
      <trkpt lat="43.44957" lon="6.47613">
        <ele>49</ele>
        <time>2017-05-13T10:03:12Z</time>
      </trkpt>
      <trkpt lat="43.44963" lon="6.47617">
        <ele>50</ele>
        <time>2017-05-13T10:03:14Z</time>
      </trkpt>
      <trkpt lat="43.44968" lon="6.47621">
        <ele>50</ele>
        <time>2017-05-13T10:03:16Z</time>
      </trkpt>
      <trkpt lat="43.44973" lon="6.47626">
        <ele>50</ele>
        <time>2017-05-13T10:03:18Z</time>
      </trkpt>
      <trkpt lat="43.44979" lon="6.4763">
        <ele>50</ele>
        <time>2017-05-13T10:03:20Z</time>
      </trkpt>
      <trkpt lat="43.44984" lon="6.47633">
        <ele>50</ele>
        <time>2017-05-13T10:03:22Z</time>
      </trkpt>
      <trkpt lat="43.4499" lon="6.47635">
        <ele>50</ele>
        <time>2017-05-13T10:03:24Z</time>
      </trkpt>
      <trkpt lat="43.44996" lon="6.47639">
        <ele>50</ele>
        <time>2017-05-13T10:03:26Z</time>
      </trkpt>
      <trkpt lat="43.45002" lon="6.47643">
        <ele>51</ele>
        <time>2017-05-13T10:03:28Z</time>
      </trkpt>
      <trkpt lat="43.45007" lon="6.47647">
        <ele>51</ele>
        <time>2017-05-13T10:03:30Z</time>
      </trkpt>
      <trkpt lat="43.45013" lon="6.47651">
        <ele>51</ele>
        <time>2017-05-13T10:03:32Z</time>
      </trkpt>
      <trkpt lat="43.45019" lon="6.47656">
        <ele>51</ele>
        <time>2017-05-13T10:03:34Z</time>
      </trkpt>
      <trkpt lat="43.45024" lon="6.4766">
        <ele>51</ele>
        <time>2017-05-13T10:03:36Z</time>
      </trkpt>
      <trkpt lat="43.4503" lon="6.47664">
        <ele>51</ele>
        <time>2017-05-13T10:03:38Z</time>
      </trkpt>
      <trkpt lat="43.45035" lon="6.47668">
        <ele>52</ele>
        <time>2017-05-13T10:03:40Z</time>
      </trkpt>
      <trkpt lat="43.45041" lon="6.47672">
        <ele>52</ele>
        <time>2017-05-13T10:03:42Z</time>
      </trkpt>
      <trkpt lat="43.45046" lon="6.47676">
        <ele>52</ele>
        <time>2017-05-13T10:03:44Z</time>
      </trkpt>
      <trkpt lat="43.45051" lon="6.47679">
        <ele>52</ele>
        <time>2017-05-13T10:03:46Z</time>
      </trkpt>
      <trkpt lat="43.45057" lon="6.47683">
        <ele>52</ele>
        <time>2017-05-13T10:03:48Z</time>
      </trkpt>
      <trkpt lat="43.45062" lon="6.47687">
        <ele>52</ele>
        <time>2017-05-13T10:03:50Z</time>
      </trkpt>
      <trkpt lat="43.45066" lon="6.47691">
        <ele>52</ele>
        <time>2017-05-13T10:03:52Z</time>
      </trkpt>
      <trkpt lat="43.45071" lon="6.47694">
        <ele>52</ele>
        <time>2017-05-13T10:03:54Z</time>
      </trkpt>
      <trkpt lat="43.45077" lon="6.47697">
        <ele>52</ele>
        <time>2017-05-13T10:03:56Z</time>
      </trkpt>
      <trkpt lat="43.45082" lon="6.47701">
        <ele>52</ele>
        <time>2017-05-13T10:03:58Z</time>
      </trkpt>
      <trkpt lat="43.45087" lon="6.47704">
        <ele>54</ele>
        <time>2017-05-13T10:04:00Z</time>
      </trkpt>
      <trkpt lat="43.45092" lon="6.47708">
        <ele>54</ele>
        <time>2017-05-13T10:04:02Z</time>
      </trkpt>
      <trkpt lat="43.45095" lon="6.4771">
        <ele>54</ele>
        <time>2017-05-13T10:04:04Z</time>
      </trkpt>
      <trkpt lat="43.45098" lon="6.47713">
        <ele>54</ele>
        <time>2017-05-13T10:04:06Z</time>
      </trkpt>
      <trkpt lat="43.45101" lon="6.47716">
        <ele>54</ele>
        <time>2017-05-13T10:04:08Z</time>
      </trkpt>
      <trkpt lat="43.45104" lon="6.47719">
        <ele>54</ele>
        <time>2017-05-13T10:04:10Z</time>
      </trkpt>
      <trkpt lat="43.45105" lon="6.47721">
        <ele>55</ele>
        <time>2017-05-13T10:04:12Z</time>
      </trkpt>
      <trkpt lat="43.45107" lon="6.47722">
        <ele>55</ele>
        <time>2017-05-13T10:04:14Z</time>
      </trkpt>
      <trkpt lat="43.45109" lon="6.47724">
        <ele>55</ele>
        <time>2017-05-13T10:04:16Z</time>
      </trkpt>
      <trkpt lat="43.45111" lon="6.47724">
        <ele>55</ele>
        <time>2017-05-13T10:04:18Z</time>
      </trkpt>
      <trkpt lat="43.45112" lon="6.47725">
        <ele>55</ele>
        <time>2017-05-13T10:04:20Z</time>
      </trkpt>
      <trkpt lat="43.45116" lon="6.47727">
        <ele>55</ele>
        <time>2017-05-13T10:04:22Z</time>
      </trkpt>
      <trkpt lat="43.4512" lon="6.4773">
        <ele>55</ele>
        <time>2017-05-13T10:04:24Z</time>
      </trkpt>
      <trkpt lat="43.45125" lon="6.47734">
        <ele>55</ele>
        <time>2017-05-13T10:04:26Z</time>
      </trkpt>
      <trkpt lat="43.45129" lon="6.47737">
        <ele>55</ele>
        <time>2017-05-13T10:04:28Z</time>
      </trkpt>
      <trkpt lat="43.45134" lon="6.47741">
        <ele>55</ele>
        <time>2017-05-13T10:04:30Z</time>
      </trkpt>
      <trkpt lat="43.45139" lon="6.47745">
        <ele>56</ele>
        <time>2017-05-13T10:04:32Z</time>
      </trkpt>
      <trkpt lat="43.45144" lon="6.47748">
        <ele>56</ele>
        <time>2017-05-13T10:04:34Z</time>
      </trkpt>
      <trkpt lat="43.45149" lon="6.47751">
        <ele>56</ele>
        <time>2017-05-13T10:04:36Z</time>
      </trkpt>
      <trkpt lat="43.45154" lon="6.47755">
        <ele>56</ele>
        <time>2017-05-13T10:04:38Z</time>
      </trkpt>
      <trkpt lat="43.45159" lon="6.47759">
        <ele>56</ele>
        <time>2017-05-13T10:04:40Z</time>
      </trkpt>
      <trkpt lat="43.45164" lon="6.47763">
        <ele>56</ele>
        <time>2017-05-13T10:04:42Z</time>
      </trkpt>
      <trkpt lat="43.45169" lon="6.47767">
        <ele>57</ele>
        <time>2017-05-13T10:04:44Z</time>
      </trkpt>
      <trkpt lat="43.45174" lon="6.4777">
        <ele>57</ele>
        <time>2017-05-13T10:04:46Z</time>
      </trkpt>
      <trkpt lat="43.45179" lon="6.47774">
        <ele>57</ele>
        <time>2017-05-13T10:04:48Z</time>
      </trkpt>
      <trkpt lat="43.45184" lon="6.47779">
        <ele>57</ele>
        <time>2017-05-13T10:04:50Z</time>
      </trkpt>
      <trkpt lat="43.45188" lon="6.47783">
        <ele>57</ele>
        <time>2017-05-13T10:04:52Z</time>
      </trkpt>
      <trkpt lat="43.45193" lon="6.47787">
        <ele>57</ele>
        <time>2017-05-13T10:04:54Z</time>
      </trkpt>
      <trkpt lat="43.45198" lon="6.4779">
        <ele>58</ele>
        <time>2017-05-13T10:04:56Z</time>
      </trkpt>
      <trkpt lat="43.45204" lon="6.47793">
        <ele>58</ele>
        <time>2017-05-13T10:04:58Z</time>
      </trkpt>
      <trkpt lat="43.45208" lon="6.47796">
        <ele>58</ele>
        <time>2017-05-13T10:05:00Z</time>
      </trkpt>
      <trkpt lat="43.45213" lon="6.47799">
        <ele>58</ele>
        <time>2017-05-13T10:05:02Z</time>
      </trkpt>
      <trkpt lat="43.45218" lon="6.47802">
        <ele>58</ele>
        <time>2017-05-13T10:05:04Z</time>
      </trkpt>
      <trkpt lat="43.45223" lon="6.47805">
        <ele>58</ele>
        <time>2017-05-13T10:05:06Z</time>
      </trkpt>
      <trkpt lat="43.45228" lon="6.47808">
        <ele>58</ele>
        <time>2017-05-13T10:05:08Z</time>
      </trkpt>
      <trkpt lat="43.45232" lon="6.4781">
        <ele>58</ele>
        <time>2017-05-13T10:05:10Z</time>
      </trkpt>
      <trkpt lat="43.45237" lon="6.47814">
        <ele>58</ele>
        <time>2017-05-13T10:05:12Z</time>
      </trkpt>
      <trkpt lat="43.45243" lon="6.47818">
        <ele>58</ele>
        <time>2017-05-13T10:05:14Z</time>
      </trkpt>
      <trkpt lat="43.45248" lon="6.47821">
        <ele>58</ele>
        <time>2017-05-13T10:05:16Z</time>
      </trkpt>
      <trkpt lat="43.45253" lon="6.47824">
        <ele>59</ele>
        <time>2017-05-13T10:05:18Z</time>
      </trkpt>
      <trkpt lat="43.45258" lon="6.47827">
        <ele>59</ele>
        <time>2017-05-13T10:05:20Z</time>
      </trkpt>
      <trkpt lat="43.45263" lon="6.4783">
        <ele>59</ele>
        <time>2017-05-13T10:05:22Z</time>
      </trkpt>
      <trkpt lat="43.45268" lon="6.47834">
        <ele>59</ele>
        <time>2017-05-13T10:05:24Z</time>
      </trkpt>
      <trkpt lat="43.45273" lon="6.47838">
        <ele>59</ele>
        <time>2017-05-13T10:05:26Z</time>
      </trkpt>
      <trkpt lat="43.45278" lon="6.47841">
        <ele>59</ele>
        <time>2017-05-13T10:05:28Z</time>
      </trkpt>
      <trkpt lat="43.45283" lon="6.47845">
        <ele>59</ele>
        <time>2017-05-13T10:05:30Z</time>
      </trkpt>
      <trkpt lat="43.45289" lon="6.47848">
        <ele>59</ele>
        <time>2017-05-13T10:05:32Z</time>
      </trkpt>
      <trkpt lat="43.45294" lon="6.47851">
        <ele>59</ele>
        <time>2017-05-13T10:05:34Z</time>
      </trkpt>
      <trkpt lat="43.45299" lon="6.47855">
        <ele>59</ele>
        <time>2017-05-13T10:05:36Z</time>
      </trkpt>
      <trkpt lat="43.45303" lon="6.47859">
        <ele>60</ele>
        <time>2017-05-13T10:05:38Z</time>
      </trkpt>
      <trkpt lat="43.45307" lon="6.47862">
        <ele>60</ele>
        <time>2017-05-13T10:05:40Z</time>
      </trkpt>
      <trkpt lat="43.45312" lon="6.47866">
        <ele>60</ele>
        <time>2017-05-13T10:05:42Z</time>
      </trkpt>
      <trkpt lat="43.45317" lon="6.47869">
        <ele>60</ele>
        <time>2017-05-13T10:05:44Z</time>
      </trkpt>
      <trkpt lat="43.45322" lon="6.47873">
        <ele>60</ele>
        <time>2017-05-13T10:05:46Z</time>
      </trkpt>
      <trkpt lat="43.45326" lon="6.47876">
        <ele>60</ele>
        <time>2017-05-13T10:05:48Z</time>
      </trkpt>
      <trkpt lat="43.4533" lon="6.4788">
        <ele>60</ele>
        <time>2017-05-13T10:05:50Z</time>
      </trkpt>
      <trkpt lat="43.45335" lon="6.47884">
        <ele>62</ele>
        <time>2017-05-13T10:05:52Z</time>
      </trkpt>
      <trkpt lat="43.4534" lon="6.47888">
        <ele>62</ele>
        <time>2017-05-13T10:05:54Z</time>
      </trkpt>
      <trkpt lat="43.45345" lon="6.47891">
        <ele>62</ele>
        <time>2017-05-13T10:05:56Z</time>
      </trkpt>
      <trkpt lat="43.45349" lon="6.47894">
        <ele>63</ele>
        <time>2017-05-13T10:05:58Z</time>
      </trkpt>
      <trkpt lat="43.45353" lon="6.47897">
        <ele>63</ele>
        <time>2017-05-13T10:06:00Z</time>
      </trkpt>
      <trkpt lat="43.45357" lon="6.47901">
        <ele>63</ele>
        <time>2017-05-13T10:06:02Z</time>
      </trkpt>
      <trkpt lat="43.45361" lon="6.47904">
        <ele>63</ele>
        <time>2017-05-13T10:06:04Z</time>
      </trkpt>
      <trkpt lat="43.45366" lon="6.47907">
        <ele>63</ele>
        <time>2017-05-13T10:06:06Z</time>
      </trkpt>
      <trkpt lat="43.4537" lon="6.4791">
        <ele>63</ele>
        <time>2017-05-13T10:06:08Z</time>
      </trkpt>
      <trkpt lat="43.45374" lon="6.47912">
        <ele>63</ele>
        <time>2017-05-13T10:06:10Z</time>
      </trkpt>
      <trkpt lat="43.45378" lon="6.47914">
        <ele>63</ele>
        <time>2017-05-13T10:06:12Z</time>
      </trkpt>
      <trkpt lat="43.45382" lon="6.47917">
        <ele>63</ele>
        <time>2017-05-13T10:06:14Z</time>
      </trkpt>
      <trkpt lat="43.45386" lon="6.47919">
        <ele>63</ele>
        <time>2017-05-13T10:06:16Z</time>
      </trkpt>
      <trkpt lat="43.4539" lon="6.47923">
        <ele>63</ele>
        <time>2017-05-13T10:06:18Z</time>
      </trkpt>
      <trkpt lat="43.45395" lon="6.47926">
        <ele>64</ele>
        <time>2017-05-13T10:06:20Z</time>
      </trkpt>
      <trkpt lat="43.45399" lon="6.47929">
        <ele>64</ele>
        <time>2017-05-13T10:06:22Z</time>
      </trkpt>
      <trkpt lat="43.45404" lon="6.47931">
        <ele>64</ele>
        <time>2017-05-13T10:06:24Z</time>
      </trkpt>
      <trkpt lat="43.45408" lon="6.47935">
        <ele>64</ele>
        <time>2017-05-13T10:06:26Z</time>
      </trkpt>
      <trkpt lat="43.45412" lon="6.47938">
        <ele>64</ele>
        <time>2017-05-13T10:06:28Z</time>
      </trkpt>
      <trkpt lat="43.45417" lon="6.4794">
        <ele>66</ele>
        <time>2017-05-13T10:06:30Z</time>
      </trkpt>
      <trkpt lat="43.45421" lon="6.47941">
        <ele>66</ele>
        <time>2017-05-13T10:06:32Z</time>
      </trkpt>
      <trkpt lat="43.45425" lon="6.47942">
        <ele>66</ele>
        <time>2017-05-13T10:06:34Z</time>
      </trkpt>
      <trkpt lat="43.45429" lon="6.47944">
        <ele>66</ele>
        <time>2017-05-13T10:06:36Z</time>
      </trkpt>
      <trkpt lat="43.45434" lon="6.47947">
        <ele>66</ele>
        <time>2017-05-13T10:06:38Z</time>
      </trkpt>
      <trkpt lat="43.45438" lon="6.47949">
        <ele>66</ele>
        <time>2017-05-13T10:06:40Z</time>
      </trkpt>
      <trkpt lat="43.45443" lon="6.4795">
        <ele>66</ele>
        <time>2017-05-13T10:06:42Z</time>
      </trkpt>
      <trkpt lat="43.45447" lon="6.47951">
        <ele>66</ele>
        <time>2017-05-13T10:06:44Z</time>
      </trkpt>
      <trkpt lat="43.45451" lon="6.47953">
        <ele>66</ele>
        <time>2017-05-13T10:06:46Z</time>
      </trkpt>
      <trkpt lat="43.45456" lon="6.47955">
        <ele>66</ele>
        <time>2017-05-13T10:06:48Z</time>
      </trkpt>
      <trkpt lat="43.45461" lon="6.47956">
        <ele>66</ele>
        <time>2017-05-13T10:06:50Z</time>
      </trkpt>
      <trkpt lat="43.45465" lon="6.47959">
        <ele>66</ele>
        <time>2017-05-13T10:06:52Z</time>
      </trkpt>
      <trkpt lat="43.45469" lon="6.47961">
        <ele>66</ele>
        <time>2017-05-13T10:06:54Z</time>
      </trkpt>
      <trkpt lat="43.45474" lon="6.47963">
        <ele>66</ele>
        <time>2017-05-13T10:06:56Z</time>
      </trkpt>
      <trkpt lat="43.45477" lon="6.47966">
        <ele>66</ele>
        <time>2017-05-13T10:06:58Z</time>
      </trkpt>
      <trkpt lat="43.45481" lon="6.47968">
        <ele>67</ele>
        <time>2017-05-13T10:07:00Z</time>
      </trkpt>
      <trkpt lat="43.45485" lon="6.47969">
        <ele>67</ele>
        <time>2017-05-13T10:07:02Z</time>
      </trkpt>
      <trkpt lat="43.4549" lon="6.47971">
        <ele>67</ele>
        <time>2017-05-13T10:07:04Z</time>
      </trkpt>
      <trkpt lat="43.45495" lon="6.47973">
        <ele>67</ele>
        <time>2017-05-13T10:07:06Z</time>
      </trkpt>
      <trkpt lat="43.45502" lon="6.47975">
        <ele>68</ele>
        <time>2017-05-13T10:07:08Z</time>
      </trkpt>
      <trkpt lat="43.4551" lon="6.47978">
        <ele>68</ele>
        <time>2017-05-13T10:07:10Z</time>
      </trkpt>
      <trkpt lat="43.45518" lon="6.47982">
        <ele>68</ele>
        <time>2017-05-13T10:07:12Z</time>
      </trkpt>
      <trkpt lat="43.45526" lon="6.47985">
        <ele>68</ele>
        <time>2017-05-13T10:07:14Z</time>
      </trkpt>
      <trkpt lat="43.45535" lon="6.47989">
        <ele>68</ele>
        <time>2017-05-13T10:07:16Z</time>
      </trkpt>
      <trkpt lat="43.45544" lon="6.47991">
        <ele>69</ele>
        <time>2017-05-13T10:07:18Z</time>
      </trkpt>
      <trkpt lat="43.45553" lon="6.47993">
        <ele>69</ele>
        <time>2017-05-13T10:07:20Z</time>
      </trkpt>
      <trkpt lat="43.45562" lon="6.47997">
        <ele>69</ele>
        <time>2017-05-13T10:07:22Z</time>
      </trkpt>
      <trkpt lat="43.4557" lon="6.48001">
        <ele>69</ele>
        <time>2017-05-13T10:07:24Z</time>
      </trkpt>
      <trkpt lat="43.45578" lon="6.48005">
        <ele>69</ele>
        <time>2017-05-13T10:07:26Z</time>
      </trkpt>
      <trkpt lat="43.45585" lon="6.48008">
        <ele>70</ele>
        <time>2017-05-13T10:07:28Z</time>
      </trkpt>
      <trkpt lat="43.45592" lon="6.48011">
        <ele>70</ele>
        <time>2017-05-13T10:07:30Z</time>
      </trkpt>
      <trkpt lat="43.456" lon="6.48014">
        <ele>70</ele>
        <time>2017-05-13T10:07:32Z</time>
      </trkpt>
      <trkpt lat="43.45607" lon="6.48018">
        <ele>71</ele>
        <time>2017-05-13T10:07:34Z</time>
      </trkpt>
      <trkpt lat="43.45614" lon="6.4802">
        <ele>71</ele>
        <time>2017-05-13T10:07:36Z</time>
      </trkpt>
      <trkpt lat="43.4562" lon="6.48023">
        <ele>71</ele>
        <time>2017-05-13T10:07:38Z</time>
      </trkpt>
      <trkpt lat="43.45627" lon="6.48026">
        <ele>71</ele>
        <time>2017-05-13T10:07:40Z</time>
      </trkpt>
      <trkpt lat="43.45634" lon="6.48029">
        <ele>71</ele>
        <time>2017-05-13T10:07:42Z</time>
      </trkpt>
      <trkpt lat="43.45641" lon="6.48031">
        <ele>71</ele>
        <time>2017-05-13T10:07:44Z</time>
      </trkpt>
      <trkpt lat="43.45647" lon="6.48034">
        <ele>71</ele>
        <time>2017-05-13T10:07:46Z</time>
      </trkpt>
      <trkpt lat="43.45653" lon="6.48036">
        <ele>71</ele>
        <time>2017-05-13T10:07:48Z</time>
      </trkpt>
      <trkpt lat="43.4566" lon="6.48038">
        <ele>71</ele>
        <time>2017-05-13T10:07:50Z</time>
      </trkpt>
      <trkpt lat="43.45666" lon="6.4804">
        <ele>71</ele>
        <time>2017-05-13T10:07:52Z</time>
      </trkpt>
      <trkpt lat="43.45673" lon="6.48043">
        <ele>72</ele>
        <time>2017-05-13T10:07:54Z</time>
      </trkpt>
      <trkpt lat="43.45678" lon="6.48046">
        <ele>73</ele>
        <time>2017-05-13T10:07:56Z</time>
      </trkpt>
      <trkpt lat="43.45684" lon="6.48049">
        <ele>73</ele>
        <time>2017-05-13T10:07:58Z</time>
      </trkpt>
      <trkpt lat="43.4569" lon="6.48052">
        <ele>73</ele>
        <time>2017-05-13T10:08:00Z</time>
      </trkpt>
      <trkpt lat="43.45696" lon="6.48055">
        <ele>73</ele>
        <time>2017-05-13T10:08:02Z</time>
      </trkpt>
      <trkpt lat="43.45703" lon="6.48057">
        <ele>73</ele>
        <time>2017-05-13T10:08:04Z</time>
      </trkpt>
      <trkpt lat="43.4571" lon="6.4806">
        <ele>73</ele>
        <time>2017-05-13T10:08:06Z</time>
      </trkpt>
      <trkpt lat="43.45716" lon="6.48061">
        <ele>73</ele>
        <time>2017-05-13T10:08:08Z</time>
      </trkpt>
      <trkpt lat="43.45722" lon="6.48062">
        <ele>73</ele>
        <time>2017-05-13T10:08:10Z</time>
      </trkpt>
      <trkpt lat="43.45728" lon="6.48064">
        <ele>73</ele>
        <time>2017-05-13T10:08:12Z</time>
      </trkpt>
      <trkpt lat="43.45735" lon="6.48065">
        <ele>73</ele>
        <time>2017-05-13T10:08:14Z</time>
      </trkpt>
      <trkpt lat="43.45742" lon="6.48066">
        <ele>73</ele>
        <time>2017-05-13T10:08:16Z</time>
      </trkpt>
      <trkpt lat="43.45749" lon="6.48066">
        <ele>73</ele>
        <time>2017-05-13T10:08:18Z</time>
      </trkpt>
      <trkpt lat="43.45755" lon="6.48067">
        <ele>74</ele>
        <time>2017-05-13T10:08:20Z</time>
      </trkpt>
      <trkpt lat="43.45761" lon="6.48067">
        <ele>74</ele>
        <time>2017-05-13T10:08:22Z</time>
      </trkpt>
      <trkpt lat="43.45767" lon="6.48067">
        <ele>74</ele>
        <time>2017-05-13T10:08:24Z</time>
      </trkpt>
      <trkpt lat="43.45774" lon="6.48067">
        <ele>74</ele>
        <time>2017-05-13T10:08:26Z</time>
      </trkpt>
      <trkpt lat="43.4578" lon="6.48065">
        <ele>74</ele>
        <time>2017-05-13T10:08:28Z</time>
      </trkpt>
      <trkpt lat="43.45786" lon="6.48064">
        <ele>75</ele>
        <time>2017-05-13T10:08:30Z</time>
      </trkpt>
      <trkpt lat="43.45792" lon="6.48064">
        <ele>75</ele>
        <time>2017-05-13T10:08:32Z</time>
      </trkpt>
      <trkpt lat="43.45798" lon="6.48064">
        <ele>75</ele>
        <time>2017-05-13T10:08:34Z</time>
      </trkpt>
      <trkpt lat="43.45803" lon="6.48064">
        <ele>75</ele>
        <time>2017-05-13T10:08:36Z</time>
      </trkpt>
      <trkpt lat="43.45808" lon="6.48064">
        <ele>75</ele>
        <time>2017-05-13T10:08:38Z</time>
      </trkpt>
      <trkpt lat="43.45813" lon="6.48064">
        <ele>75</ele>
        <time>2017-05-13T10:08:40Z</time>
      </trkpt>
      <trkpt lat="43.45819" lon="6.48064">
        <ele>75</ele>
        <time>2017-05-13T10:08:42Z</time>
      </trkpt>
      <trkpt lat="43.45825" lon="6.48064">
        <ele>75</ele>
        <time>2017-05-13T10:08:44Z</time>
      </trkpt>
      <trkpt lat="43.4583" lon="6.48063">
        <ele>75</ele>
        <time>2017-05-13T10:08:46Z</time>
      </trkpt>
      <trkpt lat="43.45834" lon="6.48063">
        <ele>76</ele>
        <time>2017-05-13T10:08:48Z</time>
      </trkpt>
      <trkpt lat="43.45839" lon="6.48062">
        <ele>76</ele>
        <time>2017-05-13T10:08:50Z</time>
      </trkpt>
      <trkpt lat="43.45844" lon="6.48061">
        <ele>76</ele>
        <time>2017-05-13T10:08:52Z</time>
      </trkpt>
      <trkpt lat="43.45849" lon="6.4806">
        <ele>76</ele>
        <time>2017-05-13T10:08:54Z</time>
      </trkpt>
      <trkpt lat="43.45853" lon="6.48059">
        <ele>76</ele>
        <time>2017-05-13T10:08:56Z</time>
      </trkpt>
      <trkpt lat="43.45857" lon="6.48059">
        <ele>76</ele>
        <time>2017-05-13T10:08:58Z</time>
      </trkpt>
      <trkpt lat="43.45863" lon="6.48059">
        <ele>76</ele>
        <time>2017-05-13T10:09:00Z</time>
      </trkpt>
      <trkpt lat="43.4587" lon="6.48059">
        <ele>77</ele>
        <time>2017-05-13T10:09:02Z</time>
      </trkpt>
      <trkpt lat="43.45878" lon="6.48058">
        <ele>77</ele>
        <time>2017-05-13T10:09:04Z</time>
      </trkpt>
      <trkpt lat="43.45883" lon="6.48059">
        <ele>77</ele>
        <time>2017-05-13T10:09:06Z</time>
      </trkpt>
      <trkpt lat="43.45889" lon="6.48059">
        <ele>77</ele>
        <time>2017-05-13T10:09:08Z</time>
      </trkpt>
      <trkpt lat="43.45897" lon="6.48059">
        <ele>77</ele>
        <time>2017-05-13T10:09:10Z</time>
      </trkpt>
      <trkpt lat="43.45903" lon="6.48059">
        <ele>77</ele>
        <time>2017-05-13T10:09:12Z</time>
      </trkpt>
      <trkpt lat="43.4591" lon="6.48058">
        <ele>77</ele>
        <time>2017-05-13T10:09:14Z</time>
      </trkpt>
      <trkpt lat="43.45916" lon="6.48058">
        <ele>77</ele>
        <time>2017-05-13T10:09:16Z</time>
      </trkpt>
      <trkpt lat="43.45922" lon="6.48058">
        <ele>79</ele>
        <time>2017-05-13T10:09:18Z</time>
      </trkpt>
      <trkpt lat="43.45928" lon="6.48058">
        <ele>79</ele>
        <time>2017-05-13T10:09:20Z</time>
      </trkpt>
      <trkpt lat="43.45934" lon="6.48058">
        <ele>79</ele>
        <time>2017-05-13T10:09:22Z</time>
      </trkpt>
      <trkpt lat="43.4594" lon="6.48058">
        <ele>79</ele>
        <time>2017-05-13T10:09:24Z</time>
      </trkpt>
      <trkpt lat="43.45947" lon="6.48057">
        <ele>80</ele>
        <time>2017-05-13T10:09:26Z</time>
      </trkpt>
      <trkpt lat="43.45954" lon="6.48056">
        <ele>80</ele>
        <time>2017-05-13T10:09:28Z</time>
      </trkpt>
      <trkpt lat="43.4596" lon="6.48056">
        <ele>80</ele>
        <time>2017-05-13T10:09:30Z</time>
      </trkpt>
      <trkpt lat="43.45965" lon="6.48059">
        <ele>80</ele>
        <time>2017-05-13T10:09:32Z</time>
      </trkpt>
      <trkpt lat="43.4597" lon="6.48058">
        <ele>80</ele>
        <time>2017-05-13T10:09:34Z</time>
      </trkpt>
      <trkpt lat="43.45977" lon="6.48057">
        <ele>81</ele>
        <time>2017-05-13T10:09:36Z</time>
      </trkpt>
      <trkpt lat="43.45984" lon="6.48056">
        <ele>81</ele>
        <time>2017-05-13T10:09:38Z</time>
      </trkpt>
      <trkpt lat="43.4599" lon="6.48056">
        <ele>81</ele>
        <time>2017-05-13T10:09:40Z</time>
      </trkpt>
      <trkpt lat="43.45996" lon="6.48057">
        <ele>81</ele>
        <time>2017-05-13T10:09:42Z</time>
      </trkpt>
      <trkpt lat="43.46" lon="6.48061">
        <ele>82</ele>
        <time>2017-05-13T10:09:44Z</time>
      </trkpt>
      <trkpt lat="43.46003" lon="6.48066">
        <ele>82</ele>
        <time>2017-05-13T10:09:46Z</time>
      </trkpt>
      <trkpt lat="43.46004" lon="6.48074">
        <ele>82</ele>
        <time>2017-05-13T10:09:48Z</time>
      </trkpt>
      <trkpt lat="43.46004" lon="6.48083">
        <ele>82</ele>
        <time>2017-05-13T10:09:50Z</time>
      </trkpt>
      <trkpt lat="43.46004" lon="6.48092">
        <ele>81</ele>
        <time>2017-05-13T10:09:52Z</time>
      </trkpt>
      <trkpt lat="43.46004" lon="6.48102">
        <ele>80</ele>
        <time>2017-05-13T10:09:54Z</time>
      </trkpt>
      <trkpt lat="43.46003" lon="6.48112">
        <ele>79</ele>
        <time>2017-05-13T10:09:56Z</time>
      </trkpt>
      <trkpt lat="43.46003" lon="6.48121">
        <ele>78</ele>
        <time>2017-05-13T10:09:58Z</time>
      </trkpt>
      <trkpt lat="43.46003" lon="6.4813">
        <ele>78</ele>
        <time>2017-05-13T10:10:00Z</time>
      </trkpt>
      <trkpt lat="43.46006" lon="6.48138">
        <ele>77</ele>
        <time>2017-05-13T10:10:02Z</time>
      </trkpt>
      <trkpt lat="43.46014" lon="6.48138">
        <ele>77</ele>
        <time>2017-05-13T10:10:04Z</time>
      </trkpt>
    </trkseg>
  </trk>
</gpx>